# Wetter Temperatur Luftdruck Luftfeuchtigkeit Sichtweite Windgeschwindigkeit Windrichtung Zeit
1 Clouds 8 1015 98 8584 4.77 244 08:53 02.10.2022
2 Rain 7 1015 99 7653 3.87 234 07:29 02.10.2022
3 Clouds 7 1014 98 10000 4.28 246 02:54 02.10.2022
4 Clouds 7 1013 94 10000 4.99 256 00:45 02.10.2022
5 Clouds 7 1013 94 10000 5.23 258 23:43 01.10.2022
6 Rain 7 1012 93 10000 5.44 262 22:36 01.10.2022
7 Clouds 7 1009 93 10000 5.37 264 20:21 01.10.2022
8 Rain 8 1006 94 10000 5.9 259 17:55 01.10.2022
9 Clouds 10 1005 89 10000 5.29 248 16:31 01.10.2022
10 Clouds 8 1005 97 5092 5.83 233 14:26 01.10.2022
11 Clouds 8 1005 96 4669 6.78 230 13:21 01.10.2022
12 Clouds 7 1005 95 4669 6.78 230 12:30 01.10.2022
13 Clouds 6 1004 96 1854 6.42 213 11:19 01.10.2022
14 Rain 6 1004 96 1854 6.42 213 10:31 01.10.2022
15 Rain 6 1005 95 6309 7.93 202 09:27 01.10.2022
16 Rain 6 1005 94 6309 7.93 202 08:57 01.10.2022
17 Clouds 7 1009 76 10000 3.6 200 04:19 01.10.2022
18 Clouds 6 1010 76 10000 3.32 198 03:29 01.10.2022
19 Clear 6 1011 80 10000 2.63 193 23:59 30.09.2022
20 Clear 5 1011 83 10000 2.42 191 22:36 30.09.2022
21 Clear 6 1011 77 10000 2.25 186 21:28 30.09.2022
22 Clear 6 1011 77 10000 2.25 186 21:28 30.09.2022
23 Clear 7 1011 77 10000 2.25 186 20:44 30.09.2022
24 Clouds 7 1011 75 10000 2.2 184 19:49 30.09.2022
25 Clouds 11 1010 53 10000 2.12 205 17:31 30.09.2022
26 Clouds 12 1010 53 10000 3.66 245 15:56 30.09.2022
27 Clear 11 1011 56 10000 3.31 227 13:30 30.09.2022
28 Clear 9 1011 65 10000 2.37 210 11:57 30.09.2022
29 Clear 7 1011 75 10000 1.9 207 10:30 30.09.2022
30 Clear 3 1011 92 10000 0.99 204 08:26 30.09.2022
31 Clear 2 1010 92 10000 1.12 207 05:54 30.09.2022
32 Clouds 3 1009 88 10000 1.16 203 02:36 30.09.2022
33 Clouds 4 1007 90 10000 1.06 174 22:40 29.09.2022
34 Clouds 4 1006 89 10000 0.65 138 21:28 29.09.2022
35 Clouds 4 1006 87 10000 0.65 138 20:57 29.09.2022
36 Clouds 7 1005 78 10000 0.39 53 18:45 29.09.2022
37 Clouds 9 1003 62 10000 1.35 283 17:24 29.09.2022
38 Clouds 10 1003 59 10000 1.81 268 16:28 29.09.2022
39 Clouds 10 1003 59 10000 1.81 268 15:36 29.09.2022
40 Clouds 9 1003 61 10000 2.09 263 14:31 29.09.2022
41 Clear 6 1002 83 10000 1.5 234 10:29 29.09.2022
42 Clouds 2 1002 96 10000 1.16 204 07:22 29.09.2022
43 Clouds 2 1001 93 10000 1.31 218 02:51 29.09.2022
44 Clouds 4 1001 95 10000 1.44 217 23:56 28.09.2022
45 Clouds 4 1001 95 10000 1.44 217 23:56 28.09.2022
46 Clouds 4 1000 94 10000 1.51 220 22:44 28.09.2022
47 Clouds 4 1000 96 10000 1.45 229 21:29 28.09.2022
48 Clouds 4 999 96 10000 1.19 225 20:25 28.09.2022
49 Clouds 5 999 95 10000 1.06 271 18:42 28.09.2022
50 Clouds 6 997 94 10000 3.38 286 15:32 28.09.2022
51 Clouds 5 996 94 10000 3.6 287 13:27 28.09.2022
52 Clouds 4 995 97 10000 2.21 265 11:18 28.09.2022
53 Clouds 4 995 99 4648 1.16 195 09:18 28.09.2022
54 Clouds 4 995 98 7837 1.06 163 07:39 28.09.2022
55 Rain 4 996 89 10000 2.2 176 04:34 28.09.2022
56 Clouds 4 998 99 10000 2.44 207 01:36 28.09.2022
57 Clouds 5 998 93 10000 3.4 230 23:27 27.09.2022
58 Clouds 5 998 92 10000 3.19 229 21:47 27.09.2022
59 Clouds 5 998 91 10000 2.77 234 20:44 27.09.2022
60 Clouds 6 998 91 10000 3.07 240 19:49 27.09.2022
61 Clouds 6 998 91 10000 3.07 240 19:30 27.09.2022
62 Clouds 6 997 88 10000 4.36 259 17:46 27.09.2022
63 Clouds 7 997 82 10000 5.46 261 15:59 27.09.2022
64 Rain 8 996 78 10000 5.71 260 14:59 27.09.2022
65 Clouds 8 996 86 10000 6.33 262 13:32 27.09.2022
66 Clouds 7 996 89 10000 6.61 267 12:22 27.09.2022
67 Rain 6 995 96 10000 5.11 264 09:49 27.09.2022
68 Rain 6 994 98 7296 4.07 259 07:38 27.09.2022
69 Rain 7 994 93 5351 3.97 211 02:59 27.09.2022
70 Clouds 7 995 92 8348 4.58 206 01:35 27.09.2022
71 Clouds 7 997 88 10000 5.37 211 23:39 26.09.2022
72 Clouds 7 998 86 10000 5.98 216 23:20 26.09.2022
73 Clouds 8 999 76 10000 5.31 221 20:48 26.09.2022
74 Clouds 8 1000 78 10000 4.03 209 19:34 26.09.2022
75 Clouds 8 1000 78 10000 4.68 216 18:38 26.09.2022
76 Rain 8 1001 78 10000 5.84 222 17:24 26.09.2022
77 Clouds 11 1002 59 10000 6.74 227 14:48 26.09.2022
78 Clouds 10 1003 66 10000 6.24 221 12:30 26.09.2022
79 Clouds 8 1005 79 10000 5.33 218 10:41 26.09.2022
80 Clouds 8 1005 77 10000 3.82 210 10:22 26.09.2022
81 Clouds 7 1005 78 10000 3.82 210 09:56 26.09.2022
82 Clouds 7 1006 82 10000 2.87 205 09:26 26.09.2022
83 Clouds 6 1006 82 10000 2.87 205 08:58 26.09.2022
84 Clouds 5 1009 93 10000 2 235 03:48 26.09.2022
85 Clouds 5 1010 92 10000 1.59 224 01:52 26.09.2022
86 Clouds 6 1011 93 10000 1.03 277 23:20 25.09.2022
87 Clouds 8 1012 91 10000 1.03 302 21:44 25.09.2022
88 Clouds 8 1012 89 10000 1.53 317 20:57 25.09.2022
89 Clouds 8 1012 87 10000 1.53 317 20:33 25.09.2022
90 Clouds 10 1011 79 10000 2.4 324 18:44 25.09.2022
91 Clouds 10 1011 78 10000 3.44 313 18:24 25.09.2022
92 Clouds 10 1011 76 10000 3.89 300 17:22 25.09.2022
93 Clouds 10 1011 82 10000 3.69 295 15:50 25.09.2022
94 Clouds 10 1011 83 10000 3.63 293 14:35 25.09.2022
95 Clouds 10 1012 86 10000 3.45 295 13:45 25.09.2022
96 Clouds 8 1013 96 10000 2.09 276 10:38 25.09.2022
97 Clouds 8 1013 95 10000 1.76 277 09:37 25.09.2022
98 Clouds 8 1013 95 10000 1.42 261 06:53 25.09.2022
99 Clouds 7 1013 94 10000 1.5 261 05:19 25.09.2022
100 Clouds 8 1013 94 10000 0.67 245 23:36 24.09.2022
101 Clouds 9 1013 96 10000 0.93 55 21:19 24.09.2022
102 Rain 10 1013 90 10000 1.82 50 19:33 24.09.2022
103 Rain 10 1013 84 10000 1.97 29 18:57 24.09.2022
104 Rain 12 1012 69 10000 1.94 345 16:50 24.09.2022
105 Clouds 13 1012 64 10000 1.54 291 15:23 24.09.2022
106 Clouds 14 1012 61 10000 1.69 269 14:27 24.09.2022
107 Clouds 13 1012 63 10000 1.41 262 13:18 24.09.2022
108 Clouds 13 1013 62 10000 1.04 245 12:22 24.09.2022
109 Clouds 9 1013 78 10000 0.67 225 09:58 24.09.2022
110 Clouds 8 1013 82 10000 0.6 172 08:56 24.09.2022
111 Rain 7 1013 85 10000 0.53 224 07:41 24.09.2022
112 Clouds 7 1013 82 10000 0.78 204 04:52 24.09.2022
113 Clouds 7 1014 81 10000 0.86 212 03:48 24.09.2022
114 Clouds 9 1015 72 10000 1.2 188 22:54 23.09.2022
115 Clouds 9 1015 71 10000 1.42 185 21:33 23.09.2022
116 Clouds 9 1015 67 10000 1.32 170 20:57 23.09.2022
117 Clouds 10 1015 68 10000 1.32 170 20:37 23.09.2022
118 Clouds 10 1015 67 10000 1.26 184 19:19 23.09.2022
119 Clouds 14 1016 46 10000 2.34 218 16:23 23.09.2022
120 Clouds 13 1017 51 10000 2.82 220 12:52 23.09.2022
121 Clouds 8 1019 67 10000 1.68 186 09:36 23.09.2022
122 Clouds 3 1019 87 10000 1.34 168 06:51 23.09.2022
123 Clouds 5 1022 84 10000 1.76 145 01:21 23.09.2022
124 Clouds 7 1022 71 10000 1.64 142 23:29 22.09.2022
125 Clouds 7 1022 72 10000 1.53 136 22:27 22.09.2022
126 Clouds 6 1023 81 10000 1.55 134 21:24 22.09.2022
127 Clouds 7 1022 83 10000 1.47 128 20:18 22.09.2022
128 Clouds 10 1022 72 10000 1.44 124 18:44 22.09.2022
129 Clouds 13 1023 57 10000 1.06 140 14:49 22.09.2022
130 Clouds 9 1024 75 10000 1 121 10:39 22.09.2022
131 Clouds 9 1024 77 10000 0.59 117 10:19 22.09.2022
132 Clouds 4 1025 95 10000 0.38 206 07:50 22.09.2022
133 Clouds 4 1025 94 10000 0.27 203 04:38 22.09.2022
134 Clouds 5 1026 92 10000 0.31 148 00:25 22.09.2022
135 Clouds 5 1026 90 10000 0.65 83 22:29 21.09.2022
136 Clouds 6 1026 89 10000 0.8 46 21:18 21.09.2022
137 Clouds 11 1025 66 10000 0.92 353 18:34 21.09.2022
138 Clouds 11 1025 62 10000 0.94 345 17:41 21.09.2022
139 Clouds 12 1026 67 10000 1.12 343 15:35 21.09.2022
140 Clouds 11 1026 66 10000 1.13 340 13:41 21.09.2022
141 Clouds 9 1026 75 10000 1.05 327 11:42 21.09.2022
142 Clouds 8 1026 84 10000 0.87 322 10:54 21.09.2022
143 Clouds 6 1027 96 10000 0.86 306 09:39 21.09.2022
144 Clouds 6 1027 96 10000 0.86 306 09:39 21.09.2022
145 Clear 3 1027 97 10000 0.54 312 08:31 21.09.2022
146 Clear 2 1026 98 10000 0.58 289 03:51 21.09.2022
147 Clear 3 1026 98 10000 0.57 293 02:38 21.09.2022
148 Clear 3 1026 98 10000 0.61 292 01:52 21.09.2022
149 Clear 3 1025 98 10000 0.55 319 00:19 21.09.2022
150 Clear 4 1025 98 10000 0.57 326 21:52 20.09.2022
151 Clear 5 1024 97 10000 0.78 303 20:32 20.09.2022
152 Clouds 8 1022 93 10000 1.55 310 18:41 20.09.2022
153 Rain 9 1021 86 10000 3.05 317 15:37 20.09.2022
154 Clouds 9 1021 79 10000 2.82 304 14:18 20.09.2022
155 Clouds 7 1021 96 10000 2.26 306 11:29 20.09.2022
156 Clouds 6 1020 97 10000 2.37 293 08:44 20.09.2022
157 Clouds 6 1020 97 7513 2.22 285 08:23 20.09.2022
158 Clouds 5 1019 100 9431 2.31 272 04:37 20.09.2022
159 Clouds 5 1019 100 10000 2.53 281 01:42 20.09.2022
160 Clouds 6 1019 95 10000 3.5 298 22:44 19.09.2022
161 Clouds 6 1018 94 10000 4.28 297 21:28 19.09.2022
162 Rain 6 1018 95 10000 4.28 297 20:40 19.09.2022
163 Clouds 6 1016 96 8527 4.01 294 18:49 19.09.2022
164 Rain 7 1016 94 10000 4.33 284 17:20 19.09.2022
165 Clouds 11 1016 67 10000 3.92 286 13:49 19.09.2022
166 Clouds 10 1015 80 10000 4.14 292 12:26 19.09.2022
167 Clouds 7 1015 95 6870 3.4 285 10:19 19.09.2022
168 Clouds 6 1015 99 7525 3.42 285 08:41 19.09.2022
169 Clouds 6 1012 97 6925 4.64 302 04:26 19.09.2022
170 Clouds 5 1010 99 5764 4.88 295 00:52 19.09.2022
171 Rain 5 1009 99 4941 5.96 291 22:42 18.09.2022
172 Clouds 5 1009 95 10000 4.47 279 21:26 18.09.2022
173 Clouds 4 1009 98 10000 5.74 285 19:56 18.09.2022
174 Rain 5 1009 89 10000 5.69 284 17:53 18.09.2022
175 Clouds 7 1009 85 10000 5.52 275 16:56 18.09.2022
176 Rain 6 1010 88 10000 3.7 246 14:52 18.09.2022
177 Rain 7 1011 89 8402 5.62 273 13:41 18.09.2022
178 Rain 7 1010 86 10000 6.96 278 12:28 18.09.2022
179 Clouds 7 1011 84 10000 5.94 280 10:28 18.09.2022
180 Clouds 5 1011 92 10000 4.93 286 03:35 18.09.2022
181 Rain 5 1010 96 10000 6.03 295 01:22 18.09.2022
182 Clouds 5 1010 94 10000 7.11 297 23:36 17.09.2022
183 Rain 5 1009 95 10000 6.89 291 21:35 17.09.2022
184 Rain 6 1008 92 10000 6.89 292 19:40 17.09.2022
185 Rain 6 1008 92 10000 6.89 292 19:40 17.09.2022
186 Rain 6 1008 92 10000 6.95 289 18:43 17.09.2022
187 Clouds 10 1008 53 10000 7.13 281 14:54 17.09.2022
188 Clouds 11 1009 59 10000 6.96 287 13:38 17.09.2022
189 Clouds 8 1009 84 10000 6.2 296 10:56 17.09.2022
190 Rain 7 1009 95 10000 5.41 294 08:33 17.09.2022
191 Clouds 7 1008 98 10000 4.76 294 06:21 17.09.2022
192 Clouds 7 1007 87 4153 5.44 269 23:56 16.09.2022
193 Rain 7 1007 82 7588 5.63 259 22:51 16.09.2022
194 Clouds 7 1006 78 10000 7.1 267 20:54 16.09.2022
195 Clouds 8 1006 83 10000 6.93 271 19:50 16.09.2022
196 Rain 11 1006 63 10000 6.48 273 16:26 16.09.2022
197 Clouds 12 1006 53 10000 6.32 276 14:53 16.09.2022
198 Clouds 12 1007 55 10000 6.39 283 13:42 16.09.2022
199 Clouds 9 1008 78 10000 6.17 280 10:46 16.09.2022
200 Clouds 7 1008 93 7014 3.83 258 08:19 16.09.2022
201 Clouds 7 1008 96 10000 3.75 260 06:48 16.09.2022
202 Clouds 7 1008 96 10000 3.95 261 05:58 16.09.2022
203 Clouds 7 1008 96 10000 3.07 259 02:37 16.09.2022
204 Clouds 8 1008 93 10000 3.52 280 22:20 15.09.2022
205 Clouds 8 1008 93 10000 3.52 280 22:20 15.09.2022
206 Clouds 9 1007 91 10000 4.2 278 20:39 15.09.2022
207 Rain 10 1007 90 10000 4.49 273 19:45 15.09.2022
208 Clouds 12 1005 72 10000 4.79 285 18:29 15.09.2022
209 Clouds 12 1005 67 10000 4.79 285 17:31 15.09.2022
210 Clouds 13 1006 66 10000 4.98 280 15:50 15.09.2022
211 Clouds 11 1006 79 10000 4.77 282 13:19 15.09.2022
212 Clouds 10 1006 92 10000 4.07 280 11:48 15.09.2022
213 Clouds 9 1006 94 10000 2.8 270 09:46 15.09.2022
214 Clouds 8 1006 99 10000 2.46 267 07:45 15.09.2022
215 Clouds 7 1005 99 10000 1.72 262 03:49 15.09.2022
216 Clouds 9 1005 98 10000 1.45 240 23:32 14.09.2022
217 Rain 10 1004 99 10000 0.92 257 20:48 14.09.2022
218 Rain 10 1004 98 10000 0.83 239 19:33 14.09.2022
219 Rain 11 1004 98 10000 0.3 228 18:26 14.09.2022
220 Rain 12 1005 94 10000 0.89 259 16:40 14.09.2022
221 Rain 12 1005 90 10000 1.25 290 15:29 14.09.2022
222 Rain 13 1006 80 10000 0.65 322 13:35 14.09.2022
223 Clouds 12 1006 80 10000 0.82 266 10:47 14.09.2022
224 Clouds 11 1007 82 10000 0.8 253 09:27 14.09.2022
225 Clouds 10 1007 91 10000 0.05 230 06:51 14.09.2022
226 Clouds 10 1007 89 10000 0.05 230 06:33 14.09.2022
227 Clouds 10 1008 90 10000 0.4 307 03:54 14.09.2022
228 Clouds 11 1008 93 10000 1.08 259 01:41 14.09.2022
229 Clouds 11 1008 93 10000 1.16 282 01:19 14.09.2022
230 Clouds 12 1009 91 10000 1.01 291 23:55 13.09.2022
231 Clouds 12 1009 93 10000 1.01 291 23:37 13.09.2022
232 Clouds 12 1009 94 10000 1.39 292 23:19 13.09.2022
233 Clouds 12 1009 94 10000 1.39 292 22:43 13.09.2022
234 Clouds 12 1009 94 10000 1.39 292 22:43 13.09.2022
235 Clouds 13 1009 93 10000 2.17 290 21:42 13.09.2022
236 Clouds 16 1009 85 10000 1.66 301 19:32 13.09.2022
237 Clouds 18 1008 72 10000 2.3 303 16:45 13.09.2022
238 Clouds 17 1009 72 10000 2.95 312 15:53 13.09.2022
239 Clouds 18 1009 63 10000 4.1 275 13:54 13.09.2022
240 Clouds 18 1009 62 10000 3.83 255 12:28 13.09.2022
241 Clouds 13 1010 79 10000 1.87 233 08:32 13.09.2022
242 Clouds 10 1011 88 10000 1.9 213 04:32 13.09.2022
243 Clouds 12 1013 72 10000 2.06 165 23:32 12.09.2022
244 Clouds 12 1014 72 10000 2.03 163 22:49 12.09.2022
245 Clouds 12 1014 75 10000 1.82 159 21:36 12.09.2022
246 Clouds 13 1014 72 10000 1.22 134 20:25 12.09.2022
247 Clouds 17 1014 55 10000 1.08 121 18:42 12.09.2022
248 Clouds 18 1015 54 10000 1.08 215 16:21 12.09.2022
249 Clouds 17 1016 59 10000 1.04 217 13:41 12.09.2022
250 Clouds 15 1017 71 10000 0.95 214 11:22 12.09.2022
251 Clouds 13 1017 87 10000 1.11 211 09:35 12.09.2022
252 Clouds 8 1018 95 10000 0.2 202 04:46 12.09.2022
253 Clouds 8 1018 96 10000 0.41 252 03:33 12.09.2022
254 Clouds 9 1019 94 10000 0.93 283 23:22 11.09.2022
255 Clouds 10 1019 94 10000 0.83 287 21:58 11.09.2022
256 Clouds 11 1019 93 10000 0.63 312 20:46 11.09.2022
257 Clouds 12 1018 87 10000 1.28 345 19:52 11.09.2022
258 Clouds 13 1018 80 10000 1.62 342 19:22 11.09.2022
259 Clouds 14 1018 76 10000 2.45 331 18:20 11.09.2022
260 Clouds 15 1018 76 10000 2.84 322 16:34 11.09.2022
261 Clouds 14 1018 58 10000 2.87 325 14:19 11.09.2022
262 Clouds 13 1018 94 10000 2.83 328 12:33 11.09.2022
263 Clouds 11 1017 98 10000 2.04 313 08:48 11.09.2022
264 Clouds 10 1016 98 10000 1.73 292 06:56 11.09.2022
265 Clouds 10 1014 98 10000 0.91 277 00:50 11.09.2022
266 Clouds 11 1014 98 10000 0.68 251 22:55 10.09.2022
267 Clouds 11 1013 96 10000 1.41 240 20:59 10.09.2022
268 Clouds 12 1013 90 9559 1.58 242 19:47 10.09.2022
269 Clouds 13 1012 88 10000 1.58 239 19:28 10.09.2022
270 Clouds 13 1012 85 10000 1.58 239 18:51 10.09.2022
271 Rain 14 1012 85 10000 3.23 245 15:49 10.09.2022
272 Clouds 15 1012 73 10000 4.04 237 14:42 10.09.2022
273 Clouds 13 1012 94 10000 3.65 227 12:52 10.09.2022
274 Clouds 14 1012 73 10000 3.35 221 10:58 10.09.2022
275 Clouds 13 1012 78 10000 2.59 214 09:37 10.09.2022
276 Clouds 11 1012 87 10000 1.88 208 08:36 10.09.2022
277 Clouds 10 1012 90 10000 1.94 207 06:43 10.09.2022
278 Clouds 11 1012 93 10000 2.22 204 00:40 10.09.2022
279 Clouds 11 1012 92 10000 2.29 202 23:32 09.09.2022
280 Clouds 11 1012 89 10000 2.34 201 22:18 09.09.2022
281 Clouds 13 1012 71 10000 2.41 203 20:46 09.09.2022
282 Clouds 16 1010 58 10000 2.64 210 19:24 09.09.2022
283 Clouds 16 1010 54 10000 2.64 210 18:47 09.09.2022
284 Clouds 18 1010 54 10000 4.64 215 16:23 09.09.2022
285 Clouds 17 1011 62 10000 5.17 219 13:49 09.09.2022
286 Clouds 15 1011 76 10000 4.66 217 12:30 09.09.2022
287 Clouds 13 1011 87 10000 3.54 214 09:55 09.09.2022
288 Clouds 10 1010 94 10000 1.78 180 05:19 09.09.2022
289 Clouds 10 1011 94 10000 1.99 187 03:20 09.09.2022
290 Clear 11 1010 95 10000 2.04 214 21:53 08.09.2022
291 Clear 12 1010 96 10000 1.48 227 20:56 08.09.2022
292 Rain 12 1010 95 10000 1.48 227 20:31 08.09.2022
293 Clouds 12 1009 95 10000 2.33 254 19:56 08.09.2022
294 Clouds 14 1009 92 10000 4.05 259 18:22 08.09.2022
295 Rain 13 1009 97 10000 3.59 269 16:19 08.09.2022
296 Rain 13 1009 99 6532 3.92 260 14:40 08.09.2022
297 Rain 13 1008 98 2252 2.01 218 13:27 08.09.2022
298 Rain 13 1008 98 2246 1.74 191 11:57 08.09.2022
299 Rain 14 1008 93 5932 1.3 209 10:57 08.09.2022
300 Rain 14 1008 78 10000 1.88 174 08:51 08.09.2022
301 Rain 12 1009 95 10000 1.21 108 06:42 08.09.2022
302 Clouds 12 1011 94 10000 0.5 108 02:37 08.09.2022
303 Clouds 13 1012 94 10000 0.75 121 02:18 08.09.2022
304 Clouds 13 1012 94 10000 0.58 98 00:56 08.09.2022
305 Clouds 15 1012 89 10000 0.65 57 22:44 07.09.2022
306 Clouds 16 1012 85 10000 0.76 34 21:42 07.09.2022
307 Clouds 16 1012 83 10000 1.13 339 20:49 07.09.2022
308 Clouds 16 1012 93 10000 1.13 326 19:40 07.09.2022
309 Clouds 21 1012 62 9502 1.7 260 17:49 07.09.2022
310 Clouds 23 1013 49 10000 1.88 259 14:26 07.09.2022
311 Clouds 17 1014 88 10000 1.42 173 10:48 07.09.2022
312 Clouds 15 1013 80 10000 1.65 101 09:19 07.09.2022
313 Clouds 14 1015 86 10000 1.16 253 07:23 07.09.2022
314 Clouds 13 1015 91 10000 1.63 138 03:19 07.09.2022
315 Clouds 15 1016 88 10000 2.07 107 22:59 06.09.2022
316 Clouds 16 1016 82 10000 2.56 94 21:41 06.09.2022
317 Clouds 16 1016 72 10000 2.59 99 20:45 06.09.2022
318 Clouds 21 1015 59 10000 1.89 103 18:45 06.09.2022
319 Clouds 21 1015 57 10000 2.82 103 18:22 06.09.2022
320 Clouds 21 1016 53 10000 2.03 112 17:22 06.09.2022
321 Clouds 21 1016 53 10000 2.03 112 16:37 06.09.2022
322 Clouds 22 1016 47 10000 3.17 129 15:22 06.09.2022
323 Clouds 21 1018 54 10000 2.95 128 13:45 06.09.2022
324 Clouds 21 1018 54 10000 2.95 128 13:45 06.09.2022
325 Clouds 20 1018 58 10000 3.02 119 13:24 06.09.2022
326 Clouds 18 1018 65 10000 2.59 116 11:57 06.09.2022
327 Clouds 15 1019 75 10000 1.89 119 10:41 06.09.2022
328 Clouds 12 1019 93 10000 2.23 115 08:50 06.09.2022
329 Clouds 11 1019 96 10000 1.92 113 07:45 06.09.2022
330 Clouds 13 1020 95 10000 2.2 105 02:44 06.09.2022
331 Clouds 15 1020 92 10000 3 100 23:23 05.09.2022
332 Clouds 14 1021 88 10000 3.3 100 22:21 05.09.2022
333 Clouds 15 1021 93 10000 3.41 83 20:35 05.09.2022
334 Clouds 18 1021 77 10000 2.53 90 19:20 05.09.2022
335 Clouds 19 1021 72 10000 2.53 90 18:45 05.09.2022
336 Clouds 21 1021 65 10000 1.68 116 18:21 05.09.2022
337 Clouds 21 1021 61 10000 1.86 136 16:37 05.09.2022
338 Clouds 23 1021 47 10000 2.42 139 15:47 05.09.2022
339 Clouds 21 1022 53 10000 2.96 139 13:26 05.09.2022
340 Clouds 22 1022 48 10000 2.84 132 12:28 05.09.2022
341 Clouds 16 1023 66 10000 2.4 112 10:18 05.09.2022
342 Clouds 13 1022 77 10000 2.08 105 06:42 05.09.2022
343 Clouds 14 1023 69 10000 1.97 104 02:19 05.09.2022
344 Clouds 16 1022 66 10000 2.32 104 23:26 04.09.2022
345 Clouds 16 1022 64 10000 2.03 110 22:27 04.09.2022
346 Clouds 17 1022 62 10000 2.03 110 21:31 04.09.2022
347 Clouds 19 1021 50 10000 1.49 112 19:38 04.09.2022
348 Clouds 21 1020 48 10000 1.34 107 18:20 04.09.2022
349 Clouds 22 1020 45 10000 1.32 91 16:56 04.09.2022
350 Clouds 22 1019 43 10000 1.25 112 14:33 04.09.2022
351 Clouds 22 1019 43 10000 1.76 117 13:49 04.09.2022
352 Clouds 20 1019 52 10000 1.72 117 12:18 04.09.2022
353 Clouds 16 1019 59 10000 1.59 113 10:47 04.09.2022
354 Clouds 11 1019 77 10000 1.34 109 08:20 04.09.2022
355 Clouds 9 1018 78 10000 1.69 95 05:35 04.09.2022
356 Clouds 12 1017 60 10000 1.96 91 00:53 04.09.2022
357 Clouds 14 1016 53 10000 2.22 88 22:24 03.09.2022
358 Clouds 15 1016 55 10000 2.17 85 21:23 03.09.2022
359 Clear 16 1015 52 10000 2.54 83 19:56 03.09.2022
360 Clear 19 1014 37 10000 3.69 111 17:29 03.09.2022
361 Clear 19 1014 36 10000 3.69 111 16:33 03.09.2022
362 Clear 20 1015 36 10000 3.91 115 14:46 03.09.2022
363 Clouds 19 1015 36 10000 4.23 116 14:26 03.09.2022
364 Clouds 19 1015 38 10000 4.57 116 13:21 03.09.2022
365 Clouds 15 1016 52 10000 5.02 114 10:55 03.09.2022
366 Clouds 10 1016 72 10000 3.62 116 08:41 03.09.2022
367 Clear 7 1017 77 10000 2.37 110 06:58 03.09.2022
368 Clear 8 1017 71 10000 2.66 114 04:40 03.09.2022
369 Clear 11 1018 57 10000 2.87 107 00:41 03.09.2022
370 Clear 13 1018 54 10000 3.03 109 23:20 02.09.2022
371 Clear 13 1017 58 10000 2.77 99 21:19 02.09.2022
372 Clear 14 1017 43 10000 2.82 99 20:39 02.09.2022
373 Clouds 17 1017 41 10000 2.37 85 19:30 02.09.2022
374 Clouds 17 1017 36 10000 2.9 101 18:43 02.09.2022
375 Clouds 17 1017 37 10000 4.04 113 18:24 02.09.2022
376 Clouds 17 1017 37 10000 4.04 113 18:24 02.09.2022
377 Clouds 18 1017 38 10000 4.03 114 16:50 02.09.2022
378 Clouds 19 1017 37 10000 4.07 111 15:40 02.09.2022
379 Clouds 17 1019 45 10000 4.1 114 12:49 02.09.2022
380 Clear 14 1020 60 10000 3.49 107 10:25 02.09.2022
381 Clear 14 1020 60 10000 3.49 107 10:25 02.09.2022
382 Clear 13 1020 61 10000 3.49 107 09:41 02.09.2022
383 Clear 10 1020 76 10000 2.68 106 08:35 02.09.2022
384 Clear 8 1020 82 10000 2.11 100 06:42 02.09.2022
385 Clear 8 1021 79 10000 2.05 107 03:53 02.09.2022
386 Clear 10 1022 61 10000 2.11 83 22:54 01.09.2022
387 Clear 12 1022 67 10000 2.72 79 21:45 01.09.2022
388 Clear 12 1022 60 10000 2.47 74 21:26 01.09.2022
389 Clear 12 1022 54 10000 2.18 72 20:48 01.09.2022
390 Clear 16 1021 41 10000 2.64 77 19:23 01.09.2022
391 Clear 18 1021 38 10000 3.47 77 17:49 01.09.2022
392 Clear 18 1021 37 10000 3.54 73 16:41 01.09.2022
393 Clouds 18 1022 40 10000 3.13 78 14:34 01.09.2022
394 Clouds 17 1022 47 10000 3.69 74 12:59 01.09.2022
395 Clouds 17 1022 52 10000 3.83 76 11:57 01.09.2022
396 Clouds 17 1022 51 10000 3.83 76 11:38 01.09.2022
397 Clouds 16 1023 55 10000 3.87 77 11:18 01.09.2022
398 Clouds 11 1023 78 10000 2.71 68 08:53 01.09.2022
399 Clouds 6 1023 89 10000 1.83 63 06:28 01.09.2022
400 Clouds 9 1024 75 10000 1.72 64 01:45 01.09.2022
401 Clouds 10 1024 71 10000 1.66 66 00:33 01.09.2022
402 Clouds 11 1023 64 10000 1.98 69 22:21 31.08.2022
403 Clouds 15 1022 52 10000 2.08 70 20:22 31.08.2022
404 Clouds 18 1022 43 10000 2.84 65 18:19 31.08.2022
405 Clouds 18 1022 48 10000 2.94 73 16:32 31.08.2022
406 Clouds 18 1022 53 10000 3.23 65 14:58 31.08.2022
407 Clouds 16 1023 62 10000 2.95 69 12:30 31.08.2022
408 Clouds 15 1023 66 10000 3.04 72 11:38 31.08.2022
409 Clouds 12 1023 79 10000 2.55 63 09:25 31.08.2022
410 Clouds 11 1022 90 10000 2.13 63 06:35 31.08.2022
411 Clouds 13 1022 85 10000 2.28 59 01:25 31.08.2022
412 Clouds 13 1021 75 10000 2.81 65 21:49 30.08.2022
413 Clouds 13 1022 74 10000 2.5 64 21:21 30.08.2022
414 Clouds 18 1020 57 10000 1.71 50 18:53 30.08.2022
415 Clouds 18 1020 59 10000 0.36 129 16:35 30.08.2022
416 Clouds 16 1021 76 10000 1.9 68 13:30 30.08.2022
417 Clouds 15 1022 85 10000 1.41 53 11:22 30.08.2022
418 Clouds 15 1022 77 10000 1.41 53 10:57 30.08.2022
419 Clouds 12 1022 94 10000 0.93 45 08:49 30.08.2022
420 Clouds 9 1021 92 10000 0.99 87 03:55 30.08.2022
421 Clouds 11 1021 87 10000 1.38 50 00:26 30.08.2022
422 Clouds 13 1021 80 10000 0.89 50 22:34 29.08.2022
423 Clouds 14 1021 77 10000 0.63 57 21:48 29.08.2022
424 Clouds 15 1021 72 10000 0.71 40 20:34 29.08.2022
425 Clouds 18 1019 59 10000 2.16 8 18:55 29.08.2022
426 Clouds 19 1020 57 10000 2.54 350 17:26 29.08.2022
427 Clouds 18 1020 59 10000 2.54 350 16:56 29.08.2022
428 Clouds 18 1020 61 10000 1.65 329 15:18 29.08.2022
429 Clouds 17 1020 66 10000 1.4 323 13:40 29.08.2022
430 Clouds 15 1020 70 10000 1.34 331 11:44 29.08.2022
431 Clouds 13 1021 75 10000 1.22 316 10:42 29.08.2022
432 Clouds 10 1021 86 10000 1.49 276 08:40 29.08.2022
433 Clouds 6 1021 89 10000 1.17 258 06:26 29.08.2022
434 Clear 8 1021 86 10000 1.35 287 01:58 29.08.2022
435 Clear 10 1020 76 10000 1.33 329 22:55 28.08.2022
436 Clear 12 1020 69 10000 1.43 331 21:46 28.08.2022
437 Clear 13 1019 63 10000 1.82 331 20:59 28.08.2022
438 Clear 15 1018 55 10000 2.28 326 19:59 28.08.2022
439 Clear 17 1017 49 10000 4.14 314 18:22 28.08.2022
440 Clear 18 1017 50 10000 4.14 314 17:50 28.08.2022
441 Clear 18 1017 52 10000 4.14 311 16:42 28.08.2022
442 Clear 18 1017 55 10000 3.8 321 14:46 28.08.2022
443 Clear 18 1017 55 10000 3.8 321 14:46 28.08.2022
444 Clouds 16 1018 62 10000 3.7 319 12:57 28.08.2022
445 Clouds 14 1018 71 10000 3.18 319 11:24 28.08.2022
446 Clouds 13 1018 73 10000 2.87 317 10:20 28.08.2022
447 Clouds 12 1018 85 10000 2.07 310 08:49 28.08.2022
448 Clouds 11 1018 88 10000 2.08 306 07:51 28.08.2022
449 Clouds 10 1017 88 10000 1.79 302 07:23 28.08.2022
450 Clouds 12 1017 88 10000 1.62 318 00:36 28.08.2022
451 Clouds 14 1016 88 10000 2.38 317 22:58 27.08.2022
452 Clouds 14 1016 88 10000 1.53 288 22:24 27.08.2022
453 Clouds 15 1016 88 10000 1.24 288 20:35 27.08.2022
454 Clouds 15 1015 90 10000 2.15 314 18:57 27.08.2022
455 Clouds 16 1015 93 10000 2.87 309 16:26 27.08.2022
456 Clouds 15 1015 94 10000 2.87 309 15:31 27.08.2022
457 Clouds 14 1015 96 5563 2.29 297 13:18 27.08.2022
458 Clouds 14 1015 96 5162 2.28 303 11:58 27.08.2022
459 Clouds 14 1014 97 7023 2.62 313 10:27 27.08.2022
460 Clouds 14 1014 96 7023 2.62 313 09:31 27.08.2022
461 Rain 14 1013 96 1760 2.7 314 05:59 27.08.2022
462 Clouds 16 1013 95 3999 2.29 303 00:52 27.08.2022
463 Rain 16 1013 94 10000 2.32 307 23:36 26.08.2022
464 Rain 16 1013 92 10000 1.07 332 21:46 26.08.2022
465 Rain 18 1012 86 10000 2.14 314 19:50 26.08.2022
466 Clouds 19 1012 81 10000 1.79 325 17:53 26.08.2022
467 Clouds 25 1013 49 10000 0.34 177 15:45 26.08.2022
468 Clouds 25 1013 51 10000 1.4 30 15:24 26.08.2022
469 Rain 24 1013 56 10000 1.09 24 12:59 26.08.2022
470 Clouds 24 1013 64 10000 0.78 50 11:47 26.08.2022
471 Clouds 22 1014 72 10000 0.91 70 11:21 26.08.2022
472 Rain 18 1014 81 10000 0.86 95 08:21 26.08.2022
473 Clouds 18 1015 82 10000 1.01 116 03:51 26.08.2022
474 Clouds 19 1016 72 10000 1.8 105 23:47 25.08.2022
475 Clouds 19 1016 69 10000 1.87 106 22:39 25.08.2022
476 Clouds 20 1016 84 10000 1.98 101 20:54 25.08.2022
477 Clouds 20 1016 84 10000 1.98 101 20:54 25.08.2022
478 Clouds 23 1015 51 10000 2.76 89 19:35 25.08.2022
479 Clouds 24 1016 50 10000 2.62 95 18:29 25.08.2022
480 Clouds 24 1016 50 10000 2.62 95 17:31 25.08.2022
481 Clouds 24 1016 49 10000 2.87 97 16:40 25.08.2022
482 Clouds 25 1017 50 10000 3.26 107 15:29 25.08.2022
483 Clouds 24 1017 55 10000 3.12 103 13:51 25.08.2022
484 Clouds 22 1018 65 10000 3.43 104 11:21 25.08.2022
485 Clouds 21 1018 67 10000 3.43 104 10:42 25.08.2022
486 Clear 14 1020 88 10000 1.43 101 07:35 25.08.2022
487 Clear 14 1020 78 10000 1.44 107 02:51 25.08.2022
488 Clear 15 1021 66 10000 1.61 99 23:36 24.08.2022
489 Clear 16 1021 63 10000 1.74 100 22:55 24.08.2022
490 Clear 17 1021 57 10000 1.87 96 21:55 24.08.2022
491 Clear 19 1021 49 10000 2.19 89 21:28 24.08.2022
492 Clouds 22 1020 42 10000 2.31 81 19:56 24.08.2022
493 Clouds 26 1019 33 10000 3.54 65 16:58 24.08.2022
494 Clouds 26 1019 33 10000 3.48 62 15:54 24.08.2022
495 Clouds 27 1019 34 10000 3.09 64 15:18 24.08.2022
496 Clouds 25 1019 40 10000 2.52 78 12:51 24.08.2022
497 Clouds 22 1020 50 10000 1.72 89 11:19 24.08.2022
498 Clouds 17 1020 66 10000 1.15 124 08:45 24.08.2022
499 Clouds 13 1020 77 10000 1.19 146 06:23 24.08.2022
500 Clouds 15 1019 66 10000 1.52 135 00:53 24.08.2022
501 Clouds 17 1019 52 10000 1.99 126 22:41 23.08.2022
502 Clouds 18 1019 53 10000 2.32 116 21:55 23.08.2022
503 Clouds 19 1019 52 10000 2.32 103 20:47 23.08.2022
504 Clouds 22 1017 42 10000 2.91 98 19:24 23.08.2022
505 Clouds 23 1017 40 10000 2.74 100 18:18 23.08.2022
506 Clear 24 1017 38 10000 2.3 97 17:28 23.08.2022
507 Clear 24 1017 38 10000 1.85 102 16:26 23.08.2022
508 Clouds 24 1017 39 10000 1.96 117 14:30 23.08.2022
509 Clear 23 1018 40 10000 2.41 130 12:46 23.08.2022
510 Clear 21 1018 45 10000 2.56 136 11:19 23.08.2022
511 Clear 19 1018 49 10000 2.56 136 10:33 23.08.2022
512 Clear 17 1018 58 10000 2.29 137 09:38 23.08.2022
513 Clear 15 1018 66 10000 2.04 135 08:47 23.08.2022
514 Clear 14 1018 70 10000 1.6 138 08:19 23.08.2022
515 Clear 13 1018 75 10000 1.6 138 07:33 23.08.2022
516 Clear 11 1017 79 10000 1.41 139 06:25 23.08.2022
517 Clouds 14 1018 72 10000 1.58 143 01:52 23.08.2022
518 Clouds 15 1017 72 10000 1.88 137 00:27 23.08.2022
519 Clouds 15 1017 72 10000 1.88 137 23:32 22.08.2022
520 Clouds 16 1017 56 10000 2.51 121 22:25 22.08.2022
521 Clouds 18 1017 53 10000 2.87 119 20:58 22.08.2022
522 Clouds 20 1016 54 10000 3.01 115 19:46 22.08.2022
523 Clouds 22 1015 36 10000 2.62 99 18:38 22.08.2022
524 Clouds 23 1015 36 10000 1.37 83 16:26 22.08.2022
525 Clouds 23 1015 35 10000 1.37 83 15:36 22.08.2022
526 Clear 22 1016 43 10000 0.74 73 12:56 22.08.2022
527 Clear 17 1016 59 10000 0.61 64 09:57 22.08.2022
528 Clear 12 1017 77 10000 0.21 26 07:40 22.08.2022
529 Clear 12 1016 73 10000 0.71 346 02:50 22.08.2022
530 Clouds 12 1016 70 10000 1.2 330 00:37 22.08.2022
531 Clouds 12 1016 72 10000 1.08 321 23:43 21.08.2022
532 Clouds 15 1016 61 10000 0.78 292 21:57 21.08.2022
533 Clouds 15 1016 59 10000 0.91 285 21:21 21.08.2022
534 Clear 17 1015 54 10000 1.03 292 20:26 21.08.2022
535 Clear 21 1015 42 10000 2.04 306 19:18 21.08.2022
536 Clear 22 1015 41 10000 3.1 302 16:54 21.08.2022
537 Clear 21 1015 43 10000 2.92 294 15:53 21.08.2022
538 Clear 22 1015 44 10000 2.94 284 15:18 21.08.2022
539 Clear 21 1016 47 10000 3.07 277 13:51 21.08.2022
540 Clear 20 1016 49 10000 3.06 273 13:24 21.08.2022
541 Clear 17 1017 69 10000 2.61 274 10:49 21.08.2022
542 Clouds 16 1017 81 10000 1.9 281 09:31 21.08.2022
543 Clouds 14 1017 89 10000 1.36 268 08:56 21.08.2022
544 Clouds 14 1017 91 10000 1.32 250 08:38 21.08.2022
545 Clouds 11 1017 95 10000 1 236 07:26 21.08.2022
546 Clouds 12 1017 94 10000 1.02 268 03:24 21.08.2022
547 Rain 14 1017 88 10000 0.81 278 23:49 20.08.2022
548 Clouds 15 1017 86 10000 0.52 276 22:24 20.08.2022
549 Clouds 15 1017 86 10000 0.63 306 21:26 20.08.2022
550 Clouds 18 1016 72 10000 0.62 339 19:58 20.08.2022
551 Clouds 18 1016 68 10000 0.62 339 19:40 20.08.2022
552 Clouds 18 1016 73 10000 2.69 320 18:27 20.08.2022
553 Clouds 18 1016 81 10000 2.69 320 17:40 20.08.2022
554 Clouds 18 1016 81 10000 2.86 319 16:49 20.08.2022
555 Clouds 19 1015 74 10000 3.63 317 15:26 20.08.2022
556 Clouds 18 1015 69 10000 2.62 293 12:52 20.08.2022
557 Clouds 18 1015 70 10000 1.87 295 11:47 20.08.2022
558 Clouds 16 1015 73 10000 1.36 293 09:34 20.08.2022
559 Clouds 15 1015 79 10000 1.29 266 08:29 20.08.2022
560 Clouds 14 1014 84 10000 1 265 05:51 20.08.2022
561 Clouds 15 1014 76 10000 0.2 262 00:59 20.08.2022
562 Clouds 15 1014 74 10000 0.2 262 00:34 20.08.2022
563 Clouds 15 1013 70 10000 0.72 322 22:59 19.08.2022
564 Clouds 16 1013 67 10000 0.97 316 21:40 19.08.2022
565 Clouds 20 1012 51 10000 1.07 344 19:54 19.08.2022
566 Clouds 22 1012 46 10000 3.38 333 17:19 19.08.2022
567 Clouds 21 1012 51 10000 3.86 332 14:54 19.08.2022
568 Clouds 19 1013 62 10000 3.12 327 13:18 19.08.2022
569 Clouds 15 1013 84 10000 3.3 317 10:52 19.08.2022
570 Rain 15 1013 86 10000 3.13 316 10:19 19.08.2022
571 Clouds 14 1012 93 10000 1.68 300 05:58 19.08.2022
572 Clouds 16 1013 90 10000 1.65 340 00:56 19.08.2022
573 Clouds 16 1013 90 10000 1.83 336 00:26 19.08.2022
574 Clouds 16 1013 89 10000 1.83 336 23:37 18.08.2022
575 Clouds 16 1013 87 10000 1.69 338 22:38 18.08.2022
576 Clouds 17 1012 87 10000 1.13 323 21:55 18.08.2022
577 Clouds 17 1012 87 10000 1.5 306 21:26 18.08.2022
578 Clouds 17 1012 88 10000 0.7 88 19:56 18.08.2022
579 Clouds 17 1012 91 10000 0.68 74 19:26 18.08.2022
580 Clouds 17 1012 91 10000 0.91 6 17:50 18.08.2022
581 Rain 17 1013 90 10000 1.58 345 16:58 18.08.2022
582 Rain 18 1013 85 10000 0.2 172 14:44 18.08.2022
583 Rain 17 1014 86 9634 0.93 247 14:19 18.08.2022
584 Rain 19 1014 69 10000 0.56 308 12:55 18.08.2022
585 Clouds 21 1013 62 10000 1.45 277 11:34 18.08.2022
586 Clouds 19 1013 71 10000 1.78 286 09:43 18.08.2022
587 Clouds 17 1013 78 10000 1.69 274 08:39 18.08.2022
588 Clouds 14 1013 83 10000 1.38 270 07:19 18.08.2022
589 Clouds 15 1012 72 10000 1.43 269 03:53 18.08.2022
590 Clouds 16 1012 66 10000 0.35 106 23:30 17.08.2022
591 Clouds 16 1012 70 10000 0.67 167 21:40 17.08.2022
592 Clouds 21 1010 52 10000 1.03 175 20:18 17.08.2022
593 Clouds 23 1010 62 10000 1.25 157 19:28 17.08.2022
594 Rain 24 1011 37 10000 3.7 172 17:35 17.08.2022
595 Clouds 26 1010 39 10000 1.12 123 16:22 17.08.2022
596 Clouds 26 1010 39 10000 1.12 123 16:22 17.08.2022
597 Clouds 26 1011 39 10000 1.36 141 15:22 17.08.2022
598 Clouds 27 1011 37 10000 2.11 133 12:57 17.08.2022
599 Clouds 24 1011 46 10000 2.36 128 11:37 17.08.2022
600 Clouds 21 1012 57 10000 1.77 115 09:31 17.08.2022
601 Clouds 18 1012 72 10000 0.53 133 08:23 17.08.2022
602 Clear 16 1012 71 10000 0.7 118 03:27 17.08.2022
603 Clouds 17 1012 66 10000 0.51 187 23:58 16.08.2022
604 Clouds 18 1012 65 10000 0.65 184 22:30 16.08.2022
605 Clouds 20 1011 60 10000 1.03 178 20:52 16.08.2022
606 Clouds 22 1010 49 10000 1.18 191 19:53 16.08.2022
607 Clouds 23 1010 47 10000 1.48 216 18:40 16.08.2022
608 Clouds 24 1010 44 10000 1.49 225 17:43 16.08.2022
609 Clouds 24 1009 45 10000 2.49 256 15:48 16.08.2022
610 Clouds 24 1009 47 10000 2.37 273 14:55 16.08.2022
611 Clouds 24 1009 44 10000 2.37 273 14:37 16.08.2022
612 Clear 23 1009 49 10000 2.83 260 12:58 16.08.2022
613 Clear 21 1009 58 10000 3.18 235 10:59 16.08.2022
614 Clear 19 1009 65 10000 2.66 223 09:50 16.08.2022
615 Clear 17 1009 72 10000 2.11 216 08:47 16.08.2022
616 Clouds 15 1009 83 10000 1.73 213 07:33 16.08.2022
617 Clouds 15 1008 88 10000 1.71 214 02:50 16.08.2022
618 Clouds 15 1006 90 10000 0.07 73 22:31 15.08.2022
619 Clouds 16 1007 91 10000 1.05 16 21:55 15.08.2022
620 Clouds 16 1007 91 10000 1.05 16 21:34 15.08.2022
621 Clouds 18 1005 91 10000 0.48 6 20:20 15.08.2022
622 Clouds 19 1005 93 9405 1.3 157 18:42 15.08.2022
623 Clouds 20 1004 83 10000 2.18 50 17:46 15.08.2022
624 Clouds 18 1004 89 10000 2.37 322 16:22 15.08.2022
625 Rain 24 1004 56 10000 3.02 234 13:58 15.08.2022
626 Clouds 24 1004 48 10000 2.52 195 12:38 15.08.2022
627 Clear 22 1005 53 10000 1.71 158 10:18 15.08.2022
628 Clouds 19 1005 65 10000 1.42 162 08:51 15.08.2022
629 Clouds 18 1005 67 10000 0.87 158 06:33 15.08.2022
630 Clouds 17 1006 66 10000 1.02 131 03:34 15.08.2022
631 Clouds 21 1007 53 10000 0.76 107 23:24 14.08.2022
632 Clouds 21 1008 52 10000 1.05 111 21:43 14.08.2022
633 Clouds 23 1007 45 10000 1.05 158 20:33 14.08.2022
634 Clouds 25 1007 42 10000 1.96 146 19:36 14.08.2022
635 Clouds 27 1007 36 10000 3.27 111 18:21 14.08.2022
636 Clouds 27 1008 36 10000 3.21 106 17:27 14.08.2022
637 Clouds 27 1008 37 10000 4.08 111 16:23 14.08.2022
638 Clouds 27 1009 38 10000 4.48 112 14:55 14.08.2022
639 Clouds 26 1010 46 10000 4.58 121 13:51 14.08.2022
640 Clouds 26 1010 47 10000 4.58 121 13:31 14.08.2022
641 Clouds 26 1010 47 10000 4.58 121 13:31 14.08.2022
642 Clouds 24 1011 50 10000 4.33 118 12:35 14.08.2022
643 Clouds 22 1012 61 10000 3.81 122 11:22 14.08.2022
644 Clouds 17 1012 79 10000 3.9 103 08:56 14.08.2022
645 Clouds 14 1013 85 10000 1.8 90 06:40 14.08.2022
646 Clouds 14 1013 83 10000 1.52 90 05:37 14.08.2022
647 Clouds 16 1015 76 10000 1.53 67 01:36 14.08.2022
648 Clouds 17 1016 69 10000 1.19 82 22:56 13.08.2022
649 Clouds 16 1016 73 10000 1.46 86 22:27 13.08.2022
650 Clouds 19 1016 63 10000 1.72 85 20:50 13.08.2022
651 Clouds 21 1016 56 10000 2.69 84 19:48 13.08.2022
652 Clouds 22 1016 54 10000 3.57 78 19:18 13.08.2022
653 Clouds 24 1017 46 10000 3.74 79 17:21 13.08.2022
654 Clouds 24 1017 43 10000 4 79 14:50 13.08.2022
655 Clouds 24 1017 42 10000 3.98 77 13:50 13.08.2022
656 Clear 25 1018 41 10000 3.75 76 13:28 13.08.2022
657 Clear 23 1018 43 10000 3.29 68 11:29 13.08.2022
658 Clear 19 1019 52 10000 2.15 69 09:26 13.08.2022
659 Clear 14 1019 65 10000 1.43 52 06:54 13.08.2022
660 Clear 14 1020 59 10000 0.9 106 01:52 13.08.2022
661 Clear 16 1021 55 10000 1.44 113 23:32 12.08.2022
662 Clear 18 1020 47 10000 1.83 117 21:39 12.08.2022
663 Clear 23 1019 34 10000 2.08 94 19:49 12.08.2022
664 Clear 24 1019 32 10000 3.76 99 19:23 12.08.2022
665 Clear 24 1019 32 10000 4.83 96 18:29 12.08.2022
666 Clear 25 1019 27 10000 4.26 88 16:27 12.08.2022
667 Clear 25 1020 28 10000 4.48 92 15:21 12.08.2022
668 Clear 25 1020 31 10000 4.43 90 13:50 12.08.2022
669 Clear 24 1020 33 10000 4.4 92 12:38 12.08.2022
670 Clear 20 1021 42 10000 2.97 98 09:22 12.08.2022
671 Clear 14 1021 58 10000 1.46 95 07:46 12.08.2022
672 Clear 12 1022 59 10000 1.06 104 06:24 12.08.2022
673 Clouds 15 1022 54 10000 1.64 116 01:22 12.08.2022
674 Clouds 15 1022 52 10000 1.57 108 00:18 12.08.2022
675 Clouds 16 1022 50 10000 1.62 90 23:27 11.08.2022
676 Clouds 18 1022 43 10000 1.61 74 21:55 11.08.2022
677 Clouds 19 1022 41 10000 1.79 57 21:28 11.08.2022
678 Clouds 22 1022 32 10000 1.79 57 20:31 11.08.2022
679 Clouds 23 1021 27 10000 2.12 43 19:41 11.08.2022
680 Clouds 24 1021 28 10000 2.81 53 19:21 11.08.2022
681 Clouds 26 1021 28 10000 3.11 57 17:23 11.08.2022
682 Clouds 26 1021 29 10000 3.04 60 16:19 11.08.2022
683 Clouds 26 1022 29 10000 2.95 67 15:20 11.08.2022
684 Clouds 24 1023 34 10000 2.91 85 12:35 11.08.2022
685 Clear 18 1024 51 10000 1.28 81 09:24 11.08.2022
686 Clear 13 1024 65 10000 1 86 06:59 11.08.2022
687 Clouds 12 1024 62 10000 1.44 83 03:25 11.08.2022
688 Clear 13 1025 56 10000 1.44 79 00:28 11.08.2022
689 Clear 15 1025 50 10000 1.58 69 22:18 10.08.2022
690 Clear 17 1025 45 10000 2.08 63 21:20 10.08.2022
691 Clear 19 1025 38 10000 2.08 63 20:43 10.08.2022
692 Clear 19 1025 38 10000 2.08 63 20:43 10.08.2022
693 Clouds 23 1024 33 10000 2.75 67 18:53 10.08.2022
694 Clouds 24 1024 32 10000 2.89 69 17:31 10.08.2022
695 Clear 24 1025 32 10000 2.86 71 15:53 10.08.2022
696 Clouds 23 1025 37 10000 2.5 71 13:34 10.08.2022
697 Clouds 22 1027 39 10000 2.44 82 12:24 10.08.2022
698 Clouds 16 1027 62 10000 1.54 76 08:45 10.08.2022
699 Clouds 14 1027 72 10000 1.3 67 07:44 10.08.2022
700 Clouds 9 1027 78 10000 1.09 82 06:22 10.08.2022
701 Clear 12 1028 68 10000 1.62 69 02:45 10.08.2022
702 Clouds 14 1028 58 10000 1.72 41 23:34 09.08.2022
703 Clouds 15 1028 56 10000 2.05 32 22:55 09.08.2022
704 Clouds 16 1028 51 10000 1.94 35 21:34 09.08.2022
705 Clouds 21 1026 42 10000 2.66 28 19:34 09.08.2022
706 Clouds 22 1025 41 10000 3.03 28 18:23 09.08.2022
707 Clouds 22 1026 40 10000 2.85 28 17:26 09.08.2022
708 Clouds 22 1026 40 10000 2.85 28 16:40 09.08.2022
709 Clouds 22 1026 42 10000 2.74 28 15:40 09.08.2022
710 Clouds 21 1027 46 10000 2.64 51 12:25 09.08.2022
711 Clear 15 1027 68 10000 2.05 51 09:22 09.08.2022
712 Clear 13 1027 71 10000 2.05 51 08:33 09.08.2022
713 Clear 11 1027 77 10000 1.48 45 07:20 09.08.2022
714 Clear 11 1026 73 10000 1.57 42 03:32 09.08.2022
715 Clear 14 1026 60 10000 1.94 48 23:27 08.08.2022
716 Clear 14 1026 60 10000 1.94 48 23:27 08.08.2022
717 Clear 14 1026 58 10000 1.94 48 22:54 08.08.2022
718 Clear 16 1026 51 10000 2.38 35 21:49 08.08.2022
719 Clouds 17 1025 46 10000 2.22 23 20:55 08.08.2022
720 Clouds 20 1024 37 10000 2.41 13 19:50 08.08.2022
721 Clouds 21 1023 36 10000 2.77 10 18:35 08.08.2022
722 Clouds 22 1023 36 10000 2.97 13 16:37 08.08.2022
723 Clouds 22 1023 35 10000 2.95 6 15:39 08.08.2022
724 Clear 21 1024 39 10000 1.37 6 12:51 08.08.2022
725 Clear 20 1024 40 10000 1.22 22 11:53 08.08.2022
726 Clear 16 1024 54 10000 1.25 1 09:36 08.08.2022
727 Clear 9 1024 71 10000 0.48 111 05:43 08.08.2022
728 Clouds 10 1024 65 10000 0.65 65 02:27 08.08.2022
729 Clouds 12 1023 59 10000 1.37 65 22:25 07.08.2022
730 Clouds 13 1023 55 10000 1.37 65 21:38 07.08.2022
731 Clouds 17 1022 43 10000 2.08 45 20:25 07.08.2022
732 Clouds 18 1022 40 10000 2.08 45 19:54 07.08.2022
733 Clouds 19 1022 39 10000 2.08 45 19:34 07.08.2022
734 Clouds 20 1022 38 10000 2.62 28 18:23 07.08.2022
735 Clouds 20 1022 37 10000 2.26 23 16:54 07.08.2022
736 Clouds 20 1022 37 10000 1.97 19 16:28 07.08.2022
737 Clouds 20 1023 38 10000 1.38 6 15:19 07.08.2022
738 Clouds 19 1024 40 10000 0.81 75 13:24 07.08.2022
739 Clouds 16 1025 49 10000 1.04 108 11:27 07.08.2022
740 Clouds 16 1025 52 10000 1.04 108 10:34 07.08.2022
741 Clouds 8 1026 82 10000 0.78 116 06:52 07.08.2022
742 Clouds 7 1027 79 10000 0.72 82 03:19 07.08.2022
743 Clear 9 1027 71 10000 1.21 52 00:31 07.08.2022
744 Clear 11 1027 62 10000 1.43 31 22:24 06.08.2022
745 Clear 13 1026 52 10000 1.49 21 20:42 06.08.2022
746 Clouds 16 1025 43 10000 1.54 11 19:41 06.08.2022
747 Clouds 17 1025 42 10000 2.13 348 18:30 06.08.2022
748 Clouds 17 1025 42 10000 2.35 336 17:32 06.08.2022
749 Clouds 17 1026 45 10000 2.67 333 14:43 06.08.2022
750 Clouds 17 1026 47 10000 2.74 334 13:44 06.08.2022
751 Clouds 15 1026 58 10000 3.06 336 11:55 06.08.2022
752 Clear 13 1026 66 10000 3.02 333 10:32 06.08.2022
753 Clear 11 1026 79 10000 2.58 325 08:32 06.08.2022
754 Clouds 7 1025 86 10000 1.63 305 03:53 06.08.2022
755 Clouds 11 1023 72 10000 2.69 321 23:50 05.08.2022
756 Clouds 12 1022 75 10000 3.91 324 22:32 05.08.2022
757 Clouds 15 1019 73 10000 3.36 323 19:46 05.08.2022
758 Clouds 15 1018 76 10000 4.07 323 18:46 05.08.2022
759 Clouds 15 1018 78 10000 3.68 322 18:25 05.08.2022
760 Clouds 14 1017 88 10000 4.44 317 16:49 05.08.2022
761 Clouds 20 1015 70 10000 4.36 296 15:22 05.08.2022
762 Rain 18 1015 91 10000 4.36 296 14:31 05.08.2022
763 Clouds 20 1014 80 10000 2.63 269 13:24 05.08.2022
764 Clouds 19 1014 83 10000 2.63 269 12:30 05.08.2022
765 Clouds 19 1015 85 10000 1.74 268 10:53 05.08.2022
766 Rain 16 1014 93 10000 0.66 307 08:36 05.08.2022
767 Clouds 15 1014 94 10000 0.28 306 07:23 05.08.2022
768 Clouds 17 1014 83 10000 0.53 325 01:46 05.08.2022
769 Clouds 18 1014 81 10000 1.46 39 22:33 04.08.2022
770 Clouds 23 1014 50 10000 6.74 313 21:27 04.08.2022
771 Clouds 24 1014 56 10000 6.74 313 20:45 04.08.2022
772 Clouds 27 1011 42 10000 1.26 317 19:49 04.08.2022
773 Clouds 30 1011 34 10000 2.58 289 18:52 04.08.2022
774 Clouds 30 1011 32 10000 2.58 289 18:32 04.08.2022
775 Clouds 30 1012 31 10000 3.29 242 14:45 04.08.2022
776 Clouds 30 1013 30 10000 2.77 227 13:22 04.08.2022
777 Clouds 28 1013 35 10000 2.36 213 11:38 04.08.2022
778 Clouds 26 1014 38 10000 1.52 179 09:58 04.08.2022
779 Clouds 19 1014 56 10000 1.13 155 07:31 04.08.2022
780 Clear 18 1015 60 10000 0.97 103 02:42 04.08.2022
781 Clouds 19 1016 58 10000 0.73 80 23:58 03.08.2022
782 Clouds 19 1016 57 10000 0.73 80 23:36 03.08.2022
783 Clouds 21 1015 52 10000 0.3 30 21:26 03.08.2022
784 Clouds 24 1015 45 10000 0.44 299 20:19 03.08.2022
785 Clouds 27 1015 35 10000 0.92 258 18:53 03.08.2022
786 Clouds 28 1015 34 10000 2.46 246 16:27 03.08.2022
787 Clouds 28 1015 34 10000 2.46 246 15:53 03.08.2022
788 Clouds 26 1016 39 10000 2.56 236 13:38 03.08.2022
789 Clouds 23 1017 42 10000 2.55 220 10:44 03.08.2022
790 Clouds 16 1017 66 10000 1.33 178 07:23 03.08.2022
791 Clouds 15 1017 65 10000 1.31 167 04:22 03.08.2022
792 Clouds 14 1017 71 10000 1.26 161 03:23 03.08.2022
793 Clouds 15 1018 70 10000 1.2 159 00:49 03.08.2022
794 Clouds 17 1018 60 10000 1.02 163 22:36 02.08.2022
795 Clouds 18 1018 59 10000 0.92 156 21:51 02.08.2022
796 Clouds 20 1017 52 10000 0.24 194 20:29 02.08.2022
797 Clouds 23 1017 41 10000 2.68 266 17:47 02.08.2022
798 Clouds 23 1017 42 10000 3.16 252 14:46 02.08.2022
799 Clouds 17 1019 65 10000 2.31 221 10:50 02.08.2022
800 Clouds 14 1019 82 10000 1.41 194 08:54 02.08.2022
801 Clouds 14 1019 82 10000 1.41 194 08:54 02.08.2022
802 Clouds 12 1019 91 10000 0.82 207 07:52 02.08.2022
803 Clouds 9 1019 93 10000 0.95 180 05:40 02.08.2022
804 Clouds 9 1020 94 10000 0.27 159 03:40 02.08.2022
805 Clouds 12 1019 90 10000 1.26 9 23:35 01.08.2022
806 Clouds 13 1019 87 10000 1.48 327 22:21 01.08.2022
807 Clouds 16 1018 76 10000 1.5 310 20:40 01.08.2022
808 Clouds 17 1017 71 10000 2.68 322 19:22 01.08.2022
809 Clouds 18 1017 71 10000 3.7 328 17:27 01.08.2022
810 Clouds 18 1017 71 10000 3.7 328 16:50 01.08.2022
811 Clouds 18 1017 75 10000 3.73 326 15:51 01.08.2022
812 Clouds 18 1016 74 10000 4 328 15:28 01.08.2022
813 Clouds 17 1017 84 10000 3.74 327 13:45 01.08.2022
814 Clouds 15 1016 95 10000 3.66 313 11:49 01.08.2022
815 Clouds 15 1016 92 10000 2.83 293 09:39 01.08.2022
816 Clouds 14 1015 92 4698 2.76 280 08:21 01.08.2022
817 Clouds 14 1014 94 3370 2.71 265 04:46 01.08.2022
818 Clouds 15 1014 94 5160 3.2 259 02:32 01.08.2022
819 Rain 15 1014 89 10000 2.88 250 23:54 31.07.2022
820 Rain 14 1014 88 7612 2.11 243 22:36 31.07.2022
821 Rain 14 1014 88 7612 2.11 243 22:36 31.07.2022
822 Clouds 16 1014 77 10000 1.43 256 20:50 31.07.2022
823 Rain 17 1014 67 10000 0.91 299 19:40 31.07.2022
824 Rain 21 1014 50 10000 2.79 298 17:47 31.07.2022
825 Clouds 22 1014 46 10000 3.33 250 15:35 31.07.2022
826 Clouds 21 1016 47 10000 3.06 253 13:41 31.07.2022
827 Clouds 20 1017 55 10000 2.66 254 11:52 31.07.2022
828 Clouds 17 1018 75 10000 1.97 253 09:36 31.07.2022
829 Clouds 12 1018 93 10000 0.85 230 06:48 31.07.2022
830 Clouds 12 1018 88 10000 1.36 311 02:57 31.07.2022
831 Clouds 13 1019 82 10000 1.01 232 23:36 30.07.2022
832 Clouds 14 1019 81 10000 1.13 226 22:19 30.07.2022
833 Clouds 15 1019 78 10000 1.13 226 21:48 30.07.2022
834 Clouds 15 1018 79 10000 0.71 189 20:56 30.07.2022
835 Rain 16 1018 78 10000 1.14 122 19:58 30.07.2022
836 Clouds 17 1018 71 10000 1.24 110 18:53 30.07.2022
837 Clouds 18 1018 64 10000 1.34 97 17:42 30.07.2022
838 Clouds 18 1018 70 10000 1.17 99 15:50 30.07.2022
839 Rain 17 1018 72 10000 0.94 66 15:22 30.07.2022
840 Clouds 17 1018 72 10000 1.98 45 12:59 30.07.2022
841 Clouds 16 1018 80 10000 1.41 25 11:55 30.07.2022
842 Clouds 14 1017 95 10000 0.92 36 10:31 30.07.2022
843 Clouds 13 1017 98 7005 0.67 359 09:47 30.07.2022
844 Rain 12 1017 93 1420 1.28 18 07:55 30.07.2022
845 Rain 14 1016 74 10000 0.97 330 02:37 30.07.2022
846 Rain 14 1016 73 10000 1.35 341 01:49 30.07.2022
847 Clouds 17 1016 51 10000 1.8 276 22:41 29.07.2022
848 Clouds 19 1016 47 10000 1.33 319 21:24 29.07.2022
849 Clouds 18 1016 47 10000 1.33 319 20:39 29.07.2022
850 Clouds 21 1015 38 10000 2.31 15 18:18 29.07.2022
851 Clouds 21 1015 40 10000 2.42 23 15:35 29.07.2022
852 Clouds 19 1017 44 10000 1.8 72 13:19 29.07.2022
853 Clouds 19 1017 47 10000 1.36 93 11:22 29.07.2022
854 Clouds 14 1017 58 10000 2.08 95 08:50 29.07.2022
855 Clouds 14 1017 59 10000 2.09 93 08:18 29.07.2022
856 Rain 13 1019 54 10000 2.65 91 01:58 29.07.2022
857 Clouds 13 1019 55 10000 2.4 77 22:53 28.07.2022
858 Clouds 16 1018 47 10000 2.5 88 21:28 28.07.2022
859 Clouds 17 1018 41 10000 2.5 88 20:32 28.07.2022
860 Clouds 19 1017 39 10000 2.82 86 19:43 28.07.2022
861 Clouds 19 1017 39 10000 3.2 97 19:24 28.07.2022
862 Clouds 20 1017 37 10000 2.97 96 17:44 28.07.2022
863 Clouds 20 1017 39 10000 2.67 97 16:57 28.07.2022
864 Clouds 20 1017 39 10000 2.25 103 16:28 28.07.2022
865 Clouds 18 1018 45 10000 2.06 92 13:30 28.07.2022
866 Clouds 16 1019 53 10000 1.71 91 11:42 28.07.2022
867 Clouds 7 1020 82 10000 1.22 67 06:46 28.07.2022
868 Clouds 7 1020 83 10000 1.29 61 05:33 28.07.2022
869 Clouds 7 1021 81 10000 1.42 47 02:40 28.07.2022
870 Clear 10 1020 68 10000 1.34 355 22:56 27.07.2022
871 Clouds 12 1019 58 10000 2.3 336 21:29 27.07.2022
872 Clouds 16 1018 45 10000 3.6 341 19:44 27.07.2022
873 Clouds 16 1017 44 10000 3.96 339 18:41 27.07.2022
874 Clear 17 1017 44 10000 4.3 331 16:31 27.07.2022
875 Clear 17 1017 42 10000 3.95 325 15:40 27.07.2022
876 Clear 17 1017 43 10000 3.68 318 14:41 27.07.2022
877 Clouds 15 1018 49 10000 3.43 310 12:52 27.07.2022
878 Clouds 11 1018 72 10000 2.67 317 08:55 27.07.2022
879 Clouds 10 1018 80 10000 2.03 316 07:33 27.07.2022
880 Clouds 11 1018 72 10000 1.26 327 02:43 27.07.2022
881 Clouds 11 1017 82 10000 1.26 317 22:47 26.07.2022
882 Clouds 12 1017 78 10000 2.3 333 21:25 26.07.2022
883 Clouds 14 1017 74 10000 2.3 333 20:49 26.07.2022
884 Clouds 16 1015 72 10000 4.05 331 18:46 26.07.2022
885 Clouds 15 1015 72 10000 4.27 330 18:28 26.07.2022
886 Clouds 16 1015 74 10000 4.7 316 16:54 26.07.2022
887 Clouds 16 1015 71 10000 5.24 308 15:43 26.07.2022
888 Clouds 17 1014 67 10000 6.02 306 14:38 26.07.2022
889 Clouds 17 1014 66 10000 5.43 276 11:47 26.07.2022
890 Clouds 17 1014 66 10000 5.43 276 11:47 26.07.2022
891 Clouds 15 1013 74 10000 5.49 271 09:44 26.07.2022
892 Clouds 15 1013 75 10000 3.77 258 08:18 26.07.2022
893 Clouds 14 1012 91 10000 2.25 259 01:44 26.07.2022
894 Clouds 16 1012 83 10000 1.63 270 23:44 25.07.2022
895 Clouds 17 1011 89 10000 1.58 289 22:39 25.07.2022
896 Clouds 17 1011 90 10000 2.73 290 21:43 25.07.2022
897 Rain 17 1010 87 10000 2.22 258 20:43 25.07.2022
898 Rain 17 1009 84 10000 2.97 286 19:55 25.07.2022
899 Clouds 19 1008 79 10000 4.55 301 19:20 25.07.2022
900 Clouds 26 1007 48 10000 2.06 311 17:35 25.07.2022
901 Rain 26 1006 37 10000 4.31 252 16:40 25.07.2022
902 Clear 28 1009 37 10000 5.18 227 12:58 25.07.2022
903 Clear 26 1010 39 10000 5.18 209 10:47 25.07.2022
904 Clouds 19 1012 50 10000 2.05 176 07:32 25.07.2022
905 Clouds 18 1016 51 10000 1.78 134 00:38 25.07.2022
906 Clouds 17 1016 59 10000 1.43 135 23:45 24.07.2022
907 Clouds 18 1017 50 10000 1.18 121 22:43 24.07.2022
908 Clear 19 1017 50 10000 0.91 105 21:33 24.07.2022
909 Clear 21 1017 46 10000 0.54 82 20:58 24.07.2022
910 Clear 24 1017 36 10000 0.54 82 20:35 24.07.2022
911 Clouds 26 1016 32 10000 1.43 250 19:18 24.07.2022
912 Clouds 26 1016 32 10000 1.87 248 17:56 24.07.2022
913 Clouds 25 1017 33 10000 2.15 246 15:54 24.07.2022
914 Clouds 25 1018 34 10000 2.36 254 14:41 24.07.2022
915 Clouds 24 1019 37 10000 2.52 254 13:47 24.07.2022
916 Clouds 21 1020 46 10000 2.33 244 12:28 24.07.2022
917 Clouds 20 1020 49 10000 2.33 244 11:30 24.07.2022
918 Clouds 18 1020 56 10000 1.94 233 09:44 24.07.2022
919 Clouds 14 1021 74 10000 1.25 196 07:53 24.07.2022
920 Clouds 12 1021 78 10000 1.38 197 07:31 24.07.2022
921 Clear 10 1021 78 10000 0.89 166 02:57 24.07.2022
922 Clouds 13 1021 70 10000 0.93 32 22:52 23.07.2022
923 Clouds 17 1019 52 10000 2.11 314 20:47 23.07.2022
924 Clouds 20 1018 47 10000 4.15 300 19:29 23.07.2022
925 Clouds 20 1018 46 10000 4.15 300 18:36 23.07.2022
926 Clear 20 1018 46 10000 4.72 298 17:27 23.07.2022
927 Clear 21 1018 46 10000 4.69 299 16:24 23.07.2022
928 Clear 21 1018 47 10000 4.76 297 15:22 23.07.2022
929 Clear 20 1018 48 10000 4.76 297 14:52 23.07.2022
930 Clouds 20 1018 50 10000 4.49 294 14:23 23.07.2022
931 Clouds 17 1018 64 10000 3.13 287 11:56 23.07.2022
932 Clouds 16 1018 67 10000 2.37 296 10:41 23.07.2022
933 Clouds 15 1018 76 10000 1.86 301 09:44 23.07.2022
934 Clouds 12 1017 92 10000 1.22 294 07:37 23.07.2022
935 Clouds 12 1018 93 10000 1.15 254 03:37 23.07.2022
936 Clouds 12 1018 89 10000 0.69 255 00:37 23.07.2022
937 Clouds 14 1018 80 10000 1.35 7 21:38 22.07.2022
938 Clouds 15 1018 75 10000 1.71 346 20:33 22.07.2022
939 Clouds 17 1018 72 10000 2.02 301 18:56 22.07.2022
940 Clouds 17 1018 72 10000 2.02 295 17:40 22.07.2022
941 Clouds 17 1019 72 10000 2.48 298 16:26 22.07.2022
942 Clouds 16 1019 77 10000 2.43 289 13:50 22.07.2022
943 Clouds 13 1020 93 10000 2.21 276 10:40 22.07.2022
944 Clouds 13 1020 92 7054 2.1 272 09:25 22.07.2022
945 Clouds 13 1019 93 5134 2.47 274 08:26 22.07.2022
946 Clouds 14 1018 92 2528 2.53 244 04:24 22.07.2022
947 Clouds 14 1018 90 10000 3.2 250 23:44 21.07.2022
948 Clouds 15 1018 90 10000 3.31 242 22:20 21.07.2022
949 Rain 15 1018 84 10000 3.42 240 20:36 21.07.2022
950 Clouds 19 1018 62 10000 3.9 260 18:52 21.07.2022
951 Clouds 21 1018 54 10000 3.7 262 17:29 21.07.2022
952 Clouds 21 1018 52 10000 3.7 262 16:43 21.07.2022
953 Clouds 21 1018 55 10000 4.74 240 14:52 21.07.2022
954 Clouds 22 1018 50 10000 5.13 242 14:22 21.07.2022
955 Clouds 20 1018 63 10000 4.47 227 12:27 21.07.2022
956 Clouds 18 1018 76 10000 3.37 228 10:37 21.07.2022
957 Clouds 17 1018 83 10000 1.77 248 08:54 21.07.2022
958 Clouds 16 1018 88 10000 1.77 248 08:35 21.07.2022
959 Clouds 15 1018 89 10000 1.53 224 07:23 21.07.2022
960 Clouds 18 1017 90 10000 4.69 295 03:48 21.07.2022
961 Clouds 22 1014 57 10000 0.92 17 23:26 20.07.2022
962 Clouds 24 1014 44 10000 1.5 318 22:21 20.07.2022
963 Clear 29 1014 33 10000 1.44 55 20:50 20.07.2022
964 Clouds 31 1014 24 10000 2.17 79 19:48 20.07.2022
965 Clouds 33 1013 24 10000 2.58 94 19:20 20.07.2022
966 Clouds 33 1013 21 10000 2.58 94 18:33 20.07.2022
967 Clouds 34 1014 18 10000 2.67 118 17:43 20.07.2022
968 Clouds 33 1015 20 10000 2.78 143 15:59 20.07.2022
969 Clouds 33 1016 21 10000 2.71 151 14:57 20.07.2022
970 Clouds 32 1016 24 10000 2.93 156 13:53 20.07.2022
971 Clouds 30 1017 27 10000 3.6 151 11:32 20.07.2022
972 Clouds 25 1018 35 10000 1.5 157 07:50 20.07.2022
973 Clouds 19 1018 42 10000 1.89 140 02:45 20.07.2022
974 Clear 22 1018 36 10000 2.17 124 00:46 20.07.2022
975 Clear 21 1019 40 10000 2.51 117 23:40 19.07.2022
976 Clouds 22 1018 39 10000 2.67 95 22:22 19.07.2022
977 Clouds 23 1018 40 10000 2.47 86 21:23 19.07.2022
978 Clouds 28 1017 28 10000 2.14 76 20:27 19.07.2022
979 Clouds 31 1017 23 10000 2.22 81 18:43 19.07.2022
980 Clouds 31 1017 24 10000 1.77 91 17:57 19.07.2022
981 Clouds 31 1018 24 10000 1.26 97 16:37 19.07.2022
982 Clouds 31 1018 23 10000 0.26 120 14:52 19.07.2022
983 Clouds 27 1020 31 10000 1.1 180 11:39 19.07.2022
984 Clouds 26 1020 29 10000 0.92 164 10:47 19.07.2022
985 Clouds 23 1020 38 10000 0.5 184 09:23 19.07.2022
986 Clouds 21 1020 42 10000 0.5 184 08:38 19.07.2022
987 Clear 17 1021 55 10000 0.64 191 07:19 19.07.2022
988 Clear 15 1021 49 10000 0.74 193 05:28 19.07.2022
989 Clear 15 1021 49 10000 0.74 193 04:53 19.07.2022
990 Clouds 17 1021 50 10000 0.47 212 00:38 19.07.2022
991 Clouds 17 1021 53 10000 0.55 192 23:36 18.07.2022
992 Clouds 18 1021 52 10000 0.52 182 23:18 18.07.2022
993 Clouds 17 1021 59 10000 0.6 185 21:58 18.07.2022
994 Clouds 22 1021 37 10000 0.69 213 20:51 18.07.2022
995 Clouds 26 1021 29 10000 0.78 195 19:33 18.07.2022
996 Clouds 27 1021 27 10000 2.12 234 17:31 18.07.2022
997 Clouds 26 1022 29 10000 1.97 231 15:55 18.07.2022
998 Clouds 26 1023 28 10000 1.78 240 14:51 18.07.2022
999 Clouds 23 1023 34 10000 1.6 211 13:23 18.07.2022
1000 Clouds 21 1024 37 10000 1.58 200 11:31 18.07.2022
1001 Clouds 18 1025 42 10000 0.67 185 09:28 18.07.2022
1002 Clouds 13 1025 60 10000 1.04 174 07:43 18.07.2022
1003 Clouds 11 1027 56 10000 0.75 153 01:44 18.07.2022
1004 Clouds 13 1027 52 10000 0.58 57 22:51 17.07.2022
1005 Clouds 13 1026 50 10000 0.81 50 22:23 17.07.2022
1006 Clouds 15 1026 48 10000 1.19 24 21:24 17.07.2022
1007 Clouds 16 1026 56 10000 1.19 24 20:44 17.07.2022
1008 Clouds 20 1025 32 10000 1.44 356 19:34 17.07.2022
1009 Clouds 21 1025 31 10000 2.13 337 18:56 17.07.2022
1010 Clouds 21 1025 29 10000 2.48 331 17:39 17.07.2022
1011 Clouds 21 1025 32 10000 2.59 334 16:51 17.07.2022
1012 Clouds 21 1026 32 10000 2.78 330 16:27 17.07.2022
1013 Clouds 20 1026 32 10000 2.85 332 15:27 17.07.2022
1014 Clouds 18 1026 39 10000 3.19 326 13:34 17.07.2022
1015 Clouds 16 1027 45 10000 2.97 311 12:22 17.07.2022
1016 Clouds 12 1027 61 10000 2.09 282 09:31 17.07.2022
1017 Clouds 7 1028 77 10000 1.07 270 06:37 17.07.2022
1018 Clouds 6 1028 78 10000 0.47 285 02:33 17.07.2022
1019 Clouds 8 1026 70 10000 1.55 337 23:22 16.07.2022
1020 Clouds 8 1026 70 10000 1.55 337 23:22 16.07.2022
1021 Clouds 10 1026 72 10000 1.9 341 21:57 16.07.2022
1022 Clouds 15 1023 46 10000 4.07 325 20:28 16.07.2022
1023 Clouds 17 1023 40 10000 4.67 319 18:42 16.07.2022
1024 Clouds 17 1022 39 10000 5.94 320 17:24 16.07.2022
1025 Clouds 17 1021 40 10000 5.84 314 15:41 16.07.2022
1026 Clouds 13 1022 72 10000 5.2 310 11:55 16.07.2022
1027 Clouds 10 1020 83 10000 4.46 296 09:41 16.07.2022
1028 Clouds 10 1020 82 10000 4.68 284 09:22 16.07.2022
1029 Rain 11 1020 75 10000 4.68 284 08:35 16.07.2022
1030 Clouds 10 1020 72 10000 2.77 255 06:47 16.07.2022
1031 Clouds 8 1020 83 10000 2.42 231 03:31 16.07.2022
1032 Clouds 10 1021 68 10000 1.51 226 23:54 15.07.2022
1033 Clouds 11 1021 65 10000 1.52 248 22:46 15.07.2022
1034 Clouds 12 1021 61 10000 1.52 259 21:52 15.07.2022
1035 Clouds 13 1021 56 10000 1.85 276 20:35 15.07.2022
1036 Clouds 15 1020 52 10000 3.61 313 18:46 15.07.2022
1037 Clouds 15 1020 50 10000 4.5 315 18:22 15.07.2022
1038 Clouds 15 1020 44 10000 4.47 307 16:46 15.07.2022
1039 Clouds 14 1021 51 10000 3.85 286 13:58 15.07.2022
1040 Clouds 12 1021 55 10000 3.9 296 12:22 15.07.2022
1041 Clouds 13 1021 56 10000 3.86 294 10:52 15.07.2022
1042 Clouds 10 1022 70 10000 3.31 292 07:48 15.07.2022
1043 Clouds 8 1020 79 10000 1.83 290 02:51 15.07.2022
1044 Clear 9 1020 74 10000 1.88 291 00:39 15.07.2022
1045 Clouds 11 1019 67 10000 2.37 313 22:56 14.07.2022
1046 Clouds 12 1019 64 10000 3.02 331 22:19 14.07.2022
1047 Clouds 13 1019 62 10000 3.02 331 21:39 14.07.2022
1048 Clouds 13 1018 59 10000 3.99 331 21:19 14.07.2022
1049 Clouds 14 1018 56 10000 3.99 331 20:43 14.07.2022
1050 Clouds 15 1017 50 10000 4.57 322 20:18 14.07.2022
1051 Clouds 18 1017 42 10000 5.35 310 18:24 14.07.2022
1052 Clouds 20 1017 40 10000 5.22 305 16:19 14.07.2022
1053 Clear 19 1017 44 10000 5 302 14:56 14.07.2022
1054 Clouds 19 1017 48 10000 3.84 294 13:51 14.07.2022
1055 Clouds 18 1017 55 10000 3.66 282 12:36 14.07.2022
1056 Clouds 17 1018 64 10000 2.8 284 11:28 14.07.2022
1057 Clouds 15 1018 67 10000 2.8 284 10:52 14.07.2022
1058 Clouds 14 1020 73 10000 1.79 311 08:58 14.07.2022
1059 Clouds 12 1020 79 10000 1.58 328 04:45 14.07.2022
1060 Clouds 14 1020 70 10000 1.65 339 01:19 14.07.2022
1061 Clouds 11 1020 92 10000 1.65 339 00:51 14.07.2022
1062 Clouds 17 1020 79 10000 1.97 346 22:31 13.07.2022
1063 Clouds 18 1019 76 10000 3.54 347 21:47 13.07.2022
1064 Clouds 19 1018 69 10000 2.39 294 20:41 13.07.2022
1065 Clouds 23 1018 42 10000 3.13 274 18:40 13.07.2022
1066 Clouds 24 1018 39 10000 3.76 274 17:31 13.07.2022
1067 Clouds 24 1018 39 10000 3.76 274 17:31 13.07.2022
1068 Clouds 25 1018 34 10000 6.04 255 16:19 13.07.2022
1069 Clouds 25 1018 33 10000 6.22 258 14:54 13.07.2022
1070 Clouds 22 1020 45 10000 3.31 230 11:56 13.07.2022
1071 Clouds 20 1020 48 10000 2.48 217 10:45 13.07.2022
1072 Clouds 20 1020 48 10000 3.18 234 09:56 13.07.2022
1073 Clouds 19 1021 45 10000 1.92 215 09:20 13.07.2022
1074 Clouds 12 1022 84 10000 1.72 219 05:29 13.07.2022
1075 Clouds 13 1024 72 10000 1.05 237 01:22 13.07.2022
1076 Clouds 14 1024 65 10000 0.89 245 23:35 12.07.2022
1077 Clouds 17 1024 57 10000 0.84 266 21:54 12.07.2022
1078 Clouds 17 1024 55 10000 1.07 300 21:18 12.07.2022
1079 Clouds 19 1024 46 10000 1.07 300 20:41 12.07.2022
1080 Clouds 23 1023 36 10000 2.54 327 18:56 12.07.2022
1081 Clouds 23 1023 36 10000 3.6 325 17:38 12.07.2022
1082 Clouds 22 1023 41 10000 3.55 320 15:42 12.07.2022
1083 Clouds 21 1024 43 10000 3.39 307 14:23 12.07.2022
1084 Clouds 17 1024 64 10000 2.48 299 12:19 12.07.2022
1085 Clouds 16 1024 68 10000 1.46 288 11:22 12.07.2022
1086 Clouds 13 1025 79 10000 1.34 296 09:28 12.07.2022
1087 Clouds 12 1025 85 10000 1.05 295 08:18 12.07.2022
1088 Clouds 9 1024 93 10000 1.08 296 06:24 12.07.2022
1089 Clouds 8 1024 94 10000 1.08 296 05:39 12.07.2022
1090 Clouds 10 1024 92 10000 1.26 328 02:21 12.07.2022
1091 Clouds 12 1024 91 10000 1.32 296 23:18 11.07.2022
1092 Clouds 12 1024 91 10000 1.66 287 22:29 11.07.2022
1093 Clouds 13 1023 87 10000 1.85 290 20:33 11.07.2022
1094 Clouds 13 1023 84 10000 2.5 294 19:36 11.07.2022
1095 Clouds 14 1023 80 10000 3.09 301 18:32 11.07.2022
1096 Clouds 15 1022 74 10000 3.09 306 17:39 11.07.2022
1097 Clouds 14 1023 74 10000 3.14 296 16:18 11.07.2022
1098 Clouds 15 1022 65 10000 4.23 295 14:37 11.07.2022
1099 Clouds 13 1022 77 10000 3.85 317 11:49 11.07.2022
1100 Clouds 12 1022 80 10000 3.68 323 10:29 11.07.2022
1101 Clouds 11 1022 82 10000 3.68 323 09:42 11.07.2022
1102 Clouds 11 1022 86 10000 2.78 319 08:34 11.07.2022
1103 Clouds 9 1022 88 10000 1.63 285 05:52 11.07.2022
1104 Clouds 10 1023 87 10000 2.1 296 00:22 11.07.2022
1105 Clouds 10 1022 85 10000 2.48 292 22:58 10.07.2022
1106 Clouds 11 1022 75 10000 3.09 292 21:51 10.07.2022
1107 Clouds 12 1022 77 10000 3.51 294 20:54 10.07.2022
1108 Clouds 12 1022 71 10000 4.16 292 19:50 10.07.2022
1109 Clouds 12 1022 71 10000 4.16 292 19:50 10.07.2022
1110 Clouds 12 1022 71 10000 4.16 292 19:50 10.07.2022
1111 Clouds 13 1022 71 10000 4.47 300 18:50 10.07.2022
1112 Clouds 13 1022 70 10000 5.04 301 17:40 10.07.2022
1113 Clouds 13 1022 64 10000 4.54 294 16:57 10.07.2022
1114 Clouds 13 1022 62 10000 5.67 299 16:19 10.07.2022
1115 Clouds 14 1022 56 10000 5.83 302 14:33 10.07.2022
1116 Clouds 13 1022 61 10000 5.69 306 12:30 10.07.2022
1117 Clouds 13 1022 63 10000 5.66 303 11:34 10.07.2022
1118 Clouds 9 1023 81 10000 4.61 303 08:46 10.07.2022
1119 Clouds 9 1023 82 10000 4.22 302 08:24 10.07.2022
1120 Clouds 9 1023 74 10000 3.68 293 03:38 10.07.2022
1121 Clouds 10 1024 86 10000 4.05 311 23:30 09.07.2022
1122 Clouds 11 1023 66 10000 4.8 328 22:25 09.07.2022
1123 Clouds 12 1022 66 10000 4.59 331 21:29 09.07.2022
1124 Clouds 16 1022 64 10000 5.8 327 18:59 09.07.2022
1125 Clouds 16 1022 64 10000 5.55 316 17:59 09.07.2022
1126 Clouds 16 1022 67 10000 4.78 285 16:59 09.07.2022
1127 Clouds 17 1023 67 10000 5.08 289 15:54 09.07.2022
1128 Clouds 17 1023 70 10000 5.08 289 15:35 09.07.2022
1129 Clouds 16 1023 68 10000 5.2 283 13:54 09.07.2022
1130 Clouds 16 1024 72 10000 4.37 280 13:27 09.07.2022
1131 Clouds 14 1025 75 10000 3.39 274 11:34 09.07.2022
1132 Clouds 14 1025 83 10000 2.43 270 10:24 09.07.2022
1133 Clouds 12 1025 88 10000 2.72 289 08:27 09.07.2022
1134 Clouds 12 1026 86 10000 1.62 264 06:59 09.07.2022
1135 Clouds 10 1026 95 10000 1.6 267 04:35 09.07.2022
1136 Clouds 12 1027 83 10000 1.78 269 23:27 08.07.2022
1137 Clouds 13 1028 81 10000 2.08 268 21:59 08.07.2022
1138 Clouds 14 1027 78 10000 1.99 273 21:20 08.07.2022
1139 Clouds 14 1027 74 10000 1.99 273 20:33 08.07.2022
1140 Clouds 15 1027 69 10000 4.04 308 18:36 08.07.2022
1141 Clouds 15 1027 72 10000 4.27 310 17:45 08.07.2022
1142 Clouds 15 1028 67 10000 3.94 318 15:53 08.07.2022
1143 Clouds 15 1027 64 10000 5.55 322 14:50 08.07.2022
1144 Clouds 14 1027 63 10000 5.21 306 12:30 08.07.2022
1145 Clouds 12 1028 68 10000 4.4 306 10:46 08.07.2022
1146 Clouds 10 1028 76 10000 4.4 308 09:42 08.07.2022
1147 Clouds 9 1027 82 10000 3.51 302 06:55 08.07.2022
1148 Clouds 9 1026 83 10000 3.07 296 04:32 08.07.2022
1149 Clouds 10 1024 82 10000 5.29 307 00:23 08.07.2022
1150 Clouds 10 1024 81 10000 5.99 309 22:47 07.07.2022
1151 Clear 10 1023 83 10000 6.11 315 21:41 07.07.2022
1152 Clouds 11 1020 83 10000 6.52 317 19:28 07.07.2022
1153 Rain 13 1019 89 10000 6.44 311 17:43 07.07.2022
1154 Clouds 13 1018 88 10000 5.03 298 15:58 07.07.2022
1155 Clouds 12 1017 92 4567 5.1 297 13:33 07.07.2022
1156 Rain 12 1017 93 4496 4.85 282 12:41 07.07.2022
1157 Clouds 13 1016 91 5584 4.7 286 12:22 07.07.2022
1158 Rain 12 1016 92 5584 4.7 286 11:32 07.07.2022
1159 Rain 11 1016 92 4629 3.45 277 10:45 07.07.2022
1160 Clouds 11 1016 92 1573 3.3 257 10:27 07.07.2022
1161 Rain 10 1016 94 2260 3.11 225 08:40 07.07.2022
1162 Clouds 9 1018 92 9086 3.18 221 05:44 07.07.2022
1163 Rain 11 1021 69 10000 1.98 222 00:18 07.07.2022
1164 Clouds 11 1021 63 10000 1.98 222 23:36 06.07.2022
1165 Clouds 11 1021 65 10000 1.72 231 23:18 06.07.2022
1166 Clouds 11 1021 65 10000 1.72 231 22:47 06.07.2022
1167 Clouds 11 1021 65 10000 1.72 231 22:47 06.07.2022
1168 Clouds 11 1021 61 10000 1.72 255 22:28 06.07.2022
1169 Clouds 15 1021 49 10000 3.13 306 19:46 06.07.2022
1170 Clouds 15 1021 47 10000 3.61 304 18:48 06.07.2022
1171 Clouds 15 1022 46 10000 4.1 288 16:58 06.07.2022
1172 Clouds 15 1023 44 10000 4.16 291 15:50 06.07.2022
1173 Clouds 14 1023 53 10000 4.11 295 12:44 06.07.2022
1174 Clouds 14 1023 56 10000 3.67 294 11:52 06.07.2022
1175 Clouds 13 1023 58 10000 3.86 295 10:48 06.07.2022
1176 Clouds 12 1024 66 10000 3.75 297 08:46 06.07.2022
1177 Clouds 10 1024 74 10000 3.32 294 07:43 06.07.2022
1178 Clouds 9 1023 77 10000 2.39 287 06:43 06.07.2022
1179 Clouds 14 1022 72 10000 2.87 314 22:52 05.07.2022
1180 Clouds 13 1022 57 10000 2.87 314 22:34 05.07.2022
1181 Clouds 17 1021 61 10000 2.46 319 20:45 05.07.2022
1182 Clouds 17 1021 43 10000 4.11 326 19:54 05.07.2022
1183 Clouds 17 1020 42 10000 4.01 332 19:35 05.07.2022
1184 Clouds 19 1019 40 10000 3.26 285 17:49 05.07.2022
1185 Clouds 19 1020 39 10000 3.57 272 17:18 05.07.2022
1186 Clouds 20 1020 41 10000 3.81 268 15:39 05.07.2022
1187 Clouds 18 1020 45 10000 2.97 272 14:44 05.07.2022
1188 Clouds 18 1020 51 10000 3.64 275 12:53 05.07.2022
1189 Clouds 17 1021 57 10000 3.59 281 12:21 05.07.2022
1190 Clouds 17 1021 59 10000 3.14 288 10:45 05.07.2022
1191 Clouds 15 1021 66 10000 2.63 293 09:44 05.07.2022
1192 Clear 14 1021 69 10000 1.69 290 08:20 05.07.2022
1193 Clear 10 1021 80 10000 0.97 262 06:47 05.07.2022
1194 Clear 9 1020 82 10000 0.33 14 04:28 05.07.2022
1195 Clouds 12 1020 63 10000 0.99 336 00:43 05.07.2022
1196 Clouds 13 1020 56 10000 1.06 332 23:36 04.07.2022
1197 Clouds 13 1020 58 10000 0.94 315 22:54 04.07.2022
1198 Clouds 14 1020 54 10000 1.11 301 21:56 04.07.2022
1199 Clear 17 1019 47 10000 1.58 275 20:55 04.07.2022
1200 Clear 18 1019 42 10000 1.58 275 20:35 04.07.2022
1201 Clear 19 1018 42 10000 3 272 19:56 04.07.2022
1202 Clear 19 1018 41 10000 3 272 19:36 04.07.2022
1203 Clear 20 1018 39 10000 3.38 284 18:34 04.07.2022
1204 Clear 20 1018 39 10000 3.69 284 16:42 04.07.2022
1205 Clear 20 1019 39 10000 3.62 282 15:34 04.07.2022
1206 Clouds 19 1019 45 10000 3.33 285 13:41 04.07.2022
1207 Clouds 18 1019 51 10000 3.32 287 12:38 04.07.2022
1208 Clear 16 1019 57 10000 3.33 277 10:39 04.07.2022
1209 Clear 16 1020 59 10000 3.3 281 10:20 04.07.2022
1210 Clear 14 1020 70 10000 2.88 283 08:31 04.07.2022
1211 Clear 9 1019 82 10000 1.58 275 05:36 04.07.2022
1212 Clouds 13 1018 74 10000 2.03 300 00:44 04.07.2022
1213 Clouds 13 1018 74 10000 2.03 300 00:44 04.07.2022
1214 Clouds 12 1018 83 10000 2.02 315 23:38 03.07.2022
1215 Clouds 16 1017 72 10000 1.41 323 22:27 03.07.2022
1216 Clouds 16 1017 63 10000 1.95 323 20:45 03.07.2022
1217 Clouds 21 1016 44 10000 2.73 341 19:42 03.07.2022
1218 Clouds 22 1016 46 10000 3.92 314 19:23 03.07.2022
1219 Clouds 24 1015 37 10000 3.12 286 17:46 03.07.2022
1220 Clouds 24 1015 39 10000 2.97 280 17:18 03.07.2022
1221 Clouds 24 1016 36 10000 3.45 253 15:26 03.07.2022
1222 Clouds 24 1016 38 10000 3.45 253 14:49 03.07.2022
1223 Clear 23 1017 39 10000 3.76 250 13:49 03.07.2022
1224 Clear 22 1017 44 10000 3.64 247 12:42 03.07.2022
1225 Clear 22 1017 44 10000 3.6 248 11:46 03.07.2022
1226 Clear 21 1017 44 10000 3.33 243 10:51 03.07.2022
1227 Clear 21 1017 43 10000 3.33 243 10:33 03.07.2022
1228 Clear 17 1018 55 10000 1.88 205 07:38 03.07.2022
1229 Clear 13 1018 69 10000 1.57 169 05:34 03.07.2022
1230 Clear 15 1020 59 10000 1.58 118 00:26 03.07.2022
1231 Clear 16 1020 53 10000 1.44 128 22:37 02.07.2022
1232 Clear 16 1020 51 10000 1.49 133 22:18 02.07.2022
1233 Clear 20 1020 38 10000 2.25 136 20:21 02.07.2022
1234 Clear 21 1020 38 10000 2.25 136 19:49 02.07.2022
1235 Clear 22 1020 36 10000 3.04 167 18:20 02.07.2022
1236 Clear 22 1020 36 10000 3.04 167 17:37 02.07.2022
1237 Clear 22 1021 37 10000 2.67 186 15:46 02.07.2022
1238 Clear 19 1023 47 10000 2.8 204 12:56 02.07.2022
1239 Clear 18 1023 48 10000 2.78 208 11:48 02.07.2022
1240 Clear 17 1024 51 10000 2.82 211 10:50 02.07.2022
1241 Clear 15 1024 57 10000 2.66 213 09:49 02.07.2022
1242 Clear 14 1024 64 10000 2 205 08:37 02.07.2022
1243 Clear 13 1024 68 10000 1.46 200 08:19 02.07.2022
1244 Clear 8 1023 85 10000 1.39 203 02:53 02.07.2022
1245 Clouds 9 1023 88 10000 1.44 223 00:28 02.07.2022
1246 Clouds 10 1022 86 10000 1.27 219 22:59 01.07.2022
1247 Clouds 11 1022 83 10000 0.91 199 22:29 01.07.2022
1248 Clouds 11 1022 87 10000 0.91 199 21:37 01.07.2022
1249 Clouds 11 1022 87 10000 0.91 199 21:37 01.07.2022
1250 Clouds 13 1021 82 10000 1.39 239 20:58 01.07.2022
1251 Clouds 13 1020 79 10000 2.83 263 20:20 01.07.2022
1252 Clouds 14 1020 74 10000 2.13 245 19:36 01.07.2022
1253 Rain 12 1019 85 10000 1.97 252 16:41 01.07.2022
1254 Rain 11 1018 92 5211 3.07 262 14:29 01.07.2022
1255 Rain 11 1018 92 5211 3.07 262 13:39 01.07.2022
1256 Rain 11 1017 93 10000 4.44 267 10:54 01.07.2022
1257 Rain 11 1016 93 10000 4.06 270 10:19 01.07.2022
1258 Rain 11 1015 93 5210 3.2 277 06:31 01.07.2022
1259 Rain 13 1014 98 96 5.1 246 02:43 01.07.2022
1260 Clear 18 1011 88 10000 2.32 119 23:44 30.06.2022
1261 Clear 18 1011 87 10000 2.07 109 22:50 30.06.2022
1262 Clear 18 1011 87 10000 2.07 109 22:31 30.06.2022
1263 Clear 16 1011 86 10000 2.05 111 21:53 30.06.2022
1264 Clear 18 1010 83 10000 2.21 88 20:49 30.06.2022
1265 Clouds 24 1010 48 10000 2.37 89 20:21 30.06.2022
1266 Clouds 24 1010 46 10000 2.19 89 19:48 30.06.2022
1267 Clouds 25 1010 44 10000 2.21 98 18:54 30.06.2022
1268 Clouds 25 1010 44 10000 1.43 105 17:56 30.06.2022
1269 Clouds 25 1011 44 10000 0.69 124 17:18 30.06.2022
1270 Clouds 25 1011 47 10000 0.86 192 16:18 30.06.2022
1271 Clouds 24 1012 54 10000 0.59 223 14:20 30.06.2022
1272 Clouds 23 1012 57 8603 0.6 159 13:21 30.06.2022
1273 Clouds 22 1012 64 8603 0.6 159 12:34 30.06.2022
1274 Clouds 21 1012 63 10000 1.17 119 10:57 30.06.2022
1275 Clouds 19 1012 71 10000 0.97 137 09:51 30.06.2022
1276 Clouds 18 1013 74 10000 1.21 134 09:23 30.06.2022
1277 Clouds 14 1013 79 10000 1.23 113 07:41 30.06.2022
1278 Clouds 12 1013 81 10000 0.99 110 05:46 30.06.2022
1279 Clouds 15 1014 65 10000 2.08 82 23:56 29.06.2022
1280 Clouds 15 1014 70 10000 2.18 80 22:53 29.06.2022
1281 Clouds 16 1014 65 10000 2.18 80 22:33 29.06.2022
1282 Clear 18 1014 57 10000 1.91 79 20:56 29.06.2022
1283 Clear 19 1014 55 10000 1.91 79 20:32 29.06.2022
1284 Clouds 19 1013 56 10000 2.62 64 19:33 29.06.2022
1285 Clouds 20 1014 54 10000 3.46 80 17:40 29.06.2022
1286 Clouds 20 1014 58 10000 3.79 86 16:33 29.06.2022
1287 Clouds 19 1016 61 10000 2.33 75 14:19 29.06.2022
1288 Rain 18 1017 59 10000 2.22 84 12:39 29.06.2022
1289 Rain 18 1017 58 10000 4.71 119 10:25 29.06.2022
1290 Clouds 18 1017 57 10000 4.71 119 09:31 29.06.2022
1291 Clouds 14 1017 60 10000 2.87 102 07:30 29.06.2022
1292 Clouds 11 1018 60 10000 1.95 97 04:49 29.06.2022
1293 Clouds 11 1019 62 10000 1.97 57 00:56 29.06.2022
1294 Clouds 12 1019 62 10000 1.97 57 00:35 29.06.2022
1295 Clouds 14 1020 58 10000 1.52 62 22:53 28.06.2022
1296 Clouds 15 1020 55 10000 1.53 49 22:23 28.06.2022
1297 Clouds 15 1020 55 10000 1.53 49 21:53 28.06.2022
1298 Clouds 16 1020 67 10000 1.53 49 21:31 28.06.2022
1299 Clouds 19 1019 40 10000 1.61 19 20:34 28.06.2022
1300 Clouds 19 1019 40 10000 1.12 358 19:33 28.06.2022
1301 Clouds 19 1019 40 10000 1.12 358 19:33 28.06.2022
1302 Clear 20 1019 37 10000 0.52 50 18:45 28.06.2022
1303 Clear 20 1019 37 10000 0.52 50 18:45 28.06.2022
1304 Clear 20 1019 37 10000 0.82 58 17:39 28.06.2022
1305 Clouds 20 1020 38 10000 1.97 356 15:57 28.06.2022
1306 Clouds 20 1020 38 10000 1.97 356 15:36 28.06.2022
1307 Clouds 19 1021 40 10000 2.55 320 14:20 28.06.2022
1308 Clouds 19 1021 43 10000 2.55 320 13:51 28.06.2022
1309 Clouds 18 1021 49 10000 2.32 303 12:55 28.06.2022
1310 Clear 16 1022 58 10000 2.57 292 11:18 28.06.2022
1311 Clear 14 1022 67 10000 2.77 296 09:29 28.06.2022
1312 Clear 12 1022 74 10000 2.77 296 08:43 28.06.2022
1313 Clouds 12 1022 78 10000 2.28 270 07:42 28.06.2022
1314 Clouds 9 1022 96 10000 1.45 253 06:20 28.06.2022
1315 Clouds 13 1021 92 10000 3.15 270 00:58 28.06.2022
1316 Clouds 13 1020 90 10000 2.9 283 23:37 27.06.2022
1317 Clouds 13 1021 93 10000 4.43 275 22:52 27.06.2022
1318 Clouds 14 1019 93 10000 4.56 275 21:37 27.06.2022
1319 Clouds 16 1018 80 10000 5.21 275 20:52 27.06.2022
1320 Clouds 17 1017 73 10000 4.71 254 19:33 27.06.2022
1321 Clouds 19 1017 78 10000 2.94 274 18:25 27.06.2022
1322 Clouds 18 1016 84 10000 4.84 275 16:20 27.06.2022
1323 Clouds 21 1015 73 10000 3.71 266 15:22 27.06.2022
1324 Rain 21 1014 67 10000 3.25 256 13:37 27.06.2022
1325 Clouds 22 1014 66 10000 2.95 255 12:56 27.06.2022
1326 Clouds 19 1014 83 10000 1.24 252 10:34 27.06.2022
1327 Rain 17 1014 81 10000 0.27 256 09:21 27.06.2022
1328 Rain 16 1014 82 10000 0.83 286 08:30 27.06.2022
1329 Clouds 15 1014 90 10000 0.88 60 06:39 27.06.2022
1330 Clouds 15 1015 85 10000 0.72 191 03:55 27.06.2022
1331 Clouds 14 1014 95 10000 1.83 62 01:18 27.06.2022
1332 Clouds 14 1016 89 10000 1.76 56 22:22 26.06.2022
1333 Clouds 15 1015 90 10000 1.26 43 20:48 26.06.2022
1334 Clouds 16 1015 85 10000 1.31 15 19:42 26.06.2022
1335 Clouds 16 1015 89 10000 2.05 344 18:31 26.06.2022
1336 Clouds 21 1015 62 10000 3.3 277 17:22 26.06.2022
1337 Clouds 23 1014 55 10000 0.91 285 15:27 26.06.2022
1338 Clouds 23 1015 51 10000 1 263 13:53 26.06.2022
1339 Clouds 24 1015 47 10000 1.92 259 13:20 26.06.2022
1340 Clouds 23 1015 55 10000 2.13 256 11:26 26.06.2022
1341 Clouds 22 1014 47 10000 1.76 234 10:28 26.06.2022
1342 Clouds 21 1014 49 10000 1.76 234 09:39 26.06.2022
1343 Clouds 18 1014 63 10000 1.24 215 07:45 26.06.2022
1344 Clouds 15 1013 72 10000 1.03 152 02:52 26.06.2022
1345 Clouds 15 1014 73 10000 0.61 143 00:21 26.06.2022
1346 Clouds 16 1014 72 10000 0.61 143 23:51 25.06.2022
1347 Clouds 16 1013 66 10000 0.81 137 23:24 25.06.2022
1348 Clouds 17 1013 68 10000 0.82 137 22:27 25.06.2022
1349 Clouds 18 1013 71 10000 0.82 137 21:46 25.06.2022
1350 Clouds 19 1013 61 10000 0.63 148 21:20 25.06.2022
1351 Clouds 21 1013 55 10000 0.63 148 20:30 25.06.2022
1352 Clouds 22 1012 52 10000 0.97 82 19:55 25.06.2022
1353 Clouds 22 1012 47 10000 0.74 331 18:19 25.06.2022
1354 Clouds 22 1012 50 10000 0.88 295 17:25 25.06.2022
1355 Clouds 22 1012 49 10000 1.03 251 16:24 25.06.2022
1356 Clouds 22 1012 49 10000 2.12 240 13:51 25.06.2022
1357 Clouds 21 1012 64 10000 2.33 248 12:39 25.06.2022
1358 Clouds 20 1012 69 10000 2.37 261 11:34 25.06.2022
1359 Clouds 17 1013 73 10000 2.55 259 09:22 25.06.2022
1360 Clouds 16 1013 76 10000 2.55 259 08:46 25.06.2022
1361 Clouds 16 1013 79 10000 2.52 249 08:19 25.06.2022
1362 Rain 13 1012 97 10000 1.56 223 05:26 25.06.2022
1363 Clouds 14 1011 92 10000 1.15 216 00:44 25.06.2022
1364 Clouds 14 1011 92 10000 1.15 216 00:44 25.06.2022
1365 Clear 15 1010 87 10000 1.33 240 23:18 24.06.2022
1366 Clear 15 1009 94 10000 1.12 248 21:57 24.06.2022
1367 Clouds 17 1009 89 10000 1.51 259 21:21 24.06.2022
1368 Clouds 19 1008 70 10000 2.51 253 20:22 24.06.2022
1369 Clouds 19 1007 70 10000 4.15 228 19:23 24.06.2022
1370 Clouds 20 1007 61 10000 4.15 228 18:50 24.06.2022
1371 Clouds 22 1007 50 10000 4.15 228 18:30 24.06.2022
1372 Clouds 19 1007 73 10000 4.06 209 17:46 24.06.2022
1373 Rain 22 1007 55 10000 4.87 201 15:56 24.06.2022
1374 Clouds 21 1008 59 10000 4.12 209 14:29 24.06.2022
1375 Clouds 21 1008 58 10000 4.12 209 13:55 24.06.2022
1376 Clouds 21 1008 58 10000 4.12 209 13:55 24.06.2022
1377 Rain 20 1008 59 10000 4.58 205 11:54 24.06.2022
1378 Clouds 20 1008 57 10000 4.58 205 11:34 24.06.2022
1379 Clouds 21 1008 62 10000 3.74 204 10:22 24.06.2022
1380 Clouds 21 1008 54 10000 3.74 204 09:41 24.06.2022
1381 Clouds 20 1008 62 10000 3.15 200 08:52 24.06.2022
1382 Clear 16 1009 68 10000 1.63 172 07:20 24.06.2022
1383 Clear 16 1009 57 10000 1.63 172 06:42 24.06.2022
1384 Clear 15 1009 56 10000 1.92 178 06:18 24.06.2022
1385 Clear 14 1010 55 10000 2.7 107 02:44 24.06.2022
1386 Clear 18 1012 48 10000 2.34 100 22:58 23.06.2022
1387 Clear 18 1012 48 10000 2.34 100 22:40 23.06.2022
1388 Clear 18 1012 51 10000 2.08 96 20:57 23.06.2022
1389 Clear 24 1012 51 10000 2.08 96 20:32 23.06.2022
1390 Clear 25 1012 29 10000 1.96 124 19:25 23.06.2022
1391 Clear 26 1012 27 10000 1.74 139 17:51 23.06.2022
1392 Clear 27 1012 28 10000 2.46 150 16:58 23.06.2022
1393 Clear 27 1012 28 10000 2.28 158 15:50 23.06.2022
1394 Clear 26 1013 28 10000 2.26 156 15:24 23.06.2022
1395 Clear 24 1013 39 10000 1.74 162 13:33 23.06.2022
1396 Clear 23 1014 39 10000 1.94 141 11:27 23.06.2022
1397 Clear 21 1014 43 10000 1.94 141 10:35 23.06.2022
1398 Clear 18 1014 54 10000 1.6 112 08:53 23.06.2022
1399 Clouds 10 1014 64 10000 1.06 102 03:35 23.06.2022
1400 Clouds 12 1014 58 10000 0.82 65 00:26 23.06.2022
1401 Clouds 13 1014 55 10000 0.82 65 23:30 22.06.2022
1402 Clouds 15 1014 54 10000 0.78 71 22:39 22.06.2022
1403 Clear 17 1013 52 10000 1.55 33 21:22 22.06.2022
1404 Clear 17 1013 51 10000 1.55 33 20:42 22.06.2022
1405 Clouds 19 1012 42 10000 1.39 7 19:56 22.06.2022
1406 Clouds 21 1012 38 10000 1.38 356 18:47 22.06.2022
1407 Clouds 22 1011 41 10000 0.82 352 17:28 22.06.2022
1408 Clouds 22 1012 41 10000 0.83 329 16:24 22.06.2022
1409 Clouds 21 1012 42 10000 0.75 337 15:26 22.06.2022
1410 Clouds 21 1012 43 10000 0.83 307 14:20 22.06.2022
1411 Clouds 21 1012 42 10000 0.83 307 13:39 22.06.2022
1412 Clouds 20 1013 44 10000 1.03 292 13:21 22.06.2022
1413 Clouds 18 1013 51 10000 0.28 46 11:49 22.06.2022
1414 Clouds 18 1013 50 10000 0.59 56 10:55 22.06.2022
1415 Clouds 17 1013 50 10000 1.09 25 10:19 22.06.2022
1416 Clouds 13 1013 66 10000 1.47 21 08:28 22.06.2022
1417 Clouds 8 1013 73 10000 0.54 29 04:50 22.06.2022
1418 Clouds 9 1014 72 10000 0.73 138 01:23 22.06.2022
1419 Clear 9 1014 72 10000 0.91 115 00:29 22.06.2022
1420 Clouds 12 1014 68 10000 0.63 79 22:19 21.06.2022
1421 Clouds 17 1013 51 10000 0.38 20 19:56 21.06.2022
1422 Clouds 18 1013 45 10000 0.86 351 18:36 21.06.2022
1423 Clouds 18 1013 45 10000 0.95 337 17:39 21.06.2022
1424 Clouds 18 1014 45 10000 0.42 314 14:22 21.06.2022
1425 Clouds 14 1015 61 10000 1.49 263 11:49 21.06.2022
1426 Clouds 11 1016 64 10000 2.03 266 10:19 21.06.2022
1427 Clouds 9 1017 74 10000 2.54 256 08:48 21.06.2022
1428 Clouds 7 1017 84 10000 1.47 260 07:23 21.06.2022
1429 Clear 7 1017 82 10000 2.57 295 01:43 21.06.2022
1430 Clear 9 1015 73 10000 3.81 304 23:26 20.06.2022
1431 Clear 11 1015 60 10000 4.41 307 21:58 20.06.2022
1432 Clear 11 1015 59 10000 4.41 307 21:30 20.06.2022
1433 Clouds 14 1014 53 10000 5.47 310 19:44 20.06.2022
1434 Clouds 14 1013 53 10000 6 304 18:53 20.06.2022
1435 Clouds 14 1013 53 10000 5.48 303 18:23 20.06.2022
1436 Clouds 15 1013 51 10000 5.48 303 17:36 20.06.2022
1437 Clouds 15 1012 62 10000 4.47 282 16:20 20.06.2022
1438 Clouds 7 1014 76 10000 2.31 273 14:18 20.06.2022
1439 Rain 8 1013 87 10000 2.12 289 11:30 20.06.2022
1440 Rain 9 1012 87 539 2.83 342 09:48 20.06.2022
1441 Rain 9 1011 86 344 1.53 309 08:45 20.06.2022
1442 Rain 9 1012 87 769 1.74 294 06:59 20.06.2022
1443 Clouds 11 1012 85 10000 1.19 5 03:29 20.06.2022
1444 Clouds 10 1013 84 10000 1.33 19 00:37 20.06.2022
1445 Clouds 11 1012 95 10000 1.19 17 23:29 19.06.2022
1446 Clouds 12 1012 93 10000 1.72 355 22:19 19.06.2022
1447 Clouds 12 1012 93 10000 1.72 355 22:19 19.06.2022
1448 Clouds 12 1012 93 10000 1.72 355 21:41 19.06.2022
1449 Clouds 15 1011 59 10000 3.02 350 20:48 19.06.2022
1450 Clouds 17 1010 54 10000 3.3 333 19:48 19.06.2022
1451 Clouds 17 1010 52 10000 4 331 19:24 19.06.2022
1452 Clouds 20 1010 46 10000 4 331 18:31 19.06.2022
1453 Clouds 21 1009 52 10000 3.05 328 17:39 19.06.2022
1454 Clouds 21 1009 52 10000 3.12 311 16:39 19.06.2022
1455 Clouds 21 1009 55 10000 4.47 304 15:44 19.06.2022
1456 Clouds 21 1008 57 10000 4.52 292 15:26 19.06.2022
1457 Clouds 21 1008 50 10000 5.19 292 14:41 19.06.2022
1458 Clouds 24 1007 45 10000 4.6 286 13:44 19.06.2022
1459 Clouds 26 1007 44 10000 5.52 261 12:19 19.06.2022
1460 Clouds 24 1007 48 10000 5.39 245 10:52 19.06.2022
1461 Clear 23 1007 48 10000 4.12 210 08:55 19.06.2022
1462 Clear 23 1007 40 10000 4.12 210 08:32 19.06.2022
1463 Clouds 18 1008 63 10000 2.05 186 07:26 19.06.2022
1464 Clouds 16 1010 72 10000 1.69 159 03:57 19.06.2022
1465 Clouds 18 1013 68 10000 2.03 113 00:51 19.06.2022
1466 Clouds 19 1013 67 10000 1.95 88 00:22 19.06.2022
1467 Clouds 19 1013 64 10000 1.95 88 23:35 18.06.2022
1468 Clouds 20 1014 59 10000 1.51 83 22:30 18.06.2022
1469 Clear 23 1014 58 10000 0.73 13 20:51 18.06.2022
1470 Clouds 25 1014 48 10000 0.44 301 20:18 18.06.2022
1471 Clouds 27 1014 40 10000 1.84 285 18:57 18.06.2022
1472 Clouds 28 1014 34 10000 1.84 285 18:38 18.06.2022
1473 Clouds 28 1015 33 10000 4.11 277 17:29 18.06.2022
1474 Clouds 28 1016 31 10000 4.59 273 16:18 18.06.2022
1475 Clouds 28 1016 34 10000 4.71 268 14:58 18.06.2022
1476 Clouds 28 1016 35 10000 4.71 268 14:37 18.06.2022
1477 Clear 25 1017 42 10000 4.57 258 12:31 18.06.2022
1478 Clear 24 1017 45 10000 4.38 252 11:25 18.06.2022
1479 Clear 23 1018 43 10000 4.09 246 10:23 18.06.2022
1480 Clear 21 1018 46 10000 3.63 241 08:59 18.06.2022
1481 Clouds 16 1018 70 10000 3.17 228 07:34 18.06.2022
1482 Clouds 16 1018 70 10000 3.17 228 07:34 18.06.2022
1483 Clouds 13 1019 69 10000 2.15 211 05:58 18.06.2022
1484 Clouds 13 1020 67 10000 2.03 196 02:53 18.06.2022
1485 Clouds 13 1022 66 10000 1.87 180 01:23 18.06.2022
1486 Clouds 14 1022 65 10000 1.87 180 00:39 18.06.2022
1487 Clouds 15 1022 64 10000 1.83 170 23:40 17.06.2022
1488 Clouds 15 1023 53 10000 1.86 163 22:49 17.06.2022
1489 Clouds 19 1023 62 10000 1.35 149 20:33 17.06.2022
1490 Clouds 20 1023 43 10000 0.87 243 19:24 17.06.2022
1491 Clouds 21 1023 41 10000 1.8 239 18:19 17.06.2022
1492 Rain 21 1023 36 10000 2.19 261 17:21 17.06.2022
1493 Clouds 21 1023 36 10000 2.19 261 16:37 17.06.2022
1494 Clouds 21 1023 37 10000 2.78 258 15:41 17.06.2022
1495 Clouds 21 1024 37 10000 3.01 255 14:37 17.06.2022
1496 Clouds 21 1024 40 10000 2.24 253 14:18 17.06.2022
1497 Clouds 20 1024 42 10000 2.24 253 13:41 17.06.2022
1498 Clouds 19 1024 43 10000 1.96 257 12:42 17.06.2022
1499 Clouds 18 1024 46 10000 2.16 276 11:56 17.06.2022
1500 Clouds 18 1024 47 10000 2.16 276 11:34 17.06.2022
1501 Clouds 15 1025 54 10000 1.3 284 09:49 17.06.2022
1502 Clouds 13 1024 56 10000 0.98 281 08:27 17.06.2022
1503 Clouds 9 1025 72 10000 0.86 249 06:51 17.06.2022
1504 Clouds 7 1025 73 10000 0.6 285 04:49 17.06.2022
1505 Clouds 9 1025 69 10000 0.92 353 01:57 17.06.2022
1506 Clouds 10 1025 60 10000 1.21 347 00:26 17.06.2022
1507 Clouds 7 1024 76 10000 1.59 328 22:43 16.06.2022
1508 Clouds 14 1023 64 10000 2.91 335 21:23 16.06.2022
1509 Clouds 14 1023 64 10000 2.91 335 20:56 16.06.2022
1510 Clouds 16 1023 43 10000 2.91 335 20:36 16.06.2022
1511 Clouds 16 1023 43 10000 2.91 335 20:36 16.06.2022
1512 Clear 18 1022 39 10000 3.88 331 19:45 16.06.2022
1513 Clear 19 1021 36 10000 4.93 327 18:27 16.06.2022
1514 Clear 19 1021 38 10000 4.93 327 17:43 16.06.2022
1515 Clear 20 1021 41 10000 4.92 329 16:39 16.06.2022
1516 Clear 19 1020 44 10000 4.2 328 15:22 16.06.2022
1517 Clear 20 1020 44 10000 4.2 328 14:46 16.06.2022
1518 Clouds 19 1020 48 10000 4.05 327 13:32 16.06.2022
1519 Clouds 18 1020 52 10000 3.99 330 12:36 16.06.2022
1520 Clouds 17 1020 55 10000 3.82 338 11:52 16.06.2022
1521 Clouds 15 1019 61 10000 3.49 339 10:56 16.06.2022
1522 Clouds 15 1019 61 10000 2.7 349 10:20 16.06.2022
1523 Clouds 12 1019 67 10000 2.65 344 09:21 16.06.2022
1524 Clouds 11 1019 69 10000 2.65 344 08:30 16.06.2022
1525 Clouds 11 1018 69 10000 1.59 344 07:26 16.06.2022
1526 Clouds 10 1018 77 10000 1.64 330 04:50 16.06.2022
1527 Clouds 11 1018 76 10000 0.77 344 02:21 16.06.2022
1528 Clouds 12 1018 74 10000 0.77 344 01:42 16.06.2022
1529 Clouds 13 1018 73 10000 0.98 320 01:21 16.06.2022
1530 Clouds 10 1018 78 10000 0.96 349 23:47 15.06.2022
1531 Clouds 10 1018 78 10000 0.96 349 23:47 15.06.2022
1532 Clouds 15 1018 55 10000 0.88 30 22:38 15.06.2022
1533 Clouds 17 1017 55 10000 1.52 35 21:22 15.06.2022
1534 Clouds 17 1017 73 10000 1.52 35 20:45 15.06.2022
1535 Clouds 20 1017 43 10000 1.65 10 20:27 15.06.2022
1536 Clouds 21 1017 38 10000 1.64 20 19:30 15.06.2022
1537 Clouds 22 1017 35 10000 2.08 315 17:56 15.06.2022
1538 Clouds 22 1017 35 10000 2.08 315 17:32 15.06.2022
1539 Clouds 22 1017 37 10000 2.3 282 15:46 15.06.2022
1540 Rain 22 1018 37 10000 1.8 270 14:26 15.06.2022
1541 Rain 19 1018 41 10000 1.47 261 12:54 15.06.2022
1542 Rain 20 1019 42 10000 1.12 251 12:28 15.06.2022
1543 Clear 16 1019 48 10000 0.46 142 10:27 15.06.2022
1544 Clear 16 1019 50 10000 0.46 142 09:45 15.06.2022
1545 Clouds 14 1019 57 10000 0.66 117 08:50 15.06.2022
1546 Clouds 9 1019 72 10000 0.8 128 06:42 15.06.2022
1547 Clear 6 1020 75 10000 0.93 120 04:47 15.06.2022
1548 Clear 7 1021 71 10000 0.89 138 01:55 15.06.2022
1549 Clear 8 1021 69 10000 0.83 124 00:51 15.06.2022
1550 Clear 9 1021 68 10000 0.88 107 23:40 14.06.2022
1551 Clear 9 1022 67 10000 0.88 99 23:21 14.06.2022
1552 Clear 10 1022 65 10000 1.23 79 22:28 14.06.2022
1553 Clear 11 1022 83 10000 1.23 79 21:41 14.06.2022
1554 Clear 13 1021 75 10000 1.39 46 20:57 14.06.2022
1555 Clear 14 1021 52 10000 1.39 46 20:32 14.06.2022
1556 Clouds 16 1020 49 10000 1.91 332 19:25 14.06.2022
1557 Clouds 17 1020 47 10000 2.27 317 18:25 14.06.2022
1558 Clouds 17 1021 44 10000 2.68 310 16:49 14.06.2022
1559 Clouds 17 1021 44 10000 2.78 304 15:50 14.06.2022
1560 Clouds 16 1021 46 10000 2.78 304 15:31 14.06.2022
1561 Clouds 16 1021 47 10000 2.94 296 14:46 14.06.2022
1562 Clouds 16 1022 46 10000 2.92 292 13:46 14.06.2022
1563 Clouds 15 1022 51 10000 2.92 289 12:48 14.06.2022
1564 Clouds 13 1022 55 10000 2.95 283 11:52 14.06.2022
1565 Clouds 12 1023 57 10000 2.83 280 10:49 14.06.2022
1566 Clouds 12 1023 64 10000 2.64 279 10:25 14.06.2022
1567 Clouds 12 1023 64 10000 2.64 279 10:25 14.06.2022
1568 Clouds 10 1023 69 10000 2.31 275 08:52 14.06.2022
1569 Clouds 9 1024 74 10000 1.64 273 07:58 14.06.2022
1570 Clouds 6 1023 79 10000 1 253 06:19 14.06.2022
1571 Clouds 5 1024 81 10000 1.01 265 03:36 14.06.2022
1572 Clouds 6 1024 81 10000 1.08 275 01:36 14.06.2022
1573 Clouds 7 1023 85 10000 1.33 300 23:53 13.06.2022
1574 Clouds 9 1023 74 10000 2.12 288 22:27 13.06.2022
1575 Clouds 9 1023 77 10000 2.12 288 21:59 13.06.2022
1576 Clouds 11 1022 62 10000 2.95 299 21:24 13.06.2022
1577 Clouds 13 1021 52 10000 3.46 309 19:48 13.06.2022
1578 Clouds 14 1021 53 10000 4.8 311 18:52 13.06.2022
1579 Clouds 14 1020 47 10000 5.42 310 17:52 13.06.2022
1580 Clouds 14 1020 51 10000 5.87 302 17:21 13.06.2022
1581 Clouds 14 1020 54 10000 6.27 297 16:22 13.06.2022
1582 Rain 12 1020 64 10000 5.14 299 14:48 13.06.2022
1583 Clouds 14 1020 47 10000 5.35 288 14:18 13.06.2022
1584 Clouds 14 1019 45 10000 5.11 282 13:28 13.06.2022
1585 Clouds 13 1019 75 9438 5.09 273 12:22 13.06.2022
1586 Clouds 13 1019 62 10000 4.36 275 10:36 13.06.2022
1587 Rain 12 1019 68 10000 3.43 289 09:43 13.06.2022
1588 Clouds 12 1019 71 10000 2.61 286 08:34 13.06.2022
1589 Clouds 9 1019 90 10000 1.33 291 06:35 13.06.2022
1590 Clouds 9 1019 89 10000 1.45 321 04:35 13.06.2022
1591 Clouds 11 1019 90 10000 1.37 326 01:45 13.06.2022
1592 Clouds 11 1019 90 10000 1.49 327 01:18 13.06.2022
1593 Clouds 12 1019 84 10000 1.72 320 23:43 12.06.2022
1594 Clouds 10 1019 81 10000 1.44 327 22:36 12.06.2022
1595 Clouds 10 1019 82 10000 1.25 336 21:46 12.06.2022
1596 Clouds 15 1019 71 10000 2.3 323 20:53 12.06.2022
1597 Clouds 18 1019 56 10000 3.05 310 19:58 12.06.2022
1598 Clouds 19 1019 39 10000 3.9 299 18:54 12.06.2022
1599 Clouds 20 1019 36 10000 4.53 299 17:36 12.06.2022
1600 Clouds 21 1019 36 10000 4.37 283 15:52 12.06.2022
1601 Clouds 20 1020 43 10000 4.78 275 14:50 12.06.2022
1602 Clouds 20 1020 44 10000 4.6 269 14:18 12.06.2022
1603 Clouds 20 1020 46 10000 4.6 269 13:45 12.06.2022
1604 Clouds 19 1021 52 10000 3.63 275 12:28 12.06.2022
1605 Clouds 17 1021 58 10000 3.34 285 11:19 12.06.2022
1606 Clouds 17 1021 57 10000 2.74 291 10:20 12.06.2022
1607 Clouds 16 1021 63 10000 2.1 291 08:51 12.06.2022
1608 Clouds 15 1021 66 10000 1.25 294 08:29 12.06.2022
1609 Clouds 13 1022 80 10000 0.95 307 06:49 12.06.2022
1610 Clouds 12 1022 82 10000 1.46 260 04:26 12.06.2022
1611 Clouds 12 1022 79 10000 0.77 182 02:32 12.06.2022
1612 Clouds 12 1022 85 10000 0.72 186 01:36 12.06.2022
1613 Clouds 11 1023 86 10000 0.76 179 00:57 12.06.2022
1614 Clouds 12 1023 86 10000 0.82 184 00:19 12.06.2022
1615 Clouds 12 1023 82 10000 0.45 175 23:21 11.06.2022
1616 Clouds 13 1023 81 10000 0.45 175 22:37 11.06.2022
1617 Clouds 15 1022 70 10000 0.81 310 21:31 11.06.2022
1618 Clouds 17 1022 60 10000 1.61 305 20:27 11.06.2022
1619 Clouds 18 1022 59 10000 1.75 296 19:36 11.06.2022
1620 Clouds 19 1022 59 10000 2.75 293 18:45 11.06.2022
1621 Clouds 19 1022 51 10000 2.96 288 18:27 11.06.2022
1622 Clouds 19 1022 51 10000 2.96 288 17:48 11.06.2022
1623 Clouds 20 1022 49 10000 3.17 288 17:26 11.06.2022
1624 Clouds 20 1022 49 10000 3.17 288 16:44 11.06.2022
1625 Clouds 20 1022 48 10000 3.42 280 16:18 11.06.2022
1626 Clouds 19 1022 56 10000 3.39 275 14:57 11.06.2022
1627 Clouds 19 1022 54 10000 3.57 266 13:52 11.06.2022
1628 Clouds 18 1022 60 10000 3.88 258 12:19 11.06.2022
1629 Clouds 17 1022 65 10000 3.53 256 10:32 11.06.2022
1630 Clouds 16 1022 66 10000 2.99 246 09:41 11.06.2022
1631 Clouds 16 1022 64 10000 2.46 225 08:45 11.06.2022
1632 Clear 13 1022 75 10000 1.57 208 06:34 11.06.2022
1633 Clear 12 1022 83 10000 1.45 198 05:53 11.06.2022
1634 Clear 12 1022 80 10000 1.36 179 03:31 11.06.2022
1635 Clouds 12 1022 83 10000 1.17 187 01:51 11.06.2022
1636 Clouds 12 1022 82 10000 1.09 180 01:25 11.06.2022
1637 Clouds 13 1022 71 10000 0.95 167 23:27 10.06.2022
1638 Clouds 13 1022 76 10000 0.57 197 22:21 10.06.2022
1639 Clouds 14 1022 72 10000 0.57 197 21:46 10.06.2022
1640 Clouds 16 1022 59 10000 0.53 263 20:39 10.06.2022
1641 Clouds 17 1022 55 10000 0.91 282 20:19 10.06.2022
1642 Clouds 16 1022 61 10000 1.85 274 19:19 10.06.2022
1643 Clouds 17 1022 59 10000 1.85 274 18:44 10.06.2022
1644 Clouds 17 1022 52 10000 2.56 288 17:54 10.06.2022
1645 Clouds 17 1022 53 10000 3.56 285 17:22 10.06.2022
1646 Clouds 18 1021 46 10000 3.18 256 16:28 10.06.2022
1647 Clouds 19 1021 43 10000 3.18 256 15:40 10.06.2022
1648 Clear 19 1022 43 10000 3.67 244 14:28 10.06.2022
1649 Clear 18 1022 49 10000 3.78 244 12:58 10.06.2022
1650 Clear 17 1022 50 10000 3.78 247 11:59 10.06.2022
1651 Clear 16 1023 52 10000 3.51 249 10:51 10.06.2022
1652 Clear 14 1023 59 10000 2.85 250 09:57 10.06.2022
1653 Clear 13 1022 66 10000 2.48 249 08:48 10.06.2022
1654 Clear 11 1023 82 10000 1.72 234 07:50 10.06.2022
1655 Clear 8 1022 88 10000 1.24 224 06:47 10.06.2022
1656 Clear 7 1022 91 10000 1.18 227 06:28 10.06.2022
1657 Clear 7 1022 88 10000 1.06 234 04:53 10.06.2022
1658 Clouds 8 1021 93 10000 1.02 283 01:59 10.06.2022
1659 Clouds 8 1021 93 10000 1.1 282 01:36 10.06.2022
1660 Clouds 8 1021 93 10000 1.1 282 01:36 10.06.2022
1661 Clouds 9 1020 92 10000 1.41 278 23:57 09.06.2022
1662 Clouds 10 1019 87 10000 1.66 274 22:30 09.06.2022
1663 Clouds 11 1019 83 10000 2.03 286 21:43 09.06.2022
1664 Clouds 12 1017 78 10000 3.01 300 21:24 09.06.2022
1665 Clouds 13 1017 69 10000 3.01 300 20:38 09.06.2022
1666 Clouds 14 1016 65 10000 3.51 301 19:43 09.06.2022
1667 Clouds 15 1016 65 10000 3.71 298 18:37 09.06.2022
1668 Rain 15 1015 66 10000 3.39 298 17:31 09.06.2022
1669 Clouds 17 1014 58 10000 4.3 294 16:28 09.06.2022
1670 Clouds 16 1013 61 10000 4.45 293 14:52 09.06.2022
1671 Clouds 16 1013 67 10000 4.44 290 14:27 09.06.2022
1672 Clouds 15 1013 67 10000 4.44 289 13:30 09.06.2022
1673 Clouds 14 1013 71 10000 4.8 281 12:55 09.06.2022
1674 Clouds 13 1012 76 10000 5.09 274 11:33 09.06.2022
1675 Clouds 12 1011 80 10000 4.08 263 09:55 09.06.2022
1676 Clouds 12 1011 80 10000 4.08 263 09:37 09.06.2022
1677 Clouds 11 1011 83 10000 3.79 261 08:38 09.06.2022
1678 Clouds 11 1010 86 10000 2.89 242 07:29 09.06.2022
1679 Clouds 10 1009 91 10000 2.27 241 03:31 09.06.2022
1680 Clouds 11 1008 89 10000 1.89 211 00:34 09.06.2022
1681 Rain 11 1008 88 10000 2.33 224 23:18 08.06.2022
1682 Rain 11 1008 85 10000 2.33 224 22:43 08.06.2022
1683 Rain 11 1008 85 10000 2.28 232 22:23 08.06.2022
1684 Rain 11 1008 84 10000 2.28 232 21:33 08.06.2022
1685 Rain 12 1008 85 10000 4.34 252 20:25 08.06.2022
1686 Clouds 13 1008 84 10000 4.22 262 19:41 08.06.2022
1687 Clouds 15 1007 63 10000 3.62 217 18:48 08.06.2022
1688 Clouds 17 1007 50 10000 2.72 203 17:41 08.06.2022
1689 Clouds 18 1007 51 10000 3.62 207 15:56 08.06.2022
1690 Clouds 18 1007 50 10000 3.09 198 14:44 08.06.2022
1691 Clouds 18 1008 52 10000 2.37 207 12:55 08.06.2022
1692 Clouds 18 1008 52 10000 2.37 207 12:55 08.06.2022
1693 Clouds 18 1008 52 10000 2.37 207 12:55 08.06.2022
1694 Clouds 18 1008 52 10000 2.37 207 12:55 08.06.2022
1695 Clouds 16 1009 63 10000 2.37 218 11:41 08.06.2022
1696 Clouds 16 1009 65 10000 2.26 227 11:19 08.06.2022
1697 Clouds 14 1009 76 10000 2.24 232 09:30 08.06.2022
1698 Clouds 13 1010 78 10000 1.82 219 08:55 08.06.2022
1699 Clouds 11 1010 90 10000 1.04 179 07:21 08.06.2022
1700 Clouds 11 1010 90 10000 1.04 179 07:21 08.06.2022
1701 Clouds 9 1011 97 10000 1.2 203 04:49 08.06.2022
1702 Clouds 10 1012 88 10000 1.63 218 01:27 08.06.2022
1703 Clouds 11 1012 85 10000 1.72 223 23:33 07.06.2022
1704 Clouds 12 1013 82 10000 1.73 224 22:58 07.06.2022
1705 Clouds 9 1013 95 10000 1.73 224 22:37 07.06.2022
1706 Clouds 12 1013 79 10000 1.74 225 21:41 07.06.2022
1707 Clouds 12 1012 82 10000 1.65 232 21:20 07.06.2022
1708 Clouds 14 1012 67 10000 1.65 232 20:42 07.06.2022
1709 Clouds 15 1012 72 10000 2.75 251 19:57 07.06.2022
1710 Clouds 16 1012 54 10000 3.36 242 18:26 07.06.2022
1711 Clouds 17 1012 50 10000 3.36 242 17:33 07.06.2022
1712 Clouds 18 1011 47 10000 4.05 242 16:44 07.06.2022
1713 Clouds 17 1012 51 10000 4.1 235 15:58 07.06.2022
1714 Clouds 17 1012 47 10000 4.1 235 15:37 07.06.2022
1715 Clouds 18 1012 47 10000 4.72 236 15:18 07.06.2022
1716 Clouds 18 1012 47 10000 4.72 236 14:43 07.06.2022
1717 Clouds 17 1012 47 10000 5.28 248 13:38 07.06.2022
1718 Clouds 17 1013 48 10000 5.2 244 13:20 07.06.2022
1719 Clouds 16 1013 49 10000 5.45 240 11:55 07.06.2022
1720 Clear 15 1013 53 10000 5.84 238 10:53 07.06.2022
1721 Clouds 14 1014 58 10000 5.27 237 09:26 07.06.2022
1722 Clouds 12 1014 62 10000 3.42 221 08:22 07.06.2022
1723 Clouds 10 1014 72 10000 2.03 207 06:42 07.06.2022
1724 Clouds 8 1014 86 10000 1.52 208 04:52 07.06.2022
1725 Clear 9 1015 86 10000 1.16 201 01:28 07.06.2022
1726 Clear 10 1015 92 10000 1.04 234 23:59 06.06.2022
1727 Clear 10 1015 91 10000 1.57 233 22:56 06.06.2022
1728 Clear 12 1015 76 10000 1.57 233 22:30 06.06.2022
1729 Clear 13 1014 71 10000 2.3 224 21:18 06.06.2022
1730 Clouds 15 1014 59 10000 3.83 233 19:29 06.06.2022
1731 Clouds 15 1014 64 10000 3.83 233 18:59 06.06.2022
1732 Clouds 16 1014 62 10000 3.83 233 18:32 06.06.2022
1733 Clouds 14 1015 74 10000 4.52 245 17:27 06.06.2022
1734 Clouds 16 1015 53 10000 4.95 242 16:21 06.06.2022
1735 Clouds 17 1015 52 10000 4.95 242 15:33 06.06.2022
1736 Clouds 16 1014 57 10000 5.77 235 14:36 06.06.2022
1737 Clouds 17 1015 54 10000 5.69 239 13:26 06.06.2022
1738 Clouds 17 1015 59 10000 5.69 239 12:36 06.06.2022
1739 Clouds 17 1015 59 10000 5.7 235 11:53 06.06.2022
1740 Clouds 16 1015 66 10000 5.47 233 10:41 06.06.2022
1741 Clouds 15 1015 71 10000 5.25 236 09:40 06.06.2022
1742 Clouds 14 1016 87 10000 4.97 237 08:33 06.06.2022
1743 Clouds 13 1015 87 10000 4.94 237 07:28 06.06.2022
1744 Clouds 12 1014 90 10000 2.86 219 05:28 06.06.2022
1745 Clouds 12 1014 88 10000 3.46 228 03:39 06.06.2022
1746 Clouds 14 1013 86 10000 3.99 228 01:23 06.06.2022
1747 Rain 14 1013 89 10000 3.99 228 00:39 06.06.2022
1748 Rain 14 1013 88 10000 4.93 223 23:40 05.06.2022
1749 Clouds 15 1013 95 10000 3.9 198 22:45 05.06.2022
1750 Clouds 15 1012 83 7807 2.28 151 20:57 05.06.2022
1751 Rain 16 1012 83 7753 2.76 178 19:44 05.06.2022
1752 Rain 18 1011 72 10000 4.62 111 18:30 05.06.2022
1753 Rain 18 1012 66 10000 4.44 109 17:55 05.06.2022
1754 Rain 18 1013 64 10000 3.58 113 17:26 05.06.2022
1755 Rain 19 1013 59 10000 3.58 113 16:52 05.06.2022
1756 Rain 19 1013 57 10000 3.58 113 16:34 05.06.2022
1757 Clouds 21 1015 48 10000 6 112 14:27 05.06.2022
1758 Clouds 21 1016 48 10000 4.91 116 12:57 05.06.2022
1759 Clouds 20 1017 54 10000 4.83 107 11:47 05.06.2022
1760 Clouds 17 1017 58 10000 5.01 106 10:39 05.06.2022
1761 Clouds 17 1018 58 10000 4.37 112 10:20 05.06.2022
1762 Clouds 14 1018 67 10000 4.51 106 08:34 05.06.2022
1763 Clouds 11 1018 69 10000 3.72 109 07:48 05.06.2022
1764 Clear 8 1020 73 10000 2.33 101 05:22 05.06.2022
1765 Clear 8 1021 72 10000 2.63 85 04:19 05.06.2022
1766 Clear 10 1022 71 10000 2.11 78 01:32 05.06.2022
1767 Clear 10 1022 71 10000 2.11 78 01:32 05.06.2022
1768 Clear 11 1022 70 10000 2.09 79 00:39 05.06.2022
1769 Clear 12 1021 68 10000 1.71 73 22:43 04.06.2022
1770 Clear 18 1021 47 10000 1.91 57 20:42 04.06.2022
1771 Clouds 19 1020 45 10000 2.82 48 18:51 04.06.2022
1772 Clouds 19 1020 43 10000 3.18 51 16:47 04.06.2022
1773 Clouds 19 1020 43 10000 3.29 51 16:18 04.06.2022
1774 Clouds 19 1020 49 10000 3.58 50 14:54 04.06.2022
1775 Clouds 18 1020 50 10000 3.12 63 13:36 04.06.2022
1776 Clouds 16 1021 57 10000 2.28 51 11:22 04.06.2022
1777 Clouds 16 1021 63 10000 2.28 51 10:49 04.06.2022
1778 Clouds 14 1021 65 10000 1.84 46 09:45 04.06.2022
1779 Clouds 13 1020 68 10000 2.1 45 08:43 04.06.2022
1780 Clouds 11 1020 72 10000 1.72 43 07:42 04.06.2022
1781 Clouds 10 1019 72 10000 1.76 43 05:30 04.06.2022
1782 Clouds 12 1018 68 10000 1.57 27 02:20 04.06.2022
1783 Clouds 13 1018 85 10000 1.78 46 00:19 04.06.2022
1784 Clouds 13 1018 86 10000 1.66 58 22:41 03.06.2022
1785 Clouds 15 1018 59 10000 1.96 50 21:39 03.06.2022
1786 Clouds 13 1017 84 10000 2.28 49 20:38 03.06.2022
1787 Clouds 20 1016 43 10000 2.83 81 18:54 03.06.2022
1788 Clouds 19 1017 40 10000 3.14 90 16:52 03.06.2022
1789 Clouds 20 1017 38 10000 2.99 97 15:37 03.06.2022
1790 Clouds 19 1018 41 10000 2.93 116 13:48 03.06.2022
1791 Clear 17 1019 46 10000 3.4 112 11:51 03.06.2022
1792 Clear 15 1020 49 10000 3.34 103 09:53 03.06.2022
1793 Clear 13 1020 57 10000 3.02 103 09:28 03.06.2022
1794 Clear 8 1021 70 10000 1.64 94 07:27 03.06.2022
1795 Clear 7 1021 71 10000 1.64 94 06:44 03.06.2022
1796 Clear 5 1022 76 10000 1.69 100 06:26 03.06.2022
1797 Clouds 5 1022 76 10000 1.61 101 02:24 03.06.2022
1798 Clouds 6 1023 75 10000 1.24 99 23:34 02.06.2022
1799 Clouds 9 1023 66 10000 1.15 74 21:57 02.06.2022
1800 Clouds 9 1023 66 10000 1.15 74 21:57 02.06.2022
1801 Clouds 12 1021 53 10000 1.57 39 20:26 02.06.2022
1802 Clouds 13 1021 53 10000 1.57 39 19:53 02.06.2022
1803 Clouds 13 1021 51 10000 1.93 22 19:35 02.06.2022
1804 Clouds 15 1021 45 10000 2.76 334 17:59 02.06.2022
1805 Clouds 14 1021 46 10000 3.26 303 16:28 02.06.2022
1806 Clouds 14 1021 48 10000 3.26 303 15:30 02.06.2022
1807 Clouds 13 1021 58 10000 3.47 299 13:30 02.06.2022
1808 Clouds 12 1021 60 10000 3.52 293 12:46 02.06.2022
1809 Clouds 10 1021 72 10000 3.03 279 10:32 02.06.2022
1810 Clouds 9 1021 74 10000 2.16 277 09:29 02.06.2022
1811 Clouds 7 1021 77 10000 2.16 277 08:30 02.06.2022
1812 Clouds 7 1021 79 10000 1.71 266 07:58 02.06.2022
1813 Clouds 3 1020 97 10000 1.3 245 06:20 02.06.2022
1814 Clouds 3 1019 98 10000 1.34 247 03:49 02.06.2022
1815 Clouds 4 1018 86 10000 1.9 240 00:39 02.06.2022
1816 Rain 7 1017 82 10000 2.69 266 22:57 01.06.2022
1817 Rain 7 1016 80 10000 2.52 259 21:52 01.06.2022
1818 Rain 7 1016 80 10000 2.67 270 21:22 01.06.2022
1819 Clouds 7 1016 80 10000 2.67 270 20:38 01.06.2022
1820 Clouds 8 1015 81 10000 3.24 275 19:50 01.06.2022
1821 Rain 10 1014 76 10000 4.01 268 18:28 01.06.2022
1822 Clouds 13 1014 53 10000 4.33 270 16:56 01.06.2022
1823 Clouds 14 1014 49 10000 4.53 267 15:42 01.06.2022
1824 Clouds 13 1013 54 10000 4.3 270 14:46 01.06.2022
1825 Clouds 12 1014 56 10000 4.75 261 13:18 01.06.2022
1826 Clouds 11 1014 64 10000 4.53 256 10:44 01.06.2022
1827 Clouds 10 1014 76 10000 2.22 241 09:28 01.06.2022
1828 Clouds 8 1014 78 10000 2.29 244 07:59 01.06.2022
1829 Clouds 6 1014 89 10000 1.35 221 07:20 01.06.2022
1830 Clouds 4 1014 92 10000 1.38 216 03:55 01.06.2022
1831 Clouds 6 1014 82 10000 1.31 187 23:50 31.05.2022
1832 Clouds 6 1014 80 10000 1.21 172 22:41 31.05.2022
1833 Clouds 7 1014 80 10000 1.1 179 22:22 31.05.2022
1834 Clouds 7 1014 79 10000 1.1 179 21:39 31.05.2022
1835 Clouds 8 1013 78 10000 0.44 161 20:44 31.05.2022
1836 Clouds 11 1012 67 10000 1.31 153 19:31 31.05.2022
1837 Clouds 10 1012 67 10000 1.22 126 18:32 31.05.2022
1838 Rain 11 1012 57 10000 2.11 116 17:38 31.05.2022
1839 Clouds 14 1012 48 10000 0.79 283 15:55 31.05.2022
1840 Clouds 14 1012 45 10000 0.79 283 15:34 31.05.2022
1841 Clouds 12 1013 55 10000 0.88 262 12:56 31.05.2022
1842 Clouds 13 1013 57 10000 0.81 222 12:18 31.05.2022
1843 Clouds 11 1014 55 10000 0.85 216 10:34 31.05.2022
1844 Clouds 8 1015 64 10000 0.93 152 08:26 31.05.2022
1845 Clouds 2 1016 81 10000 0.78 155 06:21 31.05.2022
1846 Clouds 2 1016 82 10000 0.74 152 04:31 31.05.2022
1847 Clouds 3 1017 80 10000 0.42 165 23:46 30.05.2022
1848 Clouds 3 1016 80 10000 0.43 181 23:24 30.05.2022
1849 Clouds 4 1016 80 10000 0.43 181 22:42 30.05.2022
1850 Clouds 4 1016 79 10000 0.41 230 21:40 30.05.2022
1851 Clouds 7 1015 77 10000 0.96 270 20:52 30.05.2022
1852 Clouds 8 1014 66 10000 1.37 292 19:44 30.05.2022
1853 Clouds 8 1014 64 10000 2.92 297 18:21 30.05.2022
1854 Clouds 9 1014 61 10000 2.92 288 17:23 30.05.2022
1855 Clouds 8 1014 61 10000 2.92 288 16:30 30.05.2022
1856 Clouds 7 1013 69 10000 3.03 296 13:38 30.05.2022
1857 Clouds 7 1013 70 10000 2.98 290 11:40 30.05.2022
1858 Clouds 7 1013 76 10000 2.33 292 10:20 30.05.2022
1859 Clouds 6 1013 81 10000 2.07 295 09:18 30.05.2022
1860 Clouds 3 1013 90 10000 1.34 265 06:28 30.05.2022
1861 Clouds 4 1012 98 10000 1.25 268 04:52 30.05.2022
1862 Clouds 5 1012 90 10000 1.54 285 01:30 30.05.2022
1863 Clouds 5 1012 91 10000 1.75 293 22:49 29.05.2022
1864 Clouds 5 1012 90 10000 1.73 292 22:29 29.05.2022
1865 Clouds 6 1012 89 10000 1.96 294 20:38 29.05.2022
1866 Rain 7 1011 84 10000 2.57 302 19:30 29.05.2022
1867 Clouds 7 1011 80 10000 2.7 299 18:34 29.05.2022
1868 Rain 8 1011 78 10000 2.78 297 16:51 29.05.2022
1869 Rain 8 1011 76 10000 3.83 291 15:47 29.05.2022
1870 Clouds 8 1011 76 10000 3.34 286 14:56 29.05.2022
1871 Clouds 8 1012 73 10000 3.64 290 13:46 29.05.2022
1872 Clouds 7 1013 78 10000 3.39 272 11:31 29.05.2022
1873 Clouds 7 1013 78 10000 3.25 268 10:38 29.05.2022
1874 Clouds 5 1013 86 7436 3.12 261 08:39 29.05.2022
1875 Clouds 3 1014 87 7459 2.43 251 05:22 29.05.2022
1876 Clouds 4 1014 86 7459 2.43 251 04:41 29.05.2022
1877 Clouds 3 1015 88 10000 2.11 252 02:50 29.05.2022
1878 Clear 3 1017 81 10000 2.5 284 23:49 28.05.2022
1879 Clear 4 1017 78 10000 2.9 295 23:26 28.05.2022
1880 Clear 5 1017 78 10000 3.13 302 22:25 28.05.2022
1881 Clear 7 1017 64 10000 3.13 302 21:34 28.05.2022
1882 Clouds 9 1016 57 10000 4.91 295 19:24 28.05.2022
1883 Clouds 9 1016 63 10000 4.91 295 18:46 28.05.2022
1884 Clouds 9 1016 67 10000 5.35 297 17:36 28.05.2022
1885 Clouds 10 1016 66 10000 6.3 303 16:37 28.05.2022
1886 Clouds 11 1016 56 10000 6.95 301 15:39 28.05.2022
1887 Clouds 9 1017 66 10000 6.05 291 14:18 28.05.2022
1888 Clouds 8 1017 67 10000 6.68 296 12:44 28.05.2022
1889 Clouds 8 1017 67 10000 6.89 300 12:18 28.05.2022
1890 Clouds 8 1017 68 10000 7.07 300 10:51 28.05.2022
1891 Clouds 7 1017 77 10000 6.95 295 09:57 28.05.2022
1892 Clouds 6 1017 75 10000 7.12 289 08:45 28.05.2022
1893 Clouds 6 1017 76 10000 6.4 280 07:23 28.05.2022
1894 Clouds 5 1017 83 10000 5.98 275 05:28 28.05.2022
1895 Clouds 6 1018 76 10000 6.07 274 02:44 28.05.2022
1896 Clouds 6 1018 71 10000 5.79 276 00:32 28.05.2022
1897 Clouds 7 1019 65 10000 5.69 279 22:53 27.05.2022
1898 Clear 8 1019 61 10000 5.68 286 21:44 27.05.2022
1899 Clear 9 1018 54 10000 6.1 292 20:50 27.05.2022
1900 Clouds 10 1017 51 10000 6.3 295 20:24 27.05.2022
1901 Clouds 11 1017 50 10000 6.33 293 19:42 27.05.2022
1902 Clouds 11 1017 50 10000 6.71 295 19:21 27.05.2022
1903 Clouds 13 1016 46 10000 7.11 294 17:52 27.05.2022
1904 Clouds 13 1016 45 10000 7.4 291 16:38 27.05.2022
1905 Clouds 14 1016 45 10000 8.15 289 15:22 27.05.2022
1906 Clouds 13 1016 52 10000 8.6 279 13:53 27.05.2022
1907 Clouds 12 1016 62 10000 8.54 282 12:43 27.05.2022
1908 Clouds 11 1016 69 10000 8.17 283 11:34 27.05.2022
1909 Clouds 11 1016 72 10000 7.24 281 10:55 27.05.2022
1910 Clouds 11 1016 75 10000 6.53 278 10:29 27.05.2022
1911 Clouds 10 1016 80 10000 6.53 278 09:34 27.05.2022
1912 Rain 9 1016 88 4208 5.86 277 07:52 27.05.2022
1913 Rain 10 1015 89 1779 5.01 260 05:39 27.05.2022
1914 Clouds 11 1017 84 10000 5.05 253 02:26 27.05.2022
1915 Clouds 13 1018 66 10000 4.98 252 00:29 27.05.2022
1916 Clouds 13 1018 63 10000 5.38 258 22:39 26.05.2022
1917 Clouds 13 1018 64 10000 4.88 254 21:39 26.05.2022
1918 Clouds 14 1018 57 10000 4.75 254 20:31 26.05.2022
1919 Clouds 14 1018 60 10000 5.12 262 19:19 26.05.2022
1920 Clouds 14 1018 60 10000 5.23 259 18:18 26.05.2022
1921 Clouds 14 1019 59 10000 5.8 266 16:42 26.05.2022
1922 Clouds 14 1019 58 10000 6.11 270 15:46 26.05.2022
1923 Clouds 14 1019 61 10000 6.3 273 14:43 26.05.2022
1924 Clouds 13 1020 66 10000 5.88 265 12:37 26.05.2022
1925 Clouds 13 1019 71 10000 5.84 264 11:24 26.05.2022
1926 Clouds 11 1019 79 10000 4.98 261 09:44 26.05.2022
1927 Clouds 10 1018 82 10000 4.67 253 09:26 26.05.2022
1928 Rain 10 1018 80 10000 4.67 253 08:35 26.05.2022
1929 Clouds 10 1016 67 10000 4.71 245 04:41 26.05.2022
1930 Clouds 11 1017 58 10000 4.28 232 00:48 26.05.2022
1931 Clouds 9 1017 72 10000 3.57 238 23:40 25.05.2022
1932 Clouds 10 1017 72 10000 1.9 245 22:22 25.05.2022
1933 Clouds 9 1017 78 10000 1.9 245 21:33 25.05.2022
1934 Clouds 13 1016 44 10000 2.01 267 20:37 25.05.2022
1935 Clouds 14 1015 45 10000 3.91 275 19:29 25.05.2022
1936 Clouds 15 1014 44 10000 4.07 273 17:43 25.05.2022
1937 Clouds 16 1014 43 10000 4.42 265 16:38 25.05.2022
1938 Clouds 16 1014 44 10000 4.9 261 15:57 25.05.2022
1939 Clouds 15 1014 52 10000 4.91 259 14:55 25.05.2022
1940 Clouds 15 1014 53 10000 4.91 259 14:33 25.05.2022
1941 Clouds 15 1014 53 10000 4.64 246 13:56 25.05.2022
1942 Clouds 14 1014 52 10000 4.63 246 12:45 25.05.2022
1943 Clear 12 1015 63 10000 4.25 254 10:54 25.05.2022
1944 Clear 11 1015 67 10000 3.88 256 10:19 25.05.2022
1945 Clouds 10 1014 70 10000 3.31 256 08:41 25.05.2022
1946 Clouds 8 1014 80 10000 1.58 225 07:23 25.05.2022
1947 Clouds 5 1013 89 10000 1.46 216 04:23 25.05.2022
1948 Clouds 6 1012 90 10000 1.32 222 00:28 25.05.2022
1949 Clouds 6 1012 90 10000 1.32 222 23:47 24.05.2022
1950 Clouds 7 1012 88 10000 1.1 245 22:39 24.05.2022
1951 Rain 8 1012 82 10000 1.3 259 21:43 24.05.2022
1952 Rain 9 1010 78 10000 1.77 267 21:21 24.05.2022
1953 Clouds 12 1010 59 10000 1.77 267 20:30 24.05.2022
1954 Clouds 13 1008 63 10000 3.88 270 18:56 24.05.2022
1955 Clouds 14 1007 54 10000 4.95 260 16:58 24.05.2022
1956 Clouds 14 1007 57 10000 5.51 257 16:28 24.05.2022
1957 Clouds 14 1006 61 10000 5.18 243 15:18 24.05.2022
1958 Clouds 13 1006 67 10000 5.18 243 14:34 24.05.2022
1959 Clouds 11 1007 84 10000 3.71 249 13:27 24.05.2022
1960 Rain 9 1007 90 10000 2.74 274 11:49 24.05.2022
1961 Clouds 13 1003 73 10000 5.39 219 09:47 24.05.2022
1962 Clouds 12 1003 80 10000 3.78 216 08:51 24.05.2022
1963 Clouds 10 1004 84 10000 2.97 221 07:30 24.05.2022
1964 Clouds 10 1003 84 9900 3.78 246 05:59 24.05.2022
1965 Clouds 12 1000 88 2253 6.18 258 02:54 24.05.2022
1966 Clouds 13 1000 86 5200 4 242 01:44 24.05.2022
1967 Clouds 12 1000 88 10000 3.15 202 23:44 23.05.2022
1968 Clouds 13 1000 98 10000 2.76 150 22:22 23.05.2022
1969 Clouds 11 1000 98 10000 2.76 150 21:42 23.05.2022
1970 Clouds 11 1000 96 10000 2.9 137 20:45 23.05.2022
1971 Clouds 17 1000 93 10000 3.02 145 19:44 23.05.2022
1972 Clouds 17 1000 51 10000 3.35 145 19:18 23.05.2022
1973 Clouds 17 1000 52 10000 3.35 145 18:37 23.05.2022
1974 Clouds 18 1001 53 10000 4.64 149 17:56 23.05.2022
1975 Clouds 17 1003 54 10000 5.44 144 15:55 23.05.2022
1976 Rain 18 1004 54 10000 5.88 131 13:56 23.05.2022
1977 Clouds 15 1007 62 10000 5.55 144 11:41 23.05.2022
1978 Clouds 14 1007 62 10000 4.81 135 10:45 23.05.2022
1979 Clouds 12 1007 66 10000 4.16 124 09:47 23.05.2022
1980 Clouds 12 1008 66 10000 3.36 128 08:46 23.05.2022
1981 Clouds 12 1008 66 10000 3.36 128 08:46 23.05.2022
1982 Clouds 10 1009 69 10000 1.85 125 07:24 23.05.2022
1983 Clouds 10 1009 68 10000 1.85 125 06:39 23.05.2022
1984 Clouds 7 1012 72 10000 1.88 122 03:27 23.05.2022
1985 Clouds 7 1013 76 10000 1.85 120 01:52 23.05.2022
1986 Clouds 7 1014 75 10000 1.97 124 01:26 23.05.2022
1987 Clouds 8 1014 74 10000 1.77 116 23:18 22.05.2022
1988 Clouds 9 1014 70 10000 1.67 101 22:27 22.05.2022
1989 Clouds 9 1014 68 10000 1.67 101 21:51 22.05.2022
1990 Clouds 12 1014 61 10000 1.6 91 20:43 22.05.2022
1991 Clouds 13 1014 54 10000 1.8 88 20:22 22.05.2022
1992 Clouds 14 1014 47 10000 1.8 88 19:34 22.05.2022
1993 Clouds 15 1014 46 10000 1.6 93 18:50 22.05.2022
1994 Clouds 15 1014 49 10000 1 50 18:21 22.05.2022
1995 Clouds 16 1014 46 10000 1.16 350 16:57 22.05.2022
1996 Clouds 16 1015 48 10000 1.9 332 15:34 22.05.2022
1997 Clouds 15 1015 50 10000 2.42 311 14:47 22.05.2022
1998 Clouds 14 1016 53 10000 2.8 302 13:21 22.05.2022
1999 Clouds 13 1016 58 10000 2.8 302 12:45 22.05.2022
2000 Clouds 12 1017 65 10000 2.49 288 10:55 22.05.2022
2001 Clouds 10 1017 73 10000 2.25 276 09:38 22.05.2022
2002 Clouds 9 1018 79 10000 1.24 281 07:54 22.05.2022
2003 Clouds 7 1018 87 10000 0.62 264 07:20 22.05.2022
2004 Clouds 5 1019 87 10000 0.62 228 04:49 22.05.2022
2005 Clouds 7 1020 86 10000 1.3 297 01:21 22.05.2022
2006 Clouds 8 1020 90 10000 1.53 290 00:26 22.05.2022
2007 Clouds 8 1020 96 10000 1.53 290 23:47 21.05.2022
2008 Clouds 9 1020 80 10000 1.73 279 22:24 21.05.2022
2009 Clouds 9 1020 80 10000 1.73 279 21:39 21.05.2022
2010 Clouds 10 1020 76 10000 2.75 289 20:48 21.05.2022
2011 Clouds 12 1019 67 10000 4.21 290 20:21 21.05.2022
2012 Clouds 12 1019 64 10000 5.12 287 19:24 21.05.2022
2013 Clouds 12 1019 64 10000 5.85 285 17:38 21.05.2022
2014 Clouds 13 1019 60 10000 7.05 281 15:38 21.05.2022
2015 Clouds 13 1019 65 10000 6.58 274 14:37 21.05.2022
2016 Clouds 12 1019 70 10000 7.07 272 13:39 21.05.2022
2017 Clouds 11 1020 80 10000 6.68 269 12:40 21.05.2022
2018 Clouds 11 1019 73 10000 6.85 269 11:56 21.05.2022
2019 Clouds 9 1019 79 10000 5.23 254 10:22 21.05.2022
2020 Clouds 9 1019 79 10000 5.23 254 09:38 21.05.2022
2021 Clouds 9 1019 78 10000 5.27 248 08:52 21.05.2022
2022 Clouds 7 1019 79 10000 4.42 261 06:28 21.05.2022
2023 Clouds 10 1016 84 6908 6.34 279 02:26 21.05.2022
2024 Clouds 8 1014 93 10000 9 271 23:47 20.05.2022
2025 Clouds 9 1013 94 10000 8.5 274 22:42 20.05.2022
2026 Clouds 14 1012 94 10000 9.6 257 22:23 20.05.2022
2027 Clouds 15 1012 87 10000 9.6 257 21:32 20.05.2022
2028 Rain 15 1011 91 10000 6.26 234 20:53 20.05.2022
2029 Rain 15 1012 91 10000 3.51 250 19:57 20.05.2022
2030 Rain 15 1011 91 10000 5.22 226 19:24 20.05.2022
2031 Rain 17 1012 84 1983 5.05 221 18:28 20.05.2022
2032 Clouds 19 1014 69 6827 2.68 168 16:51 20.05.2022
2033 Clouds 19 1015 67 10000 2.11 146 15:57 20.05.2022
2034 Clouds 20 1015 65 10000 2.11 146 15:39 20.05.2022
2035 Clouds 19 1018 65 10000 2.07 225 14:29 20.05.2022
2036 Clouds 18 1018 67 10000 1.76 221 13:54 20.05.2022
2037 Clouds 16 1020 77 10000 1.41 265 11:22 20.05.2022
2038 Clouds 15 1021 79 10000 1.62 267 09:51 20.05.2022
2039 Clouds 14 1021 84 10000 1.94 269 08:41 20.05.2022
2040 Clouds 12 1021 90 10000 2.44 278 06:46 20.05.2022
2041 Clouds 12 1021 90 10000 2.6 275 06:24 20.05.2022
2042 Clouds 13 1021 88 7571 2.75 262 04:22 20.05.2022
2043 Clouds 12 1020 91 10000 2.66 234 00:24 20.05.2022
2044 Clouds 13 1020 90 10000 2.78 222 22:46 19.05.2022
2045 Clouds 13 1019 85 10000 1.68 189 21:59 19.05.2022
2046 Clouds 14 1019 86 10000 1.68 189 21:40 19.05.2022
2047 Clouds 14 1019 87 9916 2.21 266 21:22 19.05.2022
2048 Rain 14 1020 89 3612 9.2 282 20:25 19.05.2022
2049 Rain 15 1020 87 2939 7.75 281 19:40 19.05.2022
2050 Clouds 23 1017 37 10000 3.42 214 18:19 19.05.2022
2051 Clouds 23 1018 54 10000 2.8 183 16:32 19.05.2022
2052 Clouds 23 1019 32 10000 4.05 206 14:52 19.05.2022
2053 Clouds 22 1019 42 10000 4.33 203 14:23 19.05.2022
2054 Clouds 22 1020 43 10000 4.56 199 13:20 19.05.2022
2055 Clouds 21 1020 43 10000 3.58 189 11:25 19.05.2022
2056 Clouds 18 1021 53 10000 2.37 182 09:19 19.05.2022
2057 Clouds 16 1021 54 10000 1.87 172 07:48 19.05.2022
2058 Clouds 12 1021 81 10000 1.91 170 05:32 19.05.2022
2059 Clouds 13 1022 89 10000 1.9 170 01:59 19.05.2022
2060 Clouds 14 1022 90 10000 2.01 157 23:55 18.05.2022
2061 Clouds 14 1023 91 10000 2.01 153 22:47 18.05.2022
2062 Clouds 15 1023 90 10000 1.99 148 21:47 18.05.2022
2063 Clouds 17 1023 89 10000 1.88 147 21:26 18.05.2022
2064 Clouds 14 1023 89 10000 1.88 147 20:41 18.05.2022
2065 Clouds 19 1022 59 10000 1.95 158 20:18 18.05.2022
2066 Clouds 22 1022 49 10000 2.33 171 18:28 18.05.2022
2067 Clouds 21 1022 47 10000 2.33 171 17:41 18.05.2022
2068 Clouds 22 1022 45 10000 2.2 173 17:23 18.05.2022
2069 Clouds 22 1022 45 10000 2.2 173 16:31 18.05.2022
2070 Clouds 22 1023 48 10000 2.28 173 15:41 18.05.2022
2071 Clouds 22 1023 50 10000 2.2 186 14:35 18.05.2022
2072 Clouds 21 1023 53 10000 1.85 208 13:35 18.05.2022
2073 Clouds 21 1023 48 10000 2.19 206 12:42 18.05.2022
2074 Clouds 19 1023 55 10000 2.09 189 11:34 18.05.2022
2075 Clouds 19 1023 58 10000 2.06 186 10:56 18.05.2022
2076 Clouds 17 1023 64 10000 2.04 181 09:31 18.05.2022
2077 Clouds 13 1023 76 10000 1.25 164 07:36 18.05.2022
2078 Clouds 12 1022 79 10000 1.43 149 05:56 18.05.2022
2079 Clouds 12 1022 85 10000 0.99 152 01:20 18.05.2022
2080 Clouds 13 1022 88 10000 0.71 143 00:22 18.05.2022
2081 Clouds 13 1022 88 10000 0.12 155 21:56 17.05.2022
2082 Clouds 14 1021 86 10000 0.71 300 21:20 17.05.2022
2083 Clouds 16 1021 67 10000 1.5 310 20:19 17.05.2022
2084 Clouds 18 1020 58 10000 2.98 327 19:28 17.05.2022
2085 Clouds 19 1020 45 10000 3.71 327 17:51 17.05.2022
2086 Clouds 20 1020 47 10000 4.39 322 16:59 17.05.2022
2087 Clouds 20 1020 44 10000 4.67 317 16:29 17.05.2022
2088 Clouds 19 1020 48 10000 4.99 312 15:25 17.05.2022
2089 Clouds 19 1020 54 10000 4.99 312 14:30 17.05.2022
2090 Clouds 19 1020 55 10000 4.94 301 13:35 17.05.2022
2091 Clouds 19 1020 55 10000 4.94 301 13:35 17.05.2022
2092 Clouds 17 1021 67 10000 4.09 293 11:43 17.05.2022
2093 Clouds 15 1021 76 10000 2.89 295 09:35 17.05.2022
2094 Clouds 13 1021 82 10000 2.27 287 08:33 17.05.2022
2095 Clouds 11 1020 89 10000 1.92 282 06:48 17.05.2022
2096 Clouds 11 1020 87 10000 2.57 289 03:41 17.05.2022
2097 Clouds 13 1019 84 10000 1.79 272 00:45 17.05.2022
2098 Clouds 14 1018 97 10000 2.06 291 22:44 16.05.2022
2099 Clouds 13 1018 79 10000 2.03 301 21:45 16.05.2022
2100 Clouds 14 1016 77 10000 2.24 267 20:47 16.05.2022
2101 Clouds 15 1016 75 10000 0.94 260 19:46 16.05.2022
2102 Rain 16 1015 71 10000 0.37 190 18:20 16.05.2022
2103 Clouds 16 1016 92 10000 0.89 116 15:53 16.05.2022
2104 Rain 18 1016 52 10000 3.23 204 14:26 16.05.2022
2105 Clouds 19 1017 52 10000 2.83 184 13:23 16.05.2022
2106 Clouds 19 1016 46 10000 2.77 141 11:25 16.05.2022
2107 Clouds 15 1016 53 10000 2.78 132 09:37 16.05.2022
2108 Clouds 8 1017 72 10000 1.87 121 06:58 16.05.2022
2109 Clear 7 1018 70 10000 2.23 113 03:58 16.05.2022
2110 Clouds 10 1020 62 10000 2.18 106 23:38 15.05.2022
2111 Clouds 10 1020 62 10000 2.13 101 22:32 15.05.2022
2112 Clouds 9 1020 89 10000 2.11 99 21:47 15.05.2022
2113 Clouds 10 1020 86 10000 2.23 92 20:57 15.05.2022
2114 Clouds 13 1019 75 10000 1.81 90 19:52 15.05.2022
2115 Clouds 18 1019 42 10000 1.16 89 17:52 15.05.2022
2116 Clouds 18 1019 41 10000 0.5 85 16:31 15.05.2022
2117 Clear 17 1020 46 10000 0.2 263 13:59 15.05.2022
2118 Clear 17 1020 47 10000 0.07 176 12:57 15.05.2022
2119 Clear 15 1021 50 10000 0.37 134 11:41 15.05.2022
2120 Clear 14 1021 54 10000 0.59 92 10:29 15.05.2022
2121 Clear 11 1022 64 10000 0.57 98 08:47 15.05.2022
2122 Clear 6 1022 77 10000 0.61 123 06:59 15.05.2022
2123 Clear 5 1022 78 10000 0.76 122 05:57 15.05.2022
2124 Clear 7 1023 74 10000 0.73 54 00:57 15.05.2022
2125 Clear 8 1023 71 10000 1 36 23:52 14.05.2022
2126 Clear 8 1023 71 10000 1 36 23:33 14.05.2022
2127 Clear 7 1022 91 10000 1.29 25 21:43 14.05.2022
2128 Clear 10 1022 64 10000 1.59 9 21:18 14.05.2022
2129 Clouds 15 1021 50 10000 2.68 347 19:40 14.05.2022
2130 Clouds 15 1020 44 10000 3.85 330 19:20 14.05.2022
2131 Clouds 15 1020 44 10000 3.85 330 18:47 14.05.2022
2132 Clouds 16 1020 44 10000 4.54 297 17:28 14.05.2022
2133 Clouds 16 1020 44 10000 4.89 297 15:34 14.05.2022
2134 Clouds 16 1020 46 10000 4.92 295 14:36 14.05.2022
2135 Clouds 15 1020 46 10000 4.94 281 12:51 14.05.2022
2136 Clouds 14 1020 51 10000 4.93 276 11:37 14.05.2022
2137 Clouds 13 1020 55 10000 4.31 269 10:23 14.05.2022
2138 Clouds 12 1020 56 10000 4.31 269 09:54 14.05.2022
2139 Clouds 11 1020 58 10000 3.86 265 08:59 14.05.2022
2140 Clouds 7 1020 85 10000 2.78 251 07:21 14.05.2022
2141 Clouds 5 1020 90 10000 2.7 254 03:41 14.05.2022
2142 Clouds 7 1021 88 10000 2.66 258 00:21 14.05.2022
2143 Clouds 8 1021 61 10000 2.59 257 23:24 13.05.2022
2144 Clouds 8 1021 87 10000 2.59 257 22:54 13.05.2022
2145 Clouds 8 1020 88 10000 2.03 246 22:20 13.05.2022
2146 Clouds 10 1020 81 10000 2.1 263 20:57 13.05.2022
2147 Clouds 12 1020 54 10000 2.1 263 20:30 13.05.2022
2148 Clouds 12 1019 54 10000 3.61 284 19:44 13.05.2022
2149 Clouds 13 1018 51 10000 4.82 283 18:44 13.05.2022
2150 Clouds 13 1018 52 10000 5.11 275 17:29 13.05.2022
2151 Clouds 13 1018 46 10000 6.07 272 16:29 13.05.2022
2152 Clouds 13 1018 51 10000 6.07 272 15:45 13.05.2022
2153 Clouds 12 1018 50 10000 6.45 274 14:24 13.05.2022
2154 Clouds 12 1018 49 10000 6.81 274 12:47 13.05.2022
2155 Clouds 12 1018 57 10000 6.54 267 11:36 13.05.2022
2156 Clouds 10 1018 63 10000 5.45 255 09:43 13.05.2022
2157 Clouds 10 1018 57 10000 4.16 255 08:51 13.05.2022
2158 Clouds 9 1018 66 10000 3.23 251 07:49 13.05.2022
2159 Clouds 6 1018 77 10000 2.09 227 06:48 13.05.2022
2160 Clear 6 1018 76 10000 1.44 215 04:54 13.05.2022
2161 Clouds 8 1018 71 10000 1 196 00:42 13.05.2022
2162 Clouds 10 1018 65 10000 0.73 254 22:47 12.05.2022
2163 Clouds 10 1018 64 10000 0.92 276 22:29 12.05.2022
2164 Clouds 13 1017 73 10000 0.96 279 20:41 12.05.2022
2165 Clouds 15 1017 47 10000 2.87 281 19:24 12.05.2022
2166 Clouds 15 1017 42 10000 3.04 279 18:19 12.05.2022
2167 Clouds 15 1017 39 10000 4.26 279 16:34 12.05.2022
2168 Clouds 15 1018 44 10000 5.12 270 14:52 12.05.2022
2169 Clouds 14 1018 51 10000 5.15 269 13:48 12.05.2022
2170 Clouds 12 1018 59 10000 5.1 271 11:31 12.05.2022
2171 Clouds 11 1017 63 10000 5.02 276 10:22 12.05.2022
2172 Clear 9 1017 72 10000 4.37 281 08:52 12.05.2022
2173 Clear 9 1017 72 10000 4.37 281 08:52 12.05.2022
2174 Clear 9 1017 72 10000 4.37 281 08:52 12.05.2022
2175 Clouds 8 1016 75 10000 4.1 284 07:58 12.05.2022
2176 Clouds 9 1014 72 10000 4.88 281 06:58 12.05.2022
2177 Rain 12 1011 74 10000 4.93 258 03:46 12.05.2022
2178 Clouds 13 1010 94 10000 4.29 240 01:29 12.05.2022
2179 Clouds 11 1010 92 10000 3.2 245 22:59 11.05.2022
2180 Clouds 11 1010 92 10000 2.74 250 22:18 11.05.2022
2181 Clouds 13 1010 89 10000 3.72 264 21:24 11.05.2022
2182 Clouds 13 1010 89 10000 3.72 264 21:24 11.05.2022
2183 Clouds 17 1010 54 10000 4.83 263 19:57 11.05.2022
2184 Clouds 17 1009 54 10000 3.21 256 17:33 11.05.2022
2185 Clouds 17 1010 54 10000 4.43 244 16:19 11.05.2022
2186 Clouds 17 1010 54 10000 5.14 235 14:47 11.05.2022
2187 Clouds 21 1011 41 10000 5.98 240 14:24 11.05.2022
2188 Clouds 21 1011 45 10000 7.04 237 12:39 11.05.2022
2189 Clouds 20 1011 48 10000 6.86 237 11:47 11.05.2022
2190 Clouds 15 1013 68 10000 3.12 220 09:29 11.05.2022
2191 Clouds 12 1013 78 10000 2.06 202 06:30 11.05.2022
2192 Clouds 14 1015 88 10000 1.3 227 01:53 11.05.2022
2193 Clouds 14 1016 84 10000 1.95 210 22:58 10.05.2022
2194 Clouds 14 1016 80 10000 2.22 210 22:24 10.05.2022
2195 Clouds 15 1015 68 10000 2.78 214 21:26 10.05.2022
2196 Clouds 17 1015 54 10000 3.07 211 20:26 10.05.2022
2197 Clouds 18 1015 45 10000 2.95 206 18:38 10.05.2022
2198 Clouds 20 1015 33 10000 3.79 210 17:38 10.05.2022
2199 Clouds 20 1017 32 10000 4.88 228 16:24 10.05.2022
2200 Clouds 20 1019 46 10000 4.34 218 13:19 10.05.2022
2201 Clouds 18 1019 48 10000 3.9 215 11:53 10.05.2022
2202 Clouds 18 1019 51 10000 3.9 215 11:30 10.05.2022
2203 Clouds 17 1019 52 10000 3.21 212 10:56 10.05.2022
2204 Clouds 16 1020 53 10000 2.43 199 09:36 10.05.2022
2205 Clouds 11 1021 68 10000 1.73 193 07:58 10.05.2022
2206 Clouds 8 1021 79 10000 1.48 184 06:20 10.05.2022
2207 Clouds 9 1023 74 10000 1.75 163 01:54 10.05.2022
2208 Clear 8 1024 79 10000 1.53 153 23:45 09.05.2022
2209 Clear 10 1025 61 10000 1.5 146 22:35 09.05.2022
2210 Clear 11 1025 60 10000 1.5 142 21:39 09.05.2022
2211 Clouds 11 1024 61 10000 0.88 121 20:20 09.05.2022
2212 Clouds 17 1024 38 10000 0.57 211 18:25 09.05.2022
2213 Clouds 18 1025 36 10000 0.69 202 17:26 09.05.2022
2214 Clear 17 1025 37 10000 0.87 191 16:19 09.05.2022
2215 Clear 17 1025 38 10000 0.87 191 15:47 09.05.2022
2216 Clear 17 1026 44 10000 0.75 188 14:37 09.05.2022
2217 Clouds 17 1026 42 10000 0.66 175 13:58 09.05.2022
2218 Clouds 16 1026 43 10000 0.73 147 13:22 09.05.2022
2219 Clouds 15 1026 41 10000 0.85 130 11:53 09.05.2022
2220 Clouds 13 1027 47 10000 1.1 120 10:48 09.05.2022
2221 Clear 13 1027 50 10000 1.01 107 10:26 09.05.2022
2222 Clouds 7 1028 63 10000 1.11 99 07:57 09.05.2022
2223 Clear 2 1028 71 10000 0.95 95 05:53 09.05.2022
2224 Clouds 4 1028 65 10000 1.3 79 01:59 09.05.2022
2225 Clouds 5 1028 58 10000 1.23 80 23:29 08.05.2022
2226 Clouds 6 1028 56 10000 1.23 80 22:32 08.05.2022
2227 Clouds 9 1027 51 10000 1.56 60 21:24 08.05.2022
2228 Clouds 11 1026 51 10000 1.67 40 20:25 08.05.2022
2229 Clouds 13 1026 37 10000 1.77 40 19:35 08.05.2022
2230 Clouds 13 1026 36 10000 2.24 28 18:40 08.05.2022
2231 Clouds 14 1025 36 10000 2.79 15 17:40 08.05.2022
2232 Clouds 14 1025 43 10000 3.02 2 16:22 08.05.2022
2233 Clouds 14 1025 45 10000 2.79 359 15:24 08.05.2022
2234 Clouds 12 1026 49 10000 2 357 13:44 08.05.2022
2235 Clouds 11 1026 54 10000 1.58 341 11:50 08.05.2022
2236 Clouds 9 1026 71 10000 1.22 358 10:26 08.05.2022
2237 Clouds 8 1026 74 10000 1.22 358 09:53 08.05.2022
2238 Clouds 6 1026 82 10000 1.76 17 07:57 08.05.2022
2239 Clouds 6 1025 85 7921 2.11 15 06:21 08.05.2022
2240 Clouds 7 1024 91 10000 1.87 6 03:22 08.05.2022
2241 Clouds 8 1024 86 10000 1.59 12 01:19 08.05.2022
2242 Clouds 9 1024 84 10000 1.53 21 23:57 07.05.2022
2243 Clouds 9 1024 81 10000 1.53 21 23:34 07.05.2022
2244 Clouds 10 1024 82 10000 1.6 12 22:46 07.05.2022
2245 Clouds 10 1023 81 10000 1.88 5 21:56 07.05.2022
2246 Clouds 11 1023 87 10000 1.99 351 21:28 07.05.2022
2247 Clouds 12 1021 75 9404 1.98 341 20:25 07.05.2022
2248 Clouds 15 1021 62 10000 2.22 343 18:52 07.05.2022
2249 Rain 15 1021 58 10000 2.49 330 16:50 07.05.2022
2250 Rain 17 1022 47 10000 2.17 299 15:18 07.05.2022
2251 Clouds 15 1023 54 10000 1.33 287 11:51 07.05.2022
2252 Clouds 12 1023 65 10000 1.24 273 09:55 07.05.2022
2253 Clouds 11 1023 62 10000 1.44 260 08:33 07.05.2022
2254 Clouds 9 1022 66 10000 1.13 228 07:25 07.05.2022
2255 Clouds 8 1022 66 10000 1.13 228 06:42 07.05.2022
2256 Clouds 8 1022 64 10000 1.12 212 04:19 07.05.2022
2257 Clouds 9 1023 60 10000 0.98 218 00:45 07.05.2022
2258 Clouds 10 1024 57 10000 0.88 204 22:40 06.05.2022
2259 Clouds 11 1024 54 10000 0.84 211 21:54 06.05.2022
2260 Clouds 11 1024 53 10000 0.84 211 21:30 06.05.2022
2261 Clouds 13 1023 58 10000 0.97 231 19:48 06.05.2022
2262 Clouds 15 1023 42 10000 0.56 305 19:25 06.05.2022
2263 Clouds 14 1023 62 10000 0.56 305 18:34 06.05.2022
2264 Clouds 15 1023 46 10000 0.93 327 17:37 06.05.2022
2265 Clouds 15 1024 46 10000 0.77 308 15:54 06.05.2022
2266 Clouds 15 1024 43 10000 0.77 308 15:30 06.05.2022
2267 Clouds 14 1024 47 10000 0.63 354 13:50 06.05.2022
2268 Clouds 14 1024 49 10000 1.23 354 12:51 06.05.2022
2269 Clouds 13 1024 51 10000 1.63 351 11:58 06.05.2022
2270 Clouds 13 1024 50 10000 1.75 350 11:27 06.05.2022
2271 Clouds 11 1024 55 10000 1.55 354 09:48 06.05.2022
2272 Clouds 11 1024 57 10000 1.02 355 09:18 06.05.2022
2273 Clouds 8 1025 66 10000 0.6 358 07:54 06.05.2022
2274 Clouds 4 1024 75 10000 0.5 99 06:26 06.05.2022
2275 Clouds 4 1024 73 10000 0.8 62 03:44 06.05.2022
2276 Clouds 4 1024 72 10000 0.8 61 02:38 06.05.2022
2277 Clouds 6 1024 67 10000 0.61 4 23:24 05.05.2022
2278 Clouds 8 1024 57 10000 0.81 333 21:50 05.05.2022
2279 Clouds 10 1023 43 10000 0.98 337 20:37 05.05.2022
2280 Clouds 13 1021 36 10000 2.57 349 19:19 05.05.2022
2281 Clouds 14 1021 41 10000 3.57 340 16:42 05.05.2022
2282 Clouds 14 1021 40 10000 3.65 331 15:46 05.05.2022
2283 Clouds 13 1021 40 10000 3.11 320 13:41 05.05.2022
2284 Clouds 13 1020 47 10000 3 316 13:18 05.05.2022
2285 Clouds 12 1021 54 10000 2.53 310 11:42 05.05.2022
2286 Clouds 9 1021 63 10000 1.5 328 09:46 05.05.2022
2287 Clouds 7 1020 70 10000 1.21 340 08:54 05.05.2022
2288 Clouds 3 1020 85 10000 1.03 341 06:33 05.05.2022
2289 Clouds 5 1019 80 10000 1.45 0 02:28 05.05.2022
2290 Clouds 6 1019 79 10000 1.37 9 01:45 05.05.2022
2291 Clouds 6 1019 82 10000 1.51 1 00:57 05.05.2022
2292 Clouds 7 1018 77 10000 1.37 17 23:22 04.05.2022
2293 Clouds 8 1018 75 10000 1.58 26 22:18 04.05.2022
2294 Clouds 7 1018 76 10000 1.58 26 21:45 04.05.2022
2295 Clouds 9 1017 74 10000 1.77 38 20:55 04.05.2022
2296 Clouds 11 1017 66 10000 1.84 30 20:20 04.05.2022
2297 Clouds 11 1016 60 10000 1.88 25 19:35 04.05.2022
2298 Clouds 12 1016 62 9525 1.78 12 18:43 04.05.2022
2299 Clouds 12 1016 62 10000 1.64 13 18:20 04.05.2022
2300 Clouds 13 1016 59 10000 1.32 22 17:22 04.05.2022
2301 Clouds 13 1016 60 10000 1.01 38 15:34 04.05.2022
2302 Clouds 12 1016 59 10000 0.4 59 14:45 04.05.2022
2303 Clouds 12 1016 59 10000 0.26 128 14:19 04.05.2022
2304 Clouds 12 1017 59 10000 0.33 241 12:58 04.05.2022
2305 Clouds 12 1018 60 10000 0.75 169 12:24 04.05.2022
2306 Clouds 9 1018 65 10000 0.72 141 10:28 04.05.2022
2307 Clouds 7 1018 68 10000 0.51 127 09:23 04.05.2022
2308 Clouds 6 1018 75 10000 0.33 102 08:26 04.05.2022
2309 Clouds 3 1018 80 10000 0.24 89 05:42 04.05.2022
2310 Clouds 4 1018 79 10000 0.29 46 02:42 04.05.2022
2311 Clouds 6 1019 73 10000 1.12 34 23:31 03.05.2022
2312 Clouds 8 1019 68 10000 1.7 8 22:00 03.05.2022
2313 Clouds 8 1019 67 10000 1.7 8 21:32 03.05.2022
2314 Clouds 9 1018 92 10000 1.87 5 20:52 03.05.2022
2315 Clouds 12 1017 49 10000 1.88 8 19:36 03.05.2022
2316 Clouds 10 1016 70 10000 2.55 12 18:47 03.05.2022
2317 Clouds 14 1016 38 10000 3.58 358 17:34 03.05.2022
2318 Clouds 14 1016 41 10000 3.36 340 16:20 03.05.2022
2319 Clouds 14 1016 41 10000 3.31 342 14:34 03.05.2022
2320 Clouds 13 1017 42 10000 3.03 327 12:46 03.05.2022
2321 Clouds 12 1017 44 10000 2.51 319 12:22 03.05.2022
2322 Clouds 10 1017 50 10000 2.02 319 10:50 03.05.2022
2323 Clouds 7 1018 62 10000 1.23 335 08:38 03.05.2022
2324 Clouds 5 1017 75 10000 1.03 352 06:46 03.05.2022
2325 Clouds 5 1017 75 10000 1.03 352 06:46 03.05.2022
2326 Clouds 5 1017 74 10000 1.09 3 03:34 03.05.2022
2327 Clear 7 1018 73 10000 1.03 21 23:32 02.05.2022
2328 Clear 7 1018 69 10000 1 28 22:34 02.05.2022
2329 Clear 8 1018 67 10000 1.04 34 21:48 02.05.2022
2330 Clear 11 1018 59 10000 1.18 44 20:48 02.05.2022
2331 Clouds 14 1017 48 10000 1.48 28 18:28 02.05.2022
2332 Clouds 14 1017 47 10000 1.48 28 17:44 02.05.2022
2333 Clouds 14 1017 48 10000 1.63 26 16:47 02.05.2022
2334 Clouds 14 1017 48 10000 1.51 15 15:52 02.05.2022
2335 Clouds 14 1018 48 10000 1.37 3 14:56 02.05.2022
2336 Clouds 14 1018 51 10000 1.12 3 13:47 02.05.2022
2337 Clouds 12 1019 50 10000 0.26 44 11:51 02.05.2022
2338 Clouds 10 1019 61 10000 1.19 88 10:18 02.05.2022
2339 Clouds 8 1020 66 10000 1.36 74 08:46 02.05.2022
2340 Clouds 6 1020 75 10000 1.35 74 07:30 02.05.2022
2341 Clouds 6 1022 72 10000 0.93 34 01:28 02.05.2022
2342 Clouds 6 1022 71 10000 1.03 19 00:23 02.05.2022
2343 Clouds 7 1022 69 10000 1.03 19 23:43 01.05.2022
2344 Clouds 7 1022 67 10000 0.86 28 21:56 01.05.2022
2345 Clouds 7 1022 91 10000 1.1 25 20:50 01.05.2022
2346 Clouds 9 1021 56 10000 1.34 13 19:46 01.05.2022
2347 Clouds 9 1021 54 10000 1.76 14 18:54 01.05.2022
2348 Clouds 10 1021 52 10000 1.8 16 17:57 01.05.2022
2349 Clouds 10 1022 85 10000 1.87 11 16:46 01.05.2022
2350 Clouds 10 1022 86 10000 1.99 357 16:23 01.05.2022
2351 Clouds 10 1022 55 10000 1.78 353 15:22 01.05.2022
2352 Clouds 10 1022 59 10000 0.49 39 13:23 01.05.2022
2353 Clouds 7 1023 74 10000 1.27 23 10:46 01.05.2022
2354 Clouds 5 1023 82 10000 1.53 11 08:51 01.05.2022
2355 Clouds 5 1023 84 10000 1.55 5 07:42 01.05.2022
2356 Clouds 5 1023 79 10000 1.65 352 02:51 01.05.2022
2357 Clouds 6 1024 71 10000 1.33 339 22:58 30.04.2022
2358 Clouds 7 1024 69 10000 1.35 342 21:35 30.04.2022
2359 Clouds 8 1024 65 10000 1.48 342 20:35 30.04.2022
2360 Clouds 8 1023 62 10000 1.74 348 19:36 30.04.2022
2361 Clouds 9 1023 56 10000 2.37 352 17:40 30.04.2022
2362 Clouds 9 1023 55 10000 2.45 360 16:35 30.04.2022
2363 Clouds 10 1023 59 10000 2.4 11 15:21 30.04.2022
2364 Clouds 10 1023 58 10000 2.4 11 14:33 30.04.2022
2365 Clouds 9 1023 63 10000 1.4 348 12:36 30.04.2022
2366 Clouds 7 1024 70 10000 1.35 352 11:33 30.04.2022
2367 Clouds 5 1025 77 10000 1.46 354 10:40 30.04.2022
2368 Clouds 4 1025 79 10000 2.05 4 08:54 30.04.2022
2369 Clouds 3 1025 82 10000 1.65 1 05:38 30.04.2022
2370 Clouds 6 1026 89 10000 1.96 357 01:51 30.04.2022
2371 Clouds 4 1026 80 10000 1.71 349 23:37 29.04.2022
2372 Clouds 6 1026 69 10000 1.47 356 22:31 29.04.2022
2373 Clouds 8 1026 63 10000 1.65 14 21:27 29.04.2022
2374 Clouds 10 1026 59 10000 1.65 14 20:39 29.04.2022
2375 Clouds 10 1025 75 10000 1.76 29 19:38 29.04.2022
2376 Clouds 13 1025 47 10000 1.79 40 17:50 29.04.2022
2377 Clouds 14 1025 42 10000 1.78 31 17:21 29.04.2022
2378 Clouds 14 1026 46 10000 1.46 297 14:57 29.04.2022
2379 Clouds 14 1026 47 10000 0.99 263 14:20 29.04.2022
2380 Clouds 13 1027 47 10000 0.61 164 12:48 29.04.2022
2381 Clouds 10 1028 59 10000 1.1 136 10:59 29.04.2022
2382 Clouds 4 1028 72 10000 0.78 131 08:33 29.04.2022
2383 Clouds 2 1029 83 10000 0.41 84 07:27 29.04.2022
2384 Clouds 1 1029 82 10000 0.41 84 06:37 29.04.2022
2385 Clouds 2 1029 81 10000 0.28 128 04:43 29.04.2022
2386 Clouds 3 1031 75 10000 0.93 311 00:19 29.04.2022
2387 Clouds 4 1031 68 10000 0.76 330 23:27 28.04.2022
2388 Clouds 5 1031 65 10000 0.76 330 22:41 28.04.2022
2389 Clouds 5 1031 64 10000 0.46 352 21:46 28.04.2022
2390 Clouds 4 1030 77 10000 0.58 359 20:57 28.04.2022
2391 Clouds 8 1029 57 10000 1.19 342 20:24 28.04.2022
2392 Clouds 6 1029 71 10000 1.19 342 19:41 28.04.2022
2393 Clouds 12 1028 46 10000 2.46 343 19:21 28.04.2022
2394 Clouds 12 1028 41 10000 2.46 343 18:35 28.04.2022
2395 Clouds 13 1027 45 10000 3.38 331 16:59 28.04.2022
2396 Clouds 12 1027 44 10000 3.38 331 16:40 28.04.2022
2397 Clouds 13 1027 45 10000 3.18 324 16:18 28.04.2022
2398 Clouds 13 1028 46 10000 3.01 317 15:27 28.04.2022
2399 Clouds 13 1028 46 10000 3.01 317 15:27 28.04.2022
2400 Clouds 12 1028 51 10000 3.31 310 13:44 28.04.2022
2401 Clouds 11 1028 55 10000 3.11 310 12:44 28.04.2022
2402 Clouds 10 1028 62 10000 2.77 308 11:56 28.04.2022
2403 Clouds 8 1028 64 10000 2.23 306 10:44 28.04.2022
2404 Clouds 6 1029 69 10000 1.64 315 09:54 28.04.2022
2405 Clouds 5 1029 74 10000 1.31 336 08:31 28.04.2022
2406 Clouds 2 1029 85 10000 1.12 343 06:59 28.04.2022
2407 Clouds 2 1028 85 10000 1.14 340 05:55 28.04.2022
2408 Clouds 2 1028 85 10000 1.14 340 05:37 28.04.2022
2409 Clouds 2 1028 84 10000 1.17 339 04:38 28.04.2022
2410 Clouds 3 1028 79 10000 0.7 339 00:30 28.04.2022
2411 Clouds 4 1028 77 10000 0.92 358 22:39 27.04.2022
2412 Clouds 6 1027 71 10000 1.33 360 21:54 27.04.2022
2413 Clouds 7 1027 68 10000 1.49 355 20:59 27.04.2022
2414 Clouds 8 1027 62 10000 1.49 355 20:37 27.04.2022
2415 Clouds 11 1025 51 10000 1.88 346 19:37 27.04.2022
2416 Clouds 11 1024 72 10000 2.18 346 19:18 27.04.2022
2417 Clouds 12 1024 49 10000 2.34 345 18:22 27.04.2022
2418 Clouds 12 1024 65 10000 2.26 343 16:58 27.04.2022
2419 Clouds 11 1025 57 10000 2.48 333 14:33 27.04.2022
2420 Clouds 10 1025 58 10000 0.76 342 12:23 27.04.2022
2421 Clouds 9 1025 64 10000 0.57 10 11:20 27.04.2022
2422 Clouds 7 1024 73 10000 0.64 31 09:43 27.04.2022
2423 Clouds 3 1023 85 10000 1.32 352 07:18 27.04.2022
2424 Clouds 1 1022 86 10000 1.29 349 04:45 27.04.2022
2425 Clouds 5 1022 81 10000 1.27 8 01:34 27.04.2022
2426 Clouds 5 1021 76 10000 1.48 4 00:38 27.04.2022
2427 Clouds 5 1021 76 10000 1.48 4 00:38 27.04.2022
2428 Clouds 6 1021 90 10000 1.55 1 23:40 26.04.2022
2429 Clouds 6 1020 89 10000 1.25 16 23:22 26.04.2022
2430 Clouds 6 1020 73 10000 1.25 16 22:41 26.04.2022
2431 Clouds 7 1020 72 10000 1.35 22 21:37 26.04.2022
2432 Clouds 8 1019 68 10000 1.75 30 20:53 26.04.2022
2433 Clouds 8 1019 67 10000 1.75 30 20:33 26.04.2022
2434 Clouds 9 1017 57 10000 1.94 22 19:32 26.04.2022
2435 Clouds 10 1016 59 10000 1.76 35 18:45 26.04.2022
2436 Clouds 10 1016 60 10000 2.02 53 18:18 26.04.2022
2437 Clouds 10 1016 58 10000 2.21 61 17:22 26.04.2022
2438 Clouds 10 1015 63 10000 2.39 74 14:28 26.04.2022
2439 Clouds 9 1015 65 10000 1.49 83 13:33 26.04.2022
2440 Clouds 9 1015 67 10000 1.86 80 11:57 26.04.2022
2441 Clouds 9 1015 70 10000 1.63 82 10:44 26.04.2022
2442 Clouds 6 1015 81 10000 1.11 79 09:25 26.04.2022
2443 Clouds 3 1015 87 10000 1.04 84 07:54 26.04.2022
2444 Clouds 0 1015 89 10000 0.86 108 04:33 26.04.2022
2445 Clouds 0 1015 88 10000 0.92 101 01:54 26.04.2022
2446 Clouds 1 1015 87 10000 0.92 114 00:26 26.04.2022
2447 Clouds 3 1015 86 10000 0.97 103 22:46 25.04.2022
2448 Clouds 3 1015 87 10000 0.97 102 21:43 25.04.2022
2449 Clouds 5 1014 86 10000 1.05 99 20:40 25.04.2022
2450 Clouds 7 1013 75 10000 2.17 63 18:58 25.04.2022
2451 Clouds 7 1012 74 10000 2.41 57 18:23 25.04.2022
2452 Clouds 7 1012 79 10000 2.24 60 17:23 25.04.2022
2453 Clouds 6 1012 82 10000 1.55 65 15:29 25.04.2022
2454 Clouds 6 1012 82 10000 1.55 65 14:46 25.04.2022
2455 Clouds 6 1012 85 10000 1.81 58 13:41 25.04.2022
2456 Clouds 5 1012 87 10000 1.1 55 11:49 25.04.2022
2457 Clouds 4 1011 92 4568 1.41 67 10:27 25.04.2022
2458 Clouds 4 1010 93 4753 1.66 44 08:47 25.04.2022
2459 Rain 3 1009 91 4026 1.21 32 06:46 25.04.2022
2460 Rain 3 1008 91 4237 1.54 16 04:33 25.04.2022
2461 Clouds 5 1007 93 8445 2.1 44 00:58 25.04.2022
2462 Clouds 5 1007 93 10000 2.24 42 23:52 24.04.2022
2463 Clouds 5 1006 79 10000 2.32 40 22:49 24.04.2022
2464 Clouds 6 1005 75 10000 2.55 46 22:29 24.04.2022
2465 Clouds 6 1005 79 10000 2.55 46 21:42 24.04.2022
2466 Clouds 6 1005 83 10000 2.65 48 21:18 24.04.2022
2467 Rain 6 1005 83 10000 1.98 47 20:37 24.04.2022
2468 Rain 7 1004 73 10000 2.43 49 19:48 24.04.2022
2469 Rain 8 1003 67 10000 4.37 64 18:20 24.04.2022
2470 Clouds 9 1003 65 10000 4.37 64 17:32 24.04.2022
2471 Clouds 9 1003 62 10000 4.38 58 16:59 24.04.2022
2472 Clouds 9 1003 62 10000 4.38 58 16:35 24.04.2022
2473 Clouds 9 1003 61 10000 5.23 53 15:56 24.04.2022
2474 Clouds 9 1003 59 10000 5.23 53 15:31 24.04.2022
2475 Clouds 10 1003 53 10000 5.06 48 13:58 24.04.2022
2476 Clouds 11 1003 54 10000 5.46 57 13:25 24.04.2022
2477 Clouds 10 1003 52 10000 5.46 57 12:32 24.04.2022
2478 Clouds 9 1003 58 10000 5.22 56 11:33 24.04.2022
2479 Clouds 6 1004 64 10000 4.07 52 10:27 24.04.2022
2480 Clouds 5 1004 68 10000 3.96 56 09:26 24.04.2022
2481 Clear 2 1005 78 10000 2.84 55 06:45 24.04.2022
2482 Clear 3 1005 72 10000 3.06 63 03:57 24.04.2022
2483 Clear 4 1006 67 10000 3.17 65 01:38 24.04.2022
2484 Clear 5 1007 61 10000 3.5 69 00:29 24.04.2022
2485 Clear 5 1007 64 10000 3.5 69 23:44 23.04.2022
2486 Clear 6 1006 58 10000 3.98 79 23:21 23.04.2022
2487 Clear 7 1006 55 10000 3.64 85 21:53 23.04.2022
2488 Clear 7 1006 54 10000 3.64 85 21:34 23.04.2022
2489 Clear 8 1006 52 10000 3.62 84 20:51 23.04.2022
2490 Clear 9 1006 47 10000 4.14 85 19:47 23.04.2022
2491 Clear 11 1006 42 10000 4.85 88 19:19 23.04.2022
2492 Clear 11 1006 40 10000 4.85 88 18:52 23.04.2022
2493 Clear 12 1006 41 10000 5.3 88 17:51 23.04.2022
2494 Clear 12 1006 39 10000 6.1 88 17:26 23.04.2022
2495 Clear 12 1006 36 10000 6.1 88 16:41 23.04.2022
2496 Clear 12 1007 41 10000 6.41 90 15:28 23.04.2022
2497 Clear 11 1008 42 10000 6.38 92 12:44 23.04.2022
2498 Clear 8 1009 54 10000 6.18 90 10:44 23.04.2022
2499 Clear 7 1010 62 10000 5.64 88 09:33 23.04.2022
2500 Clouds 3 1010 83 10000 3.15 80 06:32 23.04.2022
2501 Clouds 5 1009 81 10000 3.75 82 03:54 23.04.2022
2502 Clouds 6 1009 79 10000 4.14 81 01:20 23.04.2022
2503 Clouds 7 1009 80 10000 4 82 23:30 22.04.2022
2504 Clouds 7 1009 80 10000 4.4 84 22:20 22.04.2022
2505 Clouds 7 1009 83 10000 4.4 84 21:43 22.04.2022
2506 Clouds 7 1008 77 10000 4.49 89 20:47 22.04.2022
2507 Clouds 8 1008 77 10000 4.9 89 20:27 22.04.2022
2508 Clouds 8 1007 81 10000 5.02 86 19:20 22.04.2022
2509 Clouds 8 1007 81 10000 5.02 86 18:41 22.04.2022
2510 Clouds 8 1007 80 10000 5.22 82 17:40 22.04.2022
2511 Clouds 7 1007 77 10000 4.22 80 16:46 22.04.2022
2512 Clouds 8 1007 74 10000 4.16 79 15:32 22.04.2022
2513 Clouds 7 1008 80 5933 3.3 70 14:44 22.04.2022
2514 Clouds 6 1008 83 10000 4.02 69 13:49 22.04.2022
2515 Clouds 6 1008 84 10000 4.37 75 12:57 22.04.2022
2516 Clouds 5 1008 87 5338 3.91 71 11:48 22.04.2022
2517 Clouds 4 1009 87 5186 3.16 71 11:21 22.04.2022
2518 Clouds 4 1009 89 5186 3.16 71 10:48 22.04.2022
2519 Clouds 4 1009 88 5107 2.67 64 10:29 22.04.2022
2520 Clouds 4 1009 88 5107 2.67 64 09:50 22.04.2022
2521 Clouds 5 1009 88 2628 2.58 59 08:50 22.04.2022
2522 Clouds 5 1009 91 1658 2.54 55 06:58 22.04.2022
2523 Clouds 5 1011 91 2076 2.32 60 02:45 22.04.2022
2524 Clouds 5 1012 91 2533 2.22 64 00:51 22.04.2022
2525 Clouds 5 1012 90 10000 2.54 82 23:24 21.04.2022
2526 Rain 5 1013 87 10000 2.78 82 22:27 21.04.2022
2527 Clouds 5 1013 83 5655 2.16 67 20:36 21.04.2022
2528 Clouds 5 1013 83 5655 2.16 67 20:36 21.04.2022
2529 Clouds 6 1013 79 10000 1.63 58 20:18 21.04.2022
2530 Clouds 6 1013 77 5913 1.83 67 18:35 21.04.2022
2531 Clouds 6 1013 77 6218 2.06 64 17:57 21.04.2022
2532 Clouds 7 1013 70 10000 2.53 57 16:35 21.04.2022
2533 Clouds 7 1014 90 10000 2.17 48 15:21 21.04.2022
2534 Clouds 7 1014 90 10000 2.17 48 14:47 21.04.2022
2535 Clouds 6 1014 91 10000 1.93 43 13:23 21.04.2022
2536 Rain 6 1014 91 10000 1.93 43 12:57 21.04.2022
2537 Rain 5 1014 69 10000 1.81 39 10:49 21.04.2022
2538 Clouds 3 1014 76 10000 1.61 44 08:56 21.04.2022
2539 Clouds 3 1014 77 10000 1.47 42 07:32 21.04.2022
2540 Clouds 1 1014 82 10000 1.66 34 05:42 21.04.2022
2541 Clouds 1 1015 80 10000 1.84 36 03:32 21.04.2022
2542 Clouds 2 1015 77 10000 1.8 22 02:47 21.04.2022
2543 Clouds 3 1015 75 10000 1.48 20 00:47 21.04.2022
2544 Clouds 4 1015 72 10000 1.87 33 23:51 20.04.2022
2545 Clouds 4 1015 69 10000 2.47 35 23:22 20.04.2022
2546 Clouds 4 1015 69 10000 2.47 35 22:50 20.04.2022
2547 Clouds 4 1015 67 10000 2.47 35 22:31 20.04.2022
2548 Clouds 5 1015 62 10000 1.75 21 21:29 20.04.2022
2549 Clouds 5 1015 59 10000 1.75 21 20:37 20.04.2022
2550 Clouds 7 1014 48 10000 2.79 31 19:52 20.04.2022
2551 Clouds 9 1014 47 10000 3.04 28 19:21 20.04.2022
2552 Clouds 9 1015 44 10000 3.66 36 18:22 20.04.2022
2553 Clouds 9 1015 48 10000 3.92 36 16:56 20.04.2022
2554 Clouds 9 1015 48 10000 3.92 36 16:37 20.04.2022
2555 Clouds 9 1016 50 10000 3.89 47 14:21 20.04.2022
2556 Clouds 8 1017 57 10000 3.15 48 11:52 20.04.2022
2557 Clouds 8 1017 56 10000 2.96 53 11:24 20.04.2022
2558 Clouds 6 1017 61 10000 2.53 56 10:24 20.04.2022
2559 Clouds 4 1017 64 10000 2.14 47 09:25 20.04.2022
2560 Clouds 4 1017 64 10000 2.14 47 09:25 20.04.2022
2561 Clouds 2 1017 71 10000 1.43 31 08:22 20.04.2022
2562 Clouds 0 1017 75 10000 1.66 38 07:37 20.04.2022
2563 Clouds 0 1018 72 10000 1.08 43 03:54 20.04.2022
2564 Clouds 2 1018 68 10000 1.52 74 00:24 20.04.2022
2565 Clouds 3 1018 65 10000 1.52 74 23:59 19.04.2022
2566 Clouds 3 1018 62 10000 2 78 22:28 19.04.2022
2567 Clouds 4 1018 59 10000 2 78 21:57 19.04.2022
2568 Clouds 5 1018 83 10000 2 78 21:34 19.04.2022
2569 Clouds 5 1017 79 10000 2.13 70 20:50 19.04.2022
2570 Clouds 7 1017 46 10000 2.13 70 20:32 19.04.2022
2571 Clouds 9 1015 44 10000 3.89 46 19:24 19.04.2022
2572 Clear 10 1015 37 10000 4.52 46 17:59 19.04.2022
2573 Clear 10 1015 35 10000 4.52 48 16:44 19.04.2022
2574 Clear 10 1015 35 10000 4.51 48 16:24 19.04.2022
2575 Clear 10 1015 38 10000 4.47 46 14:51 19.04.2022
2576 Clear 10 1015 40 10000 4.47 46 14:30 19.04.2022
2577 Clouds 9 1015 40 10000 3.73 47 12:51 19.04.2022
2578 Clouds 8 1015 41 10000 3.51 48 12:26 19.04.2022
2579 Clouds 8 1016 45 10000 3.14 47 11:22 19.04.2022
2580 Clouds 4 1016 62 10000 2.24 46 09:25 19.04.2022
2581 Clouds 0 1016 80 10000 1.78 35 06:34 19.04.2022
2582 Clouds 1 1016 76 10000 1.48 46 04:19 19.04.2022
2583 Clouds 2 1017 67 10000 1.25 38 00:56 19.04.2022
2584 Clouds 3 1018 64 10000 0.98 54 23:38 18.04.2022
2585 Clouds 4 1018 58 10000 1.07 67 21:48 18.04.2022
2586 Clouds 5 1018 55 10000 1.29 68 21:24 18.04.2022
2587 Clouds 6 1018 50 10000 1.42 71 20:38 18.04.2022
2588 Clouds 7 1018 47 10000 1.61 72 19:59 18.04.2022
2589 Clouds 9 1017 35 10000 2.38 73 19:27 18.04.2022
2590 Clouds 10 1017 33 10000 2.38 73 18:33 18.04.2022
2591 Clouds 11 1017 31 10000 2.76 73 17:39 18.04.2022
2592 Clouds 11 1017 30 10000 2.57 76 17:19 18.04.2022
2593 Clouds 11 1017 32 10000 2.57 76 16:35 18.04.2022
2594 Clouds 11 1017 32 10000 2.57 76 16:35 18.04.2022
2595 Clouds 12 1018 34 10000 2.1 71 15:28 18.04.2022
2596 Clouds 11 1019 42 10000 1.93 53 13:44 18.04.2022
2597 Clouds 10 1019 42 10000 1.67 52 12:40 18.04.2022
2598 Clouds 9 1020 46 10000 1.62 57 11:43 18.04.2022
2599 Clouds 8 1020 53 10000 1.33 61 10:43 18.04.2022
2600 Clouds 5 1021 58 10000 0.89 75 09:31 18.04.2022
2601 Clouds 5 1021 58 10000 0.89 75 09:31 18.04.2022
2602 Clouds 4 1021 63 10000 0.98 89 08:37 18.04.2022
2603 Clear 0 1022 72 10000 0.68 89 06:25 18.04.2022
2604 Clouds 0 1024 71 10000 1.11 109 02:22 18.04.2022
2605 Clouds 3 1026 61 10000 1.3 118 22:53 17.04.2022
2606 Clouds 3 1026 56 10000 1.3 118 22:31 17.04.2022
2607 Clouds 4 1027 56 10000 1.57 111 21:32 17.04.2022
2608 Clouds 5 1026 74 10000 1.64 103 20:50 17.04.2022
2609 Clear 4 1026 70 10000 2 103 19:55 17.04.2022
2610 Clear 10 1025 35 10000 2.76 97 18:34 17.04.2022
2611 Clear 10 1026 33 10000 3.64 97 16:44 17.04.2022
2612 Clear 10 1027 34 10000 3.49 101 15:33 17.04.2022
2613 Clear 10 1027 34 10000 3.22 105 14:38 17.04.2022
2614 Clouds 10 1029 33 10000 3.15 99 13:23 17.04.2022
2615 Clouds 9 1029 32 10000 3.15 99 12:31 17.04.2022
2616 Clouds 6 1030 47 10000 2.33 96 10:48 17.04.2022
2617 Clouds 5 1031 50 10000 1.86 92 10:29 17.04.2022
2618 Clouds 4 1031 56 10000 1.86 92 09:51 17.04.2022
2619 Clear 3 1031 55 10000 1.36 103 09:18 17.04.2022
2620 Clouds 2 1031 65 10000 1.1 100 08:29 17.04.2022
2621 Clouds -3 1033 76 10000 1.01 105 05:33 17.04.2022
2622 Clouds -1 1034 77 10000 1.57 98 01:52 17.04.2022
2623 Clouds 0 1035 70 10000 1.35 86 00:37 17.04.2022
2624 Clouds 1 1035 70 10000 1.69 83 23:19 16.04.2022
2625 Clouds 2 1035 69 10000 1.69 75 21:47 16.04.2022
2626 Clouds 3 1035 62 10000 1.7 69 20:54 16.04.2022
2627 Clouds 7 1033 45 10000 2.58 73 19:24 16.04.2022
2628 Clouds 7 1033 45 10000 2.58 73 18:43 16.04.2022
2629 Clouds 8 1033 43 10000 4 77 17:20 16.04.2022
2630 Clouds 7 1033 44 10000 4.34 79 15:51 16.04.2022
2631 Clouds 7 1034 45 10000 4.49 76 14:58 16.04.2022
2632 Clouds 7 1034 45 10000 4.49 76 14:40 16.04.2022
2633 Clouds 6 1034 49 10000 4.29 73 13:49 16.04.2022
2634 Clouds 6 1034 51 10000 4.63 74 13:18 16.04.2022
2635 Clouds 4 1034 58 10000 4.57 73 11:43 16.04.2022
2636 Clouds 2 1034 65 10000 4.35 71 10:33 16.04.2022
2637 Clouds 1 1034 72 10000 3.6 65 09:37 16.04.2022
2638 Clouds 0 1034 75 10000 3.27 61 08:51 16.04.2022
2639 Clouds -1 1034 82 10000 2.32 65 07:22 16.04.2022
2640 Clouds 0 1033 86 10000 2.56 65 05:38 16.04.2022
2641 Clouds 3 1031 87 10000 2.85 50 01:47 16.04.2022
2642 Clouds 4 1031 88 5208 2.19 48 23:52 15.04.2022
2643 Clouds 5 1030 89 5331 2.55 47 22:48 15.04.2022
2644 Clouds 5 1030 89 10000 2.48 38 22:28 15.04.2022
2645 Rain 5 1029 88 10000 2.33 14 21:21 15.04.2022
2646 Rain 5 1029 87 10000 2.33 14 20:38 15.04.2022
2647 Rain 6 1028 83 10000 3.4 29 19:45 15.04.2022
2648 Clouds 6 1027 81 10000 3.52 25 18:59 15.04.2022
2649 Clouds 6 1027 80 10000 3.52 25 18:41 15.04.2022
2650 Rain 6 1027 81 10000 3.81 18 18:21 15.04.2022
2651 Rain 7 1026 78 10000 4.36 0 17:26 15.04.2022
2652 Clouds 7 1026 76 10000 4.35 344 16:25 15.04.2022
2653 Clouds 8 1026 74 10000 4.35 344 15:45 15.04.2022
2654 Clouds 8 1026 73 10000 3.98 332 14:18 15.04.2022
2655 Clouds 6 1026 78 10000 3.75 328 12:52 15.04.2022
2656 Clouds 6 1026 80 10000 3.65 322 12:26 15.04.2022
2657 Clouds 5 1026 80 10000 3.65 322 11:51 15.04.2022
2658 Clouds 4 1026 86 10000 3.86 317 10:46 15.04.2022
2659 Clouds 4 1025 90 10000 3.38 312 10:20 15.04.2022
2660 Clouds 4 1025 88 10000 2.83 305 09:22 15.04.2022
2661 Clouds 4 1025 87 10000 2.83 305 08:49 15.04.2022
2662 Clouds 4 1024 90 10000 3.1 312 06:51 15.04.2022
2663 Clouds 4 1023 95 10000 2.61 303 04:49 15.04.2022
2664 Clouds 6 1022 94 10000 2.1 300 00:51 15.04.2022
2665 Clouds 6 1022 89 10000 1.65 295 23:28 14.04.2022
2666 Clouds 6 1022 91 10000 1.65 295 22:46 14.04.2022
2667 Clouds 7 1022 88 10000 1.51 299 22:27 14.04.2022
2668 Clouds 7 1022 91 10000 1.51 299 21:50 14.04.2022
2669 Clouds 9 1020 86 10000 1.73 304 19:51 14.04.2022
2670 Rain 9 1019 83 10000 3.21 307 19:22 14.04.2022
2671 Rain 12 1019 71 10000 2.72 298 17:48 14.04.2022
2672 Clouds 13 1019 68 10000 2.68 289 17:18 14.04.2022
2673 Clouds 13 1019 67 10000 2.68 289 16:32 14.04.2022
2674 Clouds 10 1019 83 10000 2.13 297 13:55 14.04.2022
2675 Clouds 9 1019 90 10000 2.08 301 13:26 14.04.2022
2676 Rain 8 1019 90 10000 2.08 301 12:33 14.04.2022
2677 Rain 8 1020 92 10000 1.53 304 11:47 14.04.2022
2678 Rain 8 1020 91 10000 1.13 329 11:20 14.04.2022
2679 Rain 9 1020 88 10000 1.13 329 10:33 14.04.2022
2680 Clouds 9 1019 87 10000 1.32 309 09:52 14.04.2022
2681 Clouds 9 1019 83 8170 1.27 333 08:39 14.04.2022
2682 Clouds 8 1018 78 1917 1.46 349 06:24 14.04.2022
2683 Clouds 10 1018 77 1351 2.33 345 01:49 14.04.2022
2684 Clouds 11 1018 64 10000 1.05 315 22:41 13.04.2022
2685 Clouds 11 1017 64 10000 0.59 86 21:44 13.04.2022
2686 Clouds 12 1017 61 10000 0.9 60 20:48 13.04.2022
2687 Clouds 13 1017 58 10000 0.87 32 20:18 13.04.2022
2688 Clouds 16 1016 73 10000 0.64 24 18:50 13.04.2022
2689 Clouds 18 1016 41 10000 0.54 13 17:54 13.04.2022
2690 Clouds 18 1016 40 10000 0.45 339 17:23 13.04.2022
2691 Clouds 18 1016 41 10000 0.45 339 16:33 13.04.2022
2692 Clouds 18 1016 40 10000 1.06 271 15:32 13.04.2022
2693 Clouds 18 1016 40 10000 1.03 249 14:50 13.04.2022
2694 Clouds 18 1016 39 10000 0.88 257 13:58 13.04.2022
2695 Clouds 16 1016 41 10000 1.35 255 13:00 13.04.2022
2696 Clouds 15 1016 40 10000 1.29 235 12:20 13.04.2022
2697 Clouds 14 1015 40 10000 1.18 221 10:46 13.04.2022
2698 Clouds 11 1015 47 10000 1.04 186 08:57 13.04.2022
2699 Clouds 9 1015 51 10000 1.04 186 08:31 13.04.2022
2700 Clouds 6 1015 61 10000 1.42 172 06:51 13.04.2022
2701 Clouds 5 1014 62 10000 1.54 166 06:25 13.04.2022
2702 Clouds 7 1014 52 10000 1.53 160 04:55 13.04.2022
2703 Clouds 7 1015 51 10000 1.8 151 00:20 13.04.2022
2704 Clouds 7 1015 48 10000 2.06 145 23:21 12.04.2022
2705 Clouds 8 1015 52 10000 2.88 138 21:57 12.04.2022
2706 Clouds 9 1015 63 10000 3.29 128 20:57 12.04.2022
2707 Clouds 9 1015 63 10000 3.29 128 20:38 12.04.2022
2708 Clouds 7 1015 66 10000 3.1 115 19:48 12.04.2022
2709 Clouds 12 1014 38 10000 3.52 127 19:29 12.04.2022
2710 Clouds 12 1014 38 10000 3.52 127 19:29 12.04.2022
2711 Clouds 14 1014 35 10000 4.39 132 17:59 12.04.2022
2712 Clouds 15 1014 35 10000 4.5 140 16:58 12.04.2022
2713 Clouds 14 1014 32 10000 4.7 142 16:19 12.04.2022
2714 Clouds 14 1015 34 10000 4.7 143 15:26 12.04.2022
2715 Clouds 14 1015 31 10000 4.49 139 14:21 12.04.2022
2716 Clouds 12 1015 32 10000 3.73 137 13:29 12.04.2022
2717 Clouds 12 1015 34 10000 3.73 137 12:49 12.04.2022
2718 Clouds 11 1016 45 10000 3.29 144 11:46 12.04.2022
2719 Clouds 7 1016 57 10000 3.21 136 10:32 12.04.2022
2720 Clouds 3 1016 64 10000 2.32 133 08:57 12.04.2022
2721 Clouds 1 1017 71 10000 1.96 127 07:51 12.04.2022
2722 Clouds 0 1017 72 10000 1.9 131 05:50 12.04.2022
2723 Clouds 1 1017 70 10000 1.86 127 04:55 12.04.2022
2724 Clouds 2 1019 68 10000 1.5 124 23:53 11.04.2022
2725 Clouds 1 1019 71 10000 1.43 110 22:44 11.04.2022
2726 Clouds 2 1019 68 10000 1.35 107 21:37 11.04.2022
2727 Clouds 2 1019 68 10000 1.35 107 21:37 11.04.2022
2728 Clouds 3 1018 67 10000 1.52 94 20:56 11.04.2022
2729 Clouds 4 1018 61 10000 1.22 93 20:29 11.04.2022
2730 Clouds 8 1018 65 10000 1.22 93 19:42 11.04.2022
2731 Clouds 8 1017 43 10000 0.28 128 19:18 11.04.2022
2732 Clouds 9 1017 39 10000 0.28 128 18:41 11.04.2022
2733 Clouds 9 1017 41 10000 0.92 240 17:56 11.04.2022
2734 Clouds 9 1017 37 10000 1.47 241 16:54 11.04.2022
2735 Clouds 9 1017 40 10000 2 235 15:54 11.04.2022
2736 Clouds 8 1018 42 10000 1.96 236 13:59 11.04.2022
2737 Clouds 7 1019 50 10000 1.92 238 12:47 11.04.2022
2738 Clouds 6 1020 49 10000 2.19 240 12:29 11.04.2022
2739 Clouds 5 1020 57 10000 2.19 240 11:30 11.04.2022
2740 Clouds 4 1020 57 10000 2.14 222 10:24 11.04.2022
2741 Clouds 1 1021 67 10000 1.71 215 08:56 11.04.2022
2742 Clouds -3 1021 83 10000 1.43 207 06:21 11.04.2022
2743 Clouds -2 1022 86 10000 1.12 222 01:23 11.04.2022
2744 Clouds -1 1022 81 10000 1.11 239 22:34 10.04.2022
2745 Clouds -1 1022 79 10000 1.33 253 21:55 10.04.2022
2746 Clouds -1 1021 75 10000 1.79 272 21:28 10.04.2022
2747 Clouds 1 1021 72 10000 1.79 272 20:30 10.04.2022
2748 Clouds 2 1020 63 10000 2.64 297 19:43 10.04.2022
2749 Clouds 3 1019 67 10000 4.11 309 19:18 10.04.2022
2750 Clouds 2 1019 68 10000 4.11 309 18:41 10.04.2022
2751 Clouds 4 1019 63 10000 5.01 309 17:52 10.04.2022
2752 Clouds 3 1019 66 10000 5.01 309 17:32 10.04.2022
2753 Rain 3 1018 63 10000 5.96 300 15:56 10.04.2022
2754 Rain 2 1018 71 5989 6.15 292 14:59 10.04.2022
2755 Clouds 3 1018 66 5209 5.86 283 13:54 10.04.2022
2756 Snow 2 1018 71 5097 6.14 285 12:33 10.04.2022
2757 Snow 1 1018 73 5592 5.84 284 11:46 10.04.2022
2758 Snow 1 1018 75 3641 5.83 285 11:28 10.04.2022
2759 Snow 1 1018 74 3619 5.82 285 10:43 10.04.2022
2760 Snow 0 1018 78 4055 5.81 281 09:50 10.04.2022
2761 Clouds -1 1018 82 6789 5.38 275 08:56 10.04.2022
2762 Clouds -1 1017 85 5007 4.8 272 08:21 10.04.2022
2763 Clouds -2 1017 83 4802 4.49 269 06:59 10.04.2022
2764 Clouds -1 1016 83 4659 4.24 262 05:19 10.04.2022
2765 Snow -2 1015 85 3722 3.83 256 02:20 10.04.2022
2766 Clouds -1 1014 86 9674 4.13 269 23:54 09.04.2022
2767 Clouds -1 1014 86 10000 4.08 271 23:29 09.04.2022
2768 Clouds -1 1014 87 10000 4.08 271 22:39 09.04.2022
2769 Snow -1 1013 88 10000 4.16 275 21:32 09.04.2022
2770 Snow -1 1012 86 4395 4.32 280 20:39 09.04.2022
2771 Snow -1 1011 87 10000 4.73 282 20:18 09.04.2022
2772 Snow -1 1011 86 10000 4.91 282 19:41 09.04.2022
2773 Snow 1 1010 81 10000 5.35 285 18:54 09.04.2022
2774 Snow 1 1009 77 10000 5.52 289 18:18 09.04.2022
2775 Snow 1 1009 84 10000 5.52 289 17:32 09.04.2022
2776 Clouds 2 1009 80 9013 6.05 291 16:42 09.04.2022
2777 Snow 2 1008 80 10000 6.87 289 15:52 09.04.2022
2778 Snow 1 1008 83 3770 7.16 284 15:26 09.04.2022
2779 Rain 2 1008 77 4289 6.49 273 14:26 09.04.2022
2780 Rain 2 1008 77 4672 6.54 270 13:38 09.04.2022
2781 Clouds 2 1008 80 9868 6.44 270 12:59 09.04.2022
2782 Rain 3 1008 62 10000 6.65 271 11:52 09.04.2022
2783 Snow 2 1007 71 9422 6.83 277 10:55 09.04.2022
2784 Clouds 1 1006 76 10000 5.92 277 10:19 09.04.2022
2785 Clouds 1 1006 82 10000 5.92 277 09:36 09.04.2022
2786 Clouds 0 1006 84 10000 5.87 278 08:45 09.04.2022
2787 Snow 0 1002 80 10000 5.56 286 05:58 09.04.2022
2788 Clouds 0 997 78 10000 2.81 300 00:38 09.04.2022
2789 Clouds 1 997 76 10000 1.99 292 23:25 08.04.2022
2790 Clouds 1 997 64 10000 2.06 273 21:58 08.04.2022
2791 Clouds 2 996 57 10000 2.41 270 20:47 08.04.2022
2792 Clouds 3 996 60 10000 2.91 262 19:58 08.04.2022
2793 Clouds 3 996 57 10000 3.22 263 19:18 08.04.2022
2794 Clouds 4 996 53 10000 3.85 253 18:25 08.04.2022
2795 Clouds 4 996 53 10000 3.85 253 17:38 08.04.2022
2796 Clouds 4 996 55 10000 4 252 17:19 08.04.2022
2797 Clouds 4 996 52 10000 4 252 16:38 08.04.2022
2798 Clouds 4 996 55 10000 4.11 260 15:53 08.04.2022
2799 Clouds 4 996 54 10000 4.61 261 15:23 08.04.2022
2800 Clouds 4 996 57 10000 5.33 258 14:26 08.04.2022
2801 Clouds 4 996 55 10000 5.08 258 13:44 08.04.2022
2802 Clouds 4 997 58 10000 5.52 258 13:25 08.04.2022
2803 Clouds 3 998 67 10000 5.68 259 11:53 08.04.2022
2804 Clouds 2 999 73 10000 6.75 258 10:32 08.04.2022
2805 Snow 1 999 80 10000 6.43 261 09:37 08.04.2022
2806 Snow 0 999 86 9272 5.96 264 08:34 08.04.2022
2807 Snow 1 997 87 787 7.17 268 06:47 08.04.2022
2808 Snow 1 997 87 787 7.17 268 06:47 08.04.2022
2809 Snow 1 996 84 5056 6.87 274 04:58 08.04.2022
2810 Clouds 2 989 83 2656 9.35 258 01:26 08.04.2022
2811 Snow 2 987 83 10000 9.71 251 00:22 08.04.2022
2812 Snow 2 987 82 10000 9.18 247 22:59 07.04.2022
2813 Snow 2 987 84 10000 9.18 247 22:39 07.04.2022
2814 Clouds 2 987 83 10000 8.79 248 22:20 07.04.2022
2815 Clouds 2 987 82 10000 8.79 248 21:49 07.04.2022
2816 Clouds 3 986 75 10000 9.08 251 20:58 07.04.2022
2817 Clouds 3 986 76 10000 9.08 251 20:30 07.04.2022
2818 Clouds 5 985 70 10000 9.64 252 18:34 07.04.2022
2819 Clouds 4 983 79 10000 9.53 253 17:26 07.04.2022
2820 Clouds 6 983 73 10000 9.53 253 16:44 07.04.2022
2821 Clouds 6 983 76 10000 9.5 254 16:21 07.04.2022
2822 Clouds 3 984 87 10000 8.85 256 14:42 07.04.2022
2823 Clouds 7 982 84 3821 11.6 232 13:43 07.04.2022
2824 Clouds 6 983 82 10000 10.63 211 12:46 07.04.2022
2825 Clouds 7 985 73 4585 9.5 208 11:30 07.04.2022
2826 Clouds 6 988 74 10000 9.48 216 09:37 07.04.2022
2827 Clouds 5 989 77 10000 8.9 219 08:38 07.04.2022
2828 Clouds 5 991 74 10000 8.05 220 06:42 07.04.2022
2829 Clouds 5 994 76 10000 6.7 232 02:51 07.04.2022
2830 Clouds 6 995 75 10000 7.41 233 02:20 07.04.2022
2831 Clouds 6 996 75 10000 7.5 232 00:27 07.04.2022
2832 Clouds 6 997 68 10000 7.51 227 22:51 06.04.2022
2833 Clouds 6 997 68 10000 7.15 228 22:27 06.04.2022
2834 Clouds 6 997 67 10000 7.15 228 21:44 06.04.2022
2835 Clouds 6 998 67 10000 6.45 228 20:40 06.04.2022
2836 Clouds 6 998 65 10000 6.75 232 19:54 06.04.2022
2837 Clouds 7 998 66 10000 6.76 230 18:52 06.04.2022
2838 Clouds 7 998 65 10000 6.76 230 18:32 06.04.2022
2839 Clouds 7 998 63 10000 6.32 240 17:35 06.04.2022
2840 Clouds 7 999 63 10000 6.41 241 16:38 06.04.2022
2841 Clouds 7 999 66 10000 6.61 242 15:48 06.04.2022
2842 Clouds 7 1000 62 10000 6.91 240 15:21 06.04.2022
2843 Clouds 6 1002 71 10000 6.65 237 13:25 06.04.2022
2844 Clouds 5 1002 69 10000 6.73 236 12:27 06.04.2022
2845 Clouds 5 1002 80 10000 6.82 237 10:52 06.04.2022
2846 Clouds 5 1002 81 10000 6.82 237 10:30 06.04.2022
2847 Clouds 5 1002 82 10000 6.38 239 09:41 06.04.2022
2848 Clouds 5 1002 83 6437 5.83 241 08:36 06.04.2022
2849 Clouds 5 1002 83 9191 5.97 238 07:54 06.04.2022
2850 Clouds 5 1003 86 9873 4.91 243 04:31 06.04.2022
2851 Clouds 5 1004 94 4823 5.5 251 23:56 05.04.2022
2852 Clouds 5 1004 92 5097 4.56 260 23:22 05.04.2022
2853 Clouds 5 1003 90 3927 4.97 277 21:29 05.04.2022
2854 Clouds 5 1003 89 3927 4.97 277 20:44 05.04.2022
2855 Clouds 5 1003 88 3881 5.17 264 20:19 05.04.2022
2856 Rain 6 1003 87 5461 5.51 272 18:24 05.04.2022
2857 Clouds 6 1003 87 3232 4.49 267 17:20 05.04.2022
2858 Clouds 5 1003 87 3232 4.49 267 16:41 05.04.2022
2859 Clouds 5 1003 91 5127 4.12 256 15:49 05.04.2022
2860 Clouds 4 1004 90 4294 2.44 239 15:29 05.04.2022
2861 Clouds 3 1005 86 3574 2.2 239 13:42 05.04.2022
2862 Clouds 3 1005 88 1960 2.85 254 11:51 05.04.2022
2863 Clouds 2 1005 87 1960 2.85 254 11:33 05.04.2022
2864 Clouds 3 1005 89 1984 3.14 269 10:57 05.04.2022
2865 Clouds 2 1005 91 1973 3.76 281 09:31 05.04.2022
2866 Snow 1 1004 91 5171 5.21 286 08:22 05.04.2022
2867 Snow 1 1002 91 3800 6.14 257 02:58 05.04.2022
2868 Snow 0 1002 91 2069 6.9 257 23:38 04.04.2022
2869 Snow 0 1002 90 2035 7.24 258 22:37 04.04.2022
2870 Snow 0 1002 90 3871 7.36 255 21:46 04.04.2022
2871 Snow 0 1002 89 2739 7.68 253 21:18 04.04.2022
2872 Snow 0 1002 89 2739 7.68 253 20:47 04.04.2022
2873 Snow -1 1002 88 151 8.21 247 19:28 04.04.2022
2874 Snow -1 1002 88 151 8.21 247 18:40 04.04.2022
2875 Snow -1 1003 87 71 9.52 241 17:19 04.04.2022
2876 Snow -1 1003 86 96 10.22 237 16:28 04.04.2022
2877 Snow -1 1003 84 96 10.22 237 15:33 04.04.2022
2878 Snow 0 1004 77 455 10.29 231 14:46 04.04.2022
2879 Snow 1 1006 71 1210 10.19 228 13:59 04.04.2022
2880 Snow 1 1007 66 4086 9.63 231 12:58 04.04.2022
2881 Clouds 0 1010 65 10000 8.32 231 11:29 04.04.2022
2882 Clouds 0 1012 67 10000 7.21 232 10:29 04.04.2022
2883 Clouds -2 1015 82 9779 4.66 234 06:58 04.04.2022
2884 Clouds -3 1018 87 9386 2.53 232 03:18 04.04.2022
2885 Clouds -2 1020 79 9746 2.32 233 23:42 03.04.2022
2886 Snow -2 1019 83 5697 2.76 251 22:18 03.04.2022
2887 Snow -2 1019 81 5697 2.76 251 21:31 03.04.2022
2888 Snow -1 1019 79 3984 2.63 259 20:35 03.04.2022
2889 Snow 0 1019 69 7114 3.56 273 18:51 03.04.2022
2890 Snow 1 1019 62 7251 4.23 283 17:57 03.04.2022
2891 Snow 2 1019 58 7251 4.23 283 17:37 03.04.2022
2892 Snow 1 1019 60 9884 4.28 286 16:50 03.04.2022
2893 Snow 2 1019 58 7170 4.66 289 15:57 03.04.2022
2894 Snow 1 1020 55 4063 4.23 291 14:27 03.04.2022
2895 Clouds 1 1020 51 7565 4.13 289 13:34 03.04.2022
2896 Clouds 0 1021 56 10000 4.01 290 11:59 03.04.2022
2897 Clear -2 1021 53 10000 2.71 293 10:22 03.04.2022
2898 Clouds -4 1021 63 10000 1.87 288 09:19 03.04.2022
2899 Clouds -8 1022 76 10000 0.57 279 07:24 03.04.2022
2900 Clouds -8 1022 69 10000 0.95 326 03:37 03.04.2022
2901 Clouds -4 1021 59 10000 1.78 9 00:29 03.04.2022
2902 Clouds -3 1020 69 10000 2.69 17 22:54 02.04.2022
2903 Clouds -2 1019 64 10000 3.93 20 21:57 02.04.2022
2904 Clouds -2 1018 64 10000 4.54 18 21:28 02.04.2022
2905 Clouds -2 1018 62 10000 4.54 18 20:41 02.04.2022
2906 Clouds -1 1016 59 10000 4.18 21 18:57 02.04.2022
2907 Clouds 0 1016 59 10000 4.43 23 18:20 02.04.2022
2908 Clouds 0 1016 59 10000 4.43 23 18:20 02.04.2022
2909 Clouds 0 1016 58 10000 4.43 23 17:46 02.04.2022
2910 Clouds 0 1015 58 10000 5.07 25 16:22 02.04.2022
2911 Clouds 0 1015 59 10000 5.39 26 15:21 02.04.2022
2912 Clouds 0 1015 60 10000 5.39 26 14:43 02.04.2022
2913 Clouds -1 1015 66 10000 5.77 31 13:34 02.04.2022
2914 Clouds -1 1015 63 8628 5.69 33 12:37 02.04.2022
2915 Clouds -1 1014 65 10000 5.73 36 10:58 02.04.2022
2916 Clouds -4 1014 76 10000 5.5 32 08:49 02.04.2022
2917 Clouds -5 1013 76 8416 5.02 31 06:50 02.04.2022
2918 Clouds -4 1012 69 10000 4.69 35 03:45 02.04.2022
2919 Clouds -3 1011 62 10000 4.68 38 23:56 01.04.2022
2920 Clouds -3 1011 63 10000 4.62 40 23:18 01.04.2022
2921 Clouds -2 1011 61 10000 5.36 37 21:33 01.04.2022
2922 Clouds -1 1010 59 10000 6.01 38 20:51 01.04.2022
2923 Clouds -2 1009 59 10000 6.07 36 20:25 01.04.2022
2924 Clouds -1 1009 56 10000 6.1 37 19:32 01.04.2022
2925 Clouds 0 1007 56 10000 5.89 39 18:45 01.04.2022
2926 Clouds 0 1007 49 10000 5.73 39 17:46 01.04.2022
2927 Clouds 0 1006 49 10000 5.94 41 16:52 01.04.2022
2928 Clouds 0 1006 53 10000 6.08 42 15:39 01.04.2022
2929 Clouds -1 1006 61 10000 5.92 50 14:25 01.04.2022
2930 Clouds -2 1006 70 10000 6.21 50 13:34 01.04.2022
2931 Snow -3 1006 75 7868 5.92 52 12:32 01.04.2022
2932 Snow -4 1006 81 2790 5.66 51 11:41 01.04.2022
2933 Snow -5 1006 89 310 4.87 49 10:19 01.04.2022
2934 Snow -6 1005 89 222 4.73 51 08:58 01.04.2022
2935 Snow -5 1004 90 180 4.83 52 06:54 01.04.2022
2936 Snow -4 1003 89 211 5.65 58 04:51 01.04.2022
2937 Snow -4 1003 90 211 5.65 58 04:33 01.04.2022
2938 Snow -3 1003 76 5460 5.97 64 01:57 01.04.2022
2939 Snow -2 1002 77 1047 6.19 68 23:58 31.03.2022
2940 Snow -2 1002 90 88 5.69 67 21:54 31.03.2022
2941 Snow -2 1002 90 88 5.69 67 21:32 31.03.2022
2942 Snow -2 1001 90 37 5.42 65 20:30 31.03.2022
2943 Snow -2 1001 85 34 5.27 70 19:50 31.03.2022
2944 Snow -1 1001 78 5144 5.25 80 18:51 31.03.2022
2945 Clouds 0 1001 70 10000 5.64 83 17:50 31.03.2022
2946 Clouds 0 1000 63 10000 5.68 84 16:39 31.03.2022
2947 Clouds 0 1000 64 10000 5.9 84 15:48 31.03.2022
2948 Clouds 0 1001 65 10000 5.85 85 15:20 31.03.2022
2949 Clouds 0 1001 66 10000 5.85 85 14:40 31.03.2022
2950 Clouds 0 1002 76 4356 4.75 84 12:30 31.03.2022
2951 Clouds 0 1002 76 4356 4.75 84 12:30 31.03.2022
2952 Clouds -1 1002 76 5818 3.95 90 11:28 31.03.2022
2953 Clouds -1 1002 78 5564 3.79 93 09:50 31.03.2022
2954 Clouds -1 1002 81 10000 3.28 102 08:23 31.03.2022
2955 Clouds -2 1002 83 10000 2.7 99 05:42 31.03.2022
2956 Clouds 0 1003 75 10000 1.64 110 00:46 31.03.2022
2957 Clouds 0 1003 73 10000 1.8 87 23:23 30.03.2022
2958 Clouds 1 1004 73 10000 1.88 66 21:41 30.03.2022
2959 Clouds 2 1003 71 10000 2.03 54 20:55 30.03.2022
2960 Clouds 2 1003 68 10000 2.05 52 20:20 30.03.2022
2961 Clouds 3 1003 65 10000 2.24 51 19:36 30.03.2022
2962 Clouds 5 1003 56 10000 2.16 54 18:29 30.03.2022
2963 Clouds 5 1003 54 10000 2.16 54 17:48 30.03.2022
2964 Clouds 6 1003 55 10000 2.16 58 16:57 30.03.2022
2965 Clouds 6 1003 54 10000 2.16 58 16:38 30.03.2022
2966 Clouds 6 1003 55 10000 1.9 44 15:24 30.03.2022
2967 Clouds 6 1003 57 10000 1.93 41 13:44 30.03.2022
2968 Clouds 5 1004 61 10000 1.73 37 12:58 30.03.2022
2969 Clouds 3 1004 67 10000 1.43 40 11:34 30.03.2022
2970 Clouds 2 1005 70 10000 1.32 45 10:31 30.03.2022
2971 Clouds 0 1006 78 10000 0.98 65 09:25 30.03.2022
2972 Clouds -3 1007 83 10000 0.97 79 07:33 30.03.2022
2973 Clouds -3 1007 82 10000 1.05 57 05:41 30.03.2022
2974 Clouds -2 1008 83 10000 0.92 40 04:19 30.03.2022
2975 Clouds 0 1009 79 10000 1.24 19 00:42 30.03.2022
2976 Clouds 2 1010 72 10000 1.59 359 22:34 29.03.2022
2977 Clouds 2 1010 67 10000 1.98 355 21:45 29.03.2022
2978 Clouds 3 1009 61 10000 2 348 20:54 29.03.2022
2979 Clouds 4 1009 63 10000 1.84 334 20:19 29.03.2022
2980 Clouds 6 1008 55 10000 2.6 323 18:56 29.03.2022
2981 Clouds 7 1008 54 10000 2.6 323 18:31 29.03.2022
2982 Clouds 8 1009 52 10000 3.58 315 17:36 29.03.2022
2983 Clouds 8 1009 51 10000 3.8 308 16:58 29.03.2022
2984 Clouds 8 1009 54 10000 3.77 306 15:58 29.03.2022
2985 Clouds 8 1010 55 10000 3.69 308 14:53 29.03.2022
2986 Clouds 8 1011 58 10000 3.28 308 14:18 29.03.2022
2987 Clouds 6 1012 67 10000 2.75 304 12:53 29.03.2022
2988 Clouds 5 1012 70 10000 2.32 300 11:43 29.03.2022
2989 Clouds 3 1013 75 10000 1.9 301 10:51 29.03.2022
2990 Clouds 2 1014 79 10000 1.77 310 09:49 29.03.2022
2991 Clouds 1 1014 90 10000 1.09 311 07:35 29.03.2022
2992 Clouds 2 1015 81 10000 1.31 297 04:47 29.03.2022
2993 Clouds 3 1017 81 10000 1.65 315 00:36 29.03.2022
2994 Clouds 3 1018 78 10000 1.99 324 23:24 28.03.2022
2995 Clouds 2 1018 79 10000 1.99 324 22:53 28.03.2022
2996 Clouds 4 1018 74 10000 1.82 319 22:26 28.03.2022
2997 Clouds 5 1018 72 10000 1.77 318 20:58 28.03.2022
2998 Clouds 6 1018 69 10000 1.97 313 20:23 28.03.2022
2999 Clouds 8 1018 65 10000 1.88 311 19:44 28.03.2022
3000 Clouds 9 1017 62 10000 2.93 317 19:25 28.03.2022
3001 Clouds 10 1017 59 10000 2.93 317 18:37 28.03.2022
3002 Clouds 12 1017 57 10000 3.89 316 17:39 28.03.2022
3003 Clouds 13 1018 57 10000 4.3 295 16:20 28.03.2022
3004 Clouds 13 1019 58 10000 3.99 288 14:47 28.03.2022
3005 Clear 13 1020 59 10000 3.63 279 14:21 28.03.2022
3006 Clear 11 1022 65 10000 2.57 268 12:20 28.03.2022
3007 Clear 10 1023 70 10000 1.91 265 11:24 28.03.2022
3008 Clear 6 1023 83 10000 1.53 258 09:43 28.03.2022
3009 Clear 5 1024 87 10000 0.88 253 09:19 28.03.2022
3010 Clear 3 1025 87 10000 0.59 242 08:22 28.03.2022
3011 Clear 1 1025 88 10000 0.68 229 07:28 28.03.2022
3012 Clear 2 1027 86 10000 0.63 251 03:44 28.03.2022
3013 Clear 5 1029 82 10000 0.19 248 23:30 27.03.2022
3014 Clear 5 1029 81 10000 0.43 58 22:24 27.03.2022
3015 Clear 5 1029 81 10000 0.43 58 22:24 27.03.2022
3016 Clear 6 1029 80 10000 0.43 58 21:42 27.03.2022
3017 Clear 6 1029 78 10000 0.77 36 20:57 27.03.2022
3018 Clouds 8 1029 73 10000 1.12 360 19:48 27.03.2022
3019 Clouds 9 1028 67 10000 1.45 338 19:20 27.03.2022
3020 Clouds 11 1028 62 10000 1.84 320 18:27 27.03.2022
3021 Clouds 12 1028 61 10000 1.84 320 17:39 27.03.2022
3022 Clouds 12 1028 60 10000 1.22 283 16:28 27.03.2022
3023 Clouds 12 1029 60 10000 0.74 262 15:21 27.03.2022
3024 Clouds 11 1030 63 10000 0.2 299 13:55 27.03.2022
3025 Clouds 9 1031 70 10000 0.19 309 12:24 27.03.2022
3026 Clouds 7 1031 80 10000 0.37 221 10:57 27.03.2022
3027 Clouds 5 1031 87 10000 0.38 176 08:51 27.03.2022
3028 Clouds 5 1031 88 10000 0.58 242 05:54 27.03.2022
3029 Clouds 5 1032 83 10000 0.27 166 00:48 27.03.2022
3030 Clouds 6 1032 84 10000 0.61 35 23:40 26.03.2022
3031 Clouds 7 1032 81 10000 1.11 13 22:36 26.03.2022
3032 Clouds 5 1032 91 10000 1.62 355 21:33 26.03.2022
3033 Clouds 8 1031 78 10000 1.99 339 20:52 26.03.2022
3034 Clouds 9 1030 71 10000 3.04 336 19:21 26.03.2022
3035 Clouds 11 1029 60 10000 2.89 322 17:53 26.03.2022
3036 Clouds 12 1029 55 10000 2.89 322 17:32 26.03.2022
3037 Clouds 13 1029 49 10000 4.12 322 16:27 26.03.2022
3038 Clouds 13 1029 47 10000 4.31 323 14:57 26.03.2022
3039 Clouds 13 1030 47 10000 4.37 320 13:52 26.03.2022
3040 Clear 12 1030 51 10000 4.25 316 12:51 26.03.2022
3041 Clear 11 1030 55 10000 3.93 314 11:33 26.03.2022
3042 Clear 10 1031 58 10000 2.64 312 10:18 26.03.2022
3043 Clear 6 1031 64 10000 2.03 312 08:33 26.03.2022
3044 Clear 1 1031 75 10000 0.91 287 05:54 26.03.2022
3045 Clear 1 1031 73 10000 0.77 334 04:21 26.03.2022
3046 Clear 3 1031 64 10000 0.73 293 23:51 25.03.2022
3047 Clear 5 1031 60 10000 0.41 332 21:35 25.03.2022
3048 Clear 5 1031 60 10000 0.41 332 21:35 25.03.2022
3049 Clear 5 1031 58 10000 0.28 25 20:46 25.03.2022
3050 Clear 7 1030 55 10000 0.94 23 19:28 25.03.2022
3051 Clear 7 1030 53 10000 0.94 23 18:47 25.03.2022
3052 Clear 11 1029 38 10000 1.51 22 17:37 25.03.2022
3053 Clear 12 1029 40 10000 2.33 33 16:50 25.03.2022
3054 Clear 11 1029 40 10000 2.67 35 16:18 25.03.2022
3055 Clear 12 1029 37 10000 2.72 44 14:22 25.03.2022
3056 Clear 11 1030 38 10000 2.5 55 12:33 25.03.2022
3057 Clear 9 1030 42 10000 1.8 57 09:55 25.03.2022
3058 Clear 7 1029 45 10000 1.37 63 09:26 25.03.2022
3059 Clear 4 1030 48 10000 0.98 66 07:53 25.03.2022
3060 Clear 1 1030 61 10000 1.01 58 07:26 25.03.2022
3061 Clear 1 1029 58 10000 0.88 53 05:35 25.03.2022
3062 Clear 2 1030 59 10000 0.65 81 00:42 25.03.2022
3063 Clear 3 1030 58 10000 0.83 72 22:30 24.03.2022
3064 Clear 3 1030 56 10000 0.99 64 21:35 24.03.2022
3065 Clear 5 1029 57 10000 1.3 45 19:51 24.03.2022
3066 Clear 5 1029 55 10000 1.19 49 19:33 24.03.2022
3067 Clear 10 1027 35 10000 1.81 28 17:46 24.03.2022
3068 Clear 12 1027 35 10000 2.1 4 16:54 24.03.2022
3069 Clear 13 1027 32 10000 1.57 335 15:21 24.03.2022
3070 Clear 13 1027 33 10000 1.57 335 14:43 24.03.2022
3071 Clear 13 1028 33 10000 1.27 330 14:18 24.03.2022
3072 Clear 12 1028 37 10000 1.34 329 12:47 24.03.2022
3073 Clear 11 1028 38 10000 1.01 327 11:44 24.03.2022
3074 Clear 7 1029 48 10000 0.26 11 09:53 24.03.2022
3075 Clear 5 1029 60 10000 0.34 58 08:41 24.03.2022
3076 Clear 1 1029 64 10000 0.37 75 06:49 24.03.2022
3077 Clear 2 1030 60 10000 0.69 72 02:24 24.03.2022
3078 Clear 4 1031 53 10000 0.83 74 23:20 23.03.2022
3079 Clear 5 1031 50 10000 0.97 68 21:27 23.03.2022
3080 Clear 5 1031 50 10000 0.97 68 20:59 23.03.2022
3081 Clear 6 1031 46 10000 1.12 54 19:45 23.03.2022
3082 Clear 8 1030 42 10000 1.28 41 18:36 23.03.2022
3083 Clear 12 1029 30 10000 1.63 25 17:36 23.03.2022
3084 Clear 13 1029 25 10000 2.08 360 16:33 23.03.2022
3085 Clear 13 1029 24 10000 1.81 319 14:51 23.03.2022
3086 Clear 14 1029 24 10000 1.37 296 14:26 23.03.2022
3087 Clear 13 1030 28 10000 1.03 292 12:51 23.03.2022
3088 Clear 8 1031 37 10000 0.29 164 09:42 23.03.2022
3089 Clear 2 1031 55 10000 0.62 77 06:48 23.03.2022
3090 Clear 1 1031 53 10000 0.8 32 04:41 23.03.2022
3091 Clear 2 1032 53 10000 0.38 142 00:29 23.03.2022
3092 Clear 2 1032 47 10000 0.38 142 23:39 22.03.2022
3093 Clear 4 1032 53 10000 0.74 104 21:30 22.03.2022
3094 Clear 5 1032 51 10000 0.81 104 20:45 22.03.2022
3095 Clear 5 1032 51 10000 0.9 115 19:43 22.03.2022
3096 Clear 6 1032 50 10000 1.05 122 19:19 22.03.2022
3097 Clear 9 1032 31 10000 1.05 122 18:31 22.03.2022
3098 Clear 9 1032 47 10000 0.93 130 17:37 22.03.2022
3099 Clear 12 1031 27 10000 1.03 110 16:27 22.03.2022
3100 Clear 13 1031 28 10000 1.05 115 15:23 22.03.2022
3101 Clear 13 1031 30 10000 1.05 115 14:47 22.03.2022
3102 Clear 13 1032 29 10000 0.95 119 14:27 22.03.2022
3103 Clear 12 1032 31 10000 0.95 119 13:36 22.03.2022
3104 Clear 11 1032 29 10000 0.94 129 11:52 22.03.2022
3105 Clear 9 1033 37 10000 1.03 124 10:44 22.03.2022
3106 Clear 5 1033 51 10000 0.41 117 08:36 22.03.2022
3107 Clear 0 1034 56 10000 0.46 147 06:53 22.03.2022
3108 Clear 1 1033 51 10000 0.75 145 03:49 22.03.2022
3109 Clear 1 1034 55 10000 0.71 149 00:29 22.03.2022
3110 Clear 3 1034 59 10000 0.93 144 22:42 21.03.2022
3111 Clear 3 1034 58 10000 1.16 137 21:18 21.03.2022
3112 Clear 4 1034 57 10000 1.16 137 20:41 21.03.2022
3113 Clear 5 1034 58 10000 1.27 139 19:59 21.03.2022
3114 Clear 5 1034 57 10000 1.27 139 19:34 21.03.2022
3115 Clear 6 1034 54 10000 1.32 140 18:36 21.03.2022
3116 Clear 10 1032 38 10000 1.26 136 17:19 21.03.2022
3117 Clear 10 1032 37 10000 1.26 136 16:51 21.03.2022
3118 Clear 11 1032 35 10000 1.59 132 16:00 21.03.2022
3119 Clear 10 1032 35 10000 1.61 134 15:21 21.03.2022
3120 Clear 11 1032 35 10000 1.51 136 14:28 21.03.2022
3121 Clear 9 1033 40 10000 1.27 126 12:43 21.03.2022
3122 Clear 8 1033 41 10000 1.07 126 11:54 21.03.2022
3123 Clear 7 1033 40 10000 0.88 135 10:45 21.03.2022
3124 Clear 3 1034 57 10000 1.24 154 09:21 21.03.2022
3125 Clear -2 1034 64 10000 1.61 140 06:59 21.03.2022
3126 Clear -1 1034 59 10000 1.95 139 03:29 21.03.2022
3127 Clear 1 1035 48 10000 2.29 132 00:36 21.03.2022
3128 Clear 3 1034 42 10000 2.82 132 22:56 20.03.2022
3129 Clear 3 1034 38 10000 3.89 134 21:57 20.03.2022
3130 Clear 4 1034 46 10000 3.89 134 21:30 20.03.2022
3131 Clear 4 1034 45 10000 4.37 131 20:47 20.03.2022
3132 Clear 5 1033 44 10000 4.83 131 20:24 20.03.2022
3133 Clear 5 1033 47 10000 4.83 131 19:43 20.03.2022
3134 Clear 6 1033 44 10000 5.33 134 18:48 20.03.2022
3135 Clear 7 1032 35 10000 6.35 133 17:38 20.03.2022
3136 Clear 8 1032 31 10000 6.96 130 16:59 20.03.2022
3137 Clear 9 1032 30 10000 7.11 129 15:57 20.03.2022
3138 Clear 9 1032 31 10000 7.18 126 14:37 20.03.2022
3139 Clear 7 1032 42 10000 7.35 131 13:31 20.03.2022
3140 Clear 6 1033 41 10000 7.91 123 11:51 20.03.2022
3141 Clear 3 1034 51 10000 7.26 117 09:58 20.03.2022
3142 Clear -2 1035 58 10000 5.72 105 07:51 20.03.2022
3143 Clear -4 1035 59 10000 4.96 94 05:49 20.03.2022
3144 Clear -2 1037 61 10000 4.42 86 03:18 20.03.2022
3145 Clear -1 1038 58 10000 3.87 81 00:51 20.03.2022
3146 Clear 0 1038 63 10000 4.24 81 23:35 19.03.2022
3147 Clear 0 1039 66 10000 5.58 88 21:58 19.03.2022
3148 Clouds 1 1039 65 10000 5.96 85 21:25 19.03.2022
3149 Clouds 3 1039 58 10000 5.52 82 19:22 19.03.2022
3150 Clouds 4 1039 59 10000 5.9 88 18:30 19.03.2022
3151 Clouds 4 1039 55 10000 5.51 84 17:45 19.03.2022
3152 Clouds 5 1039 53 10000 5.76 78 16:46 19.03.2022
3153 Clouds 5 1039 50 10000 6.25 64 15:22 19.03.2022
3154 Clouds 5 1040 53 10000 6.82 66 13:45 19.03.2022
3155 Clear 6 1040 55 10000 6.76 63 12:42 19.03.2022
3156 Clear 5 1041 59 10000 6.06 63 12:20 19.03.2022
3157 Clear 5 1041 59 10000 6.06 63 11:42 19.03.2022
3158 Clear 1 1044 76 10000 3.71 50 08:57 19.03.2022
3159 Clouds 1 1044 85 9407 2.91 60 04:42 19.03.2022
3160 Clouds 0 1045 83 9306 2.49 54 02:33 19.03.2022
3161 Clouds 1 1045 80 10000 2.59 57 23:51 18.03.2022
3162 Clouds 1 1045 80 10000 2.84 52 22:48 18.03.2022
3163 Clouds 1 1045 79 10000 2.61 48 22:21 18.03.2022
3164 Clear 2 1045 75 10000 2.5 49 20:25 18.03.2022
3165 Clear 3 1044 75 10000 2.32 40 19:24 18.03.2022
3166 Clear 4 1045 76 10000 2.39 40 18:43 18.03.2022
3167 Clear 7 1043 54 10000 3.12 39 16:54 18.03.2022
3168 Clear 7 1043 52 10000 3.66 36 16:24 18.03.2022
3169 Clear 7 1043 52 10000 3.58 28 14:27 18.03.2022
3170 Clear 7 1043 52 10000 3.58 28 13:39 18.03.2022
3171 Clear 5 1042 62 10000 2.98 34 11:37 18.03.2022
3172 Clear 4 1042 65 10000 2.19 46 10:27 18.03.2022
3173 Clear 1 1042 73 10000 2.06 24 08:46 18.03.2022
3174 Clear -3 1042 89 10000 1.68 3 06:59 18.03.2022
3175 Clear -3 1040 91 10000 1.53 8 05:20 18.03.2022
3176 Clear -1 1039 89 10000 1.65 357 01:38 18.03.2022
3177 Clouds -1 1038 92 10000 1.71 349 23:59 17.03.2022
3178 Clouds -1 1037 90 10000 1.99 350 22:50 17.03.2022
3179 Clouds 0 1037 88 10000 1.98 352 22:19 17.03.2022
3180 Clouds 0 1037 87 10000 1.98 352 21:31 17.03.2022
3181 Clouds 1 1036 88 10000 1.9 348 20:54 17.03.2022
3182 Clouds 2 1034 87 10000 2.3 345 20:20 17.03.2022
3183 Clouds 2 1034 85 10000 2.3 345 19:38 17.03.2022
3184 Clouds 3 1034 89 10000 2.37 338 18:53 17.03.2022
3185 Clouds 4 1033 83 10000 2.69 331 17:47 17.03.2022
3186 Clouds 4 1031 83 10000 2.2 313 16:29 17.03.2022
3187 Clouds 4 1031 84 10000 2.2 313 15:43 17.03.2022
3188 Clouds 4 1030 85 10000 2.07 309 15:18 17.03.2022
3189 Clouds 4 1030 81 10000 2.26 282 13:47 17.03.2022
3190 Clouds 5 1029 72 10000 2.41 243 12:47 17.03.2022
3191 Clouds 6 1028 64 10000 3.03 223 11:40 17.03.2022
3192 Clouds 6 1027 60 10000 3.19 222 10:58 17.03.2022
3193 Clouds 6 1026 57 10000 3.22 198 09:40 17.03.2022
3194 Clouds 5 1025 60 10000 2.34 167 08:21 17.03.2022
3195 Clouds 2 1025 74 10000 2.47 145 06:18 17.03.2022
3196 Clouds 2 1025 77 10000 2.53 136 05:23 17.03.2022
3197 Clouds 3 1026 68 10000 3.22 134 00:33 17.03.2022
3198 Clear 4 1026 67 10000 4.08 125 22:58 16.03.2022
3199 Clear 4 1026 68 10000 4.08 125 22:37 16.03.2022
3200 Clear 3 1027 68 10000 3.75 122 21:58 16.03.2022
3201 Clear 4 1027 69 10000 3.56 121 20:47 16.03.2022
3202 Clouds 5 1026 65 10000 3.63 110 19:24 16.03.2022
3203 Clouds 5 1026 65 10000 3.63 110 18:43 16.03.2022
3204 Clouds 6 1026 63 10000 3.78 111 18:18 16.03.2022
3205 Clouds 7 1026 59 10000 3.78 111 17:36 16.03.2022
3206 Clouds 8 1026 48 10000 3.76 127 16:36 16.03.2022
3207 Clouds 9 1026 50 10000 4.04 131 15:34 16.03.2022
3208 Clouds 9 1027 61 10000 3.96 124 13:41 16.03.2022
3209 Clouds 8 1028 62 10000 3.58 126 12:57 16.03.2022
3210 Clouds 6 1028 69 10000 2.94 130 11:26 16.03.2022
3211 Clouds 5 1028 73 10000 2.94 130 10:43 16.03.2022
3212 Clouds 5 1028 74 10000 2.19 134 09:58 16.03.2022
3213 Clouds 2 1028 82 10000 1.55 120 08:37 16.03.2022
3214 Clouds -1 1027 89 10000 1.16 46 03:30 16.03.2022
3215 Clouds 0 1026 88 10000 0.84 18 23:37 15.03.2022
3216 Clouds 1 1025 87 10000 0.87 46 22:37 15.03.2022
3217 Clouds 2 1024 85 10000 1.68 32 21:27 15.03.2022
3218 Clouds 4 1024 80 10000 1.29 44 19:47 15.03.2022
3219 Clouds 4 1024 81 10000 1.8 80 18:38 15.03.2022
3220 Clouds 6 1023 72 10000 1.79 64 16:45 15.03.2022
3221 Clouds 6 1023 70 10000 1.71 69 15:44 15.03.2022
3222 Clouds 6 1024 73 10000 1.14 107 14:55 15.03.2022
3223 Clouds 7 1024 70 10000 1.14 107 14:30 15.03.2022
3224 Clouds 6 1026 66 10000 1.07 139 13:24 15.03.2022
3225 Clouds 6 1027 68 10000 1.22 164 11:48 15.03.2022
3226 Clouds 6 1028 71 10000 1.02 159 10:56 15.03.2022
3227 Clouds 4 1028 84 10000 1.16 155 09:31 15.03.2022
3228 Clouds 2 1029 85 10000 1.08 153 08:32 15.03.2022
3229 Clouds 1 1029 86 10000 1.1 156 07:44 15.03.2022
3230 Clouds 0 1029 85 10000 1.21 163 06:32 15.03.2022
3231 Clouds 1 1030 86 10000 1.23 220 01:59 15.03.2022
3232 Clouds 1 1031 87 10000 1.63 219 23:36 14.03.2022
3233 Clouds 1 1030 87 10000 1.6 229 23:18 14.03.2022
3234 Clouds 2 1030 89 10000 2 237 21:57 14.03.2022
3235 Clouds 3 1030 86 10000 2.51 241 21:20 14.03.2022
3236 Clouds 3 1030 89 10000 2.51 241 20:31 14.03.2022
3237 Clouds 3 1029 88 10000 2.29 243 19:47 14.03.2022
3238 Clouds 4 1028 91 8604 2.07 260 18:23 14.03.2022
3239 Clouds 4 1028 87 8604 2.07 260 17:43 14.03.2022
3240 Clouds 4 1027 88 3238 2.59 257 16:54 14.03.2022
3241 Clouds 3 1027 89 2556 2.32 222 15:20 14.03.2022
3242 Clouds 3 1026 88 3368 2.46 238 14:24 14.03.2022
3243 Clouds 5 1026 62 10000 3.07 230 11:36 14.03.2022
3244 Clouds 5 1024 57 10000 2.38 256 10:23 14.03.2022
3245 Clouds 4 1024 49 10000 2.38 256 09:38 14.03.2022
3246 Clouds 4 1023 47 10000 2.09 240 09:18 14.03.2022
3247 Clouds 3 1023 40 10000 2.09 240 08:46 14.03.2022
3248 Clouds 0 1022 52 10000 1.65 221 07:21 14.03.2022
3249 Clear -1 1021 47 10000 1.37 179 04:27 14.03.2022
3250 Clear -2 1020 46 10000 1.38 126 01:51 14.03.2022
3251 Clear -1 1021 44 10000 1.7 127 00:38 14.03.2022
3252 Clear 1 1020 41 10000 2.83 146 21:56 13.03.2022
3253 Clear 2 1019 41 10000 3.44 137 21:27 13.03.2022
3254 Clear 3 1019 38 10000 3.44 137 20:49 13.03.2022
3255 Clear 3 1019 34 10000 3.51 122 20:26 13.03.2022
3256 Clear 4 1019 33 10000 3.51 122 19:43 13.03.2022
3257 Clear 4 1019 32 10000 3.06 114 19:24 13.03.2022
3258 Clear 5 1019 33 10000 3.06 114 18:49 13.03.2022
3259 Clear 6 1018 29 10000 2.93 114 18:26 13.03.2022
3260 Clear 7 1018 28 10000 3.34 115 17:39 13.03.2022
3261 Clear 8 1018 26 10000 4.01 118 16:48 13.03.2022
3262 Clear 9 1018 26 10000 4.19 124 16:27 13.03.2022
3263 Clear 9 1018 26 10000 4.19 124 15:44 13.03.2022
3264 Clear 9 1018 25 10000 4.06 125 14:49 13.03.2022
3265 Clear 9 1018 25 10000 3.2 128 13:30 13.03.2022
3266 Clear 8 1018 25 10000 2.23 143 12:26 13.03.2022
3267 Clear 8 1018 26 10000 2.23 143 11:51 13.03.2022
3268 Clear 5 1018 32 10000 2.23 149 11:25 13.03.2022
3269 Clear 5 1018 31 10000 2.23 149 10:44 13.03.2022
3270 Clear 3 1018 30 10000 2.16 147 09:43 13.03.2022
3271 Clear 0 1018 46 10000 2.09 135 09:20 13.03.2022
3272 Clear -1 1018 56 10000 2.09 135 08:39 13.03.2022
3273 Clear -3 1019 59 10000 1.78 137 07:37 13.03.2022
3274 Clear -4 1019 55 10000 1.9 135 05:39 13.03.2022
3275 Clouds -3 1020 46 10000 1.7 136 01:48 13.03.2022
3276 Clouds -2 1021 45 10000 1.76 138 23:30 12.03.2022
3277 Clouds -1 1022 42 10000 2.12 136 21:48 12.03.2022
3278 Clouds 1 1022 41 10000 2.68 126 20:29 12.03.2022
3279 Clouds 2 1022 39 10000 2.68 126 19:47 12.03.2022
3280 Clouds 3 1022 49 10000 2.63 115 18:47 12.03.2022
3281 Clouds 5 1021 30 10000 2.1 123 18:20 12.03.2022
3282 Clouds 7 1021 28 10000 2.84 135 17:23 12.03.2022
3283 Clouds 9 1021 26 10000 3.11 148 16:23 12.03.2022
3284 Clouds 9 1021 28 10000 3.17 149 15:22 12.03.2022
3285 Clouds 9 1021 29 10000 3.33 140 13:55 12.03.2022
3286 Clouds 8 1021 27 10000 2.72 137 12:35 12.03.2022
3287 Clouds 7 1022 29 10000 2.23 147 11:56 12.03.2022
3288 Clouds 6 1022 29 10000 2.23 147 11:34 12.03.2022
3289 Clouds 4 1022 30 10000 2.01 162 10:52 12.03.2022
3290 Clouds 1 1022 35 10000 2.08 164 09:44 12.03.2022
3291 Clouds 0 1023 34 10000 2.3 165 08:53 12.03.2022
3292 Clouds -4 1023 44 10000 2.61 151 06:53 12.03.2022
3293 Clear -4 1022 48 10000 3.57 137 01:44 12.03.2022
3294 Clear -2 1023 41 10000 4.38 137 23:52 11.03.2022
3295 Clear -1 1023 37 10000 4.75 141 22:52 11.03.2022
3296 Clear -1 1023 41 10000 5.62 138 21:35 11.03.2022
3297 Clear 0 1023 38 10000 6.02 136 20:54 11.03.2022
3298 Clear 1 1022 36 10000 5.67 131 20:28 11.03.2022
3299 Clear 2 1022 35 10000 5.67 131 19:42 11.03.2022
3300 Clear 2 1022 34 10000 5.47 126 18:51 11.03.2022
3301 Clear 4 1021 28 10000 6.14 121 17:28 11.03.2022
3302 Clear 6 1021 26 10000 6.26 123 16:27 11.03.2022
3303 Clear 6 1021 25 10000 6.26 123 15:53 11.03.2022
3304 Clear 5 1022 24 10000 6.57 131 14:19 11.03.2022
3305 Clouds 4 1022 29 10000 6.08 129 12:43 11.03.2022
3306 Clouds 4 1023 29 10000 5.82 131 12:20 11.03.2022
3307 Clouds 4 1023 30 10000 5.82 131 11:43 11.03.2022
3308 Clouds 0 1024 37 10000 4.7 131 09:39 11.03.2022
3309 Clouds -2 1024 43 10000 4.4 132 08:40 11.03.2022
3310 Clouds -3 1025 50 10000 3.94 129 07:49 11.03.2022
3311 Clouds -5 1025 68 10000 3.57 126 06:59 11.03.2022
3312 Clouds -5 1025 71 10000 3.15 124 05:42 11.03.2022
3313 Clouds -3 1026 70 10000 3.16 129 02:45 11.03.2022
3314 Clouds -1 1027 65 10000 3.06 120 22:56 10.03.2022
3315 Clouds 0 1027 63 10000 3.23 111 22:28 10.03.2022
3316 Clouds 1 1027 61 10000 3.31 107 21:27 10.03.2022
3317 Clouds 2 1027 58 10000 3.31 107 20:45 10.03.2022
3318 Clear 3 1027 56 10000 3.59 103 19:22 10.03.2022
3319 Clear 4 1027 49 10000 3.5 103 18:30 10.03.2022
3320 Clear 7 1026 38 10000 4.16 111 16:53 10.03.2022
3321 Clear 8 1026 33 10000 4.27 116 15:41 10.03.2022
3322 Clear 9 1027 34 10000 4.06 122 14:23 10.03.2022
3323 Clear 8 1027 35 10000 3.54 127 12:46 10.03.2022
3324 Clear 7 1027 39 10000 2.92 132 11:39 10.03.2022
3325 Clear 4 1028 44 10000 2.59 136 10:19 10.03.2022
3326 Clear 1 1028 57 10000 2.11 132 08:48 10.03.2022
3327 Clear -4 1028 76 10000 1.64 133 05:50 10.03.2022
3328 Clear -4 1028 71 10000 1.63 133 03:33 10.03.2022
3329 Clear -2 1028 64 10000 1.43 136 00:23 10.03.2022
3330 Clear -2 1028 64 10000 1.47 132 22:45 09.03.2022
3331 Clear -2 1027 63 10000 1.47 132 21:48 09.03.2022
3332 Clear 0 1027 64 10000 1.35 137 20:59 09.03.2022
3333 Clear 1 1026 65 10000 1.49 135 19:28 09.03.2022
3334 Clear 4 1026 63 10000 1.42 131 18:19 09.03.2022
3335 Clear 7 1025 55 10000 1.06 127 17:26 09.03.2022
3336 Clear 9 1025 42 10000 0.96 133 16:23 09.03.2022
3337 Clear 8 1025 37 10000 0.98 155 14:27 09.03.2022
3338 Clear 8 1025 37 10000 0.98 155 13:51 09.03.2022
3339 Clear 6 1025 37 10000 1.01 164 12:27 09.03.2022
3340 Clear 6 1025 37 10000 1.01 164 11:48 09.03.2022
3341 Clear 4 1025 37 10000 1.08 171 11:18 09.03.2022
3342 Clear 1 1026 40 10000 0.95 157 09:41 09.03.2022
3343 Clear -2 1026 45 10000 0.85 163 08:47 09.03.2022
3344 Clouds -7 1026 61 10000 0.85 150 06:27 09.03.2022
3345 Clouds -3 1026 60 10000 1.13 148 01:53 09.03.2022
3346 Clouds -3 1027 60 10000 1.5 151 00:26 09.03.2022
3347 Clouds -3 1027 56 10000 1.75 126 22:46 08.03.2022
3348 Clouds -2 1026 52 10000 1.73 120 21:52 08.03.2022
3349 Clouds -3 1026 56 10000 1.78 115 21:22 08.03.2022
3350 Clouds -3 1026 56 10000 1.78 115 21:22 08.03.2022
3351 Clouds -2 1026 52 10000 1.75 117 20:22 08.03.2022
3352 Clear -1 1025 53 10000 1.85 115 19:24 08.03.2022
3353 Clear 1 1025 46 10000 1.71 122 18:23 08.03.2022
3354 Clear 4 1024 40 10000 2.58 123 16:56 08.03.2022
3355 Clear 5 1024 41 10000 3.93 122 14:58 08.03.2022
3356 Clear 5 1024 42 10000 4.61 111 13:48 08.03.2022
3357 Clear 4 1025 45 10000 3.48 113 12:28 08.03.2022
3358 Clear 3 1025 50 10000 3.48 113 11:43 08.03.2022
3359 Clear 1 1025 56 10000 2.35 101 10:29 08.03.2022
3360 Clear -2 1026 72 10000 1.5 101 08:57 08.03.2022
3361 Clear -2 1026 72 10000 1.5 101 08:57 08.03.2022
3362 Clear -5 1026 77 10000 1.28 109 06:30 08.03.2022
3363 Clouds -5 1026 76 10000 1.21 97 03:48 08.03.2022
3364 Clouds -4 1028 75 10000 1.1 64 22:53 07.03.2022
3365 Clouds -4 1028 73 10000 0.82 75 21:45 07.03.2022
3366 Clear -3 1027 72 10000 1 71 21:23 07.03.2022
3367 Clear -3 1027 72 10000 1 71 20:34 07.03.2022
3368 Clear -3 1027 70 10000 1.05 69 19:50 07.03.2022
3369 Clear -2 1027 70 10000 1.38 51 19:20 07.03.2022
3370 Clear -1 1027 63 10000 1.51 51 18:33 07.03.2022
3371 Clear 2 1027 55 10000 1.77 44 17:31 07.03.2022
3372 Clear 2 1026 49 10000 2.53 47 16:54 07.03.2022
3373 Clear 3 1026 50 10000 2.94 50 14:51 07.03.2022
3374 Clear 1 1027 58 10000 2.43 48 12:35 07.03.2022
3375 Clear 1 1027 58 10000 2.33 53 11:36 07.03.2022
3376 Clear -1 1028 64 10000 2.18 48 10:34 07.03.2022
3377 Clouds -4 1028 72 10000 1.59 41 08:35 07.03.2022
3378 Clouds -4 1028 67 10000 1.23 36 02:56 07.03.2022
3379 Clouds -5 1028 69 10000 1.38 48 00:21 07.03.2022
3380 Clouds -4 1027 66 10000 1.41 48 23:26 06.03.2022
3381 Clouds -4 1027 67 10000 1.41 48 22:30 06.03.2022
3382 Clouds -4 1027 67 10000 1.71 39 21:44 06.03.2022
3383 Clouds -4 1026 62 10000 1.82 44 20:29 06.03.2022
3384 Clouds -4 1026 62 10000 1.82 44 20:29 06.03.2022
3385 Clouds -4 1026 63 10000 1.82 44 19:48 06.03.2022
3386 Clouds -4 1026 63 10000 2.1 35 18:51 06.03.2022
3387 Clouds -4 1025 63 10000 2.34 29 17:49 06.03.2022
3388 Clouds -4 1025 63 10000 3.26 26 17:20 06.03.2022
3389 Clouds -3 1025 63 10000 3.26 26 16:40 06.03.2022
3390 Clouds -3 1025 61 10000 3.73 25 15:37 06.03.2022
3391 Clouds -3 1025 60 10000 3.56 20 14:48 06.03.2022
3392 Clouds -3 1025 63 10000 3.33 19 14:26 06.03.2022
3393 Clouds -2 1025 65 10000 2.72 23 12:40 06.03.2022
3394 Clouds -2 1025 64 10000 2.5 26 11:56 06.03.2022
3395 Clouds -2 1025 64 10000 2.16 36 10:43 06.03.2022
3396 Clouds -3 1025 72 10000 1.56 53 09:25 06.03.2022
3397 Clouds -4 1025 73 10000 1.17 45 08:28 06.03.2022
3398 Clouds -4 1025 76 10000 1.17 45 07:33 06.03.2022
3399 Clouds -4 1025 69 10000 1.01 52 03:58 06.03.2022
3400 Clear -4 1025 69 10000 0.83 71 00:42 06.03.2022
3401 Clear -4 1025 69 10000 0.73 69 00:23 06.03.2022
3402 Clear -5 1025 72 10000 0.73 78 23:19 05.03.2022
3403 Clear -4 1025 69 10000 0.73 78 22:38 05.03.2022
3404 Clear -4 1025 69 10000 1.12 104 21:31 05.03.2022
3405 Clear -3 1025 70 10000 1.45 108 20:39 05.03.2022
3406 Clouds -2 1024 64 10000 1.75 109 19:23 05.03.2022
3407 Clouds -3 1024 73 10000 1.75 109 18:50 05.03.2022
3408 Clouds 0 1023 50 10000 2.18 102 17:39 05.03.2022
3409 Clouds 1 1023 49 10000 2.71 115 16:20 05.03.2022
3410 Clouds 1 1023 49 10000 2.71 115 15:30 05.03.2022
3411 Clear 1 1023 52 10000 2.64 121 14:42 05.03.2022
3412 Clear 2 1023 50 10000 2.68 124 14:24 05.03.2022
3413 Clear 1 1023 52 10000 2.78 122 12:55 05.03.2022
3414 Clear 0 1023 57 10000 2.87 124 11:39 05.03.2022
3415 Clear 0 1024 60 10000 2.75 124 11:18 05.03.2022
3416 Clear -2 1024 76 10000 2.53 124 09:58 05.03.2022
3417 Clear -4 1024 77 10000 2.12 123 08:49 05.03.2022
3418 Clear -6 1024 79 10000 1.71 112 07:23 05.03.2022
3419 Clear -6 1024 78 10000 1.77 103 05:41 05.03.2022
3420 Clear -5 1024 84 10000 1.92 104 01:30 05.03.2022
3421 Clouds -4 1025 83 10000 1.47 108 23:35 04.03.2022
3422 Clouds -4 1025 82 10000 1.52 113 22:41 04.03.2022
3423 Clouds -4 1025 82 10000 1.49 113 21:47 04.03.2022
3424 Clouds -3 1025 80 10000 1.43 111 20:49 04.03.2022
3425 Clouds -3 1025 78 10000 1.64 109 20:21 04.03.2022
3426 Clouds -3 1025 74 10000 1.64 109 19:35 04.03.2022
3427 Clouds -3 1024 80 10000 1.92 109 18:37 04.03.2022
3428 Clouds -2 1023 71 10000 2.92 100 17:30 04.03.2022
3429 Clouds -2 1023 72 10000 3.65 83 16:43 04.03.2022
3430 Clouds -1 1023 70 10000 3.54 72 15:28 04.03.2022
3431 Clouds -1 1023 75 10000 3.32 75 14:19 04.03.2022
3432 Clouds -1 1023 74 10000 3.35 76 13:24 04.03.2022
3433 Clear -2 1023 74 10000 3.28 73 11:40 04.03.2022
3434 Clear -2 1023 71 10000 2.78 72 10:42 04.03.2022
3435 Clear -3 1023 76 10000 2.14 69 09:40 04.03.2022
3436 Clear -4 1024 79 10000 1.7 73 08:36 04.03.2022
3437 Clear -6 1023 83 10000 1.58 73 07:23 04.03.2022
3438 Clear -5 1023 83 10000 1.46 77 03:50 04.03.2022
3439 Clear -5 1023 82 10000 1.42 77 00:24 04.03.2022
3440 Clear -4 1023 82 10000 1.62 77 22:26 03.03.2022
3441 Clear -4 1023 82 10000 1.62 77 21:41 03.03.2022
3442 Clear -4 1022 82 10000 1.65 73 21:21 03.03.2022
3443 Clear -3 1022 80 10000 1.75 61 19:51 03.03.2022
3444 Clear -2 1022 79 10000 1.95 62 18:53 03.03.2022
3445 Clear -1 1021 77 10000 2.4 60 18:23 03.03.2022
3446 Clear 2 1021 67 10000 2.4 60 17:30 03.03.2022
3447 Clear 4 1020 50 10000 3.31 60 16:24 03.03.2022
3448 Clear 4 1020 44 10000 3.23 56 15:21 03.03.2022
3449 Clear 4 1020 45 10000 3.23 56 14:42 03.03.2022
3450 Clear 4 1020 46 10000 3.14 60 13:19 03.03.2022
3451 Clear 3 1020 45 10000 2.12 59 11:54 03.03.2022
3452 Clear 2 1021 50 10000 2.2 65 10:42 03.03.2022
3453 Clear -1 1021 66 10000 1.27 63 08:57 03.03.2022
3454 Clear -4 1022 70 10000 0.92 86 07:48 03.03.2022
3455 Clouds -5 1022 70 10000 1.47 58 06:35 03.03.2022
3456 Clouds -4 1023 68 10000 0.84 92 02:23 03.03.2022
3457 Clear -4 1023 71 10000 0.71 86 23:34 02.03.2022
3458 Clear -4 1024 71 10000 0.67 87 22:52 02.03.2022
3459 Clear -3 1024 68 10000 0.78 119 21:34 02.03.2022
3460 Clear -3 1024 67 10000 0.86 116 20:53 02.03.2022
3461 Clear -2 1024 66 10000 1.07 110 20:24 02.03.2022
3462 Clear -2 1024 65 10000 1.07 110 19:36 02.03.2022
3463 Clouds -1 1024 64 10000 1.33 107 18:54 02.03.2022
3464 Clouds 0 1024 56 10000 1.53 91 18:19 02.03.2022
3465 Clouds 2 1024 47 10000 1.53 91 17:34 02.03.2022
3466 Clouds 3 1023 44 10000 1.24 94 16:51 02.03.2022
3467 Clouds 5 1023 40 10000 1.13 97 14:59 02.03.2022
3468 Clouds 4 1023 43 10000 1.32 105 13:30 02.03.2022
3469 Clouds 3 1024 44 10000 1.23 88 12:45 02.03.2022
3470 Clouds 3 1025 45 10000 0.78 91 11:59 02.03.2022
3471 Clouds 2 1025 48 10000 0.54 102 11:25 02.03.2022
3472 Clouds 1 1025 54 10000 0.62 119 10:25 02.03.2022
3473 Clouds -1 1025 59 10000 0.62 119 09:31 02.03.2022
3474 Clouds -4 1026 62 10000 0.66 114 07:59 02.03.2022
3475 Clouds -4 1026 67 10000 0.84 105 07:23 02.03.2022
3476 Clouds -4 1027 63 10000 0.5 86 03:56 02.03.2022
3477 Clouds -3 1029 64 10000 0.85 175 00:40 02.03.2022
3478 Clouds -3 1029 66 10000 1.01 167 22:53 01.03.2022
3479 Clouds -3 1029 66 10000 1.01 167 22:35 01.03.2022
3480 Clouds -3 1030 64 10000 0.91 165 21:26 01.03.2022
3481 Clouds -2 1030 63 10000 0.91 165 20:37 01.03.2022
3482 Clouds -2 1030 63 10000 0.81 189 20:19 01.03.2022
3483 Clouds -2 1029 61 10000 0.75 171 18:52 01.03.2022
3484 Clouds -1 1029 59 10000 0.83 150 18:21 01.03.2022
3485 Clouds 0 1029 56 10000 0.83 150 17:39 01.03.2022
3486 Clouds 2 1029 43 10000 0.9 163 16:36 01.03.2022
3487 Clouds 3 1029 40 10000 1.19 174 15:47 01.03.2022
3488 Clouds 3 1030 38 10000 1.57 209 14:53 01.03.2022
3489 Clouds 3 1030 38 10000 1.57 209 14:31 01.03.2022
3490 Clouds 3 1030 48 10000 2.18 191 13:26 01.03.2022
3491 Clouds 2 1030 43 10000 1.98 186 12:36 01.03.2022
3492 Clear 0 1031 46 10000 2.14 185 10:57 01.03.2022
3493 Clear -2 1032 51 10000 2.16 187 09:43 01.03.2022
3494 Clear -5 1032 60 10000 1.63 171 08:20 01.03.2022
3495 Clear -5 1032 63 10000 1.79 171 06:47 01.03.2022
3496 Clear -5 1033 65 10000 1.79 163 03:26 01.03.2022
3497 Clear -4 1033 63 10000 2.06 154 00:48 01.03.2022
3498 Clear -4 1034 64 10000 1.95 146 23:46 28.02.2022
3499 Clear -4 1034 66 10000 2.04 137 22:43 28.02.2022
3500 Clear -3 1034 68 10000 2.28 133 21:47 28.02.2022
3501 Clear -3 1034 69 10000 2.41 130 20:54 28.02.2022
3502 Clear -3 1034 77 10000 2.51 127 19:51 28.02.2022
3503 Clear -2 1034 75 10000 2.54 122 18:56 28.02.2022
3504 Clear -1 1033 75 10000 2.54 117 17:43 28.02.2022
3505 Clear 0 1033 75 10000 2.85 120 17:23 28.02.2022
3506 Clear 2 1032 66 10000 3.18 123 16:25 28.02.2022
3507 Clear 3 1033 59 10000 2.84 123 14:33 28.02.2022
3508 Clear 3 1033 64 10000 2.39 124 13:56 28.02.2022
3509 Clear 3 1033 59 10000 2.29 127 13:24 28.02.2022
3510 Clear 2 1033 64 10000 2.26 128 12:29 28.02.2022
3511 Clear 1 1034 62 10000 2.11 129 11:20 28.02.2022
3512 Clear 0 1034 72 10000 2.2 127 10:23 28.02.2022
3513 Clear 0 1034 74 10000 2.2 127 09:51 28.02.2022
3514 Clear -3 1034 79 10000 1.72 130 09:24 28.02.2022
3515 Clear -3 1034 79 10000 1.72 130 09:24 28.02.2022
3516 Clear -5 1034 82 10000 1.17 139 08:22 28.02.2022
3517 Clear -5 1034 82 10000 1.17 139 08:22 28.02.2022
3518 Clear -6 1034 79 10000 1.47 131 06:44 28.02.2022
3519 Clear -5 1034 79 10000 1.46 132 04:31 28.02.2022
3520 Clear -5 1035 76 10000 1.47 129 01:42 28.02.2022
3521 Clear -3 1035 74 10000 2.07 125 22:57 27.02.2022
3522 Clear -3 1035 75 10000 2.07 125 22:32 27.02.2022
3523 Clear -3 1035 72 10000 2.19 117 21:42 27.02.2022
3524 Clear -2 1035 71 10000 2.13 109 20:54 27.02.2022
3525 Clear -2 1035 71 10000 2.18 110 20:25 27.02.2022
3526 Clear -2 1035 68 10000 2.18 110 19:50 27.02.2022
3527 Clear -2 1035 70 10000 2.2 109 19:26 27.02.2022
3528 Clear -1 1035 66 10000 2.23 108 18:39 27.02.2022
3529 Clear 1 1035 61 10000 2.27 105 17:53 27.02.2022
3530 Clear 3 1034 52 10000 2.76 105 16:36 27.02.2022
3531 Clear 4 1034 50 10000 3.37 110 15:42 27.02.2022
3532 Clear 3 1035 60 10000 4.42 124 12:53 27.02.2022
3533 Clear 2 1035 64 10000 4.06 121 12:29 27.02.2022
3534 Clear 1 1036 69 10000 3.93 120 10:47 27.02.2022
3535 Clear 0 1036 78 10000 3.56 117 09:58 27.02.2022
3536 Clear -1 1036 79 10000 3.07 109 09:27 27.02.2022
3537 Clear -2 1036 81 10000 3.07 109 08:59 27.02.2022
3538 Clouds -4 1036 83 10000 1.87 105 06:43 27.02.2022
3539 Clouds -4 1036 83 10000 1.65 106 05:35 27.02.2022
3540 Clouds -3 1036 81 10000 1.96 114 00:37 27.02.2022
3541 Clear -3 1036 83 10000 1.64 96 22:56 26.02.2022
3542 Clear -3 1036 83 10000 1.5 81 21:39 26.02.2022
3543 Clear -2 1036 83 10000 1.35 80 20:48 26.02.2022
3544 Clear -2 1035 83 10000 1.36 67 20:19 26.02.2022
3545 Clear -2 1035 84 10000 1.36 67 19:41 26.02.2022
3546 Clouds -1 1035 81 10000 1.49 52 19:19 26.02.2022
3547 Clouds 1 1034 74 10000 1.18 4 17:45 26.02.2022
3548 Clouds 3 1034 64 10000 1.49 352 16:51 26.02.2022
3549 Clouds 3 1034 62 10000 2.13 357 15:57 26.02.2022
3550 Clouds 4 1034 59 10000 2.27 348 15:23 26.02.2022
3551 Clouds 4 1034 60 10000 2.27 348 14:54 26.02.2022
3552 Clouds 4 1034 59 10000 2.27 348 14:33 26.02.2022
3553 Clouds 3 1034 66 10000 2.54 332 13:19 26.02.2022
3554 Clouds 2 1034 71 10000 2.76 323 12:29 26.02.2022
3555 Clouds 1 1034 79 10000 2.87 318 11:28 26.02.2022
3556 Clouds 1 1034 79 10000 2.87 318 10:49 26.02.2022
3557 Clouds -1 1034 84 10000 2.78 320 08:55 26.02.2022
3558 Clouds -1 1033 85 10000 3.39 327 07:37 26.02.2022
3559 Clouds -2 1028 87 10000 5.29 302 01:27 26.02.2022
3560 Clouds -1 1026 88 10000 5.7 300 22:55 25.02.2022
3561 Clouds -1 1025 88 10000 5.81 301 21:44 25.02.2022
3562 Clouds -1 1024 89 10000 5.95 301 21:25 25.02.2022
3563 Clouds -1 1024 90 10000 5.95 301 20:33 25.02.2022
3564 Clouds -1 1024 90 10000 5.95 301 20:33 25.02.2022
3565 Snow -1 1022 88 3087 5.61 289 19:18 25.02.2022
3566 Clouds -2 1020 86 10000 6.36 271 17:30 25.02.2022
3567 Clouds -1 1020 87 10000 6.38 271 16:35 25.02.2022
3568 Snow 0 1019 78 10000 6.65 269 15:48 25.02.2022
3569 Snow 0 1019 82 5262 6.43 268 15:22 25.02.2022
3570 Snow 1 1019 76 5262 6.43 268 14:42 25.02.2022
3571 Snow -1 1019 84 6387 6.3 273 13:51 25.02.2022
3572 Snow -1 1018 85 62 6.54 248 13:19 25.02.2022
3573 Clouds 0 1018 71 10000 6.53 234 11:28 25.02.2022
3574 Clouds 0 1018 71 10000 6.53 234 10:48 25.02.2022
3575 Clouds 0 1018 71 10000 6.47 238 10:22 25.02.2022
3576 Clouds -1 1018 76 10000 6.47 238 09:30 25.02.2022
3577 Clouds -2 1018 77 10000 5.87 244 07:44 25.02.2022
3578 Clouds -2 1017 78 10000 6.63 255 05:58 25.02.2022
3579 Clouds -2 1017 79 10000 6.63 255 05:31 25.02.2022
3580 Clouds -1 1013 83 10000 6.06 261 00:27 25.02.2022
3581 Snow -1 1011 85 10000 6.48 274 22:20 24.02.2022
3582 Snow -1 1011 84 10000 6.48 274 21:42 24.02.2022
3583 Snow -1 1010 83 8047 6.95 276 21:20 24.02.2022
3584 Snow 0 1010 80 8047 6.95 276 20:30 24.02.2022
3585 Clouds 5 1005 69 10000 9.65 232 18:52 24.02.2022
3586 Clouds 5 1005 67 10000 8.42 221 18:19 24.02.2022
3587 Clouds 5 1005 66 10000 8.42 221 17:42 24.02.2022
3588 Clouds 6 1005 69 10000 8.42 227 16:56 24.02.2022
3589 Clouds 6 1006 66 10000 7.6 219 16:25 24.02.2022
3590 Clouds 6 1006 66 10000 7.6 219 16:25 24.02.2022
3591 Clouds 6 1007 66 10000 7.05 217 15:31 24.02.2022
3592 Clouds 6 1007 64 10000 7.07 217 14:43 24.02.2022
3593 Clouds 6 1008 62 10000 6.74 219 13:45 24.02.2022
3594 Clouds 6 1009 61 10000 6.39 216 13:27 24.02.2022
3595 Clouds 4 1012 67 10000 4.95 214 10:48 24.02.2022
3596 Clouds 4 1013 64 10000 4.45 214 09:42 24.02.2022
3597 Clouds 3 1014 65 10000 3.96 216 08:43 24.02.2022
3598 Clouds 3 1014 65 10000 3.96 216 08:43 24.02.2022
3599 Clouds 2 1015 65 10000 3.8 212 06:27 24.02.2022
3600 Clouds 2 1015 63 10000 3.8 212 05:37 24.02.2022
3601 Clouds 0 1020 74 10000 2.95 200 00:30 24.02.2022
3602 Clouds 0 1020 74 10000 2.95 200 00:30 24.02.2022
3603 Clouds 0 1022 86 10000 2.77 202 21:56 23.02.2022
3604 Clear 1 1022 72 10000 2.47 198 20:33 23.02.2022
3605 Clouds 1 1023 82 10000 2.48 200 19:56 23.02.2022
3606 Clear 2 1023 66 10000 2.87 210 18:59 23.02.2022
3607 Clear 4 1023 51 10000 2.49 214 17:47 23.02.2022
3608 Clear 6 1024 49 10000 4.04 248 16:18 23.02.2022
3609 Clouds 5 1025 57 10000 5.83 262 13:36 23.02.2022
3610 Clouds 4 1025 67 10000 5.65 261 12:29 23.02.2022
3611 Clouds 3 1026 74 10000 5.54 263 10:55 23.02.2022
3612 Clouds 2 1025 77 10000 5.22 266 09:38 23.02.2022
3613 Clouds 1 1025 77 10000 4.96 270 08:54 23.02.2022
3614 Clouds 1 1024 79 10000 5.27 273 07:47 23.02.2022
3615 Clouds 1 1018 82 7990 6.63 287 02:23 23.02.2022
3616 Clouds 2 1015 81 10000 7.62 289 23:50 22.02.2022
3617 Clouds 2 1014 83 10000 6.83 295 23:31 22.02.2022
3618 Clouds 3 1012 89 4236 8.47 278 22:28 22.02.2022
3619 Clouds 3 1012 89 4236 8.47 278 21:44 22.02.2022
3620 Clouds 3 1011 89 3151 6.96 240 21:20 22.02.2022
3621 Clouds 3 1011 87 3151 6.96 240 20:41 22.02.2022
3622 Clouds 3 1012 87 2083 6.87 237 20:22 22.02.2022
3623 Clouds 2 1012 86 2083 6.87 237 19:34 22.02.2022
3624 Clouds 2 1012 85 5102 6.81 235 18:35 22.02.2022
3625 Snow 2 1013 83 5118 6.8 233 17:34 22.02.2022
3626 Clouds 2 1013 80 2409 5.54 230 16:57 22.02.2022
3627 Clouds 3 1014 75 10000 5.57 232 16:22 22.02.2022
3628 Clouds 3 1014 67 10000 5.57 232 15:31 22.02.2022
3629 Clouds 3 1016 69 10000 5.29 254 14:33 22.02.2022
3630 Clouds 2 1017 72 10000 6 264 11:39 22.02.2022
3631 Clouds 0 1017 81 10000 6.19 282 09:48 22.02.2022
3632 Clouds -1 1016 82 8561 5.93 292 07:38 22.02.2022
3633 Clouds -1 1014 83 8818 6.38 297 07:19 22.02.2022
3634 Clouds -1 1014 83 8818 6.38 297 07:19 22.02.2022
3635 Snow 0 1010 89 1878 7.73 299 02:51 22.02.2022
3636 Snow 0 1007 87 283 6.74 286 23:48 21.02.2022
3637 Snow 0 1005 85 2060 6.59 281 22:37 21.02.2022
3638 Snow 0 1003 84 6360 6.98 296 21:23 21.02.2022
3639 Snow 0 998 87 2722 7.95 314 19:36 21.02.2022
3640 Snow 0 996 90 2858 7.84 307 18:39 21.02.2022
3641 Snow -1 994 87 134 8.14 243 16:37 21.02.2022
3642 Snow -1 996 85 6387 8.67 223 14:24 21.02.2022
3643 Snow 0 996 78 6387 8.67 223 13:55 21.02.2022
3644 Snow 1 997 65 9772 9.42 237 12:57 21.02.2022
3645 Clouds 1 998 69 9684 8.73 241 12:21 21.02.2022
3646 Snow 0 998 74 5917 8.08 245 10:32 21.02.2022
3647 Snow -1 997 84 6064 8.64 260 07:52 21.02.2022
3648 Clouds 5 991 85 7154 11.27 226 00:36 21.02.2022
3649 Clouds 4 994 88 2658 10.74 224 22:40 20.02.2022
3650 Clouds 4 996 87 3131 10.23 224 21:54 20.02.2022
3651 Clouds 4 998 88 2018 9.7 226 21:25 20.02.2022
3652 Clouds 4 998 87 2018 9.7 226 20:50 20.02.2022
3653 Clouds 4 1000 87 2413 8.95 228 19:59 20.02.2022
3654 Clouds 4 1001 87 2024 8.3 232 18:57 20.02.2022
3655 Clouds 4 1001 87 2114 8.31 232 18:37 20.02.2022
3656 Clouds 4 1002 87 2502 8.37 235 17:56 20.02.2022
3657 Clouds 4 1002 87 2147 8.42 238 17:24 20.02.2022
3658 Clouds 4 1004 87 3327 8.59 238 15:29 20.02.2022
3659 Clouds 4 1005 86 3021 8.67 239 14:20 20.02.2022
3660 Clouds 3 1006 86 3032 8.69 235 12:51 20.02.2022
3661 Clouds 2 1007 84 1057 8.67 231 11:56 20.02.2022
3662 Snow 1 1010 82 3206 4.61 222 10:21 20.02.2022
3663 Snow 1 1010 80 3206 4.61 222 09:52 20.02.2022
3664 Clouds 0 1010 85 9299 6.84 265 06:44 20.02.2022
3665 Snow -1 1005 84 402 9 225 00:33 20.02.2022
3666 Snow -1 1007 81 2201 7.13 211 23:42 19.02.2022
3667 Clouds 0 1010 79 10000 6.46 214 22:25 19.02.2022
3668 Clouds 1 1010 74 10000 6.46 214 21:54 19.02.2022
3669 Clouds 1 1011 66 10000 6.04 219 20:48 19.02.2022
3670 Clouds 1 1012 50 10000 5.21 219 19:41 19.02.2022
3671 Clouds 1 1012 52 10000 5.49 232 18:41 19.02.2022
3672 Clouds 2 1012 52 10000 6.14 244 18:19 19.02.2022
3673 Clouds 2 1012 51 10000 6.14 244 17:33 19.02.2022
3674 Clouds 3 1012 53 10000 7.22 252 16:21 19.02.2022
3675 Clouds 2 1012 55 10000 7.54 256 14:56 19.02.2022
3676 Clouds 2 1012 54 10000 7.26 254 13:59 19.02.2022
3677 Snow 1 1012 63 4778 8.29 255 11:59 19.02.2022
3678 Snow 1 1012 65 4778 8.29 255 11:36 19.02.2022
3679 Snow 0 1010 68 4489 8.35 256 09:34 19.02.2022
3680 Snow 0 1006 63 8116 10.08 257 06:52 19.02.2022
3681 Clouds 2 1000 55 10000 12.08 248 01:39 19.02.2022
3682 Clouds 2 997 71 8570 12.13 248 22:54 18.02.2022
3683 Clouds 4 996 60 7899 12.53 249 21:30 18.02.2022
3684 Clouds 4 995 65 8739 13.4 248 20:33 18.02.2022
3685 Clear 5 993 61 10000 13.23 243 19:51 18.02.2022
3686 Clouds 5 992 76 10000 11.54 236 18:49 18.02.2022
3687 Clouds 5 992 81 6559 11.48 241 18:19 18.02.2022
3688 Clouds 8 992 78 10000 9.48 221 17:25 18.02.2022
3689 Clouds 5 995 87 5396 8.77 222 14:48 18.02.2022
3690 Clouds 4 996 89 5865 7.82 215 13:54 18.02.2022
3691 Clouds 3 999 87 5308 6.39 208 12:51 18.02.2022
3692 Clouds 2 1001 85 5179 6.39 195 11:58 18.02.2022
3693 Clouds 2 1001 85 5179 6.39 195 11:58 18.02.2022
3694 Clouds 2 1003 83 3814 4.98 191 11:21 18.02.2022
3695 Clouds 2 1005 78 10000 4.02 196 09:33 18.02.2022
3696 Clouds 1 1009 79 10000 3.77 232 06:52 18.02.2022
3697 Clouds 1 1010 79 10000 4.33 246 05:38 18.02.2022
3698 Clouds 2 1010 66 10000 6.96 264 22:47 17.02.2022
3699 Clouds 2 1009 67 10000 7.78 273 21:43 17.02.2022
3700 Clouds 2 1008 71 10000 8.51 271 20:59 17.02.2022
3701 Clouds 1 1008 71 10000 8.51 271 20:34 17.02.2022
3702 Clouds 1 1008 72 10000 8.78 274 19:48 17.02.2022
3703 Clouds 2 1006 69 10000 8.75 272 18:38 17.02.2022
3704 Clouds 2 1005 71 10000 9.49 275 17:48 17.02.2022
3705 Clouds 4 1003 52 10000 9.77 276 16:20 17.02.2022
3706 Clouds 5 1001 51 10000 9.7 277 15:26 17.02.2022
3707 Clouds 4 1001 60 10000 10.2 276 14:20 17.02.2022
3708 Clouds 4 1000 65 10000 11.06 276 12:24 17.02.2022
3709 Clouds 4 998 64 9988 11.02 276 11:21 17.02.2022
3710 Clouds 3 995 72 10000 12.02 273 08:43 17.02.2022
3711 Clouds 8 988 90 10000 11.91 245 00:29 17.02.2022
3712 Clouds 7 989 89 6350 10.84 242 22:41 16.02.2022
3713 Clouds 7 991 86 6979 9.06 224 21:25 16.02.2022
3714 Clouds 7 993 85 10000 8.81 237 19:43 16.02.2022
3715 Clouds 6 995 87 10000 8.96 240 18:36 16.02.2022
3716 -273 0 0 0 0 0 17:39 16.02.2022
3717 Clouds 6 995 87 10000 8.15 239 17:36 16.02.2022
3718 Clouds 5 996 84 5098 7.53 236 15:30 16.02.2022
3719 Clouds 5 996 83 5153 8.13 240 14:57 16.02.2022
3720 Clouds 4 997 83 7850 8.91 226 12:34 16.02.2022
3721 Clouds 4 998 89 8004 9.4 224 11:53 16.02.2022
3722 Clouds 3 998 89 3040 8.41 216 11:23 16.02.2022
3723 Clouds 3 999 88 5331 7.98 215 10:29 16.02.2022
3724 Clouds 2 1002 86 3119 7.3 219 06:57 16.02.2022
3725 Snow 2 1004 85 2919 6.66 219 04:42 16.02.2022
3726 Snow 2 1008 78 3947 7.38 219 23:35 15.02.2022
3727 Clouds 2 1009 65 10000 6.78 213 22:18 15.02.2022
3728 Clouds 2 1009 66 10000 6.78 213 21:45 15.02.2022
3729 Clouds 2 1010 66 10000 6.07 210 21:26 15.02.2022
3730 Clouds 2 1010 68 10000 6.07 210 20:53 15.02.2022
3731 Clouds 2 1010 69 10000 5.53 214 19:48 15.02.2022
3732 Clouds 2 1011 68 10000 4.85 217 18:52 15.02.2022
3733 Clouds 2 1011 71 10000 4.32 221 18:19 15.02.2022
3734 Clouds 3 1011 66 10000 4.32 221 17:48 15.02.2022
3735 Clouds 4 1011 66 10000 4.55 231 16:30 15.02.2022
3736 Clouds 5 1011 68 10000 5.11 242 15:22 15.02.2022
3737 Clouds 4 1011 71 10000 2.84 230 13:26 15.02.2022
3738 Clouds 4 1012 72 10000 3.29 232 11:57 15.02.2022
3739 Clouds 3 1011 78 10000 3.2 237 10:58 15.02.2022
3740 Clouds 2 1011 90 10000 3.23 238 09:28 15.02.2022
3741 Clouds 2 1010 81 8421 3.57 237 06:50 15.02.2022
3742 Clouds 2 1008 75 10000 2.92 219 02:36 15.02.2022
3743 Clouds 3 1007 95 10000 3.44 213 22:26 14.02.2022
3744 Clouds 3 1007 95 10000 3.44 213 21:35 14.02.2022
3745 Clouds 4 1006 95 10000 3.13 217 20:30 14.02.2022
3746 Clouds 4 1006 95 10000 3.34 220 19:32 14.02.2022
3747 Clouds 5 1006 81 10000 3.75 221 18:30 14.02.2022
3748 Clouds 5 1005 92 10000 3.92 219 17:58 14.02.2022
3749 Clouds 6 1005 72 10000 4.86 217 17:24 14.02.2022
3750 Clouds 6 1004 63 10000 4.87 210 16:19 14.02.2022
3751 Clouds 7 1004 64 10000 5.9 216 13:54 14.02.2022
3752 Clouds 8 1004 57 10000 5.67 213 13:26 14.02.2022
3753 Clouds 7 1004 62 10000 6.02 214 12:33 14.02.2022
3754 Clouds 5 1004 63 10000 5.92 212 11:54 14.02.2022
3755 Clouds 4 1005 63 10000 6.58 210 10:37 14.02.2022
3756 Clouds 3 1005 66 10000 5.3 205 08:45 14.02.2022
3757 Clouds 2 1005 76 10000 4 190 07:31 14.02.2022
3758 Clouds 2 1008 61 10000 4.17 188 01:18 14.02.2022
3759 Clouds 1 1010 59 10000 4.79 196 22:42 13.02.2022
3760 Clouds 2 1010 59 10000 4.66 196 22:24 13.02.2022
3761 Clouds 1 1010 81 10000 4.66 196 21:32 13.02.2022
3762 Clouds 2 1011 64 10000 4.55 197 20:35 13.02.2022
3763 Clouds 2 1011 65 10000 4.29 193 19:45 13.02.2022
3764 Clouds 2 1012 67 10000 3.86 194 18:49 13.02.2022
3765 Clouds 2 1012 86 10000 3.76 193 18:28 13.02.2022
3766 Clouds 5 1013 53 10000 4.56 210 15:54 13.02.2022
3767 Clouds 5 1013 56 10000 4.97 214 15:24 13.02.2022
3768 Clouds 5 1013 54 10000 4.97 214 14:31 13.02.2022
3769 Clouds 2 1015 55 10000 4.74 218 12:51 13.02.2022
3770 Clouds 1 1016 60 10000 4.13 216 11:44 13.02.2022
3771 Clouds -1 1017 64 10000 3.98 209 10:34 13.02.2022
3772 Clouds -2 1018 67 10000 3.43 215 09:46 13.02.2022
3773 Clouds -4 1019 73 10000 2.6 190 07:51 13.02.2022
3774 Clouds -3 1023 77 10000 2.31 191 00:36 13.02.2022
3775 Clouds -3 1024 76 10000 2.42 190 23:53 12.02.2022
3776 Clouds -4 1024 85 10000 2.57 188 22:33 12.02.2022
3777 Clouds -3 1025 86 10000 2.53 191 21:31 12.02.2022
3778 Clouds -3 1025 84 10000 2.63 191 20:52 12.02.2022
3779 Clouds -2 1026 73 10000 2.85 189 19:47 12.02.2022
3780 Clouds -2 1026 71 10000 2.68 186 18:53 12.02.2022
3781 Clouds -2 1026 72 10000 2.9 187 18:35 12.02.2022
3782 Clouds -2 1027 67 10000 2.17 183 17:37 12.02.2022
3783 Clouds 0 1027 61 10000 2.56 186 16:43 12.02.2022
3784 Clouds 1 1027 59 10000 3.38 191 15:52 12.02.2022
3785 Clouds 1 1028 58 10000 3.53 194 14:55 12.02.2022
3786 Clouds 1 1028 58 10000 3.53 194 14:55 12.02.2022
3787 Clouds 1 1029 57 10000 3.62 196 14:25 12.02.2022
3788 Clouds -1 1032 82 10000 2.93 201 11:20 12.02.2022
3789 Clouds -2 1032 74 10000 2.2 194 10:28 12.02.2022
3790 Clouds -4 1032 79 10000 2.2 194 09:33 12.02.2022
3791 Clouds -5 1033 80 10000 1.6 186 08:46 12.02.2022
3792 Clouds -5 1034 79 10000 1.01 177 06:46 12.02.2022
3793 Clouds -5 1035 80 10000 0.89 190 04:38 12.02.2022
3794 Clouds -5 1035 82 10000 0.84 202 02:19 12.02.2022
3795 Clouds -4 1035 88 10000 1.15 290 23:20 11.02.2022
3796 Clouds -4 1034 87 10000 1.78 296 22:20 11.02.2022
3797 Clouds -3 1033 82 10000 2.88 312 21:18 11.02.2022
3798 Clouds -3 1032 77 10000 4.22 313 20:26 11.02.2022
3799 Snow -2 1031 77 10000 4.43 319 19:28 11.02.2022
3800 Snow -1 1029 82 1932 5.33 317 18:29 11.02.2022
3801 Clouds -1 1028 84 3562 5.26 322 17:26 11.02.2022
3802 Clouds -1 1028 86 3562 5.26 322 16:39 11.02.2022
3803 Snow 0 1024 90 1939 6.38 307 15:19 11.02.2022
3804 Snow 0 1024 89 1851 6.33 307 14:37 11.02.2022
3805 Snow 0 1022 87 131 6.4 284 14:19 11.02.2022
3806 Snow 0 1022 86 131 6.4 284 13:40 11.02.2022
3807 Snow 0 1022 86 38 5.35 255 12:45 11.02.2022
3808 Snow 0 1021 85 5175 5.9 254 10:49 11.02.2022
3809 Snow -1 1021 86 2081 5.69 253 09:32 11.02.2022
3810 Snow -2 1021 85 108 4.89 230 08:31 11.02.2022
3811 Clouds -2 1020 83 8911 5.11 247 07:40 11.02.2022
3812 Clouds -2 1020 86 5478 4.07 251 05:34 11.02.2022
3813 Snow -1 1020 87 10000 3.18 277 02:21 11.02.2022
3814 Snow -1 1020 89 3026 1.96 277 23:45 10.02.2022
3815 Snow 0 1020 87 1292 2.09 264 22:25 10.02.2022
3816 Snow 1 1020 85 1292 2.09 264 21:40 10.02.2022
3817 Snow 1 1020 86 5002 2.65 260 20:50 10.02.2022
3818 Clouds 1 1020 84 5757 3.04 261 19:51 10.02.2022
3819 Snow 1 1020 82 5058 3.06 259 19:22 10.02.2022
3820 Snow 1 1019 85 1687 1.57 270 18:22 10.02.2022
3821 Snow 1 1019 85 1955 1.53 281 17:21 10.02.2022
3822 Snow 2 1019 85 1955 1.53 281 16:39 10.02.2022
3823 Clouds 2 1019 84 1034 2.51 288 15:40 10.02.2022
3824 Clouds 2 1018 84 4524 2.93 272 15:21 10.02.2022
3825 Clouds 2 1018 79 4524 2.93 272 14:35 10.02.2022
3826 Clouds 2 1018 85 3257 3.52 254 13:40 10.02.2022
3827 Clouds 3 1018 85 5669 3.54 245 13:19 10.02.2022
3828 Clouds 3 1018 76 8069 3.67 243 11:52 10.02.2022
3829 Clouds 3 1018 76 8069 3.67 243 11:30 10.02.2022
3830 Clouds 3 1018 79 10000 3.75 233 10:23 10.02.2022
3831 Clouds 3 1018 79 10000 3.75 233 09:44 10.02.2022
3832 Clouds 2 1018 79 10000 2.86 219 08:40 10.02.2022
3833 Clouds 2 1019 83 10000 2.04 199 06:33 10.02.2022
3834 Clouds 3 1022 77 10000 1.48 207 02:43 10.02.2022
3835 Clouds 3 1023 79 10000 1.98 217 00:56 10.02.2022
3836 Clouds 4 1023 76 10000 1.98 217 00:38 10.02.2022
3837 Clouds 4 1023 76 10000 2.16 221 00:20 10.02.2022
3838 Clouds 4 1024 77 10000 2.14 223 22:54 09.02.2022
3839 Clouds 4 1024 78 10000 2.14 223 22:30 09.02.2022
3840 Clouds 4 1024 78 10000 2.19 230 21:47 09.02.2022
3841 Clouds 4 1024 78 10000 2.44 239 21:27 09.02.2022
3842 Clouds 4 1024 77 10000 2.44 239 20:43 09.02.2022
3843 Clouds 4 1024 77 10000 2.87 245 20:22 09.02.2022
3844 Clouds 4 1024 77 10000 2.87 245 19:41 09.02.2022
3845 Clouds 4 1024 78 10000 3.49 247 18:38 09.02.2022
3846 Clouds 5 1024 77 10000 4.98 254 16:57 09.02.2022
3847 Clouds 5 1024 76 10000 5.7 259 16:20 09.02.2022
3848 Clouds 5 1024 76 10000 5.95 261 15:23 09.02.2022
3849 Clouds 5 1024 78 10000 5.99 254 12:53 09.02.2022
3850 Clouds 5 1024 81 10000 5.9 250 11:36 09.02.2022
3851 Clouds 4 1024 82 10000 5.32 246 10:34 09.02.2022
3852 Clouds 4 1024 82 10000 5.14 242 09:50 09.02.2022
3853 Clouds 4 1025 83 10000 4.79 244 09:22 09.02.2022
3854 Clouds 4 1025 83 10000 4.79 244 08:45 09.02.2022
3855 Clouds 4 1025 79 10000 4.63 248 06:52 09.02.2022
3856 Clouds 4 1025 80 10000 4.73 243 04:30 09.02.2022
3857 Clouds 4 1026 81 7415 4.7 238 03:48 09.02.2022
3858 Clouds 4 1026 90 6050 4.59 242 23:45 08.02.2022
3859 Clouds 4 1026 91 7212 4.65 245 23:19 08.02.2022
3860 Clouds 4 1026 91 7212 4.65 245 23:19 08.02.2022
3861 Clouds 4 1026 86 7212 4.65 245 22:38 08.02.2022
3862 Clouds 4 1026 87 7055 4.62 245 22:38 08.02.2022
3863 Clouds 4 1026 88 6036 4.62 249 22:20 08.02.2022
3864 Clouds 4 1026 86 6071 4.87 252 21:22 08.02.2022
3865 Clouds 4 1026 84 6071 4.87 252 20:58 08.02.2022
3866 Clouds 4 1026 84 6071 4.87 252 20:38 08.02.2022
3867 Clouds 4 1025 83 10000 5.32 255 19:28 08.02.2022
3868 Clouds 4 1025 85 9173 5.88 259 18:24 08.02.2022
3869 Clouds 5 1025 79 9173 5.88 259 17:30 08.02.2022
3870 Clouds 5 1024 81 8486 6.21 254 15:47 08.02.2022
3871 Clouds 5 1024 82 10000 6.45 251 15:27 08.02.2022
3872 Clouds 4 1024 82 8758 6.29 249 13:50 08.02.2022
3873 Clouds 3 1024 81 5117 5.7 245 12:24 08.02.2022
3874 Clouds 2 1024 85 5125 5.79 249 10:52 08.02.2022
3875 Clouds 2 1024 86 5152 6 251 09:49 08.02.2022
3876 Clouds 1 1024 86 5180 5.38 245 08:53 08.02.2022
3877 Clouds 1 1024 86 5180 5.38 245 08:53 08.02.2022
3878 Clouds 0 1024 89 5437 4.76 236 06:49 08.02.2022
3879 Clouds 0 1025 83 10000 4.26 233 04:40 08.02.2022
3880 Clouds 0 1025 82 10000 4.22 233 04:22 08.02.2022
3881 Clouds 0 1025 80 10000 4.22 233 03:36 08.02.2022
3882 Clouds 0 1026 79 10000 4.23 236 03:18 08.02.2022
3883 Clouds -1 1026 79 10000 4.23 236 02:59 08.02.2022
3884 Clouds -1 1026 79 10000 4.23 236 02:36 08.02.2022
3885 Clouds -1 1026 80 10000 4.21 242 02:18 08.02.2022
3886 Clouds -1 1026 79 10000 4.21 242 01:44 08.02.2022
3887 Clouds -1 1026 79 10000 4.54 251 01:25 08.02.2022
3888 Clouds -1 1026 79 10000 4.54 251 00:55 08.02.2022
3889 Clouds -1 1026 82 10000 4.82 259 00:21 08.02.2022
3890 Clouds -1 1026 83 10000 4.83 259 23:44 07.02.2022
3891 Clouds -1 1026 83 10000 4.83 259 23:44 07.02.2022
3892 Clouds -1 1026 84 10000 5.18 266 23:18 07.02.2022
3893 Clouds -1 1026 83 10000 5.18 266 22:59 07.02.2022
3894 Clouds -1 1026 83 10000 5.35 273 22:19 07.02.2022
3895 Clouds -1 1026 82 10000 5.35 273 21:51 07.02.2022
3896 Clouds -1 1025 83 10000 5.57 279 21:27 07.02.2022
3897 Clouds -1 1025 82 10000 5.57 279 20:45 07.02.2022
3898 Clouds -1 1024 82 10000 5.45 288 20:27 07.02.2022
3899 Clouds -1 1024 85 10000 5.45 288 19:47 07.02.2022
3900 Clouds -1 1024 86 10000 5.64 296 18:37 07.02.2022
3901 Snow -1 1023 86 10000 6.54 298 17:33 07.02.2022
3902 Snow -1 1022 80 9133 6.69 295 16:52 07.02.2022
3903 Snow -1 1021 83 10000 6.85 295 15:48 07.02.2022
3904 Snow 0 1019 82 10000 7.22 296 14:19 07.02.2022
3905 Snow 2 1019 69 10000 7.55 300 13:27 07.02.2022
3906 Snow 1 1019 74 10000 7.55 300 12:35 07.02.2022
3907 Snow 1 1017 79 7731 7.73 301 11:50 07.02.2022
3908 Snow 0 1016 85 7354 7.74 304 11:24 07.02.2022
3909 Snow 0 1016 82 7354 7.74 304 10:42 07.02.2022
3910 Snow 0 1015 82 7039 7.09 304 10:24 07.02.2022
3911 Snow -1 1015 83 7039 7.09 304 09:52 07.02.2022
3912 Snow -1 1013 84 5534 7.07 307 09:18 07.02.2022
3913 Snow -1 1011 85 1305 6.94 301 07:53 07.02.2022
3914 Snow -2 1010 86 4071 7.61 299 06:34 07.02.2022
3915 Clouds -2 1006 87 10000 7.54 283 05:18 07.02.2022
3916 Snow -2 1003 85 10000 7.38 291 02:38 07.02.2022
3917 Snow -1 997 82 70 7.64 284 00:24 07.02.2022
3918 Snow -1 997 86 70 7.64 284 23:33 06.02.2022
3919 Snow -1 996 89 66 7.13 267 22:45 06.02.2022
3920 Snow -1 996 88 738 5.38 253 21:47 06.02.2022
3921 Snow 0 996 82 2852 4.93 250 21:21 06.02.2022
3922 Snow 0 996 82 2852 4.93 250 21:21 06.02.2022
3923 Snow 0 996 82 2852 4.93 250 21:21 06.02.2022
3924 Snow 1 996 83 2852 4.93 250 20:48 06.02.2022
3925 Snow 1 997 84 1938 4.65 254 20:24 06.02.2022
3926 Snow 0 997 85 1938 4.65 254 19:30 06.02.2022
3927 Snow 1 996 86 883 5.2 259 18:34 06.02.2022
3928 Clouds 0 996 84 10000 7.51 269 17:39 06.02.2022
3929 Snow 1 995 88 5515 9.55 285 16:52 06.02.2022
3930 Snow 1 995 88 5515 9.55 285 16:30 06.02.2022
3931 Snow 1 994 87 671 10.28 230 15:47 06.02.2022
3932 Snow 1 996 87 314 10 223 15:25 06.02.2022
3933 Snow 2 998 86 1298 9.61 224 14:25 06.02.2022
3934 Rain 2 1001 85 371 9.26 225 13:24 06.02.2022
3935 Rain 2 1001 87 371 9.26 225 12:34 06.02.2022
3936 Snow 2 1004 88 2019 8.91 229 10:43 06.02.2022
3937 Snow 1 1005 86 5111 8.56 233 09:48 06.02.2022
3938 Snow 1 1005 86 2400 8.89 234 08:41 06.02.2022
3939 Snow 1 1006 88 4207 8.92 237 07:36 06.02.2022
3940 Snow 1 1008 86 867 8.43 231 05:29 06.02.2022
3941 Snow 0 1011 84 1553 7.72 232 02:26 06.02.2022
3942 Snow 0 1012 82 4341 7.89 233 00:51 06.02.2022
3943 Clouds 0 1013 79 10000 8.09 235 00:24 06.02.2022
3944 Clouds 1 1015 70 10000 7.56 233 21:59 05.02.2022
3945 Clouds 1 1016 67 10000 7.32 237 20:48 05.02.2022
3946 Clouds 1 1016 66 10000 7.01 239 20:23 05.02.2022
3947 Clouds 1 1016 66 10000 7.01 239 19:44 05.02.2022
3948 Clouds 1 1017 67 10000 6.69 238 18:48 05.02.2022
3949 Clouds 1 1017 67 10000 6.51 242 17:37 05.02.2022
3950 Clouds 1 1017 64 10000 6.34 243 16:33 05.02.2022
3951 Clouds 1 1018 64 10000 6.44 243 15:31 05.02.2022
3952 Clouds 2 1018 62 10000 6.38 245 14:40 05.02.2022
3953 Clouds 1 1019 72 10000 6.16 252 12:46 05.02.2022
3954 Clouds 1 1019 75 10000 6.47 258 11:47 05.02.2022
3955 Clouds 0 1019 78 10000 6.78 263 10:46 05.02.2022
3956 Clouds 0 1018 82 10000 6.77 265 09:51 05.02.2022
3957 Clouds 0 1018 79 9704 6.8 265 09:25 05.02.2022
3958 Snow -1 1017 79 6616 6.81 267 07:36 05.02.2022
3959 Snow -1 1016 79 2405 6.71 267 06:56 05.02.2022
3960 Snow -1 1014 85 5413 7.29 265 03:22 05.02.2022
3961 Clouds -1 1013 86 7475 7.29 269 01:19 05.02.2022
3962 Snow -1 1012 86 7446 7.55 268 00:42 05.02.2022
3963 Clouds -1 1012 86 9852 7.16 274 23:38 04.02.2022
3964 Snow -1 1010 86 5259 7.37 278 23:20 04.02.2022
3965 Snow -1 1009 90 27 6.76 282 21:36 04.02.2022
3966 Snow -1 1007 89 36 8.33 296 21:18 04.02.2022
3967 Snow 0 1007 89 36 8.33 296 20:46 04.02.2022
3968 Clouds 2 1004 84 2897 8.54 233 19:33 04.02.2022
3969 Clouds 2 1005 82 10000 7.82 223 17:27 04.02.2022
3970 Clouds 3 1006 78 10000 7.24 222 15:38 04.02.2022
3971 Clouds 4 1007 78 10000 6.76 223 14:51 04.02.2022
3972 Clouds 3 1009 88 10000 6.15 226 12:43 04.02.2022
3973 Clouds 3 1010 84 10000 6.12 231 11:47 04.02.2022
3974 Clouds 3 1010 86 10000 5.49 230 11:22 04.02.2022
3975 Clouds 2 1010 87 10000 5.49 230 10:32 04.02.2022
3976 Clouds 2 1011 88 9430 4.86 232 08:34 04.02.2022
3977 Clouds 1 1012 85 10000 3.75 241 05:19 04.02.2022
3978 Clouds 1 1012 85 10000 3.75 243 02:39 04.02.2022
3979 Clouds 1 1012 86 9924 3.68 240 00:31 04.02.2022
3980 Clouds 1 1012 86 10000 3.25 238 23:21 03.02.2022
3981 Clouds 1 1013 90 10000 3.11 245 22:26 03.02.2022
3982 Clouds 1 1013 89 10000 3.11 245 21:47 03.02.2022
3983 Clouds 2 1012 86 10000 3.3 244 20:26 03.02.2022
3984 Clouds 2 1012 90 10000 3.3 244 19:59 03.02.2022
3985 Clouds 2 1012 87 10000 3.46 243 19:26 03.02.2022
3986 Clouds 2 1013 88 10000 3.62 233 18:26 03.02.2022
3987 Clouds 3 1013 91 10000 3.46 233 17:27 03.02.2022
3988 Clouds 3 1014 86 10000 3.87 234 15:52 03.02.2022
3989 Clouds 3 1015 85 5136 3.79 228 14:26 03.02.2022
3990 Clouds 3 1015 89 5093 4.08 231 12:37 03.02.2022
3991 Snow 1 1018 91 5097 2.49 206 09:29 03.02.2022
3992 Snow 0 1018 95 5147 2.41 202 08:23 03.02.2022
3993 Clouds -2 1021 88 10000 2.26 218 03:28 03.02.2022
3994 Clouds -2 1022 80 7197 1.99 218 00:30 03.02.2022
3995 Clouds -2 1022 84 10000 1.68 223 22:47 02.02.2022
3996 Clouds -2 1022 87 10000 1.52 233 21:53 02.02.2022
3997 Clouds -2 1022 87 10000 1.52 233 21:30 02.02.2022
3998 Clouds -1 1021 84 10000 2.2 273 20:33 02.02.2022
3999 Clouds -1 1021 88 10000 3.31 303 19:51 02.02.2022
4000 Clouds -1 1020 81 10000 4.91 310 19:20 02.02.2022
4001 Clouds 0 1019 79 10000 5.71 307 18:27 02.02.2022
4002 Clouds 0 1019 73 10000 5.71 307 17:37 02.02.2022
4003 Clouds 0 1018 72 10000 6.54 308 17:18 02.02.2022
4004 Clouds 1 1017 71 10000 7.25 307 16:20 02.02.2022
4005 Snow 1 1014 74 10000 7.8 303 12:54 02.02.2022
4006 Clouds 1 1014 75 10000 7.51 302 11:51 02.02.2022
4007 Clouds 1 1014 76 10000 7.51 302 11:31 02.02.2022
4008 Clouds 0 1012 80 8829 7.75 300 09:46 02.02.2022
4009 Snow 0 1009 84 6031 8.36 299 06:18 02.02.2022
4010 Snow 2 1006 84 10000 8.24 287 22:44 01.02.2022
4011 Snow 1 1006 88 2905 8.25 294 21:30 01.02.2022
4012 Clouds 2 1004 88 9613 8.95 288 19:56 01.02.2022
4013 Snow 1 1003 91 1967 7.19 289 17:38 01.02.2022
4014 Snow 0 1004 90 2490 8.44 272 16:33 01.02.2022
4015 Snow -1 1010 88 401 7.09 238 13:28 01.02.2022
4016 Snow -1 1012 82 3881 6.12 245 12:28 01.02.2022
4017 Snow -1 1013 84 5545 6.13 253 10:44 01.02.2022
4018 Snow -2 1015 87 4845 2.84 278 02:30 01.02.2022
4019 Snow -2 1015 91 1997 3.07 314 23:40 31.01.2022
4020 Snow -3 1014 91 209 2.88 324 22:43 31.01.2022
4021 Snow -3 1013 91 1007 2.58 340 21:38 31.01.2022
4022 Snow -2 1011 90 252 3.24 0 20:44 31.01.2022
4023 Snow -2 1009 90 41 2.25 8 20:24 31.01.2022
4024 Snow -2 1008 91 26 2.19 352 18:54 31.01.2022
4025 Snow -1 1007 91 1779 3.24 294 18:20 31.01.2022
4026 Snow -1 1006 90 278 3.09 304 17:25 31.01.2022
4027 Clouds -1 1005 92 928 3.16 320 16:25 31.01.2022
4028 Clouds 0 1003 88 35 1.49 316 14:54 31.01.2022
4029 Snow -1 1002 85 27 1.59 250 13:43 31.01.2022
4030 Snow -1 1002 89 29 2.71 244 12:38 31.01.2022
4031 Snow -1 1003 88 783 4.49 258 11:34 31.01.2022
4032 Clouds -1 1003 87 6327 5.43 266 10:49 31.01.2022
4033 Clouds -3 1003 88 4101 6.23 277 09:38 31.01.2022
4034 Snow -3 1003 88 39 4.74 267 08:57 31.01.2022
4035 Snow -3 1003 88 39 4.74 267 08:38 31.01.2022
4036 Snow -3 1004 88 118 4.15 225 08:19 31.01.2022
4037 Snow -2 1007 85 1694 3.5 210 06:18 31.01.2022
4038 Clouds -2 1018 74 10000 2.82 229 00:44 31.01.2022
4039 Clouds -1 1021 67 10000 3.47 267 22:34 30.01.2022
4040 Clouds -1 1023 64 10000 3.89 276 21:56 30.01.2022
4041 Clouds -1 1023 62 10000 3.89 276 21:37 30.01.2022
4042 Clouds -1 1023 61 10000 4.58 283 21:18 30.01.2022
4043 Clouds 0 1023 65 10000 4.58 283 20:43 30.01.2022
4044 Clouds 0 1024 65 10000 5.58 287 20:25 30.01.2022
4045 Clouds 0 1024 63 10000 6.36 291 19:23 30.01.2022
4046 Clouds 0 1024 65 10000 6.36 291 18:35 30.01.2022
4047 Clouds 1 1024 66 10000 6.66 293 17:40 30.01.2022
4048 Clouds 1 1024 66 10000 7.03 297 17:19 30.01.2022
4049 Clouds 1 1024 65 10000 7.03 297 16:37 30.01.2022
4050 Clouds 1 1023 65 10000 7.7 300 16:19 30.01.2022
4051 Clouds 1 1023 66 10000 7.7 300 15:48 30.01.2022
4052 Clouds 1 1023 66 10000 7.7 300 15:30 30.01.2022
4053 Clouds 1 1023 67 10000 8.28 301 14:45 30.01.2022
4054 Clouds 1 1023 67 10000 9.05 302 12:46 30.01.2022
4055 Clouds 1 1023 66 10000 9.39 302 11:53 30.01.2022
4056 Clouds 1 1021 68 10000 10.04 304 10:27 30.01.2022
4057 Clouds 0 1021 69 10000 10.04 304 09:48 30.01.2022
4058 Clouds 0 1020 74 10000 10.67 302 08:52 30.01.2022
4059 Clouds 0 1019 77 10000 11.3 289 06:55 30.01.2022
4060 Clouds 1 1018 76 10000 10.88 292 01:55 30.01.2022
4061 Clouds 1 1017 84 10000 10.42 288 00:19 30.01.2022
4062 Clouds 3 1016 86 10000 10.58 284 22:58 29.01.2022
4063 Clouds 3 1016 79 10000 10.58 282 21:47 29.01.2022
4064 Clouds 3 1016 83 10000 9.86 286 21:23 29.01.2022
4065 Clouds 4 1015 86 10000 11.12 288 20:22 29.01.2022
4066 Clouds 4 1015 89 10000 11.12 288 19:33 29.01.2022
4067 Clouds 5 1014 86 10000 10.92 274 18:51 29.01.2022
4068 Rain 5 1013 88 10000 11.2 267 18:18 29.01.2022
4069 Clouds 4 1015 89 10000 10.47 263 17:28 29.01.2022
4070 Clouds 5 1014 83 10000 9.39 256 15:50 29.01.2022
4071 Clouds 4 1018 85 5085 8.14 257 13:59 29.01.2022
4072 Clouds 4 1018 84 5085 8.14 257 13:41 29.01.2022
4073 Clouds 4 1019 84 1982 7.27 252 13:22 29.01.2022
4074 Clouds 3 1020 85 1988 7.03 252 11:40 29.01.2022
4075 Clouds 3 1020 87 2032 6.74 250 10:46 29.01.2022
4076 Clouds 1 1022 86 2694 6.11 247 08:42 29.01.2022
4077 Snow 0 1023 87 5214 5.44 239 06:37 29.01.2022
4078 Snow -1 1029 78 10000 3.64 226 00:34 29.01.2022
4079 Clouds -1 1030 77 10000 3.01 226 23:44 28.01.2022
4080 Clouds -1 1031 77 10000 2.91 233 22:48 28.01.2022
4081 Clouds -1 1032 78 10000 3 250 22:20 28.01.2022
4082 Clouds -1 1032 78 10000 3 250 21:35 28.01.2022
4083 Clouds 0 1032 75 10000 3.1 269 20:29 28.01.2022
4084 Clouds 0 1033 74 10000 3.68 280 19:28 28.01.2022
4085 Clouds 0 1033 75 10000 3.68 280 18:42 28.01.2022
4086 Clouds 1 1032 72 10000 4.66 299 16:45 28.01.2022
4087 Clouds 1 1031 69 10000 5.9 311 14:59 28.01.2022
4088 Clouds 1 1030 69 10000 6.59 314 13:37 28.01.2022
4089 Clouds 1 1030 71 8267 7.21 308 12:27 28.01.2022
4090 Clouds 0 1029 78 6304 7.32 306 10:41 28.01.2022
4091 Clouds -1 1028 81 4595 7.35 303 09:49 28.01.2022
4092 Snow -1 1026 83 5155 7.45 300 07:43 28.01.2022
4093 Snow -1 1025 81 3685 7.67 299 06:39 28.01.2022
4094 Clouds 0 1023 81 5795 7.49 298 03:53 28.01.2022
4095 Clouds 0 1023 80 8608 7.74 300 02:30 28.01.2022
4096 Clouds 0 1022 76 8890 8.1 299 01:57 28.01.2022
4097 Clouds 0 1022 79 8858 8.11 299 01:30 28.01.2022
4098 Clouds 0 1020 83 10000 8.42 292 22:47 27.01.2022
4099 Snow 0 1019 83 10000 8 291 21:45 27.01.2022
4100 Snow 0 1019 83 10000 7.68 291 21:26 27.01.2022
4101 Snow 1 1018 85 10000 7.77 289 20:23 27.01.2022
4102 Snow 1 1017 89 5392 7.53 282 18:24 27.01.2022
4103 Snow 1 1017 88 2809 7.29 268 17:26 27.01.2022
4104 Snow 0 1018 88 2396 6.88 257 14:25 27.01.2022
4105 Snow 0 1019 88 5197 6.57 252 13:19 27.01.2022
4106 Snow -1 1019 87 5063 6.13 247 12:25 27.01.2022
4107 Snow -2 1020 82 7463 6.29 241 09:56 27.01.2022
4108 Clouds -2 1021 83 10000 6.09 239 08:41 27.01.2022
4109 Clouds -2 1021 83 10000 6.25 238 08:18 27.01.2022
4110 Clouds -2 1024 88 9200 5.9 245 03:37 27.01.2022
4111 Clouds -2 1026 87 6100 4.99 251 00:25 27.01.2022
4112 Clouds -2 1027 87 6218 4.46 250 22:37 26.01.2022
4113 Clouds -2 1028 86 5834 4.09 251 21:44 26.01.2022
4114 Clouds -2 1028 87 5802 3.97 252 20:59 26.01.2022
4115 Clouds -2 1028 87 5802 3.97 252 20:35 26.01.2022
4116 Clouds -2 1028 90 5921 3.82 255 19:52 26.01.2022
4117 Clouds -2 1028 88 5636 4.16 260 19:18 26.01.2022
4118 Clouds -2 1029 86 7863 4.11 263 18:25 26.01.2022
4119 Clouds -2 1029 87 7863 4.11 263 17:49 26.01.2022
4120 Clouds -2 1029 87 9996 4.12 260 17:19 26.01.2022
4121 Clouds -2 1029 86 10000 3.8 260 16:26 26.01.2022
4122 Clouds -2 1029 84 10000 3.86 254 15:24 26.01.2022
4123 Clouds -3 1031 86 10000 3.91 265 12:52 26.01.2022
4124 Clouds -3 1031 87 10000 3.81 266 10:57 26.01.2022
4125 Clouds -3 1031 88 10000 3.02 256 09:59 26.01.2022
4126 Clouds -3 1031 87 10000 3.02 256 09:40 26.01.2022
4127 Clouds -3 1031 87 10000 1.73 244 07:28 26.01.2022
4128 Clouds -2 1032 90 10000 1.45 259 00:44 26.01.2022
4129 Clouds -2 1032 84 10000 1.21 244 23:44 25.01.2022
4130 Clouds -2 1033 90 10000 1.04 249 22:50 25.01.2022
4131 Clouds -2 1033 90 10000 1.11 260 22:21 25.01.2022
4132 Clouds -2 1033 89 10000 1.11 260 21:37 25.01.2022
4133 Clouds -2 1033 86 10000 0.93 250 20:46 25.01.2022
4134 Clouds -2 1033 87 10000 0.79 253 19:59 25.01.2022
4135 Clouds -2 1033 88 10000 0.79 253 19:40 25.01.2022
4136 Clouds -2 1032 87 10000 1.06 311 18:20 25.01.2022
4137 Clouds -1 1032 87 10000 1.06 311 17:40 25.01.2022
4138 Clouds -1 1032 83 10000 0.91 297 16:35 25.01.2022
4139 Clouds -1 1032 83 10000 0.92 302 15:44 25.01.2022
4140 Clouds -1 1032 82 10000 1.2 293 15:26 25.01.2022
4141 Clouds -1 1032 78 10000 1.2 293 14:57 25.01.2022
4142 Clouds -1 1033 90 10000 1.09 295 13:18 25.01.2022
4143 Clouds -1 1034 88 5342 0.67 319 10:00 25.01.2022
4144 Clouds -2 1034 87 5230 0.93 335 08:32 25.01.2022
4145 Clouds -1 1034 82 6703 1.06 321 07:28 25.01.2022
4146 Clouds -2 1034 86 7137 0.95 302 06:22 25.01.2022
4147 Clouds -1 1035 89 10000 0.51 242 01:34 25.01.2022
4148 Clouds -1 1034 89 10000 0.3 259 23:36 24.01.2022
4149 Clouds -1 1034 91 10000 0.49 256 23:18 24.01.2022
4150 Clouds -1 1034 91 10000 0.49 256 22:59 24.01.2022
4151 Clouds 0 1034 91 10000 0.49 256 22:41 24.01.2022
4152 Clouds 0 1034 91 10000 0.72 249 21:45 24.01.2022
4153 Clouds 0 1034 91 10000 1.26 251 21:26 24.01.2022
4154 Clouds 0 1034 90 10000 1.34 250 20:28 24.01.2022
4155 Clouds 0 1034 86 10000 1.34 250 19:39 24.01.2022
4156 Clouds 1 1034 85 10000 1.09 222 18:55 24.01.2022
4157 Clouds 0 1034 89 10000 0.99 213 17:44 24.01.2022
4158 Clouds 1 1034 93 10000 1.13 216 17:23 24.01.2022
4159 Clouds 1 1034 89 10000 1.13 216 16:32 24.01.2022
4160 Clouds 1 1034 89 10000 1.11 218 15:52 24.01.2022
4161 Clouds 1 1034 85 10000 1.45 203 14:27 24.01.2022
4162 Clouds 1 1034 88 10000 1.2 199 12:36 24.01.2022
4163 Clouds 1 1034 89 10000 0.96 196 11:45 24.01.2022
4164 Clouds 1 1035 89 10000 0.71 191 10:24 24.01.2022
4165 Clouds 1 1035 90 10000 0.71 191 09:46 24.01.2022
4166 Clouds 0 1035 95 10000 0.64 210 08:19 24.01.2022
4167 Clouds 1 1036 96 10000 0.53 132 02:33 24.01.2022
4168 Clouds 1 1036 95 10000 0.44 115 01:28 24.01.2022
4169 Clouds 1 1036 94 10000 0.4 129 00:34 24.01.2022
4170 Clouds 1 1036 93 10000 0.3 141 23:47 23.01.2022
4171 Clouds 1 1036 96 10000 0.41 4 22:21 23.01.2022
4172 Clouds 1 1036 96 10000 0.41 4 21:42 23.01.2022
4173 Clouds 1 1036 96 9694 0.63 321 21:24 23.01.2022
4174 Clouds 1 1036 96 8128 0.91 306 20:28 23.01.2022
4175 Clouds 1 1036 96 7914 1.07 309 19:21 23.01.2022
4176 Clouds 2 1036 92 7914 1.07 309 18:44 23.01.2022
4177 Clouds 2 1035 93 8456 1.14 308 17:27 23.01.2022
4178 Clouds 2 1035 92 8871 1.37 296 16:27 23.01.2022
4179 Clouds 2 1035 92 9298 1.56 290 14:54 23.01.2022
4180 Clouds 1 1035 94 10000 1.6 285 14:19 23.01.2022
4181 Clouds 1 1035 91 10000 1.83 289 12:49 23.01.2022
4182 Clouds 1 1035 91 10000 1.82 293 12:21 23.01.2022
4183 Clouds 1 1035 91 10000 1.82 293 11:51 23.01.2022
4184 Clouds 1 1035 92 10000 1.75 295 11:18 23.01.2022
4185 Clouds 0 1035 91 10000 1.67 285 10:26 23.01.2022
4186 Clouds 0 1035 91 10000 1.67 285 09:37 23.01.2022
4187 Clouds 0 1035 92 10000 1.7 281 08:51 23.01.2022
4188 Clouds 0 1033 94 9934 1.74 272 05:37 23.01.2022
4189 Clouds 0 1032 91 6833 2.04 284 01:46 23.01.2022
4190 Clouds 0 1032 91 6889 2.03 288 01:23 23.01.2022
4191 Clouds 0 1032 91 10000 2.36 294 00:23 23.01.2022
4192 Clouds 0 1032 91 10000 2.36 294 23:35 22.01.2022
4193 Clouds 0 1032 91 7727 2.52 298 22:34 22.01.2022
4194 Clouds 1 1032 93 7231 2.85 297 21:28 22.01.2022
4195 Clouds 1 1032 92 7550 3.07 303 19:51 22.01.2022
4196 Clouds 1 1031 92 10000 3.64 307 18:49 22.01.2022
4197 Clouds 1 1031 92 10000 3.8 305 17:59 22.01.2022
4198 Clouds 1 1031 93 10000 3.8 305 17:35 22.01.2022
4199 Clouds 1 1030 91 3319 3.69 304 16:55 22.01.2022
4200 Clouds 2 1030 92 2019 3.32 303 15:49 22.01.2022
4201 Clouds 2 1030 93 1993 3.36 304 14:58 22.01.2022
4202 Snow 2 1030 92 1707 2.86 301 13:42 22.01.2022
4203 Rain 2 1030 93 426 2.53 305 12:50 22.01.2022
4204 Snow 2 1030 94 93 1.82 300 12:28 22.01.2022
4205 Snow 2 1029 93 110 1.73 306 10:56 22.01.2022
4206 Snow 2 1029 94 138 2.04 320 10:29 22.01.2022
4207 Snow 1 1029 93 138 2.04 320 09:59 22.01.2022
4208 Clouds 1 1028 94 253 2.97 328 08:52 22.01.2022
4209 Clouds 1 1028 94 441 3.43 324 07:38 22.01.2022
4210 Snow 1 1026 94 81 4.56 311 04:52 22.01.2022
4211 Snow 0 1026 94 70 5.55 299 01:35 22.01.2022
4212 Snow 0 1025 93 594 4.96 296 23:38 21.01.2022
4213 Snow 0 1025 93 594 4.96 296 23:38 21.01.2022
4214 Snow -1 1026 93 1861 4.32 283 22:28 21.01.2022
4215 Snow -1 1027 91 30 3.53 274 20:22 21.01.2022
4216 Snow -2 1027 87 79 3.83 279 18:40 21.01.2022
4217 Clouds -2 1027 87 5841 4.47 288 17:31 21.01.2022
4218 Clouds -2 1028 85 8183 5.61 314 15:42 21.01.2022
4219 Clouds -1 1028 81 401 5.67 312 13:37 21.01.2022
4220 Clouds -2 1028 84 8209 6.62 315 12:38 21.01.2022
4221 Snow -2 1028 86 4960 6.15 318 11:28 21.01.2022
4222 Snow -3 1028 88 1627 5.46 309 10:19 21.01.2022
4223 Snow -4 1028 88 1621 3.96 289 08:24 21.01.2022
4224 Snow -4 1028 85 1373 3.26 277 06:57 21.01.2022
4225 Clouds -5 1027 81 10000 3.56 298 23:40 20.01.2022
4226 Clouds -5 1027 79 10000 3.7 307 22:41 20.01.2022
4227 Clouds -4 1026 82 10000 4.45 317 21:43 20.01.2022
4228 Clouds -4 1025 86 10000 5.66 324 20:56 20.01.2022
4229 Snow -4 1023 82 10000 7.82 314 19:21 20.01.2022
4230 Snow -4 1023 82 10000 7.82 314 18:51 20.01.2022
4231 Snow -4 1022 81 619 6.81 308 17:30 20.01.2022
4232 Snow -3 1021 81 697 7.2 311 15:45 20.01.2022
4233 Snow -3 1021 82 138 6.05 306 15:24 20.01.2022
4234 Snow -3 1021 85 504 7.1 309 13:42 20.01.2022
4235 Snow -3 1021 83 249 7.95 301 12:38 20.01.2022
4236 Snow -3 1021 84 162 6.79 299 11:57 20.01.2022
4237 Snow -3 1021 83 776 6.79 298 10:47 20.01.2022
4238 Snow -3 1020 82 149 6.43 301 09:42 20.01.2022
4239 Snow -3 1020 86 225 6.25 308 08:34 20.01.2022
4240 Snow -2 1017 89 77 7.4 276 05:38 20.01.2022
4241 Snow 0 1016 88 2844 6.88 281 23:42 19.01.2022
4242 Snow -1 1017 88 3072 6.31 272 22:37 19.01.2022
4243 Snow -1 1017 86 60 5.07 252 21:24 19.01.2022
4244 Snow -1 1017 87 60 5.07 252 20:51 19.01.2022
4245 Snow -1 1017 84 2638 5.21 247 19:58 19.01.2022
4246 Clouds -1 1017 80 5585 5.3 249 18:48 19.01.2022
4247 Clouds -1 1017 80 10000 5.84 249 17:50 19.01.2022
4248 Clouds -1 1018 80 10000 5.59 244 16:59 19.01.2022
4249 Clouds -1 1020 82 10000 5.07 237 14:42 19.01.2022
4250 Clouds 0 1022 81 10000 4.36 229 12:53 19.01.2022
4251 Clouds -1 1023 83 10000 3.86 228 11:43 19.01.2022
4252 Clouds -1 1024 83 10000 3.01 217 10:38 19.01.2022
4253 Clouds -2 1026 88 10000 2.36 215 09:34 19.01.2022
4254 Clouds -3 1028 86 10000 1.49 214 07:18 19.01.2022
4255 Clouds -2 1030 88 10000 1.51 168 05:19 19.01.2022
4256 Clouds 0 1035 79 10000 1.05 188 23:53 18.01.2022
4257 Clouds 0 1036 80 10000 1.15 188 23:18 18.01.2022
4258 Clouds 1 1036 83 10000 0.75 210 21:43 18.01.2022
4259 Clouds 1 1037 87 10000 0.81 253 19:57 18.01.2022
4260 Clouds 1 1037 87 10000 0.73 255 19:38 18.01.2022
4261 Clouds 1 1037 88 10000 1.15 268 19:18 18.01.2022
4262 Clouds 2 1036 87 10000 0.91 292 17:59 18.01.2022
4263 Clouds 2 1036 89 10000 1.11 313 17:29 18.01.2022
4264 Clouds 2 1036 84 10000 1.34 312 15:56 18.01.2022
4265 Clouds 3 1036 83 10000 1.72 302 15:24 18.01.2022
4266 Clouds 2 1037 85 10000 1.89 316 13:32 18.01.2022
4267 Clouds 1 1037 90 10000 2.37 316 10:49 18.01.2022
4268 Clouds 1 1036 88 10000 1.99 310 09:58 18.01.2022
4269 Clouds 0 1036 91 10000 2.22 312 08:19 18.01.2022
4270 Clouds 0 1036 90 10000 2.22 312 07:31 18.01.2022
4271 Clouds -1 1034 86 10000 4.46 311 00:22 18.01.2022
4272 Clouds -1 1034 83 10000 4.36 312 22:31 17.01.2022
4273 Clouds -1 1034 79 10000 4.53 313 21:36 17.01.2022
4274 Clouds -1 1033 80 10000 4.45 313 20:33 17.01.2022
4275 Clouds 0 1031 85 10000 5.18 321 18:42 17.01.2022
4276 Clouds 0 1030 88 10000 5.64 329 18:23 17.01.2022
4277 Snow 1 1028 87 9488 6.38 333 16:53 17.01.2022
4278 Clouds 2 1027 88 9281 7.33 323 15:31 17.01.2022
4279 Clouds 2 1025 89 4160 7.72 309 14:58 17.01.2022
4280 Snow 2 1025 88 3306 7.35 299 13:42 17.01.2022
4281 Clouds 2 1025 87 4466 7.78 284 12:58 17.01.2022
4282 Clouds 1 1025 89 5079 7.24 285 11:51 17.01.2022
4283 Clouds 0 1025 87 5069 7.33 281 10:47 17.01.2022
4284 Clouds 0 1025 86 5105 7.54 280 09:35 17.01.2022
4285 Clouds 0 1025 87 5399 7.7 277 08:43 17.01.2022
4286 Clouds 1 1025 79 10000 8.65 281 07:19 17.01.2022
4287 Clouds 1 1025 88 2223 6.8 273 00:58 17.01.2022
4288 Clouds 0 1025 86 2056 6.17 268 23:27 16.01.2022
4289 Clouds 0 1024 85 5057 5.97 262 20:41 16.01.2022
4290 Clouds 0 1024 83 5052 5.62 263 19:55 16.01.2022
4291 Clouds 0 1024 84 5293 5.64 264 18:45 16.01.2022
4292 Clouds 0 1023 83 5244 5.79 266 17:46 16.01.2022
4293 Clouds 0 1023 85 5556 5.61 268 16:50 16.01.2022
4294 Snow -1 1022 88 5316 5.73 267 15:39 16.01.2022
4295 Clouds -1 1022 88 2052 5.44 260 14:29 16.01.2022
4296 Clouds -2 1022 88 10000 5.07 258 12:57 16.01.2022
4297 Clouds -2 1022 87 10000 5.01 254 11:49 16.01.2022
4298 Clouds -2 1022 87 10000 4 250 10:58 16.01.2022
4299 Clouds -2 1022 87 10000 3.07 243 10:27 16.01.2022
4300 Clouds -2 1022 86 10000 3.07 243 09:57 16.01.2022
4301 Clouds -3 1022 89 7394 2.28 235 09:23 16.01.2022
4302 Clouds -3 1022 89 7394 2.28 235 08:52 16.01.2022
4303 Clouds -3 1022 89 9975 1.97 236 05:35 16.01.2022
4304 Clouds -2 1025 88 10000 1.17 188 23:51 15.01.2022
4305 Clouds -2 1026 87 10000 1.14 184 22:37 15.01.2022
4306 Clouds -2 1027 87 10000 1.17 171 21:21 15.01.2022
4307 Clouds -2 1027 87 10000 1.17 171 20:43 15.01.2022
4308 Clouds -2 1027 87 10000 1.17 160 19:52 15.01.2022
4309 Clouds -2 1027 87 10000 1.04 159 19:19 15.01.2022
4310 Clear -1 1028 83 10000 1.19 147 17:35 15.01.2022
4311 Clear 0 1028 85 10000 0.95 150 16:38 15.01.2022
4312 Clear 0 1028 83 10000 0.77 181 13:57 15.01.2022
4313 Clouds 0 1030 83 10000 0.78 180 12:23 15.01.2022
4314 Clouds 0 1030 86 10000 0.61 200 11:18 15.01.2022
4315 Clouds -1 1031 90 10000 0.27 291 08:36 15.01.2022
4316 Clouds 0 1032 93 5386 1.39 279 00:49 15.01.2022
4317 Clouds 0 1033 92 5149 1.76 288 21:57 14.01.2022
4318 Clouds 0 1033 91 5117 1.91 284 20:42 14.01.2022
4319 Clouds 0 1033 91 5135 1.98 280 20:23 14.01.2022
4320 Clouds 0 1033 92 5135 1.98 280 19:40 14.01.2022
4321 Clouds 0 1032 91 5818 2.12 269 18:27 14.01.2022
4322 Clouds 0 1033 90 6320 2.41 271 16:50 14.01.2022
4323 Clouds 0 1032 89 7166 2.55 270 15:48 14.01.2022
4324 Clouds 0 1032 88 7371 2.85 269 14:46 14.01.2022
4325 Clouds 0 1032 88 10000 3.14 272 13:47 14.01.2022
4326 Clouds -1 1033 87 10000 3.04 268 12:31 14.01.2022
4327 Clouds -1 1034 87 10000 2.8 277 11:27 14.01.2022
4328 Clouds -2 1034 84 10000 2.66 278 09:50 14.01.2022
4329 Clouds -2 1034 81 9867 2.63 270 08:51 14.01.2022
4330 Clouds -2 1033 86 9838 2.85 260 07:21 14.01.2022
4331 Clouds -2 1035 96 9943 3.04 263 01:37 14.01.2022
4332 Clouds -2 1036 96 9833 3.05 256 23:32 13.01.2022
4333 Clouds -2 1037 97 9831 2.79 258 21:40 13.01.2022
4334 Clouds -2 1037 96 9866 2.74 260 21:22 13.01.2022
4335 Clouds -1 1037 97 10000 2.86 260 19:41 13.01.2022
4336 Clouds -1 1037 97 10000 3.04 259 19:22 13.01.2022
4337 Clouds -1 1037 97 9159 2.91 254 17:54 13.01.2022
4338 Clouds -1 1037 97 10000 2.95 250 16:22 13.01.2022
4339 Clouds -1 1037 97 10000 2.95 250 15:37 13.01.2022
4340 Clouds -1 1037 97 10000 3.16 251 14:49 13.01.2022
4341 Clouds 0 1038 97 10000 3.55 259 12:46 13.01.2022
4342 Clouds -2 1039 97 10000 2.68 256 10:25 13.01.2022
4343 Clouds -3 1039 97 10000 2.41 255 09:20 13.01.2022
4344 Clouds -2 1039 89 10000 2.43 257 08:27 13.01.2022
4345 Clouds -2 1039 92 10000 2.47 258 07:24 13.01.2022
4346 Clouds -3 1039 97 10000 2.47 258 06:38 13.01.2022
4347 Clouds -2 1039 90 10000 2.36 259 05:20 13.01.2022
4348 Clouds -2 1039 88 10000 2.34 261 02:33 13.01.2022
4349 Clouds -2 1040 87 10000 2.18 255 00:56 13.01.2022
4350 Clouds -2 1040 82 7712 1.76 252 23:50 12.01.2022
4351 Clouds -2 1040 83 8818 1.95 251 23:29 12.01.2022
4352 Clouds -2 1040 85 7821 1.79 247 21:58 12.01.2022
4353 Clouds -1 1040 81 7273 1.67 252 21:23 12.01.2022
4354 Clouds -1 1040 82 7273 1.67 252 20:57 12.01.2022
4355 Clouds -1 1040 86 7128 1.4 255 20:19 12.01.2022
4356 Clouds -1 1039 88 7646 1.54 261 18:48 12.01.2022
4357 Clouds -1 1038 89 7457 1.7 255 17:51 12.01.2022
4358 Clouds -1 1038 85 10000 1.54 262 16:42 12.01.2022
4359 Clouds -1 1038 89 7680 2.04 273 14:49 12.01.2022
4360 Clouds -1 1038 89 10000 1.72 258 13:37 12.01.2022
4361 Clouds -1 1038 85 10000 1.58 257 12:35 12.01.2022
4362 Clouds -2 1037 80 10000 1.6 250 08:50 12.01.2022
4363 Clouds -2 1037 79 10000 1.65 265 07:55 12.01.2022
4364 Clouds -2 1037 78 10000 1.65 265 07:32 12.01.2022
4365 Clouds -3 1036 85 10000 1.28 217 01:34 12.01.2022
4366 Clouds -3 1037 84 10000 0.93 207 23:25 11.01.2022
4367 Clouds -3 1036 87 10000 0.95 194 22:24 11.01.2022
4368 Clouds -3 1036 87 10000 0.76 190 21:28 11.01.2022
4369 Clouds -3 1036 89 10000 0.76 190 20:35 11.01.2022
4370 Clouds -3 1036 88 10000 0.58 164 19:23 11.01.2022
4371 Clouds -2 1035 89 10000 0.36 148 17:46 11.01.2022
4372 Clouds -1 1035 90 10000 0.22 212 16:39 11.01.2022
4373 Clouds -1 1034 91 10000 0.43 234 16:18 11.01.2022
4374 Clouds 0 1034 90 10000 0.52 240 14:48 11.01.2022
4375 Clouds 0 1034 89 10000 0.52 240 14:30 11.01.2022
4376 Clouds 0 1034 82 10000 0.72 191 13:46 11.01.2022
4377 Clouds 0 1034 87 10000 0.71 178 13:25 11.01.2022
4378 Clouds 0 1034 84 10000 0.62 136 12:24 11.01.2022
4379 Clouds -2 1034 92 10000 0.57 124 10:26 11.01.2022
4380 Clouds -1 1033 92 10000 0.47 112 07:50 11.01.2022
4381 Clouds -1 1032 93 7957 0.64 93 03:47 11.01.2022
4382 Clouds -2 1031 95 6869 0.44 78 00:25 11.01.2022
4383 Clouds -1 1031 95 6869 0.44 78 23:38 10.01.2022
4384 Clouds -1 1030 94 5634 0.56 351 22:20 10.01.2022
4385 Clouds -1 1030 94 5634 0.56 351 21:57 10.01.2022
4386 Clouds -1 1030 94 5634 0.56 351 21:33 10.01.2022
4387 Clouds -1 1030 94 5800 0.8 351 20:58 10.01.2022
4388 Clouds -1 1030 94 5800 0.8 351 20:36 10.01.2022
4389 Clouds -1 1029 94 10000 1.05 357 20:18 10.01.2022
4390 Clouds -1 1029 96 10000 1.05 357 19:37 10.01.2022
4391 Clouds -1 1028 94 10000 1.1 20 19:18 10.01.2022
4392 Clouds -1 1028 91 10000 1.1 20 18:46 10.01.2022
4393 Clouds 0 1026 89 10000 0.63 5 16:48 10.01.2022
4394 Clouds 0 1025 94 10000 0.88 335 16:26 10.01.2022
4395 Clouds 1 1024 94 7173 1.11 319 14:43 10.01.2022
4396 Clouds 1 1022 94 10000 1.24 312 13:22 10.01.2022
4397 Clouds 0 1021 94 7563 1.23 299 11:56 10.01.2022
4398 Clouds 0 1020 93 5512 1.03 291 10:48 10.01.2022
4399 Clouds -1 1019 95 5250 1.06 275 09:37 10.01.2022
4400 Clouds -1 1015 91 5223 1.49 264 05:51 10.01.2022
4401 Clouds -1 1011 93 5283 1.88 255 02:32 10.01.2022
4402 Clouds -1 1010 91 5312 2.22 260 01:21 10.01.2022
4403 Clouds -1 1009 90 5109 2.13 251 00:20 10.01.2022
4404 Clouds -1 1008 90 5077 2.45 254 22:47 09.01.2022
4405 Clouds -1 1007 90 5063 2.9 255 22:18 09.01.2022
4406 Clouds -1 1007 90 5063 2.9 255 21:41 09.01.2022
4407 Clouds -1 1007 90 5063 2.9 255 21:41 09.01.2022
4408 Snow -1 1006 87 4995 3.42 254 21:22 09.01.2022
4409 Snow -1 1006 87 4995 3.42 254 20:47 09.01.2022
4410 Clouds -1 1005 87 5052 3.87 255 20:28 09.01.2022
4411 Clouds -1 1005 88 5052 3.87 255 19:41 09.01.2022
4412 Clouds -1 1004 88 5182 4.24 259 19:21 09.01.2022
4413 Clouds -1 1004 88 5073 4 255 18:41 09.01.2022
4414 Clouds -1 1002 89 5442 4.71 261 18:23 09.01.2022
4415 Clouds 0 1002 89 5442 4.71 261 17:30 09.01.2022
4416 Clouds -1 1001 89 5276 5.62 264 16:50 09.01.2022
4417 Snow -1 1000 90 1956 6.1 262 15:52 09.01.2022
4418 Snow -1 1000 90 1956 6.1 262 15:33 09.01.2022
4419 Snow -1 999 90 156 6.39 262 14:39 09.01.2022
4420 Snow -1 998 90 58 6.79 265 13:49 09.01.2022
4421 Snow -1 996 89 47 5.31 268 12:26 09.01.2022
4422 Snow -2 996 88 47 5.31 268 11:47 09.01.2022
4423 Snow -2 994 91 36 3.12 249 09:56 09.01.2022
4424 Clouds -2 993 89 327 2.52 213 09:29 09.01.2022
4425 Snow -2 992 90 436 3.29 191 08:25 09.01.2022
4426 Snow -1 993 78 5265 4.13 171 02:31 09.01.2022
4427 Clouds -2 996 78 8673 4.94 184 01:20 09.01.2022
4428 Clouds -2 997 79 7692 5.01 181 23:38 08.01.2022
4429 Clouds -2 998 78 8277 5.28 184 22:59 08.01.2022
4430 Snow -2 1000 83 5261 5.21 186 21:33 08.01.2022
4431 Clouds -2 1002 78 5653 5.41 188 20:45 08.01.2022
4432 Clouds -2 1003 77 10000 5.71 194 20:23 08.01.2022
4433 Clouds -2 1003 77 10000 5.71 194 19:55 08.01.2022
4434 Clouds -3 1006 80 10000 4.77 193 17:51 08.01.2022
4435 Clouds -2 1007 79 10000 4.47 203 17:21 08.01.2022
4436 Clouds -2 1008 75 10000 4.96 214 15:47 08.01.2022
4437 Clouds -1 1009 81 10000 5.27 220 14:40 08.01.2022
4438 Clouds -2 1010 89 10000 3.46 231 12:44 08.01.2022
4439 Clouds -2 1011 89 10000 3.15 248 10:59 08.01.2022
4440 Clouds -3 1010 90 10000 2.85 246 10:25 08.01.2022
4441 Clouds -3 1010 89 10000 2.85 246 09:44 08.01.2022
4442 Clouds -3 1010 91 10000 1.36 210 07:19 08.01.2022
4443 Clouds -3 1010 92 10000 3.26 228 02:39 08.01.2022
4444 Snow -2 1010 85 5293 4.24 238 00:41 08.01.2022
4445 Snow -2 1011 92 1876 3.86 229 22:40 07.01.2022
4446 Snow -2 1011 91 2896 3.22 202 20:56 07.01.2022
4447 Clouds -2 1011 88 4793 3.16 202 19:56 07.01.2022
4448 Clouds -2 1011 88 4793 3.16 202 19:56 07.01.2022
4449 Clouds -2 1011 83 9706 3.1 210 18:58 07.01.2022
4450 Clouds -2 1011 89 5191 2.74 201 18:38 07.01.2022
4451 Snow -2 1012 88 5144 3.42 222 17:25 07.01.2022
4452 Clouds -2 1012 89 5343 3.91 231 16:23 07.01.2022
4453 Snow -2 1012 89 5866 4.61 226 13:53 07.01.2022
4454 Snow -2 1012 90 5163 4.84 229 13:21 07.01.2022
4455 Snow -2 1012 89 5098 4.57 228 12:49 07.01.2022
4456 Snow -3 1013 85 4703 5.37 217 09:37 07.01.2022
4457 Clouds -4 1017 87 10000 3.68 211 02:55 07.01.2022
4458 Clouds -4 1018 83 10000 2.99 208 01:54 07.01.2022
4459 Clouds -4 1019 82 10000 2.56 202 01:27 07.01.2022
4460 Clouds -5 1018 81 10000 2.66 205 00:58 07.01.2022
4461 Clouds -5 1020 87 10000 2.19 195 22:54 06.01.2022
4462 Clouds -5 1020 88 10000 1.69 199 21:28 06.01.2022
4463 Clouds -4 1020 91 10000 1.59 208 20:22 06.01.2022
4464 Clouds -4 1020 91 10000 1.59 208 19:45 06.01.2022
4465 Clouds -4 1020 90 10000 1.3 237 18:29 06.01.2022
4466 Clouds -3 1020 90 10000 1.3 237 17:40 06.01.2022
4467 Clouds -2 1020 88 10000 1.41 241 16:44 06.01.2022
4468 Clouds -2 1019 85 10000 2.01 249 15:47 06.01.2022
4469 Clouds -1 1018 78 10000 2.61 258 15:26 06.01.2022
4470 Clouds -1 1018 77 10000 2.61 258 14:45 06.01.2022
4471 Clouds -1 1018 76 10000 3.29 267 14:18 06.01.2022
4472 Clouds -1 1018 82 10000 3.51 262 12:50 06.01.2022
4473 Clouds -2 1017 86 10000 2.69 274 11:43 06.01.2022
4474 Clouds -3 1017 86 10000 2.32 282 11:22 06.01.2022
4475 Clouds -5 1016 90 10000 1.41 272 08:52 06.01.2022
4476 Snow -1 1009 83 4559 6.13 296 01:37 06.01.2022
4477 Clouds -1 1008 85 8687 5.87 285 23:38 05.01.2022
4478 Clouds 0 1007 90 10000 6.54 285 22:59 05.01.2022
4479 Clouds 0 1007 86 10000 6.54 285 22:33 05.01.2022
4480 Clouds 0 1006 84 10000 6.57 291 21:52 05.01.2022
4481 Clouds 0 1005 85 8039 7.05 287 21:21 05.01.2022
4482 Snow 0 1004 86 5895 7.2 283 20:19 05.01.2022
4483 Snow 0 1003 88 10000 7.53 278 18:54 05.01.2022
4484 Clouds -1 1002 87 10000 7.52 275 17:45 05.01.2022
4485 Clouds -1 1002 88 10000 7.1 271 16:56 05.01.2022
4486 Snow -1 1001 86 5080 7.02 264 15:46 05.01.2022
4487 Snow -2 1000 87 1925 7.18 242 14:28 05.01.2022
4488 Snow -2 1000 87 1925 7.18 242 13:32 05.01.2022
4489 Clouds -1 1001 83 10000 7.07 247 11:45 05.01.2022
4490 Clouds -2 1000 87 10000 6.5 263 08:20 05.01.2022
4491 Clouds -2 999 82 10000 4.95 264 06:25 05.01.2022
4492 Snow 0 998 91 3829 2.13 285 00:59 05.01.2022
4493 Snow 1 997 85 2378 1.86 272 23:38 04.01.2022
4494 Snow 1 997 86 5047 1.83 265 23:18 04.01.2022
4495 Clouds 1 997 88 5202 1.76 276 21:31 04.01.2022
4496 Rain 1 996 89 3283 3.56 274 19:55 04.01.2022
4497 Rain 2 995 89 4094 3.65 253 18:19 04.01.2022
4498 Clouds 3 995 85 4339 3.36 253 16:53 04.01.2022
4499 Clouds 3 995 85 4339 3.36 253 16:30 04.01.2022
4500 Clouds 3 995 89 10000 3.39 250 14:58 04.01.2022
4501 Clouds 3 995 84 10000 3.39 250 14:36 04.01.2022
4502 Clouds 3 995 84 10000 2.89 253 13:48 04.01.2022
4503 Rain 3 996 90 10000 2.79 238 10:59 04.01.2022
4504 Rain 3 996 89 10000 2.84 230 09:58 04.01.2022
4505 Rain 2 997 90 10000 3.06 232 08:35 04.01.2022
4506 Clouds 3 1000 79 10000 2.92 250 04:24 04.01.2022
4507 Clouds 4 1003 81 10000 4.66 237 00:42 04.01.2022
4508 Clouds 4 1004 82 10000 4.41 234 23:44 03.01.2022
4509 Clouds 3 1005 81 10000 4.7 232 22:21 03.01.2022
4510 Clouds 4 1005 87 10000 4.7 232 21:38 03.01.2022
4511 Clouds 4 1006 88 10000 4.9 233 20:34 03.01.2022
4512 Clouds 4 1007 90 10000 5.66 241 18:54 03.01.2022
4513 Clouds 4 1008 89 10000 5.99 244 18:29 03.01.2022
4514 Rain 5 1008 83 10000 6.18 243 17:20 03.01.2022
4515 Clouds 5 1008 77 10000 6.16 244 16:28 03.01.2022
4516 Clouds 5 1009 79 10000 6.45 249 14:31 03.01.2022
4517 Rain 5 1010 81 10000 6.45 246 12:52 03.01.2022
4518 Clouds 6 1010 73 10000 6.9 245 11:50 03.01.2022
4519 Clouds 5 1011 75 10000 6.88 249 10:37 03.01.2022
4520 Clouds 5 1011 79 10000 7.12 256 09:27 03.01.2022
4521 Clouds 4 1011 85 10000 7.51 259 07:52 03.01.2022
4522 Clouds 5 1008 83 10000 8.76 252 02:28 03.01.2022
4523 Rain 5 1009 86 5948 5.96 231 23:23 02.01.2022
4524 Clouds 6 1009 84 5948 5.96 231 22:56 02.01.2022
4525 Clouds 6 1011 81 10000 6.31 239 21:52 02.01.2022
4526 Clouds 6 1011 81 10000 6.34 243 20:50 02.01.2022
4527 Clouds 7 1011 78 10000 6.14 246 20:29 02.01.2022
4528 Clouds 7 1011 80 10000 6.14 246 19:31 02.01.2022
4529 Clouds 7 1012 80 10000 6.61 250 18:55 02.01.2022
4530 Clouds 7 1011 77 10000 6.34 249 17:56 02.01.2022
4531 Clouds 7 1011 77 10000 6.34 249 17:38 02.01.2022
4532 Clouds 7 1011 78 10000 6.71 246 17:20 02.01.2022
4533 Clouds 7 1012 78 10000 6.4 236 16:27 02.01.2022
4534 Clouds 7 1011 81 10000 6.44 237 14:41 02.01.2022
4535 Clouds 7 1011 81 10000 6.44 237 14:41 02.01.2022
4536 Clouds 8 1012 74 10000 5.83 219 13:25 02.01.2022
4537 Clouds 7 1012 83 10000 6.2 222 12:31 02.01.2022
4538 Clouds 6 1013 91 10000 5.19 216 11:41 02.01.2022
4539 Clouds 6 1014 89 10000 2.8 200 10:53 02.01.2022
4540 Rain 6 1015 87 10000 2.76 195 09:56 02.01.2022
4541 Rain 6 1016 87 10000 2.87 206 07:34 02.01.2022
4542 Clouds 5 1019 85 10000 2.67 214 02:51 02.01.2022
4543 Clouds 5 1021 85 10000 2.36 198 23:42 01.01.2022
4544 Clouds 5 1022 85 10000 2.33 206 23:24 01.01.2022
4545 Clouds 6 1023 84 10000 2.19 196 22:25 01.01.2022
4546 Clouds 6 1023 81 10000 2.19 196 21:45 01.01.2022
4547 Clouds 6 1023 83 10000 2.06 201 21:21 01.01.2022
4548 Clouds 7 1023 80 10000 2.08 207 20:20 01.01.2022
4549 Clouds 7 1023 79 10000 2.08 207 19:33 01.01.2022
4550 Clouds 7 1024 76 10000 2.11 201 18:51 01.01.2022
4551 Clouds 7 1024 78 10000 2.03 206 17:38 01.01.2022
4552 Clouds 8 1024 83 10000 1.98 198 16:34 01.01.2022
4553 Clouds 8 1024 81 10000 1.99 211 15:33 01.01.2022
4554 Clouds 9 1024 82 10000 2.76 232 14:22 01.01.2022
4555 Clouds 9 1024 77 10000 2.76 232 13:35 01.01.2022
4556 Clouds 9 1024 82 10000 3.68 257 12:18 01.01.2022
4557 Clouds 8 1024 84 10000 3.98 259 11:25 01.01.2022
4558 Clouds 8 1024 85 10000 3.98 259 10:56 01.01.2022
4559 Clouds 8 1024 84 10000 4.19 258 09:48 01.01.2022
4560 Clouds 8 1024 84 10000 4.54 259 08:35 01.01.2022
4561 Clouds 8 1023 84 7525 4.31 261 07:56 01.01.2022
4562 Clouds 8 1023 84 7525 4.31 261 07:37 01.01.2022
4563 Clouds 8 1023 84 10000 4.74 263 06:43 01.01.2022
4564 Clouds 8 1022 85 10000 5.45 262 04:39 01.01.2022
4565 Clouds 8 1022 86 10000 5.2 257 03:50 01.01.2022
4566 Clouds 8 1021 88 7859 5.83 264 23:53 31.12.2021
4567 Clouds 8 1019 89 5333 6 270 22:24 31.12.2021
4568 Clouds 8 1019 87 5333 6 270 21:39 31.12.2021
4569 Clouds 8 1018 85 10000 6.8 269 19:43 31.12.2021
4570 Clouds 8 1017 91 10000 6.31 266 18:50 31.12.2021
4571 Clouds 8 1017 84 10000 7.05 269 17:49 31.12.2021
4572 Clouds 8 1016 84 10000 6.66 256 17:26 31.12.2021
4573 Clouds 8 1016 84 10000 6.66 256 16:52 31.12.2021
4574 Clouds 9 1015 81 10000 6.7 251 16:18 31.12.2021
4575 Clouds 9 1015 80 10000 6.7 251 15:45 31.12.2021
4576 Clouds 9 1016 80 10000 6.41 249 15:26 31.12.2021
4577 Clouds 9 1016 80 10000 6.41 249 15:26 31.12.2021
4578 Clouds 9 1016 79 10000 6.41 249 14:39 31.12.2021
4579 Clouds 9 1016 79 10000 6.57 247 13:51 31.12.2021
4580 Clouds 10 1017 79 10000 7.03 244 12:50 31.12.2021
4581 Clouds 9 1017 83 10000 6.58 241 12:21 31.12.2021
4582 Clouds 9 1017 85 10000 6.58 241 11:42 31.12.2021
4583 Clouds 9 1017 82 10000 6.13 241 10:55 31.12.2021
4584 Clouds 8 1017 86 10000 5.8 239 10:28 31.12.2021
4585 Clouds 8 1017 85 10000 5.8 239 09:34 31.12.2021
4586 Clouds 9 1017 84 10000 6.09 241 08:52 31.12.2021
4587 Clouds 9 1017 83 10000 6.15 240 07:55 31.12.2021
4588 Clouds 8 1017 88 10000 5.49 241 04:54 31.12.2021
4589 Clouds 9 1017 91 10000 5.76 244 23:18 30.12.2021
4590 Clouds 9 1017 90 10000 5.76 244 22:32 30.12.2021
4591 Clouds 9 1016 91 10000 5.75 245 21:39 30.12.2021
4592 Clouds 9 1016 91 9694 5.4 244 21:19 30.12.2021
4593 Clouds 9 1016 91 9694 5.4 244 20:39 30.12.2021
4594 Clouds 9 1016 91 10000 5.47 248 19:56 30.12.2021
4595 Clouds 9 1016 91 10000 5.47 248 19:31 30.12.2021
4596 Clouds 9 1015 93 10000 6.19 254 18:28 30.12.2021
4597 Clouds 9 1014 90 10000 6.64 255 16:53 30.12.2021
4598 Clouds 9 1014 88 10000 7.2 258 15:54 30.12.2021
4599 Clouds 9 1013 88 10000 7.27 258 15:21 30.12.2021
4600 Clouds 9 1013 89 10000 7.27 258 14:36 30.12.2021
4601 Clouds 9 1013 92 3058 6.05 253 13:25 30.12.2021
4602 Clouds 9 1013 92 3058 6.05 253 13:25 30.12.2021
4603 Clouds 7 1013 91 5119 6.1 240 11:58 30.12.2021
4604 Clouds 7 1013 91 2837 4.87 232 10:40 30.12.2021
4605 Clouds 6 1013 92 3401 4.13 230 09:49 30.12.2021
4606 Clouds 6 1013 87 10000 4.84 248 06:59 30.12.2021
4607 Clouds 6 1013 87 10000 4.84 248 06:32 30.12.2021
4608 Clouds 6 1011 90 10000 5.81 264 03:41 30.12.2021
4609 Clouds 5 1010 91 5227 5.47 265 02:32 30.12.2021
4610 Clouds 3 1008 93 4911 3.13 230 23:39 29.12.2021
4611 Clouds 3 1008 93 5144 2.48 210 22:59 29.12.2021
4612 Clouds 3 1008 92 5307 2.07 214 22:18 29.12.2021
4613 Clouds 3 1007 95 2631 1.92 187 21:19 29.12.2021
4614 Clouds 2 1007 95 2631 1.92 187 20:30 29.12.2021
4615 Clouds 2 1007 95 2631 1.92 187 20:30 29.12.2021
4616 Clouds 2 1007 95 2631 1.92 187 20:30 29.12.2021
4617 Clouds 2 1007 95 2631 1.92 187 20:30 29.12.2021
4618 Clouds 3 1007 93 8404 1.98 203 19:38 29.12.2021
4619 Clouds 3 1008 94 8117 2.14 202 18:44 29.12.2021
4620 Clouds 3 1009 95 8217 1.78 208 17:52 29.12.2021
4621 Clouds 3 1009 95 10000 2.3 234 17:27 29.12.2021
4622 Clouds 3 1008 96 7656 2.85 249 16:22 29.12.2021
4623 Clouds 4 1008 94 5263 3.34 256 15:26 29.12.2021
4624 Clouds 4 1007 93 2077 3.74 257 13:53 29.12.2021
4625 Clouds 4 1007 92 2029 3.44 279 12:36 29.12.2021
4626 Clouds 4 1006 93 2374 4.06 274 11:26 29.12.2021
4627 Clouds 3 1005 92 1983 4.11 277 09:56 29.12.2021
4628 Clouds 3 1003 93 391 3.2 266 07:51 29.12.2021
4629 Clouds 2 1002 94 5188 1.86 239 06:38 29.12.2021
4630 Rain 2 1002 93 4952 1.75 222 05:58 29.12.2021
4631 Rain 2 1002 96 4952 1.75 222 05:36 29.12.2021
4632 Clouds 1 999 91 5450 1.21 235 02:22 29.12.2021
4633 Clouds 1 997 93 9942 0.86 194 00:22 29.12.2021
4634 Clouds 1 997 90 9942 0.86 194 23:34 28.12.2021
4635 Rain 1 996 90 10000 1.47 183 22:42 28.12.2021
4636 Rain 2 995 93 10000 2.43 209 22:24 28.12.2021
4637 Rain 2 995 92 10000 2.43 209 21:36 28.12.2021
4638 Clouds 2 995 92 10000 3.09 219 20:36 28.12.2021
4639 Rain 2 994 91 10000 2.95 242 19:24 28.12.2021
4640 Clouds 1 994 92 10000 3.59 239 18:37 28.12.2021
4641 Clouds 2 994 92 9268 4.51 229 17:59 28.12.2021
4642 Rain 1 994 90 4628 2.35 182 16:34 28.12.2021
4643 Rain 2 994 90 4164 2.41 170 15:50 28.12.2021
4644 Clouds 2 994 89 5318 3.25 176 15:20 28.12.2021
4645 Clouds 2 994 89 5318 3.25 176 14:47 28.12.2021
4646 Clouds 2 995 90 5453 3.21 174 14:21 28.12.2021
4647 Clouds 2 995 88 5453 3.21 174 13:42 28.12.2021
4648 Clouds 2 995 88 5453 3.21 174 13:42 28.12.2021
4649 Clouds 2 996 88 5432 3.5 173 13:24 28.12.2021
4650 Clouds 2 996 85 5144 3.5 173 12:49 28.12.2021
4651 Clouds 1 997 95 5516 3.64 176 11:36 28.12.2021
4652 Clouds -1 999 90 5145 2.13 172 08:30 28.12.2021
4653 Clouds -1 999 92 5100 1.92 156 06:42 28.12.2021
4654 Clouds -2 1003 98 5320 2.17 157 23:44 27.12.2021
4655 Clouds -2 1004 83 5215 1.88 159 23:23 27.12.2021
4656 Clouds -2 1004 84 5235 2.08 168 21:42 27.12.2021
4657 Clouds -1 1004 83 5236 1.9 159 21:20 27.12.2021
4658 Clouds -2 1004 87 5201 1.95 162 20:23 27.12.2021
4659 Clouds -2 1004 86 5201 1.95 162 19:41 27.12.2021
4660 Clouds -2 1004 90 5161 1.82 161 18:34 27.12.2021
4661 Clouds -2 1004 90 5262 1.76 163 17:48 27.12.2021
4662 Clouds -2 1003 87 5498 1.68 157 16:40 27.12.2021
4663 Clouds -2 1004 87 5436 1.7 158 15:52 27.12.2021
4664 Clouds -2 1003 86 5585 1.66 156 14:33 27.12.2021
4665 Clouds -2 1004 84 5661 1.58 160 13:40 27.12.2021
4666 Clouds -2 1004 85 5524 1.56 164 12:40 27.12.2021
4667 Clouds -3 1005 90 5278 1.5 156 10:32 27.12.2021
4668 Clouds -4 1005 90 5233 1.65 153 09:47 27.12.2021
4669 Clouds -4 1005 90 5485 1.69 153 08:39 27.12.2021
4670 Clouds -5 1005 90 6660 1.62 150 07:32 27.12.2021
4671 Snow -6 1008 84 5986 1.86 136 02:24 27.12.2021
4672 Clouds -7 1008 83 10000 1.92 134 23:58 26.12.2021
4673 Clouds -7 1008 82 10000 1.92 134 23:40 26.12.2021
4674 Clouds -7 1009 82 10000 1.89 131 22:36 26.12.2021
4675 Clouds -7 1010 74 7607 1.92 129 20:59 26.12.2021
4676 Clouds -8 1010 73 10000 1.9 128 19:49 26.12.2021
4677 Clouds -9 1011 85 10000 1.96 133 18:25 26.12.2021
4678 Clouds -9 1011 83 10000 1.96 133 17:30 26.12.2021
4679 Clear -8 1011 70 10000 2.27 119 14:32 26.12.2021
4680 Clear -8 1011 68 10000 2.41 114 13:43 26.12.2021
4681 Clear -8 1012 67 10000 2.5 114 13:20 26.12.2021
4682 Clear -8 1012 69 10000 2.39 114 12:33 26.12.2021
4683 Clear -10 1013 50 10000 2.34 111 10:48 26.12.2021
4684 Clear -13 1013 83 10000 1.88 115 09:29 26.12.2021
4685 Clear -12 1013 82 10000 1.88 115 08:44 26.12.2021
4686 Clear -13 1013 76 10000 1.82 115 07:59 26.12.2021
4687 Clear -13 1014 65 10000 2.11 108 01:36 26.12.2021
4688 Clear -14 1015 70 10000 2 107 00:20 26.12.2021
4689 Clear -13 1015 69 10000 1.97 109 23:28 25.12.2021
4690 Clear -11 1015 56 10000 1.93 107 22:29 25.12.2021
4691 Clear -12 1015 66 10000 1.93 103 21:29 25.12.2021
4692 Clear -12 1015 71 10000 1.93 105 19:46 25.12.2021
4693 Clear -12 1015 81 10000 1.86 104 19:18 25.12.2021
4694 Clear -12 1014 85 10000 2.01 94 18:26 25.12.2021
4695 Clear -10 1014 70 10000 2 87 16:49 25.12.2021
4696 Clear -8 1014 58 10000 2.06 84 15:30 25.12.2021
4697 Clear -7 1013 59 10000 2.79 86 14:22 25.12.2021
4698 Clouds -8 1013 71 10000 3 84 12:21 25.12.2021
4699 Clouds -8 1013 75 10000 3.06 84 10:38 25.12.2021
4700 Clouds -9 1013 80 10000 2.95 83 09:48 25.12.2021
4701 Clouds -9 1011 82 10000 2.6 78 07:27 25.12.2021
4702 Snow -5 1009 93 2095 2.55 60 01:40 25.12.2021
4703 Snow -5 1009 92 204 2.67 50 00:21 25.12.2021
4704 Snow -4 1007 92 187 2.72 46 21:57 24.12.2021
4705 Snow -3 1004 94 23 1.31 346 19:27 24.12.2021
4706 Snow -3 1004 93 23 1.31 346 18:56 24.12.2021
4707 Snow -1 1004 92 28 1.51 342 16:49 24.12.2021
4708 Snow 1 1003 94 55 2.76 330 15:50 24.12.2021
4709 Clouds 2 1001 95 178 4.89 291 15:25 24.12.2021
4710 Clouds 3 1001 92 178 4.89 291 14:35 24.12.2021
4711 Clouds 3 1000 84 2876 7.18 268 13:59 24.12.2021
4712 Clouds 3 1000 83 2876 7.18 268 13:32 24.12.2021
4713 Clouds 4 1000 86 10000 8.14 262 12:47 24.12.2021
4714 Clouds 4 1000 87 5535 7.85 266 11:46 24.12.2021
4715 Clouds 4 1001 88 1757 7.43 261 11:24 24.12.2021
4716 Clouds 4 1001 86 1757 7.43 261 10:36 24.12.2021
4717 Clouds 4 1000 90 872 6.73 261 09:22 24.12.2021
4718 Clouds 4 1000 91 980 6.88 262 08:19 24.12.2021
4719 Clouds 3 1000 91 980 6.88 262 07:44 24.12.2021
4720 Snow 0 1002 87 2575 5.39 246 00:48 24.12.2021
4721 Snow 0 1003 86 2029 4.91 240 23:54 23.12.2021
4722 Snow -1 1003 85 2105 4.41 237 22:54 23.12.2021
4723 Snow -1 1004 85 4912 4.89 240 22:26 23.12.2021
4724 Snow -1 1004 84 4912 4.89 240 21:59 23.12.2021
4725 Snow -1 1005 82 10000 4.68 237 20:54 23.12.2021
4726 Clouds -2 1006 80 10000 4.39 236 19:39 23.12.2021
4727 Clouds -2 1006 79 10000 4.39 230 18:32 23.12.2021
4728 Clouds -2 1007 78 10000 3.42 227 17:55 23.12.2021
4729 Snow -3 1008 79 10000 2.73 219 16:43 23.12.2021
4730 Snow -3 1009 79 8922 2.36 202 16:23 23.12.2021
4731 Snow -3 1009 75 8922 2.36 202 15:31 23.12.2021
4732 Snow -3 1009 75 8922 2.36 202 15:31 23.12.2021
4733 Snow -3 1010 80 5051 2.67 222 14:43 23.12.2021
4734 Snow -3 1010 75 10000 2.91 227 14:19 23.12.2021
4735 Clouds -3 1011 73 10000 2.79 226 12:48 23.12.2021
4736 Clouds -4 1013 75 10000 2.35 208 10:43 23.12.2021
4737 Snow -5 1014 86 10000 2.18 214 09:35 23.12.2021
4738 Clouds -5 1015 88 10000 1.96 206 08:59 23.12.2021
4739 Clouds -6 1016 72 9423 1.83 208 06:51 23.12.2021
4740 Clouds -6 1017 69 10000 1.8 200 04:30 23.12.2021
4741 Clouds -7 1022 77 10000 1.48 193 22:57 22.12.2021
4742 Clouds -7 1022 76 10000 1.48 193 22:39 22.12.2021
4743 Clouds -7 1023 75 10000 1.56 178 21:54 22.12.2021
4744 Clouds -8 1023 79 10000 1.46 173 21:29 22.12.2021
4745 Clouds -8 1023 80 10000 1.46 173 20:44 22.12.2021
4746 Clouds -8 1023 80 10000 1.46 177 20:25 22.12.2021
4747 Clouds -7 1024 81 10000 1.4 179 19:21 22.12.2021
4748 Clouds -7 1025 86 10000 1.39 178 17:42 22.12.2021
4749 Clouds -6 1025 86 10000 1.51 180 16:39 22.12.2021
4750 Clouds -5 1025 83 10000 1.14 178 15:39 22.12.2021
4751 Clouds -4 1026 81 10000 1.1 193 13:32 22.12.2021
4752 Clouds -4 1026 83 10000 1.3 196 12:40 22.12.2021
4753 Clouds -7 1027 83 10000 1.37 181 10:19 22.12.2021
4754 Clouds -8 1027 80 10000 1.37 181 09:38 22.12.2021
4755 Clouds -8 1028 84 10000 1.35 182 07:25 22.12.2021
4756 Clouds -8 1028 83 10000 1.17 175 05:43 22.12.2021
4757 Clouds -8 1028 83 10000 1.2 174 05:24 22.12.2021
4758 Clouds -8 1028 83 10000 1.2 174 04:50 22.12.2021
4759 Clouds -8 1028 83 10000 1.16 167 04:26 22.12.2021
4760 Clouds -8 1028 84 10000 1.16 167 03:32 22.12.2021
4761 Clear -8 1028 82 10000 1.02 167 00:47 22.12.2021
4762 Clear -8 1028 84 10000 0.8 178 23:25 21.12.2021
4763 Clear -8 1028 85 10000 0.73 166 22:28 21.12.2021
4764 Clear -7 1028 85 10000 0.73 166 21:44 21.12.2021
4765 Clear -8 1028 86 10000 0.63 156 21:22 21.12.2021
4766 Clear -8 1027 88 10000 0.62 168 20:21 21.12.2021
4767 Clear -7 1027 87 10000 0.62 168 19:42 21.12.2021
4768 Clouds -7 1027 88 10000 0.72 167 18:46 21.12.2021
4769 Clouds -7 1027 91 10000 0.59 149 18:21 21.12.2021
4770 Clouds -6 1027 89 10000 0.59 149 17:42 21.12.2021
4771 Clouds -6 1027 87 10000 0.46 80 16:26 21.12.2021
4772 Clouds -4 1026 87 10000 0.15 79 15:25 21.12.2021
4773 Clouds -3 1026 85 10000 0.34 160 13:51 21.12.2021
4774 Clouds -3 1026 83 10000 0.34 160 13:31 21.12.2021
4775 Clouds -4 1027 83 10000 0.38 112 11:57 21.12.2021
4776 Clouds -6 1027 90 10000 0.25 83 10:25 21.12.2021
4777 Clouds -7 1027 84 10000 0.25 83 09:33 21.12.2021
4778 Clouds -7 1027 86 10000 0.48 340 08:28 21.12.2021
4779 Clouds -7 1027 86 10000 0.48 340 07:32 21.12.2021
4780 Clouds -7 1027 86 10000 0.28 308 06:50 21.12.2021
4781 Clouds -7 1028 86 10000 0.45 287 03:18 21.12.2021
4782 Clouds -7 1028 91 10000 0.35 333 23:59 20.12.2021
4783 Clouds -7 1028 91 10000 0.35 333 23:32 20.12.2021
4784 Clouds -6 1029 90 10000 0.56 318 22:33 20.12.2021
4785 Clear -6 1029 86 10000 0.71 321 21:48 20.12.2021
4786 Clear -6 1029 89 10000 0.84 318 21:24 20.12.2021
4787 Clear -6 1029 89 10000 0.84 318 20:48 20.12.2021
4788 Clear -6 1028 87 10000 0.93 325 19:54 20.12.2021
4789 Clear -5 1028 87 10000 0.93 325 19:31 20.12.2021
4790 Clear -5 1028 86 10000 1.04 332 18:55 20.12.2021
4791 Clear -5 1028 86 10000 1.14 342 17:55 20.12.2021
4792 Clear -5 1028 85 10000 1.14 342 17:37 20.12.2021
4793 Clear -3 1028 80 10000 1.2 335 16:43 20.12.2021
4794 Clear -2 1028 72 10000 1.44 328 15:52 20.12.2021
4795 Clear -1 1027 67 10000 1.7 330 14:56 20.12.2021
4796 Clear -1 1027 69 10000 2.21 332 13:18 20.12.2021
4797 Clear -2 1028 78 10000 2.11 327 11:27 20.12.2021
4798 Clear -4 1027 84 10000 1.5 316 09:51 20.12.2021
4799 Clear -4 1027 81 10000 1.5 316 09:31 20.12.2021
4800 Clear -5 1027 83 10000 1.41 320 08:42 20.12.2021
4801 Clear -5 1027 87 10000 1.43 324 07:55 20.12.2021
4802 Clear -5 1027 86 10000 1.43 324 07:31 20.12.2021
4803 Clouds -4 1026 90 10000 1.55 342 04:36 20.12.2021
4804 Clouds 0 1025 88 10000 2.78 324 00:18 20.12.2021
4805 Clouds 0 1025 87 10000 2.23 323 22:53 19.12.2021
4806 Clouds 1 1024 86 10000 2.82 309 21:55 19.12.2021
4807 Clouds 1 1024 85 10000 2.82 309 21:30 19.12.2021
4808 Clouds 2 1024 87 10000 3.82 326 20:34 19.12.2021
4809 Clouds 2 1024 87 10000 5.38 331 19:52 19.12.2021
4810 Clouds 2 1024 90 10000 5.38 331 19:32 19.12.2021
4811 Clouds 2 1023 88 10000 6.21 327 18:30 19.12.2021
4812 Clouds 2 1023 89 10000 6.79 320 17:53 19.12.2021
4813 Clouds 2 1023 89 10000 7 315 17:20 19.12.2021
4814 Clouds 2 1023 90 10000 6.85 306 16:26 19.12.2021
4815 Clouds 2 1023 91 10000 7.31 309 15:43 19.12.2021
4816 Clouds 2 1023 91 10000 6.74 302 15:21 19.12.2021
4817 Clouds 2 1023 90 10000 6.74 302 14:42 19.12.2021
4818 Clouds 2 1024 90 10000 6.15 297 13:24 19.12.2021
4819 Clouds 2 1024 90 10000 6.15 297 12:47 19.12.2021
4820 Clouds 2 1026 90 10000 6.08 299 12:28 19.12.2021
4821 Clouds 2 1026 88 10000 6 299 11:26 19.12.2021
4822 Clouds 2 1027 88 10000 6.46 301 10:28 19.12.2021
4823 Clouds 2 1027 88 10000 6.46 301 09:48 19.12.2021
4824 Clouds 2 1027 88 10000 5.86 294 08:43 19.12.2021
4825 Clouds 2 1029 88 10000 5.47 297 04:45 19.12.2021
4826 Clouds 2 1031 87 10000 4.42 290 01:34 19.12.2021
4827 Clouds 2 1031 87 10000 4.49 292 00:53 19.12.2021
4828 Clouds 3 1032 90 10000 3.98 291 22:50 18.12.2021
4829 Clouds 3 1033 91 10000 3.81 290 22:20 18.12.2021
4830 Clouds 3 1033 91 10000 3.81 290 22:20 18.12.2021
4831 Clouds 2 1033 91 10000 3.81 290 21:41 18.12.2021
4832 Clouds 2 1033 91 10000 3.81 290 21:41 18.12.2021
4833 Clouds 2 1033 92 10000 3.61 286 21:22 18.12.2021
4834 Clouds 2 1034 94 10000 3.19 286 20:20 18.12.2021
4835 Clouds 2 1034 91 10000 2.87 287 19:27 18.12.2021
4836 Clouds 2 1034 91 10000 3.18 301 18:23 18.12.2021
4837 Clouds 2 1034 91 10000 3.18 301 17:49 18.12.2021
4838 Clouds 2 1035 91 10000 2.94 302 16:26 18.12.2021
4839 Clouds 2 1035 90 10000 2.94 302 15:48 18.12.2021
4840 Clouds 3 1035 91 10000 2.73 298 14:51 18.12.2021
4841 Clouds 3 1036 90 5089 2.16 278 13:29 18.12.2021
4842 Clouds 3 1036 90 5089 2.16 278 13:29 18.12.2021
4843 Clouds 3 1037 93 5328 2.19 287 11:47 18.12.2021
4844 Clouds 2 1038 92 5239 1.7 277 09:53 18.12.2021
4845 Clouds 2 1038 92 5239 1.7 277 09:30 18.12.2021
4846 Clouds 2 1038 93 5174 1.53 271 08:35 18.12.2021
4847 Clouds 2 1037 94 7568 1.4 296 06:27 18.12.2021
4848 Clouds 1 1039 94 5101 1.24 301 00:42 18.12.2021
4849 Clouds 2 1039 90 5101 1.28 292 23:46 17.12.2021
4850 Clouds 1 1039 88 6058 1.41 291 22:18 17.12.2021
4851 Clouds 1 1039 86 10000 1.61 306 21:28 17.12.2021
4852 Clouds 2 1039 84 10000 1.61 306 20:42 17.12.2021
4853 Clouds 1 1039 87 10000 1.55 305 19:50 17.12.2021
4854 Clear 1 1039 87 10000 1.33 311 18:39 17.12.2021
4855 Clear 2 1039 88 10000 1.41 311 17:47 17.12.2021
4856 Clear 1 1039 90 10000 1.61 303 16:50 17.12.2021
4857 Clear 2 1039 90 10000 1.48 304 16:27 17.12.2021
4858 Clear 2 1038 86 10000 1.7 297 15:27 17.12.2021
4859 Clear 3 1038 86 10000 1.7 297 14:42 17.12.2021
4860 Clear 3 1038 88 10000 1.87 303 13:35 17.12.2021
4861 Clouds 3 1038 90 10000 2.28 313 12:28 17.12.2021
4862 Clouds 2 1039 91 10000 2.08 319 10:41 17.12.2021
4863 Clouds 2 1038 90 10000 1.83 300 09:47 17.12.2021
4864 Clouds 2 1038 89 10000 1.6 304 08:31 17.12.2021
4865 Clouds 2 1038 83 10000 2.04 307 07:21 17.12.2021
4866 Clouds 2 1039 83 10000 1.09 324 04:40 17.12.2021
4867 Clouds 1 1039 88 10000 1.4 285 00:22 17.12.2021
4868 Clouds 3 1039 84 10000 1.66 305 22:24 16.12.2021
4869 Clouds 3 1039 84 10000 1.66 305 21:51 16.12.2021
4870 Clouds 3 1039 85 10000 1.66 305 21:33 16.12.2021
4871 Clouds 3 1039 89 10000 1.6 308 20:31 16.12.2021
4872 Clouds 3 1038 89 10000 1.59 302 19:51 16.12.2021
4873 Clouds 3 1038 91 10000 1.98 321 18:42 16.12.2021
4874 Clouds 4 1037 91 10000 2.1 323 18:22 16.12.2021
4875 Clouds 4 1037 92 10000 2.1 323 17:32 16.12.2021
4876 Clouds 4 1037 91 6689 1.34 301 16:23 16.12.2021
4877 Clouds 4 1036 91 5125 1.41 283 15:22 16.12.2021
4878 Clouds 4 1036 88 5404 1.41 304 13:44 16.12.2021
4879 Clouds 4 1036 89 5308 1.59 274 11:48 16.12.2021
4880 Clouds 4 1036 90 5699 1.51 291 11:18 16.12.2021
4881 Clouds 3 1036 90 5699 1.51 291 10:32 16.12.2021
4882 Clouds 3 1035 90 8402 1.53 296 09:39 16.12.2021
4883 Clouds 2 1033 96 10000 1.73 265 06:23 16.12.2021
4884 Clouds 3 1033 77 9792 2.21 264 03:19 16.12.2021
4885 Clouds 4 1032 84 10000 2.43 264 23:36 15.12.2021
4886 Clouds 4 1032 84 10000 2.29 265 22:49 15.12.2021
4887 Clouds 4 1032 84 10000 2.4 262 22:19 15.12.2021
4888 Clouds 4 1032 85 10000 2.4 262 21:31 15.12.2021
4889 Clouds 4 1032 83 10000 2.68 261 20:32 15.12.2021
4890 Clouds 4 1032 83 10000 2.59 257 19:53 15.12.2021
4891 Clouds 4 1031 80 10000 2.23 247 18:41 15.12.2021
4892 Clouds 4 1031 86 10000 2.6 238 18:18 15.12.2021
4893 Clouds 4 1031 86 10000 2.6 238 17:40 15.12.2021
4894 Clouds 4 1031 85 10000 2.91 239 16:57 15.12.2021
4895 Clouds 4 1031 87 10000 2.7 238 15:47 15.12.2021
4896 Clouds 4 1031 88 10000 2.72 244 15:29 15.12.2021
4897 Clouds 4 1030 90 10000 2.84 245 14:44 15.12.2021
4898 Clouds 4 1031 90 10000 2.72 244 14:44 15.12.2021
4899 Clouds 4 1030 88 6037 2.72 236 13:27 15.12.2021
4900 Clouds 4 1031 86 5279 2.38 229 10:58 15.12.2021
4901 Clouds 3 1030 90 5122 2.14 225 09:38 15.12.2021
4902 Clouds 3 1030 89 5098 1.97 215 07:52 15.12.2021
4903 Clouds 3 1029 89 5564 2.14 227 03:58 15.12.2021
4904 Clouds 3 1030 87 10000 2.09 228 23:46 14.12.2021
4905 Clouds 3 1029 89 10000 2.06 225 22:52 14.12.2021
4906 Clouds 3 1029 87 10000 2.06 225 22:34 14.12.2021
4907 Clouds 3 1029 86 6390 1.94 219 21:25 14.12.2021
4908 Clouds 3 1029 86 5415 1.98 219 20:18 14.12.2021
4909 Clouds 3 1028 89 5350 1.92 221 19:21 14.12.2021
4910 Clouds 3 1028 90 5448 1.78 224 18:38 14.12.2021
4911 Clouds 3 1028 89 5486 1.68 225 17:50 14.12.2021
4912 Clouds 3 1028 88 6650 1.88 234 16:43 14.12.2021
4913 Clouds 3 1028 88 6650 1.88 234 16:43 14.12.2021
4914 Clouds 3 1027 86 7577 1.81 244 15:54 14.12.2021
4915 Clouds 3 1027 85 10000 2.13 253 13:35 14.12.2021
4916 Clouds 3 1027 81 10000 2.09 257 12:47 14.12.2021
4917 Clouds 3 1027 81 10000 2.34 245 11:25 14.12.2021
4918 Clouds 3 1027 86 10000 1.95 241 10:28 14.12.2021
4919 Clouds 3 1027 86 10000 1.95 241 09:53 14.12.2021
4920 Clouds 2 1027 74 6516 1.91 224 08:40 14.12.2021
4921 Clouds 2 1026 74 8555 1.96 225 08:20 14.12.2021
4922 Clouds 2 1026 96 9797 1.91 204 06:27 14.12.2021
4923 Clouds 3 1028 86 10000 1.55 210 23:42 13.12.2021
4924 Clouds 3 1028 87 10000 1.62 209 22:18 13.12.2021
4925 Clouds 3 1028 87 10000 1.62 209 21:34 13.12.2021
4926 Clouds 3 1029 88 10000 1.59 205 20:50 13.12.2021
4927 Clouds 3 1029 87 10000 1.6 210 20:20 13.12.2021
4928 Clouds 3 1029 87 10000 1.6 210 19:49 13.12.2021
4929 Clouds 3 1029 85 10000 1.16 222 17:27 13.12.2021
4930 Clouds 4 1028 85 10000 1.5 238 16:24 13.12.2021
4931 Clouds 4 1028 85 10000 1.5 238 15:43 13.12.2021
4932 Clouds 4 1028 85 10000 2.07 252 13:57 13.12.2021
4933 Clouds 4 1028 85 10000 2.07 252 13:31 13.12.2021
4934 Clouds 4 1027 85 6822 1.78 248 12:39 13.12.2021
4935 Clouds 4 1027 87 7017 1.86 249 11:44 13.12.2021
4936 Clouds 4 1027 85 2668 1.75 246 11:24 13.12.2021
4937 Clouds 3 1027 89 2003 1.52 247 10:21 13.12.2021
4938 Clouds 3 1027 90 2046 1.53 245 08:43 13.12.2021
4939 Clouds 3 1026 90 1987 1.63 240 05:38 13.12.2021
4940 Clouds 2 1026 97 2066 1.67 239 04:52 13.12.2021
4941 Clouds 1 1025 97 2343 1.88 235 23:55 12.12.2021
4942 Snow 1 1024 90 5134 1.97 233 21:57 12.12.2021
4943 Rain 1 1024 87 5200 2.05 234 20:48 12.12.2021
4944 Snow 0 1024 97 4965 2.21 236 19:34 12.12.2021
4945 Snow 1 1023 85 4199 2.36 231 17:58 12.12.2021
4946 Snow 1 1023 86 4764 2.93 225 16:29 12.12.2021
4947 Snow 0 1023 96 4764 2.93 225 15:54 12.12.2021
4948 Snow 1 1023 85 5105 3.11 218 15:28 12.12.2021
4949 Snow 0 1023 84 5105 3.11 218 14:42 12.12.2021
4950 Clouds 0 1023 84 5301 3.22 219 13:56 12.12.2021
4951 Clouds 0 1023 83 5538 4 218 12:48 12.12.2021
4952 Clouds -1 1022 85 10000 4.26 210 11:45 12.12.2021
4953 Clouds -1 1023 84 10000 3.78 203 11:25 12.12.2021
4954 Clouds -1 1023 79 10000 3.78 203 10:43 12.12.2021
4955 Snow -1 1023 81 9417 3.41 202 09:48 12.12.2021
4956 Snow -2 1024 77 7246 3.1 208 08:44 12.12.2021
4957 Clouds -2 1023 76 10000 2.83 213 06:55 12.12.2021
4958 Clouds -3 1024 84 10000 2.01 205 05:28 12.12.2021
4959 Clouds -2 1024 83 10000 1.87 203 04:18 12.12.2021
4960 Clouds -3 1023 82 10000 2.08 225 00:45 12.12.2021
4961 Clouds -4 1023 80 10000 1.81 229 22:42 11.12.2021
4962 Clouds -4 1022 83 10000 1.83 226 22:20 11.12.2021
4963 Clouds -4 1022 78 10000 1.88 224 21:26 11.12.2021
4964 Clouds -4 1021 82 10000 1.77 218 19:50 11.12.2021
4965 Clouds -4 1020 76 10000 1.71 220 19:21 11.12.2021
4966 Clouds -4 1020 73 10000 1.92 230 18:42 11.12.2021
4967 Clouds -4 1019 79 10000 1.87 231 17:48 11.12.2021
4968 Clouds -3 1018 76 10000 1.87 227 15:58 11.12.2021
4969 Clouds -3 1018 75 10000 1.87 227 15:39 11.12.2021
4970 Clouds -1 1017 75 10000 1.77 239 14:33 11.12.2021
4971 Clouds -2 1014 73 10000 2.17 264 12:29 11.12.2021
4972 Clouds -3 1014 80 10000 1.81 260 10:49 11.12.2021
4973 Clouds -3 1013 77 10000 1.28 260 09:40 11.12.2021
4974 Clouds -6 1007 83 10000 1.02 321 03:57 11.12.2021
4975 Clouds -5 1003 88 10000 0.83 7 00:48 11.12.2021
4976 Clouds -5 1003 84 10000 0.51 28 23:44 10.12.2021
4977 Clouds -5 1002 83 10000 0.38 79 22:39 10.12.2021
4978 Clouds -5 1001 83 10000 0.66 107 21:40 10.12.2021
4979 Clouds -5 999 79 10000 1.25 115 20:28 10.12.2021
4980 Clouds -5 998 78 10000 1.53 105 19:19 10.12.2021
4981 Clouds -4 998 75 10000 1.55 102 17:46 10.12.2021
4982 Clouds -2 997 77 10000 1.44 102 16:37 10.12.2021
4983 Clouds -1 997 66 10000 1.36 116 15:45 10.12.2021
4984 Clouds -1 996 69 10000 1.69 157 15:26 10.12.2021
4985 Clouds 0 996 67 10000 1.69 157 14:49 10.12.2021
4986 Clouds 0 996 73 10000 2.67 171 13:50 10.12.2021
4987 Clouds 0 996 73 10000 2.8 167 12:56 10.12.2021
4988 Clouds 0 996 73 10000 2.8 167 12:56 10.12.2021
4989 Clouds -1 997 77 10000 2.52 157 11:43 10.12.2021
4990 Clouds -1 997 77 10000 2.21 166 11:19 10.12.2021
4991 Clouds -2 997 80 10000 2.23 156 09:49 10.12.2021
4992 Clouds -2 998 79 8032 1.43 145 07:49 10.12.2021
4993 Clouds -2 1000 79 6304 1.49 181 04:57 10.12.2021
4994 Clouds -2 1001 78 6366 1.78 188 02:44 10.12.2021
4995 Clouds -2 1004 80 10000 2.02 172 23:43 09.12.2021
4996 Clouds -2 1004 79 10000 2.28 197 22:43 09.12.2021
4997 Clouds -2 1005 80 10000 2.43 207 22:23 09.12.2021
4998 Clouds -2 1005 85 10000 2.43 207 21:40 09.12.2021
4999 Clouds -2 1006 85 10000 2.75 220 20:36 09.12.2021
5000 Clouds -1 1006 82 10000 2.15 213 19:46 09.12.2021
5001 Clouds -1 1006 82 10000 2.15 213 19:45 09.12.2021
5002 Clouds -1 1006 82 10000 1.78 220 19:20 09.12.2021
5003 Clouds -2 1006 93 10000 1.22 204 18:22 09.12.2021
5004 Clouds -2 1006 84 10000 1.22 204 17:48 09.12.2021
5005 Clouds -2 1006 84 10000 1.5 205 17:24 09.12.2021
5006 Clouds -2 1006 84 10000 1.5 205 16:41 09.12.2021
5007 Clouds 0 1005 79 10000 1.26 221 15:31 09.12.2021
5008 Clouds 0 1005 80 10000 0.9 224 14:43 09.12.2021
5009 Clouds 0 1005 81 10000 1.71 289 12:49 09.12.2021
5010 Clouds 0 1005 84 10000 1.37 264 12:24 09.12.2021
5011 Clouds -2 1004 87 10000 1.85 292 10:40 09.12.2021
5012 Clouds -3 1004 88 937 0.43 271 08:19 09.12.2021
5013 Clouds -2 1004 88 10000 0.68 297 03:59 09.12.2021
5014 Clouds -2 1003 87 10000 0.63 325 01:43 09.12.2021
5015 Clouds -2 1003 87 9289 0.66 330 23:38 08.12.2021
5016 Clouds -2 1004 86 10000 0.29 213 22:59 08.12.2021
5017 Clouds -2 1004 86 10000 0.29 213 22:37 08.12.2021
5018 Clouds -2 1003 89 10000 0.39 196 21:39 08.12.2021
5019 Clouds -2 1003 89 10000 0.39 196 21:39 08.12.2021
5020 Clouds -2 1003 85 10000 0.33 162 20:58 08.12.2021
5021 Clouds -2 1003 85 10000 0.74 188 19:57 08.12.2021
5022 Clouds -2 1002 88 10000 1.12 167 19:29 08.12.2021
5023 Clouds -2 1002 87 10000 1.07 129 18:28 08.12.2021
5024 Clouds -2 1002 87 10000 1.34 127 17:24 08.12.2021
5025 Clouds -1 1002 83 10000 1.27 134 15:45 08.12.2021
5026 Clouds -1 1001 79 10000 1.37 147 15:23 08.12.2021
5027 Clouds -1 1001 83 10000 1.44 151 13:40 08.12.2021
5028 Clouds -2 1001 85 10000 2.26 175 10:53 08.12.2021
5029 Clouds -2 1001 85 10000 2.78 191 10:24 08.12.2021
5030 Clouds -2 1001 86 10000 3.32 181 08:54 08.12.2021
5031 Snow -3 1001 85 5382 4.15 173 07:21 08.12.2021
5032 Clouds -2 1003 77 10000 4.12 139 01:21 08.12.2021
5033 Clouds -2 1005 72 10000 3.35 140 23:31 07.12.2021
5034 Clouds -3 1008 85 10000 2.47 150 21:26 07.12.2021
5035 Clouds -2 1008 80 10000 2.47 150 20:30 07.12.2021
5036 Clouds -2 1009 88 9879 2.35 171 19:48 07.12.2021
5037 Clouds -2 1009 83 9209 1.97 180 18:37 07.12.2021
5038 Clouds -2 1010 88 2129 1.48 173 17:27 07.12.2021
5039 Clouds -2 1010 88 2129 1.48 173 16:57 07.12.2021
5040 Snow -2 1010 87 1971 1.47 180 16:28 07.12.2021
5041 Snow -1 1010 86 4889 1.45 203 14:50 07.12.2021
5042 Clouds -1 1010 83 8487 1.1 207 13:46 07.12.2021
5043 Clouds -1 1010 83 10000 1.69 259 12:41 07.12.2021
5044 Clouds -2 1009 84 10000 1.15 237 11:25 07.12.2021
5045 Clouds -3 1009 85 10000 0.87 171 09:44 07.12.2021
5046 Clouds -3 1008 76 7939 1.48 155 07:55 07.12.2021
5047 Snow -3 1007 84 5282 3.42 170 05:55 07.12.2021
5048 Snow -3 1007 85 5095 4.45 190 05:30 07.12.2021
5049 Clouds -3 1011 86 10000 2.81 150 23:45 06.12.2021
5050 Clouds -4 1012 86 10000 2.44 153 22:44 06.12.2021
5051 Clouds -4 1012 85 10000 2.5 147 22:18 06.12.2021
5052 Clouds -4 1012 85 10000 2.5 147 21:42 06.12.2021
5053 Clouds -4 1013 84 10000 2.43 150 20:33 06.12.2021
5054 Clouds -4 1013 88 9423 2.12 152 19:27 06.12.2021
5055 Clouds -4 1014 89 10000 1.94 147 18:57 06.12.2021
5056 Clouds -3 1014 91 10000 1.51 162 17:56 06.12.2021
5057 Clouds -3 1014 91 10000 1.51 162 17:37 06.12.2021
5058 Clouds -3 1014 88 9187 1.34 172 16:22 06.12.2021
5059 Clouds -3 1014 88 9187 1.34 172 15:38 06.12.2021
5060 Clouds -3 1015 89 10000 1.38 184 13:46 06.12.2021
5061 Clouds -3 1015 89 10000 1.39 167 12:39 06.12.2021
5062 Clouds -3 1016 91 10000 1.44 104 10:38 06.12.2021
5063 Clouds -3 1015 92 5837 1.12 68 08:45 06.12.2021
5064 Clouds -3 1013 93 5434 1.4 7 04:56 06.12.2021
5065 Clouds -3 1011 83 10000 1.02 40 22:52 05.12.2021
5066 Clouds -2 1011 83 10000 0.57 39 21:43 05.12.2021
5067 Clouds -2 1010 83 10000 0.23 62 21:19 05.12.2021
5068 Clouds -2 1009 83 10000 0.33 108 20:19 05.12.2021
5069 Clouds -2 1009 81 10000 0.33 108 19:33 05.12.2021
5070 Clouds -3 1008 89 10000 0.15 95 18:43 05.12.2021
5071 Clouds -3 1008 89 10000 0.06 13 18:19 05.12.2021
5072 Clouds -3 1008 89 10000 0.06 13 17:48 05.12.2021
5073 Clouds -2 1007 86 10000 0.15 62 16:47 05.12.2021
5074 Clouds -1 1006 78 10000 0.25 289 16:26 05.12.2021
5075 Clouds 0 1006 76 10000 0.25 289 15:34 05.12.2021
5076 Clouds 0 1005 67 10000 0.47 245 14:37 05.12.2021
5077 Clouds 1 1005 76 10000 1.46 245 14:19 05.12.2021
5078 Clouds 1 1005 76 10000 1.87 232 13:22 05.12.2021
5079 Clouds 1 1005 79 10000 1.77 224 12:40 05.12.2021
5080 Clouds 0 1005 80 10000 2.18 221 12:18 05.12.2021
5081 Clouds 0 1004 83 10000 2.23 216 11:29 05.12.2021
5082 Clouds -1 1004 87 10000 2.15 223 09:59 05.12.2021
5083 Clouds -2 1002 87 8263 2.78 219 07:55 05.12.2021
5084 Clouds 0 1000 85 5059 4.12 239 03:27 05.12.2021
5085 Snow -2 998 85 45 3.3 242 23:45 04.12.2021
5086 Snow -2 997 89 343 1.71 224 21:55 04.12.2021
5087 Snow -2 996 88 2427 1.46 204 20:57 04.12.2021
5088 Snow -2 996 87 4317 1.59 163 20:20 04.12.2021
5089 Snow -2 996 89 4317 1.59 163 19:32 04.12.2021
5090 Clouds -1 996 87 8556 1.91 131 18:21 04.12.2021
5091 Clouds -1 996 87 8556 1.91 131 17:39 04.12.2021
5092 Clouds -1 996 86 6028 1.72 140 16:51 04.12.2021
5093 Clouds -1 996 86 6028 1.72 140 16:31 04.12.2021
5094 Clouds -1 997 85 8642 1.67 146 15:40 04.12.2021
5095 Clouds -1 999 84 9821 1.17 162 11:51 04.12.2021
5096 Clouds -1 999 84 9885 1.17 162 11:32 04.12.2021
5097 Clouds -2 1000 86 9403 1.17 152 10:53 04.12.2021
5098 Clouds -2 1000 88 7154 1.39 176 08:48 04.12.2021
5099 Clouds -2 1000 88 3311 1.63 193 06:42 04.12.2021
5100 Snow -2 1001 87 193 2.01 200 04:42 04.12.2021
5101 Snow -2 1003 85 4292 3.94 218 00:35 04.12.2021
5102 Snow -2 1005 85 3600 4.84 218 23:27 03.12.2021
5103 Snow -2 1005 85 3600 4.84 218 22:47 03.12.2021
5104 Snow -2 1005 85 5125 5.52 221 21:42 03.12.2021
5105 Snow -2 1006 86 5168 5.97 218 20:55 03.12.2021
5106 Snow -3 1006 85 5209 6.55 218 20:26 03.12.2021
5107 Snow -2 1006 84 5120 6.6 218 18:44 03.12.2021
5108 Snow -2 1007 81 5183 6.85 220 17:59 03.12.2021
5109 Clouds -2 1008 81 7206 6.68 222 16:43 03.12.2021
5110 Clouds -2 1009 83 9091 5.21 227 13:27 03.12.2021
5111 Clouds -3 1010 96 8380 5.15 231 12:20 03.12.2021
5112 Clouds -4 1010 85 9342 4.88 226 10:56 03.12.2021
5113 Clouds -5 1010 83 10000 3.47 224 08:31 03.12.2021
5114 Clouds -5 1011 83 10000 3.08 226 07:43 03.12.2021
5115 Clouds -5 1011 83 10000 3.08 226 07:43 03.12.2021
5116 Clouds -5 1011 83 10000 3.08 226 07:43 03.12.2021
5117 Clouds -5 1011 83 10000 3.37 243 05:42 03.12.2021
5118 Clouds -6 1009 87 6192 2.42 239 00:48 03.12.2021
5119 Clouds -6 1009 88 9688 2.1 250 23:47 02.12.2021
5120 Clouds -6 1008 88 10000 1.72 256 22:48 02.12.2021
5121 Clouds -5 1008 89 10000 1.41 274 21:41 02.12.2021
5122 Clouds -5 1008 81 10000 1.43 285 20:45 02.12.2021
5123 Clouds -4 1006 87 10000 1.47 308 20:22 02.12.2021
5124 Snow -4 1005 83 10000 1.21 337 18:47 02.12.2021
5125 Snow -2 1003 89 850 1.74 351 16:43 02.12.2021
5126 Snow -2 1001 84 653 1.31 307 15:41 02.12.2021
5127 Snow -2 1000 89 2062 1.29 299 14:52 02.12.2021
5128 Snow -1 1000 82 4992 1.81 300 13:39 02.12.2021
5129 Clouds -1 999 84 10000 2.84 327 12:36 02.12.2021
5130 Clouds -2 999 85 10000 2.38 313 11:45 02.12.2021
5131 Snow -2 998 84 6836 2.72 263 09:27 02.12.2021
5132 Clouds -1 996 79 10000 4.5 261 07:20 02.12.2021
5133 Clouds 0 994 84 10000 8.47 272 01:28 02.12.2021
5134 Clouds 0 994 82 10000 8.47 272 00:50 02.12.2021
5135 Clouds 1 992 75 10000 8.84 269 22:32 01.12.2021
5136 Clouds 1 992 76 10000 8.7 269 21:54 01.12.2021
5137 Rain 2 989 82 5062 8.08 258 20:24 01.12.2021
5138 Clouds 2 989 79 5062 8.08 258 19:46 01.12.2021
5139 Rain 3 989 77 5637 8.29 244 18:55 01.12.2021
5140 Clouds 3 989 83 5270 7.98 243 17:32 01.12.2021
5141 Rain 3 988 83 8158 7.68 245 16:36 01.12.2021
5142 Clouds 4 989 81 3216 9 227 14:39 01.12.2021
5143 Clouds 3 989 81 4920 8.4 222 13:37 01.12.2021
5144 Clouds 3 992 81 4357 8.59 224 11:26 01.12.2021
5145 Clouds 3 992 82 4357 8.59 224 10:40 01.12.2021
5146 Clouds 2 994 86 5185 8.29 223 08:53 01.12.2021
5147 Clouds 3 995 87 5135 7.73 223 08:26 01.12.2021
5148 Clouds 3 995 86 5135 7.73 223 07:32 01.12.2021
5149 Rain 2 1000 89 2450 5.27 218 04:18 01.12.2021
5150 Snow 2 1000 88 2450 5.27 218 03:32 01.12.2021
5151 Rain 1 1004 88 5073 2.26 212 00:45 01.12.2021
5152 Clouds 1 1005 86 6056 2.45 233 23:35 30.11.2021
5153 Clouds 1 1006 85 8109 3.04 260 22:42 30.11.2021
5154 Rain 1 1005 85 10000 5.22 290 20:53 30.11.2021
5155 Rain 1 1005 85 10000 5.22 290 20:34 30.11.2021
5156 Clouds 1 1005 84 10000 5.91 298 19:51 30.11.2021
5157 Clouds 1 1004 83 5151 6.53 296 19:27 30.11.2021
5158 Clouds 1 1003 82 8050 7.14 296 18:24 30.11.2021
5159 Snow 2 1001 85 2825 7.36 298 16:25 30.11.2021
5160 Clouds 2 1000 87 4503 7.46 294 14:35 30.11.2021
5161 Clouds 2 999 89 5065 7.61 291 13:52 30.11.2021
5162 Snow 1 999 90 2180 7.41 280 13:24 30.11.2021
5163 Snow 1 999 90 2180 7.41 280 13:24 30.11.2021
5164 Rain 1 999 91 5069 7.15 288 12:44 30.11.2021
5165 Snow 0 1000 90 3851 7.04 255 11:27 30.11.2021
5166 Snow -1 1000 88 3851 7.04 255 10:47 30.11.2021
5167 Snow -1 1001 89 1996 6.95 248 10:29 30.11.2021
5168 Snow -2 1001 87 2231 7.35 241 08:51 30.11.2021
5169 Snow -2 1002 86 289 7.78 238 08:20 30.11.2021
5170 Snow -3 1002 87 289 7.78 238 07:40 30.11.2021
5171 Clouds -3 1009 81 5633 4.31 237 01:58 30.11.2021
5172 Clouds -3 1009 82 5633 4.31 237 01:38 30.11.2021
5173 Clouds -3 1010 84 5797 3.57 249 23:57 29.11.2021
5174 Clouds -3 1010 84 5798 3.21 255 23:22 29.11.2021
5175 Clouds -2 1010 84 5798 3.21 255 22:48 29.11.2021
5176 Clouds -2 1010 84 5574 2.9 257 22:29 29.11.2021
5177 Snow -2 1010 85 3295 2.92 268 21:22 29.11.2021
5178 Snow -2 1010 84 3295 2.92 268 20:56 29.11.2021
5179 Clouds -2 1009 85 1475 3.02 279 20:23 29.11.2021
5180 Clouds -2 1009 85 1475 3.02 279 19:54 29.11.2021
5181 Clouds -2 1009 84 1475 3.02 279 19:33 29.11.2021
5182 Snow -2 1008 83 1427 2.81 290 18:48 29.11.2021
5183 Snow -3 1007 96 320 2.56 280 17:22 29.11.2021
5184 Snow -3 1007 96 320 2.56 280 16:59 29.11.2021
5185 Clouds -3 1007 95 908 2.56 284 16:29 29.11.2021
5186 Clouds -3 1007 95 908 2.56 284 15:45 29.11.2021
5187 Snow -3 1006 92 3542 2.65 288 14:42 29.11.2021
5188 Clouds -2 1005 87 8979 3.16 295 13:32 29.11.2021
5189 Snow -2 1004 91 2695 2.08 306 12:28 29.11.2021
5190 Snow -2 1004 91 2695 2.08 306 11:36 29.11.2021
5191 Snow -3 1004 92 628 1.97 299 10:41 29.11.2021
5192 Snow -3 1003 96 271 1.64 264 09:25 29.11.2021
5193 Snow -3 1000 97 519 2.19 254 06:20 29.11.2021
5194 Clouds -3 1000 95 4345 1.67 234 01:43 29.11.2021
5195 Snow -3 1000 96 2255 1.55 246 00:40 29.11.2021
5196 Snow -3 999 95 4051 1.66 260 23:44 28.11.2021
5197 Snow -3 999 96 265 1.53 253 22:49 28.11.2021
5198 Snow -3 999 96 808 1.46 240 21:47 28.11.2021
5199 Clouds -3 999 93 3382 1.59 259 21:23 28.11.2021
5200 Clouds -3 999 93 3382 1.59 259 20:33 28.11.2021
5201 Clouds -3 998 96 7763 1.46 235 19:25 28.11.2021
5202 Clouds -3 998 97 732 1.6 245 18:35 28.11.2021
5203 Clouds -2 998 97 2496 1.6 234 17:55 28.11.2021
5204 Clouds -2 998 97 2496 1.6 234 17:31 28.11.2021
5205 Clouds -2 997 95 7468 1.57 237 16:40 28.11.2021
5206 Clouds -2 997 89 8574 1.68 244 16:18 28.11.2021
5207 Clouds -2 997 89 8574 1.68 244 15:32 28.11.2021
5208 Clouds -2 997 80 10000 1.89 243 14:48 28.11.2021
5209 Clouds -1 997 84 10000 1.92 248 13:22 28.11.2021
5210 Clouds -1 997 84 10000 1.92 248 12:48 28.11.2021
5211 Clouds -3 997 86 9510 1.91 236 11:18 28.11.2021
5212 Clouds -4 997 89 10000 1.75 231 10:22 28.11.2021
5213 Clouds -4 997 89 10000 1.75 231 09:38 28.11.2021
5214 Clouds -6 997 96 10000 1.44 226 07:59 28.11.2021
5215 Clouds -4 997 96 10000 1.44 206 00:20 28.11.2021
5216 Clouds -3 996 92 10000 2.09 210 21:40 27.11.2021
5217 Clouds -1 995 95 9001 1.35 212 19:49 27.11.2021
5218 Clouds -2 994 94 6932 2.36 235 17:57 27.11.2021
5219 Snow -1 993 98 398 1.93 213 15:59 27.11.2021
5220 Clouds -1 992 95 846 2.1 211 14:30 27.11.2021
5221 Snow -1 991 96 514 1.96 216 12:58 27.11.2021
5222 Snow -1 990 91 5011 2.45 194 10:52 27.11.2021
5223 Snow -2 990 90 5314 2.37 187 09:53 27.11.2021
5224 Snow -2 990 92 5201 2.05 169 08:45 27.11.2021
5225 Snow -3 989 93 5146 2.61 169 06:35 27.11.2021
5226 Clouds -3 988 88 10000 4.38 184 02:25 27.11.2021
5227 Clouds -3 989 87 10000 4.99 182 23:40 26.11.2021
5228 Clouds -2 991 90 8845 4.76 188 22:26 26.11.2021
5229 Snow -2 991 90 8845 4.76 188 21:41 26.11.2021
5230 Snow -3 992 90 5682 4.55 190 21:22 26.11.2021
5231 Snow -3 992 90 5682 4.55 190 20:40 26.11.2021
5232 Clouds -3 992 90 5366 4.37 196 19:55 26.11.2021
5233 Clouds -2 993 87 10000 4.7 204 18:45 26.11.2021
5234 Snow -2 994 96 2313 3.27 197 17:26 26.11.2021
5235 Snow -2 994 96 2313 3.27 197 16:45 26.11.2021
5236 Snow -2 995 96 658 3.58 213 14:50 26.11.2021
5237 Snow 0 996 83 776 3.21 207 13:34 26.11.2021
5238 Clouds 0 999 76 8118 3.35 215 10:44 26.11.2021
5239 Clouds -1 1000 83 5262 3.04 206 09:53 26.11.2021
5240 Clouds -1 1001 84 5136 3 208 08:50 26.11.2021
5241 Clouds -1 1002 79 5244 3.06 219 08:20 26.11.2021
5242 Clouds -1 1002 79 5417 2.99 225 06:30 26.11.2021
5243 Clouds -1 1003 73 5847 2.94 225 05:35 26.11.2021
5244 Clouds -1 1004 75 10000 2.88 231 03:39 26.11.2021
5245 Clouds 0 1007 82 8999 2.55 244 23:49 25.11.2021
5246 Clouds 0 1008 82 10000 2.79 250 22:34 25.11.2021
5247 Clouds 0 1008 85 5219 2.61 244 20:45 25.11.2021
5248 Snow 0 1009 80 5098 2.56 240 19:22 25.11.2021
5249 Snow 0 1009 78 1992 2.37 236 18:35 25.11.2021
5250 Clouds 0 1008 78 10000 2.49 244 17:28 25.11.2021
5251 Clouds 0 1008 78 10000 2.49 244 16:47 25.11.2021
5252 Clouds 0 1009 77 10000 2.54 247 16:25 25.11.2021
5253 Clouds 1 1009 71 10000 2.58 260 14:44 25.11.2021
5254 Clouds 2 1009 66 10000 2.21 273 13:20 25.11.2021
5255 Clouds 1 1010 86 10000 2.6 268 12:19 25.11.2021
5256 Clouds 0 1010 78 10000 2.37 269 10:50 25.11.2021
5257 Clouds -1 1011 92 10000 0.99 273 08:30 25.11.2021
5258 Clear -1 1012 91 10000 0.6 243 03:42 25.11.2021
5259 Clear -1 1013 93 10000 0.63 204 02:43 25.11.2021
5260 Clear 0 1016 92 10000 1.13 163 22:43 24.11.2021
5261 Clear 0 1017 93 10000 1.1 155 22:20 24.11.2021
5262 Clear 1 1018 93 10000 1.13 155 21:27 24.11.2021
5263 Clear 1 1018 93 10000 1.02 155 20:29 24.11.2021
5264 Clear 1 1018 93 10000 1.02 155 19:46 24.11.2021
5265 Clouds 1 1019 95 10000 1.03 153 18:30 24.11.2021
5266 Clouds 2 1020 96 10000 1.27 150 16:53 24.11.2021
5267 Clouds 3 1020 80 10000 1.11 164 15:22 24.11.2021
5268 Clouds 3 1020 81 10000 1.11 164 14:42 24.11.2021
5269 Clouds 3 1021 81 10000 1.41 171 14:19 24.11.2021
5270 Clouds 3 1023 81 10000 1.15 171 11:50 24.11.2021
5271 Clouds 2 1024 80 10000 0.79 170 11:20 24.11.2021
5272 Clouds 2 1024 98 10000 0.79 170 10:39 24.11.2021
5273 Clouds 2 1024 98 10000 0.47 190 10:21 24.11.2021
5274 Clouds 1 1025 88 10000 0.53 241 07:46 24.11.2021
5275 Clouds 1 1025 98 10000 0.97 248 06:51 24.11.2021
5276 Clouds 1 1026 98 10000 1.11 256 03:50 24.11.2021
5277 Clouds 1 1027 89 10000 1.21 255 00:32 24.11.2021
5278 Clouds 1 1028 90 10000 1.35 242 22:39 23.11.2021
5279 Clouds 1 1028 90 10000 1.48 240 21:54 23.11.2021
5280 Clouds 1 1028 89 10000 1.48 240 21:36 23.11.2021
5281 Clouds 1 1028 98 10000 1.48 237 19:37 23.11.2021
5282 Clouds 1 1028 98 10000 1.48 237 19:37 23.11.2021
5283 Clouds 1 1028 98 10000 1.45 243 18:41 23.11.2021
5284 Clouds 1 1028 98 10000 1.5 245 18:18 23.11.2021
5285 Clouds 1 1028 98 10000 1.65 246 16:57 23.11.2021
5286 Clouds 1 1028 98 10000 1.8 251 15:59 23.11.2021
5287 Clouds 1 1028 98 10000 1.89 255 15:22 23.11.2021
5288 Clouds 1 1028 98 10000 2.07 269 13:50 23.11.2021
5289 Clouds 0 1029 97 10000 2.07 258 11:42 23.11.2021
5290 Clouds -1 1029 97 10000 2.06 244 09:59 23.11.2021
5291 Clouds -1 1028 97 10000 2.15 243 09:18 23.11.2021
5292 Clouds -1 1028 97 10000 2.21 237 06:41 23.11.2021
5293 Clouds -3 1028 96 10000 1.96 250 03:51 23.11.2021
5294 Clouds -3 1028 96 10000 1.65 248 01:49 23.11.2021
5295 Clouds -4 1029 95 10000 1.33 252 23:21 22.11.2021
5296 Clouds -4 1029 95 10000 1.33 252 22:47 22.11.2021
5297 Clouds -4 1029 95 10000 1.18 261 22:25 22.11.2021
5298 Clouds -4 1029 95 10000 1.18 261 21:41 22.11.2021
5299 Clear -4 1028 94 10000 1.13 278 20:52 22.11.2021
5300 Clear -3 1028 93 10000 1.04 293 19:56 22.11.2021
5301 Clouds -3 1028 93 10000 1.04 309 19:19 22.11.2021
5302 Clouds -2 1028 92 10000 1.04 309 18:39 22.11.2021
5303 Clouds -2 1028 87 10000 1.34 318 17:38 22.11.2021
5304 Clouds 0 1026 81 10000 1.58 341 16:18 22.11.2021
5305 Clouds 2 1026 77 10000 2.93 355 14:18 22.11.2021
5306 Clouds 1 1025 82 10000 2.56 4 12:18 22.11.2021
5307 Clouds 0 1025 91 10000 2.64 11 10:43 22.11.2021
5308 Clouds 0 1024 97 10000 2.68 17 09:43 22.11.2021
5309 Clouds 0 1023 97 8691 2.61 11 08:40 22.11.2021
5310 Clouds 0 1020 97 2118 3.08 10 06:22 22.11.2021
5311 Clouds 0 1016 97 10000 1.76 322 23:30 21.11.2021
5312 Clouds 0 1015 97 10000 1.69 318 22:50 21.11.2021
5313 Clouds 0 1015 96 10000 1.56 307 21:57 21.11.2021
5314 Clouds 1 1014 94 10000 1.51 290 20:42 21.11.2021
5315 Clouds 1 1013 97 10000 1.92 287 19:58 21.11.2021
5316 Clouds 2 1012 97 10000 1.96 268 18:25 21.11.2021
5317 Clouds 2 1012 97 10000 1.96 268 17:39 21.11.2021
5318 Clouds 3 1011 97 10000 1.92 269 16:42 21.11.2021
5319 Clouds 4 1010 97 6099 1.52 281 14:46 21.11.2021
5320 Rain 4 1010 96 10000 1.75 286 13:47 21.11.2021
5321 Clouds 4 1010 96 4507 1.82 300 12:37 21.11.2021
5322 Clouds 3 1010 96 3351 1.92 272 11:57 21.11.2021
5323 Clouds 3 1010 96 3351 1.92 272 11:35 21.11.2021
5324 Clouds 3 1010 95 5809 2.56 247 10:19 21.11.2021
5325 Clouds 3 1010 95 5843 3.27 245 08:56 21.11.2021
5326 Clouds 3 1009 95 6043 3.37 241 08:26 21.11.2021
5327 Clouds 3 1009 94 6043 3.37 241 07:49 21.11.2021
5328 Clouds 3 1010 93 9943 3.54 243 06:18 21.11.2021
5329 Clouds 3 1010 92 9943 3.54 243 05:30 21.11.2021
5330 Clouds 4 1012 89 10000 3.68 244 03:20 21.11.2021
5331 Clouds 4 1012 89 10000 3.68 244 02:53 21.11.2021
5332 Clouds 4 1014 89 10000 3.97 245 00:59 21.11.2021
5333 Clouds 4 1015 91 10000 3.86 246 00:23 21.11.2021
5334 Clouds 4 1016 90 10000 3.95 251 21:50 20.11.2021
5335 Clouds 5 1016 87 10000 3.95 251 21:30 20.11.2021
5336 Clouds 5 1018 88 10000 3.73 255 19:23 20.11.2021
5337 Clouds 5 1018 87 10000 3.73 255 18:45 20.11.2021
5338 Clouds 5 1018 87 10000 3.76 255 18:19 20.11.2021
5339 Clouds 5 1019 87 10000 3.77 256 17:18 20.11.2021
5340 Clouds 6 1020 85 10000 4.2 254 14:50 20.11.2021
5341 Clouds 6 1021 84 10000 3.94 250 14:28 20.11.2021
5342 Clouds 6 1021 85 10000 3.94 250 13:33 20.11.2021
5343 Clouds 6 1024 95 10000 3.73 251 11:24 20.11.2021
5344 Clouds 6 1025 97 10000 3.63 254 09:54 20.11.2021
5345 Clouds 6 1026 96 5241 3.15 249 08:26 20.11.2021
5346 Clouds 6 1026 96 5241 3.16 252 05:30 20.11.2021
5347 Clouds 6 1026 96 5223 3.26 249 04:51 20.11.2021
5348 Clouds 6 1026 96 5202 2.97 247 03:54 20.11.2021
5349 Clouds 6 1027 96 5246 3.11 258 00:42 20.11.2021
5350 Clouds 6 1027 96 5242 3.29 263 23:45 19.11.2021
5351 Clouds 6 1027 96 5314 3.5 265 22:53 19.11.2021
5352 Clouds 6 1027 97 10000 3.94 274 21:23 19.11.2021
5353 Clouds 6 1027 97 10000 3.94 274 20:40 19.11.2021
5354 Clouds 6 1027 97 10000 4.24 274 20:22 19.11.2021
5355 Clouds 6 1027 97 10000 4.24 274 19:43 19.11.2021
5356 Clouds 6 1026 98 10000 4.68 276 18:45 19.11.2021
5357 Clouds 6 1026 98 10000 5.6 276 17:44 19.11.2021
5358 Clouds 7 1026 98 10000 5.65 274 16:40 19.11.2021
5359 Clouds 7 1026 98 10000 6.02 271 14:51 19.11.2021
5360 Clouds 6 1027 98 6927 5.66 262 11:32 19.11.2021
5361 Clouds 6 1027 98 8666 5.41 261 10:23 19.11.2021
5362 Clouds 5 1027 97 5086 5.56 262 08:35 19.11.2021
5363 Clouds 5 1026 97 5111 4.66 256 05:36 19.11.2021
5364 Clouds 5 1026 96 5137 4.5 261 03:37 19.11.2021
5365 Clouds 4 1026 92 6596 4.25 249 23:54 18.11.2021
5366 Clouds 4 1026 91 10000 4.48 249 22:49 18.11.2021
5367 Clouds 4 1026 89 10000 5.07 254 21:18 18.11.2021
5368 Clouds 4 1026 89 10000 5.07 254 20:44 18.11.2021
5369 Clouds 4 1026 89 10000 5.15 251 20:23 18.11.2021
5370 Clouds 5 1026 88 10000 5.15 251 19:36 18.11.2021
5371 Clouds 5 1026 89 10000 5.44 252 18:38 18.11.2021
5372 Clouds 5 1026 89 10000 5.67 248 17:52 18.11.2021
5373 Clouds 5 1026 88 10000 5.42 247 17:22 18.11.2021
5374 Clouds 5 1026 87 10000 5.42 247 16:42 18.11.2021
5375 Clouds 5 1026 89 10000 5.72 250 15:23 18.11.2021
5376 Clouds 5 1026 93 10000 5.47 254 12:56 18.11.2021
5377 Clouds 4 1027 96 10000 4.68 249 11:44 18.11.2021
5378 Clouds 4 1027 97 6524 4.61 246 11:26 18.11.2021
5379 Clouds 4 1027 97 6524 4.61 246 11:26 18.11.2021
5380 Clouds 4 1027 97 6524 4.61 246 10:36 18.11.2021
5381 Clouds 3 1027 97 5947 4.04 244 08:49 18.11.2021
5382 Clouds 3 1026 97 5276 3.74 253 07:19 18.11.2021
5383 Clouds 2 1026 97 5315 3.54 251 05:46 18.11.2021
5384 Clouds 2 1024 97 10000 4.16 259 01:27 18.11.2021
5385 Clouds 2 1024 97 10000 4.16 259 23:46 17.11.2021
5386 Clouds 2 1024 97 10000 3.97 256 22:40 17.11.2021
5387 Clouds 2 1024 97 10000 3.89 264 22:20 17.11.2021
5388 Clouds 2 1024 97 10000 3.89 264 21:36 17.11.2021
5389 Clouds 2 1023 97 10000 2.99 250 20:18 17.11.2021
5390 Clouds 2 1021 97 10000 2.97 238 17:36 17.11.2021
5391 Clouds 2 1021 97 10000 3.06 232 16:45 17.11.2021
5392 Clouds 2 1020 97 10000 3.13 232 13:59 17.11.2021
5393 Clouds 2 1020 97 10000 3.01 229 12:39 17.11.2021
5394 Clouds 1 1020 97 10000 2.96 229 11:37 17.11.2021
5395 Clouds 1 1020 96 7631 2.66 239 10:28 17.11.2021
5396 Clouds 0 1020 96 6378 2.54 239 09:23 17.11.2021
5397 Clouds 0 1020 96 6006 2.46 241 07:41 17.11.2021
5398 Clouds 0 1019 96 7197 2.18 244 03:31 17.11.2021
5399 Clouds 0 1020 96 10000 1.44 243 00:46 17.11.2021
5400 Clouds 0 1020 96 10000 1.27 246 22:44 16.11.2021
5401 Clouds 0 1021 95 10000 1.19 257 20:20 16.11.2021
5402 Clouds 0 1021 95 10000 1.19 257 19:59 16.11.2021
5403 Clouds 0 1021 95 10000 1.34 243 18:53 16.11.2021
5404 Clouds 0 1021 95 10000 1.34 243 18:30 16.11.2021
5405 Clouds 0 1021 95 10000 1.12 241 17:34 16.11.2021
5406 Clouds 0 1021 95 10000 0.79 248 16:32 16.11.2021
5407 Clouds 0 1021 94 10000 0.66 249 15:49 16.11.2021
5408 Clouds 0 1021 94 10000 0.82 222 14:39 16.11.2021
5409 Clouds 0 1022 94 10000 0.67 302 11:28 16.11.2021
5410 Clear 0 1023 93 10000 0.47 316 09:46 16.11.2021
5411 Clear 0 1023 92 10000 0.81 147 08:26 16.11.2021
5412 Clouds 0 1023 91 10000 0.67 122 07:31 16.11.2021
5413 Clear 0 1024 91 10000 1.41 73 01:44 16.11.2021
5414 Clear 0 1025 93 10000 1.7 82 23:20 15.11.2021
5415 Clear 0 1025 93 10000 1.7 82 22:30 15.11.2021
5416 Clouds 0 1026 94 10000 1.71 87 21:53 15.11.2021
5417 Clouds 0 1026 95 10000 1.8 87 21:28 15.11.2021
5418 Clouds 0 1026 92 10000 2 82 19:42 15.11.2021
5419 Clouds 1 1026 92 10000 2.23 80 18:33 15.11.2021
5420 Clouds 1 1026 91 10000 2.59 87 16:20 15.11.2021
5421 Clouds 1 1026 90 10000 2.59 87 15:41 15.11.2021
5422 Clouds 2 1026 90 10000 2.73 86 15:23 15.11.2021
5423 Clouds 2 1026 89 10000 2.31 81 13:29 15.11.2021
5424 Clouds 1 1027 90 10000 2.19 89 10:57 15.11.2021
5425 Clouds 1 1028 91 10000 2.3 80 09:28 15.11.2021
5426 Clouds 1 1028 90 10000 2.08 76 07:52 15.11.2021
5427 Clouds 1 1027 91 7937 1.99 86 05:21 15.11.2021
5428 Clouds 2 1027 96 10000 1.85 64 23:54 14.11.2021
5429 Clouds 2 1027 96 10000 1.74 68 22:35 14.11.2021
5430 Clouds 2 1027 96 10000 2.22 69 19:57 14.11.2021
5431 Clouds 3 1026 91 10000 2.13 64 19:18 14.11.2021
5432 Clouds 3 1026 95 10000 2.13 64 18:54 14.11.2021
5433 Clouds 3 1026 91 10000 2.13 64 18:36 14.11.2021
5434 Clouds 3 1026 91 10000 2.03 63 18:18 14.11.2021
5435 Clouds 3 1026 92 10000 2.03 63 17:56 14.11.2021
5436 Clouds 3 1026 91 10000 2.03 63 17:38 14.11.2021
5437 Clouds 3 1025 90 10000 2.04 69 17:20 14.11.2021
5438 Clouds 4 1025 90 10000 2.04 69 16:47 14.11.2021
5439 Clouds 4 1025 90 10000 2.04 69 16:47 14.11.2021
5440 Clouds 4 1024 90 10000 2.01 59 16:20 14.11.2021
5441 Clouds 4 1024 88 10000 1.89 60 15:23 14.11.2021
5442 Clouds 5 1024 87 10000 1.89 60 14:49 14.11.2021
5443 Clouds 5 1023 87 10000 1.98 67 14:29 14.11.2021
5444 Clouds 5 1023 90 10000 1.98 67 13:54 14.11.2021
5445 Clouds 5 1023 88 10000 1.98 67 13:35 14.11.2021
5446 Clouds 5 1023 93 10000 1.56 71 12:28 14.11.2021
5447 Clouds 5 1023 93 10000 1.56 71 11:52 14.11.2021
5448 Clouds 4 1023 96 10000 1.48 75 10:42 14.11.2021
5449 Clouds 4 1022 97 10000 1.45 83 09:52 14.11.2021
5450 Clouds 3 1022 97 10000 1.18 96 08:55 14.11.2021
5451 Clouds 3 1021 98 10000 1.43 86 07:23 14.11.2021
5452 Clouds 3 1017 97 10000 0.73 35 00:27 14.11.2021
5453 Clouds 3 1017 96 10000 0.17 333 22:26 13.11.2021
5454 Clouds 2 1017 92 10000 0.17 333 21:57 13.11.2021
5455 Clouds 3 1016 96 10000 0.89 191 21:23 13.11.2021
5456 Clouds 3 1016 96 10000 1.42 188 19:47 13.11.2021
5457 Clouds 3 1016 96 10000 1.01 191 18:33 13.11.2021
5458 Clouds 3 1016 96 10000 0.82 199 17:55 13.11.2021
5459 Clouds 3 1015 95 10000 1.11 192 16:38 13.11.2021
5460 Clouds 3 1015 93 10000 1.2 187 15:34 13.11.2021
5461 Clouds 3 1014 93 10000 1.84 211 14:30 13.11.2021
5462 Clouds 3 1014 93 10000 1.97 209 13:32 13.11.2021
5463 Clouds 3 1014 94 10000 1.85 195 12:24 13.11.2021
5464 Clouds 2 1014 93 10000 1.85 195 11:38 13.11.2021
5465 Clouds 2 1014 92 10000 2.03 193 10:45 13.11.2021
5466 Clouds 2 1014 92 10000 1.96 183 10:22 13.11.2021
5467 Rain 1 1014 91 10000 1.96 183 09:38 13.11.2021
5468 Clouds 1 1014 88 10000 1.97 186 08:56 13.11.2021
5469 Clouds 1 1014 88 10000 1.97 186 08:30 13.11.2021
5470 Clouds -1 1013 94 10000 1.97 190 04:48 13.11.2021
5471 Clouds -1 1013 94 10000 1.9 192 04:30 13.11.2021
5472 Clouds -1 1014 96 10000 2 196 01:36 13.11.2021
5473 Clouds -1 1015 95 10000 1.86 209 22:58 12.11.2021
5474 Clouds 0 1015 96 10000 1.95 198 21:46 12.11.2021
5475 Clouds 0 1016 95 10000 1.83 199 19:55 12.11.2021
5476 Clouds 0 1016 95 10000 2.03 178 19:28 12.11.2021
5477 Clouds 0 1016 94 10000 1.99 176 18:46 12.11.2021
5478 Clouds 2 1017 88 10000 1.25 193 16:35 12.11.2021
5479 Clear 3 1017 86 10000 1.13 198 15:33 12.11.2021
5480 Clear 4 1018 77 10000 2.23 159 11:58 12.11.2021
5481 Clear 3 1019 92 10000 2.58 150 10:51 12.11.2021
5482 Clear 2 1020 98 10000 1.66 159 09:45 12.11.2021
5483 Clear 2 1021 98 10000 1.7 147 08:39 12.11.2021
5484 Clouds 1 1023 97 10000 0.81 125 03:18 12.11.2021
5485 Clouds 1 1024 97 10000 0.35 132 23:42 11.11.2021
5486 Clouds 1 1024 97 10000 0.22 135 22:39 11.11.2021
5487 Clouds 1 1025 97 10000 0.24 94 21:28 11.11.2021
5488 Clouds 1 1025 97 10000 0.24 94 20:43 11.11.2021
5489 Clouds 1 1025 97 10000 0.21 53 19:24 11.11.2021
5490 Clouds 1 1024 97 10000 0.06 245 17:58 11.11.2021
5491 Clouds 1 1024 97 10000 0.06 245 17:36 11.11.2021
5492 Clouds 3 1023 59 10000 1.15 283 15:18 11.11.2021
5493 Clouds 5 1023 67 10000 1.15 283 14:30 11.11.2021
5494 Clouds 4 1023 51 10000 1.26 284 13:40 11.11.2021
5495 Clouds 5 1023 67 10000 1.27 279 12:52 11.11.2021
5496 Clouds 2 1024 52 10000 1.28 259 11:30 11.11.2021
5497 Clouds 0 1024 61 10000 0.88 251 09:49 11.11.2021
5498 Clouds -3 1024 95 10000 0.85 230 08:19 11.11.2021
5499 Clouds -3 1024 95 10000 0.38 220 05:55 11.11.2021
5500 Clouds -2 1025 93 10000 0.66 247 00:36 11.11.2021
5501 Clouds -1 1025 91 10000 0.98 250 22:32 10.11.2021
5502 Clouds -1 1025 91 10000 0.68 166 21:33 10.11.2021
5503 Clouds 0 1025 90 10000 0.51 240 20:51 10.11.2021
5504 Clouds 1 1025 88 10000 0.94 269 19:48 10.11.2021
5505 Clouds 1 1025 88 10000 0.94 269 19:30 10.11.2021
5506 Clouds 3 1024 85 10000 0.79 243 16:40 10.11.2021
5507 Clouds 4 1024 75 10000 1.09 211 15:46 10.11.2021
5508 Clouds 6 1024 71 10000 0.68 278 14:22 10.11.2021
5509 Clouds 6 1024 72 10000 0.88 292 13:26 10.11.2021
5510 Clouds 4 1024 74 10000 1.21 243 11:39 10.11.2021
5511 Clouds 0 1025 94 10000 0.31 188 09:18 10.11.2021
5512 Clouds -1 1025 94 10000 0.31 188 08:40 10.11.2021
5513 Clouds -1 1025 94 10000 0.94 207 06:43 10.11.2021
5514 Clouds -1 1025 94 10000 0.87 186 05:53 10.11.2021
5515 Clear -1 1027 92 10000 0.53 134 01:31 10.11.2021
5516 Clouds 1 1028 86 10000 1.31 155 21:59 09.11.2021
5517 Clouds 2 1027 86 10000 1.11 145 20:34 09.11.2021
5518 Clouds 2 1029 86 10000 1.56 172 19:28 09.11.2021
5519 Clouds 2 1029 85 10000 1.56 172 18:47 09.11.2021
5520 Clouds 5 1028 74 10000 1.45 181 16:29 09.11.2021
5521 Clouds 7 1027 77 10000 1.93 186 14:59 09.11.2021
5522 Clouds 7 1028 79 10000 2.21 193 13:25 09.11.2021
5523 Clouds 7 1028 84 10000 1.95 192 12:24 09.11.2021
5524 Clouds 5 1028 90 10000 1.76 190 10:53 09.11.2021
5525 Clouds 4 1028 95 10000 1.46 190 09:43 09.11.2021
5526 Clouds 4 1028 96 10000 1.21 185 08:53 09.11.2021
5527 Clouds 3 1027 96 10000 1.02 208 06:59 09.11.2021
5528 Clouds 3 1026 95 10000 1.09 229 02:32 09.11.2021
5529 Clouds 3 1026 95 10000 1.22 247 01:50 09.11.2021
5530 Clouds 3 1025 95 10000 1.52 262 00:22 09.11.2021
5531 Clouds 3 1025 95 10000 1.83 259 23:28 08.11.2021
5532 Clouds 3 1025 95 10000 1.83 259 22:36 08.11.2021
5533 Clouds 4 1024 94 10000 2.04 256 21:22 08.11.2021
5534 Clouds 4 1024 93 10000 2.04 256 20:31 08.11.2021
5535 Clouds 4 1023 92 10000 2.81 261 19:18 08.11.2021
5536 Clouds 4 1023 88 10000 2.81 261 17:35 08.11.2021
5537 Clouds 5 1021 84 10000 3.57 264 15:48 08.11.2021
5538 Clouds 5 1021 89 10000 3.88 264 14:55 08.11.2021
5539 Clouds 5 1021 88 10000 4.02 265 14:24 08.11.2021
5540 Clouds 5 1021 90 10000 4.29 261 12:48 08.11.2021
5541 Clouds 4 1022 93 10000 3.65 262 11:37 08.11.2021
5542 Clouds 3 1021 94 10000 3.34 260 10:35 08.11.2021
5543 Clouds 3 1021 94 10000 2.79 261 08:56 08.11.2021
5544 Clouds 2 1020 95 10000 2.76 260 07:56 08.11.2021
5545 Clouds 3 1019 95 10000 2.7 257 06:55 08.11.2021
5546 Clouds 3 1017 94 10000 3.48 262 03:35 08.11.2021
5547 Clouds 3 1016 94 6303 5.09 261 00:18 08.11.2021
5548 Clouds 3 1016 94 6295 4.85 258 22:48 07.11.2021
5549 Clouds 3 1015 93 10000 5.14 258 21:24 07.11.2021
5550 Clouds 3 1014 93 10000 5.38 261 19:56 07.11.2021
5551 Clouds 3 1013 93 10000 5.57 267 18:28 07.11.2021
5552 Clouds 3 1013 93 10000 5.57 267 17:38 07.11.2021
5553 Clouds 4 1012 92 10000 6.65 273 16:21 07.11.2021
5554 Clouds 5 1012 88 10000 6.94 271 14:47 07.11.2021
5555 Rain 5 1011 88 10000 7.06 268 14:24 07.11.2021
5556 Clouds 6 1012 90 10000 6.79 265 11:58 07.11.2021
5557 Clouds 5 1012 90 10000 6.79 265 11:31 07.11.2021
5558 Rain 4 1013 90 4773 6.32 249 08:59 07.11.2021
5559 Clouds 5 1016 86 10000 6.55 230 02:53 07.11.2021
5560 Clouds 5 1019 86 10000 5.01 227 00:25 07.11.2021
5561 Clouds 5 1020 86 10000 4.9 225 22:55 06.11.2021
5562 Clouds 4 1021 85 10000 4.94 220 21:50 06.11.2021
5563 Clouds 4 1022 88 10000 4.95 223 20:56 06.11.2021
5564 Clouds 4 1022 88 10000 4.75 225 19:42 06.11.2021
5565 Clouds 4 1023 84 10000 4.1 225 17:31 06.11.2021
5566 Clouds 5 1024 82 10000 4.09 225 16:32 06.11.2021
5567 Clouds 6 1025 81 10000 4.63 240 13:39 06.11.2021
5568 Clouds 5 1026 80 10000 4.35 239 12:55 06.11.2021
5569 Clouds 5 1028 84 10000 4.17 236 11:18 06.11.2021
5570 Clouds 3 1028 95 10000 3.45 233 08:48 06.11.2021
5571 Clouds 3 1027 96 9970 3.54 247 04:50 06.11.2021
5572 Clouds 3 1026 96 10000 2.53 250 23:49 05.11.2021
5573 Clouds 3 1026 96 10000 2.42 258 23:28 05.11.2021
5574 Clouds 3 1026 96 10000 2.42 258 22:33 05.11.2021
5575 Clouds 4 1025 96 10000 2.59 244 20:32 05.11.2021
5576 Clouds 4 1024 96 10000 2.73 248 19:51 05.11.2021
5577 Clouds 4 1024 96 10000 3.1 261 18:43 05.11.2021
5578 Clouds 4 1024 96 10000 3.48 271 17:52 05.11.2021
5579 Clouds 4 1023 96 10000 3.8 267 16:37 05.11.2021
5580 Clouds 4 1021 96 9748 3.22 260 14:22 05.11.2021
5581 Clouds 4 1020 96 5104 2.59 248 12:27 05.11.2021
5582 Clouds 3 1018 96 5138 2.45 248 09:29 05.11.2021
5583 Rain 3 1017 96 5448 2.33 250 08:28 05.11.2021
5584 Rain 3 1015 94 6981 2.31 263 06:21 05.11.2021
5585 Rain 3 1012 93 4987 3.31 276 02:38 05.11.2021
5586 Rain 3 1012 93 4780 3.54 272 02:19 05.11.2021
5587 Rain 3 1010 96 4207 3.94 280 23:57 04.11.2021
5588 Clouds 3 1009 96 3050 4.8 278 22:21 04.11.2021
5589 Clouds 3 1009 96 3050 4.8 278 21:56 04.11.2021
5590 Clouds 2 1008 94 2935 5.43 274 21:27 04.11.2021
5591 Rain 2 1007 93 4124 5.17 273 20:29 04.11.2021
5592 Rain 2 1007 92 4124 5.17 273 19:49 04.11.2021
5593 Rain 3 1006 92 2688 4.65 278 19:27 04.11.2021
5594 Rain 3 1005 92 2021 4.29 284 18:26 04.11.2021
5595 Rain 3 1004 94 1707 4.46 294 17:26 04.11.2021
5596 Rain 3 1003 95 1825 4.87 297 15:46 04.11.2021
5597 Rain 3 1001 95 745 5.64 304 13:45 04.11.2021
5598 Rain 3 1001 96 1274 3.37 310 10:48 04.11.2021
5599 Rain 3 1001 95 1675 2.63 332 08:41 04.11.2021
5600 Rain 3 1001 95 1581 1.86 340 07:49 04.11.2021
5601 Rain 3 1001 95 1565 1.91 332 07:31 04.11.2021
5602 Clouds 3 1002 87 10000 0.91 138 23:18 03.11.2021
5603 Rain 3 1002 85 10000 0.92 121 22:26 03.11.2021
5604 Clouds 3 1002 88 10000 0.92 121 21:37 03.11.2021
5605 Clouds 3 1003 86 10000 1.53 119 20:44 03.11.2021
5606 Rain 4 1002 85 10000 1.93 130 20:25 03.11.2021
5607 Rain 4 1002 87 10000 1.93 130 19:33 03.11.2021
5608 Rain 3 1002 87 10000 1.56 113 18:27 03.11.2021
5609 Rain 3 1002 87 10000 1.56 113 18:27 03.11.2021
5610 Rain 3 1002 87 10000 1.56 113 18:27 03.11.2021
5611 Clouds 3 1002 88 10000 1.56 113 17:48 03.11.2021
5612 Clouds 4 1002 91 10000 1.64 122 16:49 03.11.2021
5613 Clouds 4 1002 91 10000 1.42 107 15:49 03.11.2021
5614 Clouds 4 1002 90 10000 1.42 107 15:30 03.11.2021
5615 Rain 5 1002 87 10000 1.31 129 13:41 03.11.2021
5616 Clouds 5 1003 85 10000 1.74 165 11:35 03.11.2021
5617 Clouds 4 1003 86 10000 1.33 150 10:50 03.11.2021
5618 Clouds 4 1003 92 10000 0.74 107 09:47 03.11.2021
5619 Clouds 3 1003 94 10000 0.84 163 08:53 03.11.2021
5620 Clouds 3 1003 96 10000 0.77 165 07:55 03.11.2021
5621 Clouds 3 1003 97 10000 1.02 173 07:32 03.11.2021
5622 Clouds 3 1002 96 10000 1.55 190 04:23 03.11.2021
5623 Clouds 3 1002 96 10000 1.31 199 00:58 03.11.2021
5624 Rain 3 1003 95 10000 2.3 209 23:24 02.11.2021
5625 Rain 3 1002 91 10000 1.99 202 21:59 02.11.2021
5626 Clouds 2 1002 91 10000 1.97 206 20:43 02.11.2021
5627 Clouds 2 1002 90 10000 1.81 208 20:21 02.11.2021
5628 Clouds 2 1002 90 10000 1.81 208 19:31 02.11.2021
5629 Clouds 2 1002 90 10000 1.81 208 19:31 02.11.2021
5630 Clouds 3 1002 90 10000 1.76 203 18:36 02.11.2021
5631 Clouds 4 1002 88 10000 1.62 208 17:47 02.11.2021
5632 Clouds 4 1001 87 10000 2.05 223 17:25 02.11.2021
5633 Clouds 5 1001 83 10000 2.45 226 16:19 02.11.2021
5634 Clouds 6 1001 80 10000 2.81 229 14:57 02.11.2021
5635 Clouds 6 1001 82 10000 2.92 224 13:31 02.11.2021
5636 Clouds 6 1001 87 10000 2.67 230 12:59 02.11.2021
5637 Clouds 6 1001 83 10000 2.95 230 12:18 02.11.2021
5638 Clouds 6 1001 88 10000 2.68 230 11:26 02.11.2021
5639 Clouds 5 1001 89 10000 2.68 230 10:45 02.11.2021
5640 Clouds 5 1001 90 10000 2.29 227 10:22 02.11.2021
5641 Clouds 3 1002 94 10000 1.72 213 08:22 02.11.2021
5642 Clouds 3 1001 96 10000 1.39 207 06:29 02.11.2021
5643 Clouds 2 1001 95 10000 1.42 201 03:30 02.11.2021
5644 Clouds 3 1002 94 10000 1.97 211 00:25 02.11.2021
5645 Clouds 4 1003 90 10000 2.05 194 22:25 01.11.2021
5646 Clouds 5 1003 88 10000 2.18 186 20:47 01.11.2021
5647 Clouds 5 1003 92 10000 2.52 192 20:27 01.11.2021
5648 Clouds 5 1003 87 10000 2.52 192 19:43 01.11.2021
5649 Clouds 5 1002 86 10000 2.14 191 18:54 01.11.2021
5650 Clouds 6 1002 84 10000 2.69 198 17:56 01.11.2021
5651 Clouds 7 1002 80 10000 3.26 199 16:58 01.11.2021
5652 Clouds 7 1002 79 10000 3.26 199 16:33 01.11.2021
5653 Clouds 8 1002 76 10000 3.59 208 15:40 01.11.2021
5654 Clouds 8 1002 76 10000 4.48 215 15:19 01.11.2021
5655 Clouds 9 1002 75 10000 4.48 215 14:39 01.11.2021
5656 Clouds 9 1002 74 10000 4.99 221 14:19 01.11.2021
5657 Clouds 9 1002 74 10000 4.99 221 14:19 01.11.2021
5658 Clouds 8 1003 85 10000 4.94 216 12:50 01.11.2021
5659 Clouds 8 1003 88 10000 4.92 215 11:39 01.11.2021
5660 Clouds 7 1002 89 10000 4.91 220 10:20 01.11.2021
5661 Rain 6 1002 91 10000 2.42 225 08:23 01.11.2021
5662 Rain 6 1002 92 10000 2.42 225 07:47 01.11.2021
5663 Clouds 9 999 82 10000 2.85 236 03:55 01.11.2021
5664 Clouds 9 999 82 10000 2.85 236 03:33 01.11.2021
5665 Clouds 11 1000 58 10000 4.42 188 23:52 31.10.2021
5666 Clouds 10 1001 64 10000 4.46 167 20:59 31.10.2021
5667 Clouds 11 1001 68 10000 4.88 161 19:54 31.10.2021
5668 Clouds 11 1003 81 10000 3.98 152 18:43 31.10.2021
5669 Clouds 11 1003 82 10000 3.45 152 18:21 31.10.2021
5670 Clouds 12 1004 82 10000 3.41 162 16:48 31.10.2021
5671 Clouds 13 1005 80 10000 4.06 172 14:53 31.10.2021
5672 Clouds 12 1007 81 10000 4.24 186 12:57 31.10.2021
5673 Clouds 12 1008 82 10000 4.42 190 11:56 31.10.2021
5674 Clouds 11 1009 82 10000 3.54 184 10:51 31.10.2021
5675 Clouds 9 1010 89 9887 2.67 191 09:26 31.10.2021
5676 Clouds 8 1010 92 9887 2.67 191 08:46 31.10.2021
5677 Clouds 8 1009 87 10000 3.54 201 02:54 31.10.2021
5678 Rain 7 1008 86 10000 3.66 200 23:43 30.10.2021
5679 Clouds 7 1007 78 10000 4.23 206 21:46 30.10.2021
5680 Clouds 7 1006 78 10000 4.45 204 21:25 30.10.2021
5681 Clouds 6 1006 67 10000 3.02 189 19:35 30.10.2021
5682 Clouds 7 1006 70 10000 2.02 159 17:43 30.10.2021
5683 Clouds 9 1006 64 10000 1.42 196 15:34 30.10.2021
5684 Clouds 8 1005 45 10000 2.18 147 13:58 30.10.2021
5685 Clouds 9 1005 66 10000 2.18 147 13:38 30.10.2021
5686 Clouds 9 1006 70 10000 2.05 144 13:19 30.10.2021
5687 Clouds 9 1006 73 10000 2.18 131 11:49 30.10.2021
5688 Clouds 6 1007 83 10000 1.94 138 10:34 30.10.2021
5689 Clouds 4 1009 84 10000 2.15 144 08:55 30.10.2021
5690 Clouds 4 1010 89 10000 1.96 167 07:55 30.10.2021
5691 Clouds 4 1010 88 10000 1.78 184 05:46 30.10.2021
5692 Clouds 4 1011 84 10000 2.35 193 02:26 30.10.2021
5693 Clouds 5 1012 59 10000 2.25 180 23:20 29.10.2021
5694 Clouds 5 1012 59 10000 2.25 180 22:33 29.10.2021
5695 Clouds 5 1011 60 10000 2.08 180 20:59 29.10.2021
5696 Clouds 6 1011 60 10000 2.08 180 20:32 29.10.2021
5697 Clouds 7 1011 64 10000 2.05 157 19:18 29.10.2021
5698 Clouds 9 1010 74 10000 2.14 159 17:28 29.10.2021
5699 Clouds 12 1010 64 10000 1.97 156 15:26 29.10.2021
5700 Clouds 11 1012 64 10000 2.22 171 12:49 29.10.2021
5701 Clouds 6 1013 89 10000 1.81 167 10:46 29.10.2021
5702 Clear 4 1013 93 10000 1.65 176 09:45 29.10.2021
5703 Clouds 3 1015 93 10000 1.96 193 02:22 29.10.2021
5704 Clouds 3 1015 93 10000 1.95 196 00:30 29.10.2021
5705 Clouds 3 1016 94 10000 2.08 194 22:27 28.10.2021
5706 Clear 5 1017 91 10000 2.22 180 20:59 28.10.2021
5707 Clear 6 1017 89 10000 2.11 183 19:52 28.10.2021
5708 Clear 6 1017 89 10000 2.11 183 19:52 28.10.2021
5709 Clear 8 1017 84 10000 1.96 182 18:36 28.10.2021
5710 Clouds 9 1017 73 10000 1.84 171 17:38 28.10.2021
5711 Clouds 11 1017 65 10000 1.61 171 16:38 28.10.2021
5712 Clouds 12 1017 69 10000 1.96 182 14:40 28.10.2021
5713 Clouds 11 1018 72 10000 2.06 190 13:33 28.10.2021
5714 Clouds 11 1019 74 10000 1.95 187 12:49 28.10.2021
5715 Clouds 9 1019 81 10000 1.86 178 11:49 28.10.2021
5716 Clouds 6 1021 94 10000 1.75 176 10:23 28.10.2021
5717 Clouds 5 1021 97 10000 1.75 176 09:37 28.10.2021
5718 Clouds 3 1021 97 10000 1.63 168 08:36 28.10.2021
5719 Clouds 4 1021 97 10000 1.41 170 07:41 28.10.2021
5720 Clouds 5 1022 96 10000 1.47 196 01:48 28.10.2021
5721 Clouds 5 1024 95 10000 1.84 206 22:54 27.10.2021
5722 Clouds 6 1024 93 10000 1.84 210 21:57 27.10.2021
5723 Clouds 7 1023 92 10000 1.85 216 21:28 27.10.2021
5724 Clouds 7 1023 90 10000 1.85 216 20:43 27.10.2021
5725 Clouds 8 1023 86 10000 2.09 218 19:47 27.10.2021
5726 Clouds 9 1023 86 10000 2.35 221 18:56 27.10.2021
5727 Clouds 9 1023 84 10000 2.35 221 18:36 27.10.2021
5728 Clouds 10 1022 83 10000 3.93 232 16:25 27.10.2021
5729 Clouds 10 1022 84 10000 4.63 238 15:25 27.10.2021
5730 Clouds 10 1023 87 10000 4.9 240 14:28 27.10.2021
5731 Clouds 8 1024 92 10000 4.14 226 11:18 27.10.2021
5732 Clouds 8 1024 93 10000 4.14 226 10:56 27.10.2021
5733 Clouds 7 1023 93 10000 2.95 223 09:28 27.10.2021
5734 Clouds 6 1023 92 10000 3.02 226 07:46 27.10.2021
5735 Clouds 6 1023 92 10000 2.76 233 05:49 27.10.2021
5736 Clouds 6 1023 92 10000 3.46 234 01:26 27.10.2021
5737 Clouds 6 1023 92 10000 3.46 234 00:54 27.10.2021
5738 Clouds 6 1023 92 10000 3.55 232 23:55 26.10.2021
5739 Clouds 6 1023 91 10000 3.75 230 22:50 26.10.2021
5740 Clouds 6 1023 91 10000 3.57 230 22:27 26.10.2021
5741 Clouds 6 1023 91 10000 3.57 230 21:51 26.10.2021
5742 Clouds 7 1022 88 10000 2.9 217 19:59 26.10.2021
5743 Clouds 7 1022 89 10000 3.23 224 19:22 26.10.2021
5744 Clouds 8 1021 80 10000 3.06 232 18:25 26.10.2021
5745 Clouds 10 1020 76 10000 3.9 246 15:51 26.10.2021
5746 Clouds 9 1020 83 10000 4.83 255 13:45 26.10.2021
5747 Clouds 8 1020 92 10000 3.52 235 11:23 26.10.2021
5748 Clouds 6 1019 93 10000 2.85 227 09:27 26.10.2021
5749 Clouds 5 1019 93 10000 2.61 222 07:23 26.10.2021
5750 Clouds 5 1019 91 10000 1.98 211 00:29 26.10.2021
5751 Clouds 4 1019 92 10000 1.98 211 23:37 25.10.2021
5752 Clouds 3 1020 91 10000 2.07 210 22:35 25.10.2021
5753 Clouds 4 1020 91 10000 2.01 205 21:47 25.10.2021
5754 Clouds 4 1019 91 10000 1.98 208 20:48 25.10.2021
5755 Clouds 5 1019 90 10000 1.88 208 19:44 25.10.2021
5756 Clouds 5 1019 90 10000 1.9 210 19:23 25.10.2021
5757 Clouds 5 1019 88 10000 1.9 210 18:42 25.10.2021
5758 Clouds 7 1019 75 10000 1.98 208 17:42 25.10.2021
5759 Clouds 9 1019 69 10000 2.85 214 15:24 25.10.2021
5760 Clouds 6 1020 84 10000 2.57 219 12:39 25.10.2021
5761 Clouds 5 1020 85 10000 2.24 215 11:25 25.10.2021
5762 Clouds 0 1021 94 10000 1.85 212 09:22 25.10.2021
5763 Clear -1 1021 93 10000 1.88 207 07:26 25.10.2021
5764 Clear 0 1021 91 10000 1.83 204 05:24 25.10.2021
5765 Clear 1 1022 87 10000 1.85 182 00:52 25.10.2021
5766 Clear 1 1022 86 10000 1.85 182 00:34 25.10.2021
5767 Clear 1 1022 86 10000 1.85 182 00:34 25.10.2021
5768 Clear 1 1022 86 10000 1.85 182 00:34 25.10.2021
5769 Clear 1 1023 86 10000 1.87 186 23:42 24.10.2021
5770 Clear 2 1023 83 10000 1.95 188 22:39 24.10.2021
5771 Clear 2 1023 83 10000 2.03 180 22:20 24.10.2021
5772 Clear 2 1023 79 10000 2.03 180 21:33 24.10.2021
5773 Clear 2 1024 77 10000 1.72 173 20:39 24.10.2021
5774 Clear 2 1024 69 10000 1.75 174 19:49 24.10.2021
5775 Clear 5 1024 83 10000 1.78 168 18:30 24.10.2021
5776 Clouds 5 1024 91 10000 1.85 163 17:46 24.10.2021
5777 Clouds 8 1025 63 10000 1.95 171 15:57 24.10.2021
5778 Clouds 8 1025 65 10000 1.95 178 15:19 24.10.2021
5779 Clouds 6 1027 77 10000 2.02 174 13:19 24.10.2021
5780 Clouds 5 1027 79 10000 1.98 170 12:23 24.10.2021
5781 Clouds 4 1027 81 10000 1.98 170 11:36 24.10.2021
5782 Clouds 3 1028 91 10000 1.84 170 10:38 24.10.2021
5783 Clouds 3 1028 91 10000 1.84 170 10:38 24.10.2021
5784 Clouds -2 1029 94 10000 1.65 162 08:39 24.10.2021
5785 Clear 0 1030 94 10000 1.3 162 01:53 24.10.2021
5786 Clouds 1 1031 94 10000 1.19 177 23:51 23.10.2021
5787 Clouds 1 1031 94 10000 0.87 170 22:40 23.10.2021
5788 Clouds 3 1030 93 10000 0.73 212 20:43 23.10.2021
5789 Clouds 4 1029 91 10000 1.07 245 19:26 23.10.2021
5790 Clouds 4 1029 87 10000 1.07 245 18:41 23.10.2021
5791 Clouds 5 1028 91 10000 1.44 269 17:44 23.10.2021
5792 Clouds 6 1028 86 10000 2.36 286 16:53 23.10.2021
5793 Clouds 6 1027 87 10000 4.09 292 15:20 23.10.2021
5794 Clouds 6 1027 89 10000 3.19 273 13:18 23.10.2021
5795 Clouds 1 1021 90 10000 2.87 256 00:42 23.10.2021
5796 Clouds 2 1021 93 10000 3.27 265 23:35 22.10.2021
5797 Clouds 3 1018 95 10000 5.09 286 21:27 22.10.2021
5798 Rain 3 1015 95 5424 5.33 290 19:24 22.10.2021
5799 Rain 4 1013 94 6747 6.99 285 18:21 22.10.2021
5800 Rain 5 1011 85 10000 9.1 260 16:27 22.10.2021
5801 Clouds 5 1011 83 10000 9.23 257 14:35 22.10.2021
5802 Clouds 5 1011 87 10000 9.47 254 12:41 22.10.2021
5803 Clouds 4 1011 88 10000 8.12 247 10:52 22.10.2021
5804 Clouds 3 1011 86 10000 7.56 245 09:57 22.10.2021
5805 Clouds 3 1011 88 10000 7.56 245 09:32 22.10.2021
5806 Clouds 1 1012 90 10000 6.34 245 07:29 22.10.2021
5807 Clouds 1 1012 91 10000 5.76 247 06:20 22.10.2021
5808 Clouds 2 1011 90 10000 5.25 257 00:40 22.10.2021
5809 Clouds 3 1011 87 10000 5.56 262 23:49 21.10.2021
5810 Clouds 3 1010 90 10000 5.79 266 22:40 21.10.2021
5811 Clouds 3 1008 91 10000 6.84 273 21:28 21.10.2021
5812 Clouds 3 1007 93 10000 6.79 276 20:21 21.10.2021
5813 Clouds 3 1007 93 10000 7.06 269 19:49 21.10.2021
5814 Clouds 4 1005 92 5118 6.95 269 19:20 21.10.2021
5815 Rain 4 1005 90 5118 6.95 269 18:30 21.10.2021
5816 Rain 4 1004 91 7338 6.83 281 17:50 21.10.2021
5817 Rain 6 1001 87 10000 10.36 256 16:47 21.10.2021
5818 Rain 6 1000 86 10000 9.37 247 15:28 21.10.2021
5819 Rain 7 1000 82 10000 9.37 247 14:50 21.10.2021
5820 Clouds 7 1000 79 10000 10.55 254 13:42 21.10.2021
5821 Rain 5 997 89 6347 10.56 280 11:47 21.10.2021
5822 Clouds 9 991 76 10000 10.92 227 09:32 21.10.2021
5823 Clouds 10 991 72 10000 10.21 224 07:46 21.10.2021
5824 Clouds 11 992 79 10000 10.97 229 06:28 21.10.2021
5825 Clouds 12 999 85 10000 7.21 217 00:32 21.10.2021
5826 Clouds 12 1002 84 10000 7.69 226 22:29 20.10.2021
5827 Clouds 12 1002 85 10000 7.69 226 21:47 20.10.2021
5828 Clouds 12 1002 85 10000 7.69 226 21:47 20.10.2021
5829 Clouds 12 1002 87 10000 6.94 225 20:58 20.10.2021
5830 Clouds 12 1002 87 10000 6.94 225 20:38 20.10.2021
5831 Clouds 12 1003 87 10000 7.49 227 20:18 20.10.2021
5832 Clouds 12 1003 86 10000 7.45 227 19:20 20.10.2021
5833 Clouds 12 1004 86 10000 7.82 225 18:29 20.10.2021
5834 Rain 12 1004 88 10000 7.7 225 16:37 20.10.2021
5835 Clouds 13 1006 80 10000 8.21 224 13:54 20.10.2021
5836 Clouds 10 1010 91 10000 4.27 209 09:53 20.10.2021
5837 Clouds 9 1012 91 10000 4.16 215 05:30 20.10.2021
5838 Clouds 9 1014 91 10000 3.94 216 02:35 20.10.2021
5839 Clouds 10 1015 91 10000 3.82 213 00:33 20.10.2021
5840 Clouds 10 1016 97 10000 3.72 217 22:37 19.10.2021
5841 Clouds 10 1017 98 5148 3.86 220 21:37 19.10.2021
5842 Clouds 9 1017 97 5070 3.11 209 20:26 19.10.2021
5843 Clouds 9 1018 97 5073 3.12 205 19:58 19.10.2021
5844 Clouds 9 1018 97 5073 3.12 205 19:34 19.10.2021
5845 Clouds 9 1018 97 4606 2.86 206 18:33 19.10.2021
5846 Clouds 9 1017 96 1185 2.57 203 17:47 19.10.2021
5847 Clouds 9 1019 93 8288 2.94 209 15:29 19.10.2021
5848 Clouds 9 1019 93 8288 2.94 209 14:37 19.10.2021
5849 Clouds 9 1019 88 10000 3.37 213 13:52 19.10.2021
5850 Clouds 9 1020 87 10000 3.33 204 12:23 19.10.2021
5851 Clouds 8 1020 86 10000 2.77 196 11:24 19.10.2021
5852 Clouds 7 1021 86 10000 2.65 198 09:55 19.10.2021
5853 Clouds 6 1021 88 10000 2.44 204 08:56 19.10.2021
5854 Clouds 5 1023 89 10000 2.15 207 02:18 19.10.2021
5855 Clouds 5 1023 91 10000 1.99 187 23:58 18.10.2021
5856 Clouds 5 1023 91 10000 1.99 187 23:39 18.10.2021
5857 Clouds 5 1024 88 10000 2.07 189 22:56 18.10.2021
5858 Clouds 6 1024 89 10000 2.04 193 22:18 18.10.2021
5859 Clouds 6 1024 86 10000 1.96 199 20:50 18.10.2021
5860 Clouds 6 1024 85 10000 1.87 193 20:30 18.10.2021
5861 Clouds 6 1024 84 10000 1.78 196 19:32 18.10.2021
5862 Clouds 7 1023 83 10000 1.87 187 18:59 18.10.2021
5863 Clouds 10 1023 73 10000 1.75 194 16:48 18.10.2021
5864 Clouds 10 1024 70 10000 2.46 207 14:57 18.10.2021
5865 Clouds 9 1025 69 10000 2.09 201 12:28 18.10.2021
5866 Clouds 6 1025 81 10000 1.63 189 10:25 18.10.2021
5867 Clear 3 1025 95 10000 1.41 190 09:25 18.10.2021
5868 Clear 3 1025 95 10000 1.41 190 09:25 18.10.2021
5869 Clouds 3 1023 92 10000 1.15 201 01:23 18.10.2021
5870 Clouds 4 1023 91 10000 1.16 222 23:20 17.10.2021
5871 Clouds 5 1023 90 10000 1.09 230 21:45 17.10.2021
5872 Clouds 5 1022 90 10000 1.15 209 20:59 17.10.2021
5873 Clouds 5 1022 90 10000 1.02 215 20:29 17.10.2021
5874 Clouds 5 1021 89 10000 1.11 209 19:38 17.10.2021
5875 Clouds 5 1021 87 10000 1.15 226 18:44 17.10.2021
5876 Clouds 7 1020 82 10000 1.58 247 17:27 17.10.2021
5877 Clouds 7 1020 74 10000 2.23 248 14:47 17.10.2021
5878 Clouds 7 1020 74 10000 2.21 244 14:24 17.10.2021
5879 Clouds 7 1020 75 10000 2.21 244 13:34 17.10.2021
5880 Clouds 6 1021 81 10000 1.91 225 11:54 17.10.2021
5881 Clouds 6 1021 81 10000 1.91 225 11:54 17.10.2021
5882 Clouds 4 1021 88 10000 1.75 215 10:23 17.10.2021
5883 Clouds 3 1021 93 10000 1.64 215 09:23 17.10.2021
5884 Clouds 1 1021 95 10000 1.43 214 06:58 17.10.2021
5885 Clouds 2 1022 80 10000 0.94 202 00:52 17.10.2021
5886 Clouds 3 1022 87 10000 0.71 211 00:21 17.10.2021
5887 Clouds 4 1022 86 10000 0.91 191 21:38 16.10.2021
5888 Clouds 4 1022 86 10000 0.58 204 20:31 16.10.2021
5889 Clouds 4 1022 85 10000 0.52 240 19:45 16.10.2021
5890 Clouds 4 1022 86 10000 1.07 272 19:21 16.10.2021
5891 Clouds 5 1022 83 10000 1.07 272 18:54 16.10.2021
5892 Clouds 5 1022 82 10000 1.07 272 18:36 16.10.2021
5893 Clouds 5 1021 79 10000 1.7 270 18:18 16.10.2021
5894 Clouds 6 1021 77 10000 2.1 269 17:23 16.10.2021
5895 Clouds 7 1021 78 10000 2.42 262 14:52 16.10.2021
5896 Clouds 6 1022 92 10000 1.85 255 11:52 16.10.2021
5897 Clouds 4 1022 97 10000 1.74 254 10:36 16.10.2021
5898 Clouds 1 1022 97 10000 1.46 233 08:20 16.10.2021
5899 Clear 1 1021 97 10000 1.5 251 01:25 16.10.2021
5900 Clear 1 1021 97 10000 1.59 254 23:53 15.10.2021
5901 Clear 1 1021 96 10000 1.58 256 23:20 15.10.2021
5902 Clear 2 1021 95 10000 1.73 263 22:19 15.10.2021
5903 Clear 2 1020 95 10000 1.97 272 21:26 15.10.2021
5904 Clear 3 1020 93 10000 1.89 274 20:47 15.10.2021
5905 Clouds 4 1019 91 10000 2.41 283 19:31 15.10.2021
5906 Clouds 5 1018 92 10000 2.65 281 18:40 15.10.2021
5907 Clouds 8 1016 88 10000 2.83 298 16:29 15.10.2021
5908 Clouds 7 1016 92 10000 2.83 298 15:36 15.10.2021
5909 Rain 6 1014 94 7822 6.39 273 13:29 15.10.2021
5910 Clouds 7 1013 89 10000 6.21 243 11:36 15.10.2021
5911 Clouds 7 1013 89 10000 5.66 240 10:57 15.10.2021
5912 Clouds 7 1013 90 10000 4.89 235 09:49 15.10.2021
5913 Clouds 7 1014 92 10000 4.34 233 05:32 15.10.2021
5914 Clouds 7 1017 96 10000 4.21 237 01:47 15.10.2021
5915 Clouds 7 1019 96 10000 3.93 235 00:22 15.10.2021
5916 Clouds 7 1019 97 10000 3.78 236 22:52 14.10.2021
5917 Clouds 7 1020 97 10000 3.87 237 21:45 14.10.2021
5918 Clouds 7 1020 97 10000 3.85 242 20:49 14.10.2021
5919 Clouds 7 1020 97 5938 4.26 249 20:19 14.10.2021
5920 Clouds 7 1020 97 5938 4.26 249 19:35 14.10.2021
5921 Clouds 8 1020 97 5363 4.71 256 17:37 14.10.2021
5922 Clouds 8 1020 97 5292 4.35 250 16:51 14.10.2021
5923 Clouds 8 1021 97 5090 3.95 245 16:20 14.10.2021
5924 Clouds 7 1021 97 5080 3.56 242 14:43 14.10.2021
5925 Clouds 7 1022 97 5128 3.29 250 14:22 14.10.2021
5926 Clouds 6 1023 97 5081 2.49 247 11:44 14.10.2021
5927 Clouds 6 1023 96 3340 2.45 245 09:55 14.10.2021
5928 Clouds 5 1023 96 3297 2.5 237 07:32 14.10.2021
5929 Clouds 5 1024 95 9098 1.94 246 01:29 14.10.2021
5930 Clouds 5 1024 95 10000 2.12 250 00:28 14.10.2021
5931 Rain 5 1025 95 10000 1.7 243 22:29 13.10.2021
5932 Clouds 5 1025 95 10000 1.7 243 21:33 13.10.2021
5933 Clouds 5 1024 94 10000 1.97 262 20:22 13.10.2021
5934 Clouds 5 1024 92 10000 2.19 264 18:59 13.10.2021
5935 Clouds 5 1024 92 10000 2.19 264 18:36 13.10.2021
5936 Clouds 8 1023 81 10000 3.02 292 15:32 13.10.2021
5937 Clouds 7 1023 83 10000 3.6 298 14:46 13.10.2021
5938 Clouds 7 1023 85 10000 3.72 298 14:22 13.10.2021
5939 Clouds 5 1023 94 10000 2.56 284 12:23 13.10.2021
5940 Clouds 4 1023 95 10000 2.56 284 11:35 13.10.2021
5941 Clouds 3 1023 95 7347 1.55 258 08:48 13.10.2021
5942 Clouds 0 1022 98 10000 1.36 270 07:43 13.10.2021
5943 Clouds 1 1020 94 10000 1.86 295 02:30 13.10.2021
5944 Clouds 2 1020 92 10000 1.64 293 01:47 13.10.2021
5945 Clouds 2 1019 91 10000 1.47 293 23:31 12.10.2021
5946 Clouds 2 1019 91 10000 1.47 293 23:31 12.10.2021
5947 Clouds 2 1019 93 10000 1.66 306 22:47 12.10.2021
5948 Clouds 2 1019 93 10000 1.7 303 22:23 12.10.2021
5949 Clouds 3 1018 90 10000 1.82 301 20:46 12.10.2021
5950 Clouds 3 1018 89 10000 2.12 308 20:18 12.10.2021
5951 Clouds 4 1017 92 10000 2 314 18:57 12.10.2021
5952 Clouds 4 1016 91 10000 2.7 329 18:18 12.10.2021
5953 Clouds 6 1016 90 10000 3.61 331 16:44 12.10.2021
5954 Clouds 6 1016 91 10000 4.2 330 16:18 12.10.2021
5955 Clouds 7 1016 88 10000 4.02 327 14:46 12.10.2021
5956 Clouds 7 1016 89 10000 4.78 311 13:44 12.10.2021
5957 Clouds 6 1016 93 10000 4.31 299 12:40 12.10.2021
5958 Rain 5 1017 96 5252 3.33 274 10:20 12.10.2021
5959 Rain 5 1018 95 6706 3.62 266 08:49 12.10.2021
5960 Rain 5 1018 96 3984 3.99 274 07:54 12.10.2021
5961 Clouds 5 1018 96 3922 4.2 253 06:41 12.10.2021
5962 Clouds 4 1020 95 7377 3.45 247 04:33 12.10.2021
5963 Clouds 4 1022 95 10000 2.35 269 01:30 12.10.2021
5964 Clouds 5 1023 90 10000 2.77 287 23:41 11.10.2021
5965 Rain 5 1023 96 10000 2.9 289 22:59 11.10.2021
5966 Clouds 5 1023 96 10000 2.81 287 22:29 11.10.2021
5967 Clouds 6 1023 87 10000 2.67 281 21:18 11.10.2021
5968 Clouds 6 1023 90 10000 2.69 275 19:46 11.10.2021
5969 Clouds 7 1023 90 10000 3.05 278 18:59 11.10.2021
5970 Clouds 8 1022 87 10000 3.67 289 17:59 11.10.2021
5971 Rain 9 1022 80 10000 3.93 297 16:39 11.10.2021
5972 Clouds 9 1022 84 10000 4.18 300 15:52 11.10.2021
5973 Clouds 9 1022 84 10000 4.18 300 15:32 11.10.2021
5974 Clouds 9 1023 91 10000 4.51 294 14:46 11.10.2021
5975 Clouds 8 1023 95 10000 4.79 289 13:39 11.10.2021
5976 Clouds 6 1024 97 10000 2.99 278 12:20 11.10.2021
5977 Clouds 5 1024 96 10000 2.58 284 10:48 11.10.2021
5978 Clouds 5 1024 96 5224 1.9 272 09:44 11.10.2021
5979 Clouds 3 1024 92 10000 1.95 259 07:30 11.10.2021
5980 Clouds 1 1025 90 10000 1.73 228 01:42 11.10.2021
5981 Clouds 1 1025 89 10000 1.7 227 00:52 11.10.2021
5982 Clouds 1 1026 88 10000 1.56 232 00:28 11.10.2021
5983 Clear 2 1026 85 10000 1.34 197 21:57 10.10.2021
5984 Clear 2 1026 85 10000 1.34 197 21:35 10.10.2021
5985 Clear 2 1026 84 10000 1.16 187 20:48 10.10.2021
5986 Clouds 2 1026 83 10000 0.8 194 20:22 10.10.2021
5987 Clouds 3 1026 83 10000 0.8 194 19:59 10.10.2021
5988 Clouds 4 1026 82 10000 0.8 194 19:38 10.10.2021
5989 Clouds 6 1026 75 10000 0.6 199 18:37 10.10.2021
5990 Clouds 11 1025 66 10000 0.75 241 17:19 10.10.2021
5991 Clouds 11 1025 63 10000 0.9 170 15:47 10.10.2021
5992 Clouds 11 1026 62 10000 1.17 258 14:42 10.10.2021
5993 Clear 10 1026 65 10000 0.92 197 13:34 10.10.2021
5994 Clear 9 1026 68 10000 1.07 175 12:40 10.10.2021
5995 Clear 6 1027 71 10000 1.15 161 10:55 10.10.2021
5996 Clear 2 1028 81 10000 1.29 154 09:31 10.10.2021
5997 Clear 2 1028 81 10000 1.29 154 09:31 10.10.2021
5998 Clear 2 1028 85 10000 1.21 148 08:54 10.10.2021
5999 Clouds -2 1028 89 10000 1.08 140 07:56 10.10.2021
6000 Clouds 0 1030 64 10000 1.36 111 03:28 10.10.2021
6001 Clouds 1 1031 66 10000 1.68 110 01:28 10.10.2021
6002 Clouds 1 1031 66 10000 1.68 110 00:37 10.10.2021
6003 Clouds 2 1031 66 10000 1.88 107 23:22 09.10.2021
6004 Clouds 3 1031 65 10000 2.07 102 21:52 09.10.2021
6005 Clouds 4 1031 64 10000 2.01 102 21:29 09.10.2021
6006 Clouds 5 1031 63 10000 2.06 98 19:46 09.10.2021
6007 Clouds 6 1031 71 10000 2.15 93 19:22 09.10.2021
6008 Clouds 8 1031 74 10000 2.15 93 18:33 09.10.2021
6009 Clouds 9 1030 59 10000 2.31 94 17:43 09.10.2021
6010 Clear 11 1030 69 10000 3.21 97 16:19 09.10.2021
6011 Clear 10 1030 75 10000 3.27 97 13:47 09.10.2021
6012 Clear 10 1031 76 10000 3.14 97 13:24 09.10.2021
6013 Clear 8 1031 82 10000 2.86 97 11:56 09.10.2021
6014 Clear 6 1031 88 10000 2.69 99 10:42 09.10.2021
6015 Clear 3 1031 93 10000 2.41 94 09:53 09.10.2021
6016 Clear 0 1031 95 10000 1.84 93 08:32 09.10.2021
6017 Clear 0 1031 94 10000 1.99 98 07:49 09.10.2021
6018 Clear 0 1031 94 10000 1.9 87 05:55 09.10.2021
6019 Clear 1 1031 90 10000 1.76 82 04:18 09.10.2021
6020 Clear 2 1031 93 10000 1.77 82 02:43 09.10.2021
6021 Clear 5 1032 92 10000 1.99 82 23:55 08.10.2021
6022 Clear 5 1032 92 10000 1.99 82 23:31 08.10.2021
6023 Clear 5 1032 92 10000 1.99 82 23:31 08.10.2021
6024 Clear 6 1032 92 10000 2.01 82 22:42 08.10.2021
6025 Clear 6 1032 92 10000 2.3 83 21:39 08.10.2021
6026 Clouds 7 1031 86 10000 2.71 77 19:44 08.10.2021
6027 Clouds 11 1030 75 10000 3.01 64 17:36 08.10.2021
6028 Clear 12 1030 72 10000 3.61 66 16:53 08.10.2021
6029 Clear 12 1030 72 10000 3.61 66 16:53 08.10.2021
6030 Clear 12 1030 72 10000 3.9 69 16:24 08.10.2021
6031 Clouds 12 1030 73 10000 3.84 67 14:18 08.10.2021
6032 Clouds 12 1030 72 10000 3.84 67 13:41 08.10.2021
6033 Clouds 10 1031 81 10000 3.22 66 11:41 08.10.2021
6034 Clouds 9 1031 84 10000 2.6 59 10:42 08.10.2021
6035 Clouds 9 1031 75 10000 2.07 50 09:46 08.10.2021
6036 Clear 4 1031 94 10000 1.11 66 03:36 08.10.2021
6037 Clear 5 1030 93 10000 0.88 99 23:22 07.10.2021
6038 Clear 5 1030 91 10000 0.98 107 21:47 07.10.2021
6039 Clear 5 1030 88 10000 1.33 103 21:28 07.10.2021
6040 Clouds 7 1030 91 10000 1.24 96 20:29 07.10.2021
6041 Clouds 8 1030 89 10000 1.24 96 19:32 07.10.2021
6042 Clouds 9 1029 86 10000 1.09 59 18:40 07.10.2021
6043 Clouds 12 1028 74 10000 0.39 73 17:27 07.10.2021
6044 Clouds 12 1028 72 10000 0.59 100 15:58 07.10.2021
6045 Clouds 12 1027 71 10000 0.56 118 14:48 07.10.2021
6046 Clouds 11 1027 73 10000 0.57 138 13:43 07.10.2021
6047 Clouds 11 1027 74 10000 0.85 143 12:53 07.10.2021
6048 Clouds 9 1027 82 10000 0.67 164 10:58 07.10.2021
6049 Clouds 8 1027 89 10000 0.69 171 10:22 07.10.2021
6050 Clouds 7 1027 93 10000 0.69 171 09:42 07.10.2021
6051 Clouds 7 1027 92 10000 0.83 189 08:53 07.10.2021
6052 Clouds 6 1026 93 10000 1.23 178 07:58 07.10.2021
6053 Clouds 6 1026 93 10000 1.23 178 07:38 07.10.2021
6054 Clouds 7 1026 91 10000 1.15 164 06:36 07.10.2021
6055 Clouds 6 1022 95 10000 1.85 184 00:29 07.10.2021
6056 Clouds 6 1021 90 10000 1.83 178 23:18 06.10.2021
6057 Clouds 6 1021 90 10000 1.84 188 22:24 06.10.2021
6058 Clouds 6 1020 88 10000 2.29 196 21:24 06.10.2021
6059 Clouds 7 1020 85 10000 2.77 204 20:28 06.10.2021
6060 Clouds 8 1019 81 10000 3.45 213 18:59 06.10.2021
6061 Clouds 9 1018 75 10000 3.94 221 17:26 06.10.2021
6062 Clouds 10 1017 79 10000 4.9 230 15:37 06.10.2021
6063 Clouds 11 1016 70 10000 5.23 217 14:41 06.10.2021
6064 Clouds 10 1016 75 10000 5.58 221 13:24 06.10.2021
6065 Clouds 10 1016 76 10000 5.58 221 12:46 06.10.2021
6066 Clouds 9 1015 83 10000 5.44 219 12:24 06.10.2021
6067 Clouds 9 1015 86 10000 4.99 217 11:23 06.10.2021
6068 Clouds 7 1014 91 10000 4.72 219 09:40 06.10.2021
6069 Clouds 7 1014 94 10000 4.15 216 08:58 06.10.2021
6070 Clouds 6 1014 95 10000 4 216 08:30 06.10.2021
6071 Clouds 6 1013 95 10000 4.21 221 05:38 06.10.2021
6072 Clouds 7 1010 95 10000 4.23 234 01:56 06.10.2021
6073 Rain 8 1009 93 10000 4.13 207 00:22 06.10.2021
6074 Rain 8 1009 92 10000 4.13 207 23:51 05.10.2021
6075 Rain 8 1008 89 10000 4.41 202 23:29 05.10.2021
6076 Clouds 8 1008 91 10000 4.41 202 22:30 05.10.2021
6077 Clouds 8 1008 91 10000 3.62 197 21:56 05.10.2021
6078 Clouds 8 1008 91 10000 3.62 197 21:56 05.10.2021
6079 Clouds 8 1008 91 10000 2.98 187 21:19 05.10.2021
6080 Clouds 7 1008 93 10000 3.45 197 20:26 05.10.2021
6081 Clouds 8 1008 93 10000 3.45 197 19:50 05.10.2021
6082 Clouds 8 1008 92 10000 3.76 206 19:23 05.10.2021
6083 Clouds 10 1008 82 10000 3.36 209 18:20 05.10.2021
6084 Clouds 9 1009 92 10000 1.81 198 15:28 05.10.2021
6085 Clouds 8 1009 96 7884 1.43 224 13:49 05.10.2021
6086 Clouds 8 1009 96 3839 1.22 228 13:22 05.10.2021
6087 Clouds 8 1009 97 3839 1.22 228 12:33 05.10.2021
6088 Rain 7 1009 97 6568 1.47 252 11:41 05.10.2021
6089 Rain 7 1010 97 9810 0.3 302 10:34 05.10.2021
6090 Rain 6 1012 96 7288 0.64 187 07:38 05.10.2021
6091 Rain 7 1017 91 10000 1.02 169 01:28 05.10.2021
6092 Clouds 7 1018 89 10000 1.4 153 22:53 04.10.2021
6093 Clouds 7 1019 91 10000 1.58 158 21:23 04.10.2021
6094 Clouds 10 1019 89 10000 1.65 162 18:51 04.10.2021
6095 Clouds 11 1018 76 10000 2.47 194 17:26 04.10.2021
6096 Clouds 12 1018 74 10000 2.97 205 15:33 04.10.2021
6097 Rain 12 1018 77 10000 2.85 212 14:46 04.10.2021
6098 Clouds 12 1018 76 10000 2.81 219 14:18 04.10.2021
6099 Clouds 11 1018 77 10000 2.81 219 13:31 04.10.2021
6100 Rain 11 1018 78 10000 2.84 214 12:50 04.10.2021
6101 Rain 10 1018 80 10000 2.41 215 11:33 04.10.2021
6102 Rain 9 1019 87 10000 2.11 191 10:47 04.10.2021
6103 Rain 8 1018 93 10000 1.76 187 09:44 04.10.2021
6104 Clouds 8 1017 93 10000 1.65 191 07:53 04.10.2021
6105 Clouds 8 1017 93 10000 2.11 213 06:50 04.10.2021
6106 Rain 12 1012 81 10000 3.78 277 23:38 03.10.2021
6107 Rain 14 1010 78 10000 5.18 227 21:56 03.10.2021
6108 Clouds 15 1010 78 10000 5.18 227 21:31 03.10.2021
6109 Clouds 15 1009 80 10000 4.84 222 20:49 03.10.2021
6110 Clouds 16 1007 65 10000 5.1 203 19:49 03.10.2021
6111 Clouds 17 1005 61 10000 4.56 184 18:29 03.10.2021
6112 Clouds 18 1005 61 10000 4.56 184 17:37 03.10.2021
6113 Clouds 18 1005 58 10000 5.86 190 15:30 03.10.2021
6114 Clouds 17 1005 58 10000 4.28 173 14:31 03.10.2021
6115 Clouds 17 1005 58 10000 4.28 173 14:31 03.10.2021
6116 Clouds 16 1005 57 10000 4.46 175 13:36 03.10.2021
6117 Clouds 15 1005 64 10000 5.77 192 12:50 03.10.2021
6118 Clouds 14 1005 64 10000 6.4 198 11:40 03.10.2021
6119 Clouds 13 1004 67 10000 5.78 178 10:21 03.10.2021
6120 Clouds 13 1003 73 10000 6.14 181 06:42 03.10.2021
6121 Clouds 12 1006 75 10000 5.64 171 23:50 02.10.2021
6122 Clouds 12 1007 74 10000 4.69 161 22:18 02.10.2021
6123 Clouds 10 1008 75 10000 4.72 169 20:34 02.10.2021
6124 Clouds 12 1009 75 10000 4.44 171 18:57 02.10.2021
6125 Clouds 13 1009 72 10000 4.29 178 18:27 02.10.2021
6126 Clouds 14 1009 66 10000 4.29 178 17:38 02.10.2021
6127 Clouds 15 1010 71 10000 4.98 191 16:39 02.10.2021
6128 Clouds 13 1011 77 10000 4.96 210 14:35 02.10.2021
6129 Clouds 10 1024 73 10000 4.8 259 15:38 30.09.2021
6130 Clouds 11 1025 72 10000 5.56 253 14:29 30.09.2021
6131 Clouds 9 1026 80 10000 5.83 244 11:59 30.09.2021
6132 Clouds 9 1026 81 10000 5.76 246 11:23 30.09.2021
6133 Clouds 7 1025 91 10000 5.18 240 10:26 30.09.2021
6134 Clouds 5 1025 93 10000 4.78 241 08:32 30.09.2021
6135 Clouds 4 1025 94 10000 4.46 239 07:48 30.09.2021
6136 Clouds 4 1024 94 10000 4.7 237 05:25 30.09.2021
6137 Clouds 5 1024 93 10000 4.81 243 02:33 30.09.2021
6138 Clouds 5 1022 92 10000 5.16 241 00:35 30.09.2021
6139 Clouds 5 1021 91 10000 5.1 242 22:48 29.09.2021
6140 Clouds 5 1021 92 10000 5.31 246 21:52 29.09.2021
6141 Clouds 5 1020 94 10000 5.27 249 20:40 29.09.2021
6142 Clouds 6 1020 91 10000 4.02 243 20:20 29.09.2021
6143 Clouds 6 1019 91 10000 3.08 237 19:24 29.09.2021
6144 Clouds 8 1018 92 10000 2.95 246 18:18 29.09.2021
6145 Clouds 8 1018 93 9158 4.87 264 16:55 29.09.2021
6146 Rain 10 1016 82 10000 6.27 229 16:27 29.09.2021
6147 Clouds 13 1016 87 10000 6.27 229 15:35 29.09.2021
6148 Clouds 13 1015 78 10000 4.59 223 14:37 29.09.2021
6149 Clouds 13 1015 79 10000 6 220 13:33 29.09.2021
6150 Clouds 13 1015 83 10000 5.53 218 12:38 29.09.2021
6151 Clouds 10 1017 89 10000 2.67 200 11:23 29.09.2021
6152 Clouds 9 1017 92 10000 2.05 187 10:28 29.09.2021
6153 Clouds 8 1017 94 10000 2.05 187 09:41 29.09.2021
6154 Clouds 7 1017 92 10000 1.77 170 07:52 29.09.2021
6155 Clouds 6 1018 93 10000 1.6 157 06:46 29.09.2021
6156 Clouds 6 1021 93 10000 1.5 122 00:28 29.09.2021
6157 Clouds 7 1022 91 10000 1.58 123 22:45 28.09.2021
6158 Clouds 7 1022 91 10000 1.64 115 22:22 28.09.2021
6159 Clouds 8 1022 91 10000 1.43 113 21:21 28.09.2021
6160 Clouds 10 1022 88 10000 1.43 98 19:49 28.09.2021
6161 Clouds 10 1022 88 10000 1.21 93 19:29 28.09.2021
6162 Clouds 11 1022 87 10000 1.21 93 18:41 28.09.2021
6163 Clouds 13 1022 78 10000 0.67 26 16:57 28.09.2021
6164 Clouds 13 1023 79 10000 1.2 288 15:21 28.09.2021
6165 Clouds 13 1023 84 10000 1.49 303 13:27 28.09.2021
6166 Clouds 12 1023 87 10000 1.85 294 12:25 28.09.2021
6167 Clouds 11 1023 87 10000 1.85 294 11:51 28.09.2021
6168 Clouds 11 1023 87 10000 1.85 294 11:32 28.09.2021
6169 Clouds 10 1024 92 10000 2.03 292 10:30 28.09.2021
6170 Clouds 9 1023 98 10000 1.68 281 09:29 28.09.2021
6171 Clouds 8 1023 98 10000 1.68 281 08:44 28.09.2021
6172 Clouds 8 1023 98 10000 1.36 272 08:20 28.09.2021
6173 Clouds 8 1023 98 10000 1.35 277 06:46 28.09.2021
6174 Clouds 9 1021 97 10000 2.55 288 02:56 28.09.2021
6175 Rain 11 1020 91 10000 4.23 271 00:34 28.09.2021
6176 Clouds 12 1019 91 10000 2.65 237 23:52 27.09.2021
6177 Clouds 13 1019 90 10000 2.23 231 23:27 27.09.2021
6178 Rain 13 1019 92 10000 2.23 231 22:44 27.09.2021
6179 Clouds 14 1018 87 10000 2.77 237 21:39 27.09.2021
6180 Rain 14 1018 84 10000 3.38 244 20:33 27.09.2021
6181 Clouds 14 1018 84 10000 3.76 242 19:40 27.09.2021
6182 Clouds 15 1017 87 10000 2.99 226 18:55 27.09.2021
6183 Clouds 16 1016 81 10000 3.41 224 18:24 27.09.2021
6184 Clouds 17 1016 74 10000 3.84 226 17:22 27.09.2021
6185 Clouds 18 1016 75 10000 3.84 226 16:39 27.09.2021
6186 Clouds 18 1016 73 10000 3.78 220 15:40 27.09.2021
6187 Clouds 17 1016 76 10000 3.08 220 13:58 27.09.2021
6188 Clouds 16 1016 83 10000 2.76 213 12:59 27.09.2021
6189 Clouds 14 1017 92 10000 2.4 210 10:52 27.09.2021
6190 Clouds 13 1016 92 10000 2.21 214 09:50 27.09.2021
6191 Clouds 13 1016 92 10000 1.7 193 08:32 27.09.2021
6192 Clouds 13 1017 96 10000 1.78 190 05:18 27.09.2021
6193 Clouds 14 1017 96 10000 1.6 213 01:48 27.09.2021
6194 Clouds 15 1017 90 10000 1.1 213 22:28 26.09.2021
6195 Clouds 15 1017 90 10000 1.1 213 21:45 26.09.2021
6196 Clouds 15 1016 90 10000 1.4 222 20:52 26.09.2021
6197 Clouds 15 1016 89 10000 1.27 211 20:20 26.09.2021
6198 Clouds 15 1016 89 10000 1.27 211 20:20 26.09.2021
6199 Clouds 16 1016 86 10000 1.27 211 19:37 26.09.2021
6200 Clouds 17 1016 84 10000 0.98 208 18:45 26.09.2021
6201 Clouds 19 1015 68 10000 1.73 227 17:50 26.09.2021
6202 Clouds 20 1015 69 10000 2.7 230 17:21 26.09.2021
6203 Clouds 21 1015 68 10000 2.7 230 16:30 26.09.2021
6204 Clouds 21 1015 67 10000 3.12 222 15:57 26.09.2021
6205 Clouds 21 1016 69 10000 3.93 222 14:45 26.09.2021
6206 Clouds 20 1016 72 10000 3.88 216 13:45 26.09.2021
6207 Clouds 19 1016 72 10000 3.79 214 12:56 26.09.2021
6208 Clouds 17 1016 76 10000 3.34 209 11:59 26.09.2021
6209 Clouds 17 1016 76 10000 3.34 209 11:37 26.09.2021
6210 Clouds 14 1016 86 10000 2.01 173 10:23 26.09.2021
6211 Clouds 11 1016 87 10000 1.73 160 08:56 26.09.2021
6212 Clouds 11 1016 87 10000 1.48 144 06:32 26.09.2021
6213 Clouds 10 1018 90 10000 1.4 146 00:22 26.09.2021
6214 Clouds 10 1018 89 10000 1.3 141 23:24 25.09.2021
6215 Clouds 10 1018 89 10000 1.3 141 22:38 25.09.2021
6216 Clouds 10 1018 89 10000 1.18 139 21:55 25.09.2021
6217 Clouds 11 1018 89 10000 1.18 139 21:31 25.09.2021
6218 Clouds 11 1018 89 10000 1.14 118 20:45 25.09.2021
6219 Clouds 14 1017 88 10000 0.17 111 18:59 25.09.2021
6220 Clouds 14 1017 87 10000 0.68 246 18:24 25.09.2021
6221 Clouds 15 1016 82 10000 2.11 262 15:48 25.09.2021
6222 Clouds 15 1017 85 10000 2.73 249 13:57 25.09.2021
6223 Clouds 15 1017 83 10000 2.73 249 13:31 25.09.2021
6224 Clouds 14 1017 86 10000 2.78 246 12:27 25.09.2021
6225 Clouds 13 1017 87 10000 2.87 242 10:34 25.09.2021
6226 Clouds 12 1017 89 10000 2.91 238 09:40 25.09.2021
6227 Clouds 11 1016 90 7491 2.53 228 08:20 25.09.2021
6228 Clouds 11 1015 90 7754 2.88 239 05:51 25.09.2021
6229 Clouds 12 1016 87 10000 3.15 253 23:55 24.09.2021
6230 Clouds 13 1015 88 10000 3.96 250 21:49 24.09.2021
6231 Clouds 13 1015 88 10000 3.51 249 20:39 24.09.2021
6232 Clouds 13 1015 89 10000 2.97 242 19:48 24.09.2021
6233 Clouds 13 1015 88 10000 3.28 252 18:34 24.09.2021
6234 Clouds 14 1015 89 10000 3.55 252 17:55 24.09.2021
6235 Clouds 14 1015 88 10000 3.55 252 17:37 24.09.2021
6236 Clouds 14 1015 88 10000 3.45 250 17:18 24.09.2021
6237 Clouds 13 1015 84 10000 3.89 249 14:31 24.09.2021
6238 Clouds 13 1016 86 10000 4.69 262 13:18 24.09.2021
6239 Clouds 12 1016 88 10000 4.69 262 12:40 24.09.2021
6240 Clouds 12 1016 89 10000 4.48 268 12:22 24.09.2021
6241 Clouds 11 1016 80 10000 4.72 273 10:27 24.09.2021
6242 Clouds 9 1016 86 10000 3.82 269 08:55 24.09.2021
6243 Clouds 8 1016 91 10000 3.54 269 07:38 24.09.2021
6244 Clouds 8 1016 93 10000 3.52 269 06:47 24.09.2021
6245 Clouds 8 1016 87 10000 4.16 273 04:58 24.09.2021
6246 Clouds 9 1015 91 10000 5.8 285 00:35 24.09.2021
6247 Clouds 11 1014 91 10000 6.08 292 22:35 23.09.2021
6248 Clouds 12 1014 91 10000 6.75 290 21:56 23.09.2021
6249 Clouds 13 1013 87 10000 7.45 280 20:36 23.09.2021
6250 Clouds 13 1013 80 10000 7.34 281 20:18 23.09.2021
6251 Clouds 14 1013 68 10000 7.21 264 18:22 23.09.2021
6252 Clouds 17 1014 56 10000 7.01 264 15:36 23.09.2021
6253 Clouds 17 1014 52 10000 7.19 263 14:59 23.09.2021
6254 Clouds 16 1015 55 10000 6.86 257 13:48 23.09.2021
6255 Clouds 15 1016 57 10000 6.58 252 13:22 23.09.2021
6256 Clouds 15 1016 57 10000 6.58 252 12:53 23.09.2021
6257 Clouds 14 1017 64 10000 6.35 249 12:22 23.09.2021
6258 Clouds 13 1017 64 10000 6.35 249 11:47 23.09.2021
6259 Clouds 11 1018 72 10000 4.5 240 10:27 23.09.2021
6260 Clouds 10 1018 72 10000 4.5 240 09:52 23.09.2021
6261 Clouds 7 1019 80 10000 3.64 234 08:31 23.09.2021
6262 Clouds 5 1022 92 10000 2.09 228 04:41 23.09.2021
6263 Clear 6 1025 92 10000 1.82 236 23:36 22.09.2021
6264 Clear 6 1025 92 10000 1.87 240 22:42 22.09.2021
6265 Clear 7 1025 92 10000 1.73 240 21:56 22.09.2021
6266 Clear 8 1025 92 10000 1.73 240 21:34 22.09.2021
6267 Clear 8 1025 92 10000 1.73 240 21:34 22.09.2021
6268 Clear 8 1025 92 10000 1.7 245 20:57 22.09.2021
6269 Clouds 10 1025 89 10000 1.58 258 19:33 22.09.2021
6270 Clouds 12 1025 83 10000 1.83 277 18:40 22.09.2021
6271 Clouds 14 1025 69 10000 2.46 289 17:48 22.09.2021
6272 Clouds 15 1025 62 10000 2.88 296 16:41 22.09.2021
6273 Clouds 15 1026 60 10000 3.05 301 15:38 22.09.2021
6274 Clouds 15 1027 60 10000 3.24 304 14:25 22.09.2021
6275 Clouds 12 1028 66 10000 2.54 296 12:20 22.09.2021
6276 Clouds 11 1028 73 10000 2.37 301 10:57 22.09.2021
6277 Clouds 9 1028 90 10000 2.48 304 09:29 22.09.2021
6278 Clouds 9 1028 90 10000 2.48 304 09:29 22.09.2021
6279 Clouds 8 1028 90 10000 2.48 304 08:31 22.09.2021
6280 Clouds 7 1028 93 10000 2.32 306 07:30 22.09.2021
6281 Clouds 7 1027 92 10000 3 309 06:19 22.09.2021
6282 Clouds 8 1027 92 10000 3 309 05:38 22.09.2021
6283 Clouds 8 1027 93 10000 2.81 309 03:53 22.09.2021
6284 Clouds 8 1027 91 10000 2.8 298 02:43 22.09.2021
6285 Clouds 9 1028 86 10000 3.33 285 23:30 21.09.2021
6286 Clouds 9 1028 77 10000 3.06 269 21:38 21.09.2021
6287 Clouds 9 1029 80 10000 2.2 268 20:27 21.09.2021
6288 Clouds 9 1028 75 10000 2.38 268 19:24 21.09.2021
6289 Clouds 11 1028 69 10000 2.44 279 17:59 21.09.2021
6290 Clouds 11 1028 65 10000 2.63 277 16:40 21.09.2021
6291 Clouds 11 1028 63 10000 2.25 289 15:56 21.09.2021
6292 Clouds 11 1028 65 10000 2.23 295 14:58 21.09.2021
6293 Clouds 11 1028 55 10000 2.77 329 13:57 21.09.2021
6294 Clouds 12 1028 55 10000 2.77 329 13:39 21.09.2021
6295 Clouds 11 1028 54 10000 2.79 327 12:44 21.09.2021
6296 Clouds 6 1028 57 10000 2.18 323 10:39 21.09.2021
6297 Clouds 4 1028 76 10000 1.04 328 08:45 21.09.2021
6298 Clouds 3 1028 84 10000 0.92 333 07:37 21.09.2021
6299 Clouds 5 1026 75 10000 0.45 359 01:53 21.09.2021
6300 Clouds 5 1026 75 10000 0.45 359 01:53 21.09.2021
6301 Clouds 7 1026 75 10000 1.14 39 22:50 20.09.2021
6302 Clouds 7 1025 74 10000 1.12 45 21:43 20.09.2021
6303 Clouds 8 1025 72 10000 1.3 56 21:24 20.09.2021
6304 Clouds 8 1024 73 10000 1.66 55 19:47 20.09.2021
6305 Clouds 9 1023 62 10000 2.53 54 17:54 20.09.2021
6306 Clouds 10 1022 58 10000 2.69 54 16:58 20.09.2021
6307 Clouds 10 1022 56 10000 2.59 61 16:23 20.09.2021
6308 Clouds 10 1022 56 10000 2.59 61 15:36 20.09.2021
6309 Clouds 10 1021 52 10000 2.83 61 14:27 20.09.2021
6310 Clouds 10 1021 53 10000 2.89 61 12:44 20.09.2021
6311 Clouds 9 1021 54 10000 2.98 65 12:22 20.09.2021
6312 Clouds 9 1021 56 10000 3.11 66 10:52 20.09.2021
6313 Clouds 8 1021 59 10000 3.12 67 09:51 20.09.2021
6314 Clouds 8 1021 59 10000 3.12 67 09:31 20.09.2021
6315 Clouds 7 1021 62 10000 2.81 65 08:35 20.09.2021
6316 Clouds 6 1020 81 10000 1.99 55 06:22 20.09.2021
6317 Clouds 6 1020 81 10000 1.99 55 06:22 20.09.2021
6318 Clouds 6 1020 81 10000 1.99 55 06:22 20.09.2021
6319 Clouds 7 1019 84 10000 1.46 67 22:58 19.09.2021
6320 Clouds 7 1019 84 10000 1.36 67 21:50 19.09.2021
6321 Clouds 7 1019 84 10000 1.29 67 21:19 19.09.2021
6322 Clouds 8 1018 82 10000 1.97 61 19:59 19.09.2021
6323 Clouds 8 1017 74 10000 2.54 60 18:53 19.09.2021
6324 Clouds 8 1017 74 10000 2.54 60 18:53 19.09.2021
6325 Clouds 9 1017 65 10000 3.18 66 17:49 19.09.2021
6326 Clouds 10 1017 60 10000 3.22 71 16:35 19.09.2021
6327 Clouds 10 1017 58 10000 3.31 71 15:32 19.09.2021
6328 Clouds 9 1017 58 10000 3.4 73 14:49 19.09.2021
6329 Clouds 10 1017 57 10000 3.43 77 13:57 19.09.2021
6330 Clouds 10 1018 60 10000 3.56 81 12:56 19.09.2021
6331 Clouds 9 1018 64 10000 3.94 83 12:18 19.09.2021
6332 Clouds 9 1018 67 10000 4.17 83 11:23 19.09.2021
6333 Clouds 8 1018 72 10000 4.01 82 09:52 19.09.2021
6334 Clouds 8 1018 79 10000 2.86 78 09:23 19.09.2021
6335 Clouds 6 1018 90 10000 2.06 85 06:49 19.09.2021
6336 Clouds 9 1018 95 10000 2.28 82 01:36 19.09.2021
6337 Clouds 10 1018 94 10000 2.27 64 23:19 18.09.2021
6338 Clouds 10 1018 91 10000 2.17 66 21:56 18.09.2021
6339 Clouds 10 1018 95 10000 2.17 64 20:47 18.09.2021
6340 Clouds 10 1017 95 10000 2.05 51 19:58 18.09.2021
6341 Clouds 11 1017 95 10000 2.05 51 19:36 18.09.2021
6342 Clouds 11 1017 90 10000 1.93 36 19:18 18.09.2021
6343 Clouds 11 1017 90 10000 1.93 36 18:30 18.09.2021
6344 Clouds 12 1016 75 10000 1.83 22 16:35 18.09.2021
6345 Clouds 12 1017 73 10000 2.33 5 13:59 18.09.2021
6346 Clouds 11 1017 73 10000 2.33 5 13:31 18.09.2021
6347 Clouds 11 1017 71 10000 2.25 0 12:52 18.09.2021
6348 Clouds 10 1017 72 10000 1.82 350 12:18 18.09.2021
6349 Clouds 10 1017 72 10000 1.82 350 11:30 18.09.2021
6350 Clouds 9 1017 75 10000 1.73 336 10:30 18.09.2021
6351 Clouds 9 1017 75 10000 1.73 336 10:30 18.09.2021
6352 Clouds 8 1017 84 10000 1.53 317 09:23 18.09.2021
6353 Clear 7 1017 91 10000 1.31 305 08:25 18.09.2021
6354 Clouds 8 1016 95 10000 1.3 287 00:53 18.09.2021
6355 Clouds 9 1016 94 10000 1.22 285 23:56 17.09.2021
6356 Clouds 8 1016 89 10000 1.29 288 22:48 17.09.2021
6357 Clouds 9 1015 86 10000 1.44 288 22:23 17.09.2021
6358 Clouds 10 1015 86 10000 1.44 288 21:32 17.09.2021
6359 Clouds 11 1015 80 10000 1.85 333 19:34 17.09.2021
6360 Clouds 12 1014 79 10000 2.6 332 18:40 17.09.2021
6361 Clouds 13 1014 78 10000 3.31 319 16:35 17.09.2021
6362 Clouds 13 1014 73 10000 4.45 305 15:21 17.09.2021
6363 Clouds 12 1016 88 10000 3.22 296 11:51 17.09.2021
6364 Clouds 11 1015 93 10000 2.85 287 10:21 17.09.2021
6365 Clouds 9 1015 93 10000 3.31 286 07:46 17.09.2021
6366 Clouds 9 1015 95 6871 3.46 279 05:27 17.09.2021
6367 Clouds 10 1016 94 10000 3 275 00:32 17.09.2021
6368 Clouds 11 1016 93 10000 3.28 282 22:42 16.09.2021
6369 Clouds 11 1016 91 10000 3.31 285 22:23 16.09.2021
6370 Clouds 11 1016 91 10000 3.31 285 21:35 16.09.2021
6371 Clouds 11 1015 93 10000 3.3 288 20:29 16.09.2021
6372 Clouds 11 1015 90 10000 3.55 287 18:52 16.09.2021
6373 Clouds 12 1015 86 10000 3.89 285 18:18 16.09.2021
6374 Clouds 14 1015 81 10000 4.46 287 16:37 16.09.2021
6375 Clouds 13 1015 80 10000 4.67 273 14:49 16.09.2021
6376 Clouds 13 1015 86 10000 4.23 267 13:33 16.09.2021
6377 Clouds 12 1015 89 10000 3.43 259 12:42 16.09.2021
6378 Clouds 12 1015 85 10000 3.69 260 11:49 16.09.2021
6379 Clouds 12 1015 86 10000 3.65 256 10:54 16.09.2021
6380 Clouds 12 1015 89 10000 3.53 259 10:21 16.09.2021
6381 Clouds 11 1014 88 10000 3.89 264 09:20 16.09.2021
6382 Clouds 10 1014 92 10000 3.48 265 07:48 16.09.2021
6383 Clouds 10 1014 92 10000 3.71 267 06:56 16.09.2021
6384 Clouds 10 1014 92 10000 3.71 267 06:38 16.09.2021
6385 Clouds 12 1012 96 10000 2.75 270 03:22 16.09.2021
6386 Clouds 13 1012 97 10000 3 272 00:49 16.09.2021
6387 Clouds 14 1011 97 10000 2.73 259 23:26 15.09.2021
6388 Clouds 14 1011 97 8818 2.64 242 22:28 15.09.2021
6389 Clouds 14 1011 97 8818 2.64 242 21:31 15.09.2021
6390 Clouds 15 1011 97 9723 2.91 236 20:34 15.09.2021
6391 Clouds 15 1011 97 5444 2.68 222 19:33 15.09.2021
6392 Clouds 17 1010 96 10000 2.49 214 18:41 15.09.2021
6393 Clouds 17 1011 96 10000 1.87 208 17:39 15.09.2021
6394 Clouds 17 1011 96 10000 1.87 208 17:39 15.09.2021
6395 Clouds 17 1011 96 10000 1.49 208 16:30 15.09.2021
6396 Clouds 17 1011 93 10000 2.12 207 15:22 15.09.2021
6397 Rain 17 1011 93 10000 2.12 207 14:41 15.09.2021
6398 Rain 18 1011 92 10000 2.15 209 13:45 15.09.2021
6399 Rain 18 1012 94 10000 1.73 205 13:27 15.09.2021
6400 Rain 17 1012 94 10000 1.73 205 12:33 15.09.2021
6401 Clouds 17 1012 91 10000 2.05 210 11:50 15.09.2021
6402 Clouds 16 1012 84 10000 2.95 198 10:57 15.09.2021
6403 Clouds 16 1012 84 10000 2.95 198 10:30 15.09.2021
6404 Clouds 14 1012 79 10000 1.77 181 08:47 15.09.2021
6405 Clouds 13 1012 87 10000 1.39 157 07:26 15.09.2021
6406 Clouds 14 1014 79 10000 1.78 158 00:55 15.09.2021
6407 Clouds 14 1015 84 10000 2.25 124 22:24 14.09.2021
6408 Clouds 14 1015 85 10000 2.12 126 21:21 14.09.2021
6409 Clouds 14 1015 85 10000 2.12 126 21:21 14.09.2021
6410 Clouds 15 1015 83 10000 2.08 120 20:18 14.09.2021
6411 Clouds 18 1015 77 10000 1.55 128 18:57 14.09.2021
6412 Clouds 20 1015 66 10000 1.86 147 17:33 14.09.2021
6413 Clouds 20 1015 60 10000 2.29 161 16:37 14.09.2021
6414 Clouds 20 1015 55 10000 2.37 153 14:32 14.09.2021
6415 Clouds 19 1016 56 10000 2.04 154 13:53 14.09.2021
6416 Clear 16 1016 60 10000 1.66 147 11:46 14.09.2021
6417 Clear 13 1017 70 10000 1.88 131 10:25 14.09.2021
6418 Clear 13 1017 70 10000 1.88 131 09:48 14.09.2021
6419 Clouds 6 1017 88 10000 1.35 139 07:50 14.09.2021
6420 Clouds 7 1019 90 10000 1.26 123 01:28 14.09.2021
6421 Clouds 8 1019 89 10000 1.11 103 23:27 13.09.2021
6422 Clouds 9 1019 88 10000 1.19 88 22:27 13.09.2021
6423 Clouds 10 1019 88 10000 1.19 88 21:55 13.09.2021
6424 Clouds 10 1019 88 10000 1.19 88 21:32 13.09.2021
6425 Clouds 12 1018 83 10000 1.27 49 19:35 13.09.2021
6426 Clouds 14 1018 76 10000 0.83 12 18:44 13.09.2021
6427 Clouds 15 1017 56 10000 0.95 319 17:27 13.09.2021
6428 Clouds 15 1017 56 10000 0.95 319 16:49 13.09.2021
6429 Clouds 16 1018 53 10000 1.33 307 14:43 13.09.2021
6430 Clouds 13 1019 65 10000 2.35 285 11:43 13.09.2021
6431 Clouds 12 1019 71 10000 1.99 270 10:40 13.09.2021
6432 Clouds 8 1018 91 10000 1.05 257 07:58 13.09.2021
6433 Clouds 9 1018 90 10000 1.4 235 00:29 13.09.2021
6434 Clouds 10 1018 91 10000 1.29 234 22:43 12.09.2021
6435 Clouds 11 1018 92 10000 1.14 244 22:21 12.09.2021
6436 Clouds 12 1017 92 10000 1.23 250 20:47 12.09.2021
6437 Clouds 13 1017 87 10000 1.41 264 19:58 12.09.2021
6438 Clouds 14 1016 82 10000 1.45 271 19:29 12.09.2021
6439 Clouds 15 1016 82 10000 1.45 271 18:55 12.09.2021
6440 Clouds 17 1016 76 10000 2.7 276 17:18 12.09.2021
6441 Clouds 17 1017 72 10000 3.09 273 15:54 12.09.2021
6442 Clouds 16 1017 71 10000 3.42 270 14:38 12.09.2021
6443 Clouds 15 1017 77 10000 2.92 266 12:39 12.09.2021
6444 Clouds 14 1018 90 10000 2.61 258 10:21 12.09.2021
6445 Clouds 12 1017 94 7339 2.32 246 08:39 12.09.2021
6446 Clouds 12 1017 96 7831 1.96 235 04:59 12.09.2021
6447 Clouds 10 1018 93 10000 1.91 234 00:47 12.09.2021
6448 Clouds 11 1018 91 10000 1.43 228 22:35 11.09.2021
6449 Clouds 11 1018 90 10000 1.22 235 21:38 11.09.2021
6450 Clouds 15 1016 89 10000 1.63 258 19:35 11.09.2021
6451 Clouds 17 1016 71 10000 2.67 273 17:56 11.09.2021
6452 Clouds 18 1016 70 10000 3.62 273 17:21 11.09.2021
6453 Clouds 18 1016 84 10000 2.22 252 15:24 11.09.2021
6454 Clouds 17 1016 77 10000 3.64 257 13:22 11.09.2021
6455 Clouds 17 1016 76 10000 3.69 252 11:40 11.09.2021
6456 Clouds 15 1016 81 10000 2.93 246 09:50 11.09.2021
6457 Clouds 13 1016 90 10000 2.56 244 08:31 11.09.2021
6458 Clouds 13 1016 96 8382 1.84 235 07:34 11.09.2021
6459 Clouds 13 1015 94 10000 1.63 232 02:29 11.09.2021
6460 Clouds 14 1015 92 10000 1.59 217 22:28 10.09.2021
6461 Clouds 15 1015 92 10000 1.59 217 21:56 10.09.2021
6462 Clouds 15 1015 92 10000 1.59 217 21:35 10.09.2021
6463 Clouds 17 1014 84 10000 1.81 240 18:47 10.09.2021
6464 Clouds 18 1013 76 10000 2.88 242 17:42 10.09.2021
6465 Clouds 18 1013 66 10000 3.11 231 15:50 10.09.2021
6466 Clouds 20 1014 69 10000 3.77 228 13:20 10.09.2021
6467 Clouds 18 1014 73 10000 3 222 10:32 10.09.2021
6468 Clouds 14 1013 92 10000 1.59 209 07:52 10.09.2021
6469 Clouds 13 1013 96 10000 1.7 236 05:23 10.09.2021
6470 Clouds 16 1012 86 10000 1.53 201 23:59 09.09.2021
6471 Clear 16 1012 86 10000 1.39 174 21:48 09.09.2021
6472 Clear 16 1011 85 10000 1.67 170 20:47 09.09.2021
6473 Clouds 17 1011 81 10000 1.96 168 20:24 09.09.2021
6474 Clear 22 1011 77 10000 2.06 169 18:41 09.09.2021
6475 Clear 22 1011 66 10000 2.4 184 17:41 09.09.2021
6476 Clear 24 1011 56 10000 3.45 206 16:27 09.09.2021
6477 Clear 22 1012 50 10000 3.35 206 13:38 09.09.2021
6478 Clear 20 1012 52 10000 2.29 192 11:57 09.09.2021
6479 Clear 18 1012 54 10000 2.11 172 11:22 09.09.2021
6480 Clear 18 1012 54 10000 2.11 172 11:22 09.09.2021
6481 Clear 15 1013 58 10000 1.8 158 09:34 09.09.2021
6482 Clear 11 1013 71 10000 1.49 150 07:43 09.09.2021
6483 Clear 7 1013 71 10000 1.3 138 05:40 09.09.2021
6484 Clouds 11 1016 77 10000 1.87 110 23:55 08.09.2021
6485 Clouds 13 1016 80 10000 1.69 103 21:48 08.09.2021
6486 Clouds 14 1016 81 10000 1.69 103 20:48 08.09.2021
6487 Clouds 17 1016 77 10000 2.13 107 19:46 08.09.2021
6488 Clouds 19 1016 68 10000 2.18 113 18:47 08.09.2021
6489 Clouds 21 1017 57 10000 2.6 126 18:25 08.09.2021
6490 Clouds 20 1017 57 10000 2.6 126 17:40 08.09.2021
6491 Clouds 22 1017 45 10000 2.53 132 15:35 08.09.2021
6492 Clouds 20 1018 42 10000 2.01 134 13:33 08.09.2021
6493 Clouds 19 1019 44 10000 1.95 131 12:41 08.09.2021
6494 Clouds 18 1019 47 10000 1.83 134 12:23 08.09.2021
6495 Clouds 17 1020 51 10000 1.61 132 11:26 08.09.2021
6496 Clouds 16 1020 51 10000 1.61 132 10:31 08.09.2021
6497 Clouds 14 1020 57 10000 1.54 128 09:55 08.09.2021
6498 Clear 7 1021 78 10000 1.25 132 07:45 08.09.2021
6499 Clear 7 1021 78 10000 1.25 132 07:45 08.09.2021
6500 Clear 6 1021 85 10000 1.4 131 07:19 08.09.2021
6501 Clouds 9 1023 82 10000 1.1 117 23:28 07.09.2021
6502 Clouds 10 1024 82 10000 1.1 114 22:19 07.09.2021
6503 Clouds 12 1024 82 10000 1.35 104 20:42 07.09.2021
6504 Clouds 17 1023 71 10000 1.35 76 18:53 07.09.2021
6505 Clouds 18 1023 61 10000 1.16 57 18:28 07.09.2021
6506 Clouds 18 1023 61 10000 1.16 57 17:35 07.09.2021
6507 Clouds 18 1023 50 10000 1.01 16 15:57 07.09.2021
6508 Clouds 18 1023 49 10000 0.96 11 14:53 07.09.2021
6509 Clouds 18 1024 49 10000 0.86 339 13:52 07.09.2021
6510 Clouds 16 1024 53 10000 0.57 8 11:58 07.09.2021
6511 Clouds 14 1024 57 10000 0.46 17 10:50 07.09.2021
6512 Clouds 14 1025 63 10000 0.73 13 10:18 07.09.2021
6513 Clouds 9 1024 75 10000 0.66 20 07:47 07.09.2021
6514 Clouds 8 1024 75 10000 0.76 339 06:20 07.09.2021
6515 Clouds 10 1024 69 10000 0.66 329 02:39 07.09.2021
6516 Clouds 10 1025 68 10000 0.76 314 01:57 07.09.2021
6517 Clouds 10 1025 72 10000 0.85 333 23:52 06.09.2021
6518 Clouds 10 1025 72 10000 0.85 333 23:31 06.09.2021
6519 Clouds 11 1025 71 10000 0.37 326 22:51 06.09.2021
6520 Clouds 11 1025 73 10000 0.86 357 22:21 06.09.2021
6521 Clouds 13 1025 73 10000 1.26 0 20:35 06.09.2021
6522 Clouds 15 1023 69 10000 1.37 354 19:19 06.09.2021
6523 Clouds 16 1023 69 10000 1.37 354 18:36 06.09.2021
6524 Clouds 17 1023 60 10000 1.94 339 17:52 06.09.2021
6525 Clouds 18 1023 47 10000 2.5 292 16:23 06.09.2021
6526 Clear 19 1023 47 10000 2.74 281 15:25 06.09.2021
6527 Clouds 17 1023 49 10000 2.37 275 13:44 06.09.2021
6528 Clouds 17 1023 54 10000 2.03 282 12:45 06.09.2021
6529 Clouds 13 1023 61 10000 1.2 269 10:37 06.09.2021
6530 Clear 11 1023 78 10000 0.41 283 07:48 06.09.2021
6531 Clear 5 1023 83 10000 0.46 165 04:36 06.09.2021
6532 Clear 7 1023 88 10000 0.84 136 23:24 05.09.2021
6533 Clear 8 1023 88 10000 0.84 136 22:33 05.09.2021
6534 Clear 8 1023 87 10000 1.06 117 21:56 05.09.2021
6535 Clear 9 1023 85 10000 1.34 98 21:21 05.09.2021
6536 Clear 12 1022 80 10000 1.32 71 19:47 05.09.2021
6537 Clear 14 1022 71 10000 0.91 46 18:32 05.09.2021
6538 Clear 16 1021 53 10000 0.41 353 16:53 05.09.2021
6539 Clear 16 1021 50 10000 0.37 264 15:24 05.09.2021
6540 Clear 15 1021 49 10000 0.32 199 13:40 05.09.2021
6541 Clear 13 1022 55 10000 0.76 127 11:45 05.09.2021
6542 Clear 11 1022 60 10000 0.94 120 10:46 05.09.2021
6543 Clear 10 1021 67 10000 1.08 110 10:22 05.09.2021
6544 Clear 7 1021 76 10000 1.05 96 08:37 05.09.2021
6545 Clear 3 1021 94 10000 0.82 107 06:45 05.09.2021
6546 Clear 5 1021 93 10000 1.1 93 00:46 05.09.2021
6547 Clear 6 1021 93 10000 1.23 89 23:59 04.09.2021
6548 Clear 7 1021 92 10000 1.19 93 23:29 04.09.2021
6549 Clear 7 1021 92 10000 1.19 93 22:35 04.09.2021
6550 Clear 8 1020 92 10000 1.19 89 21:44 04.09.2021
6551 Clear 12 1018 82 10000 1.55 46 19:40 04.09.2021
6552 Clear 14 1017 58 10000 1.5 6 17:43 04.09.2021
6553 Clear 15 1017 50 10000 1.36 327 15:52 04.09.2021
6554 Clear 12 1018 50 10000 0.79 312 12:22 04.09.2021
6555 Clear 13 1019 55 10000 0.78 322 11:18 04.09.2021
6556 Clear 8 1018 73 10000 0.88 345 08:46 04.09.2021
6557 Clear 9 1019 88 10000 0.37 335 01:59 04.09.2021
6558 Clear 9 1019 85 10000 0.92 2 00:23 04.09.2021
6559 Clear 9 1020 83 10000 1.07 3 23:23 03.09.2021
6560 Clear 10 1020 82 10000 1.15 0 21:53 03.09.2021
6561 Clear 11 1020 82 10000 1.15 0 21:30 03.09.2021
6562 Clear 13 1019 83 10000 1.24 357 20:35 03.09.2021
6563 Clear 15 1019 78 10000 1.51 349 19:45 03.09.2021
6564 Clear 17 1019 69 10000 1.89 341 18:52 03.09.2021
6565 Clear 19 1019 57 10000 2.55 326 17:32 03.09.2021
6566 Clear 19 1019 49 10000 2.77 312 16:22 03.09.2021
6567 Clear 19 1020 48 10000 2.56 304 14:47 03.09.2021
6568 Clear 19 1020 48 10000 2.56 304 14:47 03.09.2021
6569 Clear 15 1021 56 10000 2.17 287 11:47 03.09.2021
6570 Clear 12 1022 69 10000 1.54 270 10:22 03.09.2021
6571 Clear 10 1022 76 10000 1.22 255 08:38 03.09.2021
6572 Clear 7 1022 85 10000 0.88 241 07:37 03.09.2021
6573 Clear 9 1025 92 10000 1.08 160 00:24 03.09.2021
6574 Clear 9 1025 92 10000 1.08 160 00:24 03.09.2021
6575 Clear 9 1026 92 10000 0.93 135 22:43 02.09.2021
6576 Clouds 11 1025 88 10000 0.99 104 21:19 02.09.2021
6577 Clouds 15 1025 73 10000 0.68 54 19:24 02.09.2021
6578 Clouds 17 1025 69 10000 0.56 64 17:30 02.09.2021
6579 Clouds 16 1026 65 10000 0.72 46 15:48 02.09.2021
6580 Clouds 15 1026 58 10000 0.23 22 13:51 02.09.2021
6581 Clouds 14 1027 64 10000 0.3 289 12:21 02.09.2021
6582 Clouds 14 1027 64 10000 0.3 289 11:33 02.09.2021
6583 Clear 11 1027 75 10000 0.65 257 09:38 02.09.2021
6584 Clear 8 1027 90 10000 0.23 354 07:45 02.09.2021
6585 Clear 7 1027 95 10000 0.59 359 06:57 02.09.2021
6586 Clear 8 1027 94 10000 0.96 337 02:44 02.09.2021
6587 Clear 8 1027 90 10000 0.77 328 01:53 02.09.2021
6588 Clear 9 1028 89 10000 0.7 324 01:19 02.09.2021
6589 Clear 10 1027 89 10000 0.66 318 23:35 01.09.2021
6590 Clear 10 1027 89 10000 0.67 313 22:34 01.09.2021
6591 Clear 10 1027 89 10000 0.61 295 21:34 01.09.2021
6592 Clouds 13 1026 84 10000 0.96 294 19:59 01.09.2021
6593 Clouds 16 1026 66 10000 1.73 1 17:58 01.09.2021
6594 Clouds 16 1026 66 10000 1.73 1 17:35 01.09.2021
6595 Clouds 17 1026 64 10000 2.4 3 16:46 01.09.2021
6596 Clouds 15 1026 60 10000 1.9 338 15:24 01.09.2021
6597 Clouds 12 1027 69 10000 2.06 312 11:49 01.09.2021
6598 Clouds 11 1027 79 10000 2.03 302 10:55 01.09.2021
6599 Clouds 9 1026 89 10000 2.19 308 08:46 01.09.2021
6600 Clouds 9 1026 93 10000 2 305 07:50 01.09.2021
6601 Clouds 10 1025 92 10000 0.96 315 00:50 01.09.2021
6602 Clouds 10 1024 86 10000 1.01 333 22:30 31.08.2021
6603 Clouds 12 1023 81 10000 1.13 356 20:57 31.08.2021
6604 Clouds 14 1022 79 10000 1.36 12 19:44 31.08.2021
6605 Clouds 16 1022 60 10000 3.21 1 18:27 31.08.2021
6606 Clouds 17 1022 60 10000 3.21 1 17:34 31.08.2021
6607 Clouds 17 1022 54 10000 3.87 357 16:52 31.08.2021
6608 Clouds 17 1022 52 10000 4.46 354 16:23 31.08.2021
6609 Clouds 16 1022 63 10000 4.93 346 12:57 31.08.2021
6610 Clouds 13 1022 78 10000 4.14 336 11:26 31.08.2021
6611 Clouds 12 1022 78 10000 4.14 336 10:52 31.08.2021
6612 Clouds 10 1021 83 10000 3.48 333 09:44 31.08.2021
6613 Clouds 10 1021 90 10000 2.95 319 08:37 31.08.2021
6614 Clouds 9 1021 98 10000 1.77 338 05:58 31.08.2021
6615 Clouds 9 1020 97 8728 2.31 342 01:36 31.08.2021
6616 Clouds 10 1019 96 10000 2.64 356 23:35 30.08.2021
6617 Clouds 11 1019 96 10000 3.11 8 21:43 30.08.2021
6618 Clouds 11 1019 96 10000 3.17 12 20:42 30.08.2021
6619 Clouds 12 1018 95 10000 3.55 14 20:18 30.08.2021
6620 Clouds 12 1017 93 10000 3.59 15 19:29 30.08.2021
6621 Rain 13 1017 93 10000 3.59 15 18:30 30.08.2021
6622 Clouds 13 1017 91 10000 3.62 14 17:44 30.08.2021
6623 Clouds 13 1017 89 10000 3.46 8 16:19 30.08.2021
6624 Clouds 12 1017 93 3356 3.19 7 14:51 30.08.2021
6625 Rain 13 1016 95 1980 3.6 9 13:28 30.08.2021
6626 Rain 12 1016 97 1914 3.52 10 12:24 30.08.2021
6627 Rain 11 1015 98 1950 4.18 3 08:27 30.08.2021
6628 Rain 11 1015 98 1977 4.78 12 22:26 29.08.2021
6629 Clouds 11 1015 98 1977 4.78 12 21:32 29.08.2021
6630 Clouds 11 1015 98 1977 4.78 12 21:32 29.08.2021
6631 Rain 12 1015 99 987 1.67 322 19:33 29.08.2021
6632 Rain 12 1015 98 3613 1.51 322 18:48 29.08.2021
6633 Clouds 13 1015 97 4709 1.71 327 17:42 29.08.2021
6634 Rain 12 1015 98 3886 1.29 321 15:47 29.08.2021
6635 Clouds 11 1015 98 3351 1.44 308 14:18 29.08.2021
6636 Clouds 11 1015 98 2074 1.19 320 13:28 29.08.2021
6637 Clouds 10 1015 98 2074 1.19 320 12:31 29.08.2021
6638 Clouds 10 1015 98 1953 1.12 322 11:45 29.08.2021
6639 Clouds 10 1015 99 2023 1.07 328 10:52 29.08.2021
6640 Clouds 10 1015 99 2023 1.07 328 10:32 29.08.2021
6641 Clouds 9 1015 96 683 1.26 343 09:50 29.08.2021
6642 Clouds 9 1015 99 271 1.72 333 06:41 29.08.2021
6643 Rain 10 1017 99 175 1.31 321 23:48 28.08.2021
6644 Rain 10 1017 99 2626 1.87 331 20:52 28.08.2021
6645 Rain 11 1016 98 10000 2.04 331 19:53 28.08.2021
6646 Clouds 11 1016 86 10000 2.24 326 18:27 28.08.2021
6647 Clouds 11 1016 86 10000 2.24 32